<?xml version="1.0" encoding="UTF-8" standalone="no" ?>
<gpx xmlns="http://www.topografix.com/GPX/1/1" xmlns:xsi="http://www.w3.org/2001/XMLSchema-instance" xsi:schemaLocation="http://www.topografix.com/GPX/1/1 http://www.topografix.com/GPX/1/1/gpx.xsd" version="1.1" creator="VisuGPX - https://www.visugpx.com">
  <metadata>
    <name>Rando VTT XC Team 03/09/2017</name>
    <desc><![CDATA[Pas mal de dénivelé pour un très beau parcours.]]></desc>
  </metadata>
  <trk>
    <name><![CDATA[Tracé 3 sept. 2017 09:19:13]]></name>
    <trkseg>
      <trkpt lat="50.48389" lon="2.66205">
        <ele>53.0644474</ele>
        <time>2017-09-03T07:19:13Z</time>
      </trkpt>
      <trkpt lat="50.48364" lon="2.6621">
        <ele>73.06545328</ele>
        <time>2017-09-03T07:19:17Z</time>
      </trkpt>
      <trkpt lat="50.48369" lon="2.66207">
        <ele>75.06523768</ele>
        <time>2017-09-03T07:19:22Z</time>
      </trkpt>
      <trkpt lat="50.48378" lon="2.66196">
        <ele>58.06489116</ele>
        <time>2017-09-03T07:19:27Z</time>
      </trkpt>
      <trkpt lat="50.48383" lon="2.66197">
        <ele>52.06468272</ele>
        <time>2017-09-03T07:20:13Z</time>
      </trkpt>
      <trkpt lat="50.48386" lon="2.66185">
        <ele>32.06455668</ele>
        <time>2017-09-03T07:20:18Z</time>
      </trkpt>
      <trkpt lat="50.48394" lon="2.66185">
        <ele>30.06424792</ele>
        <time>2017-09-03T07:20:29Z</time>
      </trkpt>
      <trkpt lat="50.48387" lon="2.6619">
        <ele>30.06452428</ele>
        <time>2017-09-03T07:20:37Z</time>
      </trkpt>
      <trkpt lat="50.4838" lon="2.66173">
        <ele>27.06481088</ele>
        <time>2017-09-03T07:20:42Z</time>
      </trkpt>
      <trkpt lat="50.4837" lon="2.66167">
        <ele>28.0652174</ele>
        <time>2017-09-03T07:20:45Z</time>
      </trkpt>
      <trkpt lat="50.48358" lon="2.66163">
        <ele>30.06569356</ele>
        <time>2017-09-03T07:20:49Z</time>
      </trkpt>
      <trkpt lat="50.48354" lon="2.66152">
        <ele>33.06586064</ele>
        <time>2017-09-03T07:20:56Z</time>
      </trkpt>
      <trkpt lat="50.48358" lon="2.6616">
        <ele>29.06566576</ele>
        <time>2017-09-03T07:21:10Z</time>
      </trkpt>
      <trkpt lat="50.48372" lon="2.66169">
        <ele>29.0651376</ele>
        <time>2017-09-03T07:21:15Z</time>
      </trkpt>
      <trkpt lat="50.48383" lon="2.66175">
        <ele>32.06468452</ele>
        <time>2017-09-03T07:21:19Z</time>
      </trkpt>
      <trkpt lat="50.48387" lon="2.66183">
        <ele>34.06452772</ele>
        <time>2017-09-03T07:22:01Z</time>
      </trkpt>
      <trkpt lat="50.48387" lon="2.66197">
        <ele>32.06450788</ele>
        <time>2017-09-03T07:22:08Z</time>
      </trkpt>
      <trkpt lat="50.48387" lon="2.66218">
        <ele>33.06450316</ele>
        <time>2017-09-03T07:22:13Z</time>
      </trkpt>
      <trkpt lat="50.48394" lon="2.66239">
        <ele>33.0642596</ele>
        <time>2017-09-03T07:22:17Z</time>
      </trkpt>
      <trkpt lat="50.48386" lon="2.66277">
        <ele>31.06457692</ele>
        <time>2017-09-03T07:22:22Z</time>
      </trkpt>
      <trkpt lat="50.48373" lon="2.66313">
        <ele>30.06506584</ele>
        <time>2017-09-03T07:22:27Z</time>
      </trkpt>
      <trkpt lat="50.48365" lon="2.66342">
        <ele>29.0654012</ele>
        <time>2017-09-03T07:22:31Z</time>
      </trkpt>
      <trkpt lat="50.48355" lon="2.6638">
        <ele>27.06578392</ele>
        <time>2017-09-03T07:22:36Z</time>
      </trkpt>
      <trkpt lat="50.48349" lon="2.66407">
        <ele>25.06604536</ele>
        <time>2017-09-03T07:22:40Z</time>
      </trkpt>
      <trkpt lat="50.48342" lon="2.6643">
        <ele>24.06632632</ele>
        <time>2017-09-03T07:22:44Z</time>
      </trkpt>
      <trkpt lat="50.48339" lon="2.66444">
        <ele>23.06642468</ele>
        <time>2017-09-03T07:22:49Z</time>
      </trkpt>
      <trkpt lat="50.48333" lon="2.66454">
        <ele>31.06667832</ele>
        <time>2017-09-03T07:23:08Z</time>
      </trkpt>
      <trkpt lat="50.48322" lon="2.66486">
        <ele>31.06712452</ele>
        <time>2017-09-03T07:23:13Z</time>
      </trkpt>
      <trkpt lat="50.48314" lon="2.66508">
        <ele>31.06743068</ele>
        <time>2017-09-03T07:23:16Z</time>
      </trkpt>
      <trkpt lat="50.48301" lon="2.66543">
        <ele>33.06797388</ele>
        <time>2017-09-03T07:23:21Z</time>
      </trkpt>
      <trkpt lat="50.48293" lon="2.66566">
        <ele>33.068275</ele>
        <time>2017-09-03T07:23:24Z</time>
      </trkpt>
      <trkpt lat="50.48284" lon="2.66599">
        <ele>33.06863068</ele>
        <time>2017-09-03T07:23:28Z</time>
      </trkpt>
      <trkpt lat="50.48275" lon="2.66628">
        <ele>35.06898404</ele>
        <time>2017-09-03T07:23:32Z</time>
      </trkpt>
      <trkpt lat="50.48262" lon="2.66666">
        <ele>33.06951872</ele>
        <time>2017-09-03T07:23:37Z</time>
      </trkpt>
      <trkpt lat="50.48252" lon="2.66697">
        <ele>32.0699312</ele>
        <time>2017-09-03T07:23:41Z</time>
      </trkpt>
      <trkpt lat="50.48242" lon="2.66733">
        <ele>33.07033732</ele>
        <time>2017-09-03T07:23:46Z</time>
      </trkpt>
      <trkpt lat="50.48234" lon="2.6675">
        <ele>34.07064936</ele>
        <time>2017-09-03T07:23:50Z</time>
      </trkpt>
      <trkpt lat="50.4823" lon="2.66768">
        <ele>35.07078628</ele>
        <time>2017-09-03T07:23:54Z</time>
      </trkpt>
      <trkpt lat="50.48224" lon="2.66801">
        <ele>33.0710502</ele>
        <time>2017-09-03T07:23:58Z</time>
      </trkpt>
      <trkpt lat="50.48213" lon="2.66841">
        <ele>33.07147872</ele>
        <time>2017-09-03T07:24:03Z</time>
      </trkpt>
      <trkpt lat="50.48202" lon="2.6688">
        <ele>31.07192432</ele>
        <time>2017-09-03T07:24:08Z</time>
      </trkpt>
      <trkpt lat="50.48193" lon="2.6691">
        <ele>31.07228068</ele>
        <time>2017-09-03T07:24:12Z</time>
      </trkpt>
      <trkpt lat="50.48184" lon="2.66942">
        <ele>31.07265436</ele>
        <time>2017-09-03T07:24:17Z</time>
      </trkpt>
      <trkpt lat="50.48184" lon="2.66973">
        <ele>30.07265752</ele>
        <time>2017-09-03T07:24:21Z</time>
      </trkpt>
      <trkpt lat="50.48173" lon="2.67004">
        <ele>32.07306796</ele>
        <time>2017-09-03T07:24:25Z</time>
      </trkpt>
      <trkpt lat="50.48158" lon="2.6704">
        <ele>33.07367604</ele>
        <time>2017-09-03T07:24:30Z</time>
      </trkpt>
      <trkpt lat="50.48148" lon="2.6707">
        <ele>34.07407876</ele>
        <time>2017-09-03T07:24:34Z</time>
      </trkpt>
      <trkpt lat="50.48138" lon="2.67099">
        <ele>33.07449988</ele>
        <time>2017-09-03T07:24:38Z</time>
      </trkpt>
      <trkpt lat="50.48126" lon="2.6713">
        <ele>35.07497056</ele>
        <time>2017-09-03T07:24:42Z</time>
      </trkpt>
      <trkpt lat="50.48114" lon="2.67167">
        <ele>36.07545988</ele>
        <time>2017-09-03T07:24:47Z</time>
      </trkpt>
      <trkpt lat="50.48104" lon="2.67196">
        <ele>37.07586044</ele>
        <time>2017-09-03T07:24:51Z</time>
      </trkpt>
      <trkpt lat="50.48089" lon="2.67231">
        <ele>37.07644728</ele>
        <time>2017-09-03T07:24:56Z</time>
      </trkpt>
      <trkpt lat="50.48079" lon="2.67263">
        <ele>36.07685548</ele>
        <time>2017-09-03T07:25:00Z</time>
      </trkpt>
      <trkpt lat="50.48065" lon="2.67296">
        <ele>36.07739684</ele>
        <time>2017-09-03T07:25:05Z</time>
      </trkpt>
      <trkpt lat="50.48047" lon="2.67286">
        <ele>37.07812284</ele>
        <time>2017-09-03T07:25:09Z</time>
      </trkpt>
      <trkpt lat="50.48022" lon="2.67265">
        <ele>38.0791396</ele>
        <time>2017-09-03T07:25:14Z</time>
      </trkpt>
      <trkpt lat="50.48001" lon="2.67245">
        <ele>41.07997156</ele>
        <time>2017-09-03T07:25:19Z</time>
      </trkpt>
      <trkpt lat="50.47989" lon="2.67234">
        <ele>40.08044772</ele>
        <time>2017-09-03T07:25:22Z</time>
      </trkpt>
      <trkpt lat="50.47972" lon="2.67217">
        <ele>39.08110928</ele>
        <time>2017-09-03T07:25:26Z</time>
      </trkpt>
      <trkpt lat="50.47952" lon="2.67198">
        <ele>40.08193832</ele>
        <time>2017-09-03T07:25:31Z</time>
      </trkpt>
      <trkpt lat="50.4793" lon="2.67181">
        <ele>41.08278388</ele>
        <time>2017-09-03T07:25:36Z</time>
      </trkpt>
      <trkpt lat="50.47915" lon="2.67173">
        <ele>40.08339136</ele>
        <time>2017-09-03T07:25:40Z</time>
      </trkpt>
      <trkpt lat="50.47902" lon="2.67163">
        <ele>39.08393328</ele>
        <time>2017-09-03T07:25:44Z</time>
      </trkpt>
      <trkpt lat="50.47893" lon="2.67184">
        <ele>42.08427788</ele>
        <time>2017-09-03T07:25:48Z</time>
      </trkpt>
      <trkpt lat="50.47885" lon="2.67214">
        <ele>42.08459004</ele>
        <time>2017-09-03T07:25:52Z</time>
      </trkpt>
      <trkpt lat="50.47879" lon="2.67246">
        <ele>42.08485664</ele>
        <time>2017-09-03T07:25:56Z</time>
      </trkpt>
      <trkpt lat="50.47874" lon="2.67268">
        <ele>43.08504644</ele>
        <time>2017-09-03T07:25:59Z</time>
      </trkpt>
      <trkpt lat="50.47867" lon="2.67301">
        <ele>43.0853184</ele>
        <time>2017-09-03T07:26:03Z</time>
      </trkpt>
      <trkpt lat="50.47859" lon="2.67335">
        <ele>43.08562924</ele>
        <time>2017-09-03T07:26:07Z</time>
      </trkpt>
      <trkpt lat="50.47853" lon="2.67374">
        <ele>41.08588284</ele>
        <time>2017-09-03T07:26:12Z</time>
      </trkpt>
      <trkpt lat="50.47845" lon="2.67406">
        <ele>42.08619968</ele>
        <time>2017-09-03T07:26:16Z</time>
      </trkpt>
      <trkpt lat="50.47838" lon="2.67438">
        <ele>42.0864904</ele>
        <time>2017-09-03T07:26:20Z</time>
      </trkpt>
      <trkpt lat="50.47829" lon="2.6747">
        <ele>43.08683832</ele>
        <time>2017-09-03T07:26:24Z</time>
      </trkpt>
      <trkpt lat="50.4782" lon="2.67503">
        <ele>43.08721832</ele>
        <time>2017-09-03T07:26:28Z</time>
      </trkpt>
      <trkpt lat="50.47811" lon="2.6754">
        <ele>44.08757296</ele>
        <time>2017-09-03T07:26:33Z</time>
      </trkpt>
      <trkpt lat="50.47803" lon="2.67571">
        <ele>44.08788344</ele>
        <time>2017-09-03T07:26:37Z</time>
      </trkpt>
      <trkpt lat="50.47784" lon="2.67568">
        <ele>45.08866064</ele>
        <time>2017-09-03T07:26:41Z</time>
      </trkpt>
      <trkpt lat="50.47767" lon="2.67555">
        <ele>46.0893088</ele>
        <time>2017-09-03T07:26:45Z</time>
      </trkpt>
      <trkpt lat="50.47746" lon="2.6754">
        <ele>46.0901616</ele>
        <time>2017-09-03T07:26:50Z</time>
      </trkpt>
      <trkpt lat="50.47728" lon="2.67528">
        <ele>48.09087112</ele>
        <time>2017-09-03T07:26:54Z</time>
      </trkpt>
      <trkpt lat="50.47707" lon="2.67512">
        <ele>48.0917206</ele>
        <time>2017-09-03T07:26:59Z</time>
      </trkpt>
      <trkpt lat="50.47694" lon="2.67492">
        <ele>49.09225176</ele>
        <time>2017-09-03T07:27:03Z</time>
      </trkpt>
      <trkpt lat="50.47677" lon="2.67471">
        <ele>48.09292228</ele>
        <time>2017-09-03T07:27:07Z</time>
      </trkpt>
      <trkpt lat="50.47654" lon="2.67456">
        <ele>47.09385268</ele>
        <time>2017-09-03T07:27:12Z</time>
      </trkpt>
      <trkpt lat="50.47631" lon="2.67441">
        <ele>46.09477484</ele>
        <time>2017-09-03T07:27:17Z</time>
      </trkpt>
      <trkpt lat="50.47609" lon="2.67426">
        <ele>47.0956306</ele>
        <time>2017-09-03T07:27:22Z</time>
      </trkpt>
      <trkpt lat="50.47595" lon="2.67415">
        <ele>49.09620828</ele>
        <time>2017-09-03T07:27:26Z</time>
      </trkpt>
      <trkpt lat="50.47579" lon="2.67402">
        <ele>50.096849</ele>
        <time>2017-09-03T07:27:30Z</time>
      </trkpt>
      <trkpt lat="50.47556" lon="2.67383">
        <ele>50.09778048</ele>
        <time>2017-09-03T07:27:35Z</time>
      </trkpt>
      <trkpt lat="50.47536" lon="2.6738">
        <ele>50.09858104</ele>
        <time>2017-09-03T07:27:39Z</time>
      </trkpt>
      <trkpt lat="50.47521" lon="2.67404">
        <ele>49.09914324</ele>
        <time>2017-09-03T07:27:43Z</time>
      </trkpt>
      <trkpt lat="50.47508" lon="2.67427">
        <ele>48.09969908</ele>
        <time>2017-09-03T07:27:47Z</time>
      </trkpt>
      <trkpt lat="50.475" lon="2.67453">
        <ele>48.10001348</ele>
        <time>2017-09-03T07:27:51Z</time>
      </trkpt>
      <trkpt lat="50.47475" lon="2.67443">
        <ele>47.10098508</ele>
        <time>2017-09-03T07:27:56Z</time>
      </trkpt>
      <trkpt lat="50.47457" lon="2.67417">
        <ele>48.10173988</ele>
        <time>2017-09-03T07:28:01Z</time>
      </trkpt>
      <trkpt lat="50.47446" lon="2.674">
        <ele>48.10216824</ele>
        <time>2017-09-03T07:28:04Z</time>
      </trkpt>
      <trkpt lat="50.47433" lon="2.67375">
        <ele>48.10269364</ele>
        <time>2017-09-03T07:28:08Z</time>
      </trkpt>
      <trkpt lat="50.47421" lon="2.67347">
        <ele>48.10314336</ele>
        <time>2017-09-03T07:28:13Z</time>
      </trkpt>
      <trkpt lat="50.47405" lon="2.67327">
        <ele>50.10380996</ele>
        <time>2017-09-03T07:28:17Z</time>
      </trkpt>
      <trkpt lat="50.47383" lon="2.67347">
        <ele>51.10467184</ele>
        <time>2017-09-03T07:28:22Z</time>
      </trkpt>
      <trkpt lat="50.47369" lon="2.67363">
        <ele>50.1052238</ele>
        <time>2017-09-03T07:28:26Z</time>
      </trkpt>
      <trkpt lat="50.47366" lon="2.67341">
        <ele>50.10536956</ele>
        <time>2017-09-03T07:28:31Z</time>
      </trkpt>
      <trkpt lat="50.47372" lon="2.67314">
        <ele>50.10512832</ele>
        <time>2017-09-03T07:28:35Z</time>
      </trkpt>
      <trkpt lat="50.47377" lon="2.67283">
        <ele>51.10491748</ele>
        <time>2017-09-03T07:28:40Z</time>
      </trkpt>
      <trkpt lat="50.47373" lon="2.6727">
        <ele>52.10509632</ele>
        <time>2017-09-03T07:28:43Z</time>
      </trkpt>
      <trkpt lat="50.47363" lon="2.67246">
        <ele>54.10546592</ele>
        <time>2017-09-03T07:28:48Z</time>
      </trkpt>
      <trkpt lat="50.47358" lon="2.67224">
        <ele>55.10568092</ele>
        <time>2017-09-03T07:28:52Z</time>
      </trkpt>
      <trkpt lat="50.47345" lon="2.672">
        <ele>57.10619328</ele>
        <time>2017-09-03T07:28:57Z</time>
      </trkpt>
      <trkpt lat="50.47336" lon="2.67182">
        <ele>57.10655404</ele>
        <time>2017-09-03T07:29:01Z</time>
      </trkpt>
      <trkpt lat="50.47327" lon="2.67172">
        <ele>62.10693852</ele>
        <time>2017-09-03T07:29:05Z</time>
      </trkpt>
      <trkpt lat="50.47312" lon="2.67155">
        <ele>58.10751068</ele>
        <time>2017-09-03T07:29:09Z</time>
      </trkpt>
      <trkpt lat="50.47301" lon="2.67144">
        <ele>60.10795912</ele>
        <time>2017-09-03T07:29:13Z</time>
      </trkpt>
      <trkpt lat="50.47289" lon="2.67136">
        <ele>64.10845296</ele>
        <time>2017-09-03T07:29:18Z</time>
      </trkpt>
      <trkpt lat="50.47282" lon="2.67129">
        <ele>69.10873192</ele>
        <time>2017-09-03T07:29:23Z</time>
      </trkpt>
      <trkpt lat="50.47275" lon="2.6712">
        <ele>72.10900496</ele>
        <time>2017-09-03T07:29:27Z</time>
      </trkpt>
      <trkpt lat="50.47266" lon="2.67109">
        <ele>71.1093796</ele>
        <time>2017-09-03T07:29:31Z</time>
      </trkpt>
      <trkpt lat="50.47258" lon="2.67101">
        <ele>70.10967288</ele>
        <time>2017-09-03T07:29:35Z</time>
      </trkpt>
      <trkpt lat="50.47249" lon="2.67099">
        <ele>68.11005524</ele>
        <time>2017-09-03T07:29:40Z</time>
      </trkpt>
      <trkpt lat="50.47242" lon="2.67104">
        <ele>67.11033136</ele>
        <time>2017-09-03T07:29:44Z</time>
      </trkpt>
      <trkpt lat="50.47237" lon="2.67108">
        <ele>67.11052232</ele>
        <time>2017-09-03T07:29:47Z</time>
      </trkpt>
      <trkpt lat="50.4723" lon="2.67111">
        <ele>68.11081936</ele>
        <time>2017-09-03T07:29:52Z</time>
      </trkpt>
      <trkpt lat="50.47224" lon="2.67115">
        <ele>71.11106104</ele>
        <time>2017-09-03T07:29:56Z</time>
      </trkpt>
      <trkpt lat="50.4722" lon="2.67126">
        <ele>75.11121232</ele>
        <time>2017-09-03T07:30:03Z</time>
      </trkpt>
      <trkpt lat="50.47219" lon="2.6714">
        <ele>75.11125476</ele>
        <time>2017-09-03T07:30:08Z</time>
      </trkpt>
      <trkpt lat="50.4722" lon="2.67152">
        <ele>75.11121184</ele>
        <time>2017-09-03T07:30:12Z</time>
      </trkpt>
      <trkpt lat="50.4722" lon="2.67167">
        <ele>76.11121012</ele>
        <time>2017-09-03T07:30:16Z</time>
      </trkpt>
      <trkpt lat="50.47211" lon="2.67178">
        <ele>76.11157464</ele>
        <time>2017-09-03T07:30:21Z</time>
      </trkpt>
      <trkpt lat="50.47202" lon="2.67182">
        <ele>79.11191452</ele>
        <time>2017-09-03T07:30:25Z</time>
      </trkpt>
      <trkpt lat="50.4718" lon="2.67178">
        <ele>74.11280528</ele>
        <time>2017-09-03T07:30:30Z</time>
      </trkpt>
      <trkpt lat="50.47165" lon="2.6718">
        <ele>74.1134126</ele>
        <time>2017-09-03T07:30:34Z</time>
      </trkpt>
      <trkpt lat="50.47146" lon="2.67189">
        <ele>70.11416992</ele>
        <time>2017-09-03T07:30:39Z</time>
      </trkpt>
      <trkpt lat="50.47133" lon="2.67206">
        <ele>69.11467956</ele>
        <time>2017-09-03T07:30:43Z</time>
      </trkpt>
      <trkpt lat="50.47147" lon="2.67237">
        <ele>70.11412252</ele>
        <time>2017-09-03T07:30:48Z</time>
      </trkpt>
      <trkpt lat="50.47158" lon="2.67274">
        <ele>69.1136946</ele>
        <time>2017-09-03T07:30:52Z</time>
      </trkpt>
      <trkpt lat="50.47173" lon="2.67304">
        <ele>71.11307416</ele>
        <time>2017-09-03T07:30:56Z</time>
      </trkpt>
      <trkpt lat="50.47177" lon="2.67352">
        <ele>68.1129098</ele>
        <time>2017-09-03T07:31:01Z</time>
      </trkpt>
      <trkpt lat="50.47177" lon="2.67385">
        <ele>64.11291368</ele>
        <time>2017-09-03T07:31:05Z</time>
      </trkpt>
      <trkpt lat="50.47183" lon="2.6741">
        <ele>56.112698</ele>
        <time>2017-09-03T07:31:09Z</time>
      </trkpt>
      <trkpt lat="50.47186" lon="2.67432">
        <ele>54.11257856</ele>
        <time>2017-09-03T07:31:13Z</time>
      </trkpt>
      <trkpt lat="50.47197" lon="2.67449">
        <ele>60.112141</ele>
        <time>2017-09-03T07:31:18Z</time>
      </trkpt>
      <trkpt lat="50.47204" lon="2.67468">
        <ele>62.11183352</ele>
        <time>2017-09-03T07:31:22Z</time>
      </trkpt>
      <trkpt lat="50.47201" lon="2.6749">
        <ele>65.1119446</ele>
        <time>2017-09-03T07:31:26Z</time>
      </trkpt>
      <trkpt lat="50.47198" lon="2.67511">
        <ele>67.11209808</ele>
        <time>2017-09-03T07:31:31Z</time>
      </trkpt>
      <trkpt lat="50.47193" lon="2.67523">
        <ele>66.11228736</ele>
        <time>2017-09-03T07:31:35Z</time>
      </trkpt>
      <trkpt lat="50.47194" lon="2.67551">
        <ele>66.11225456</ele>
        <time>2017-09-03T07:31:40Z</time>
      </trkpt>
      <trkpt lat="50.47196" lon="2.67576">
        <ele>66.11215804</ele>
        <time>2017-09-03T07:31:44Z</time>
      </trkpt>
      <trkpt lat="50.47197" lon="2.67606">
        <ele>63.11211276</ele>
        <time>2017-09-03T07:31:49Z</time>
      </trkpt>
      <trkpt lat="50.47195" lon="2.67635">
        <ele>59.11218864</ele>
        <time>2017-09-03T07:31:54Z</time>
      </trkpt>
      <trkpt lat="50.47199" lon="2.67658">
        <ele>62.11202784</ele>
        <time>2017-09-03T07:31:59Z</time>
      </trkpt>
      <trkpt lat="50.47206" lon="2.67692">
        <ele>56.11174752</ele>
        <time>2017-09-03T07:32:04Z</time>
      </trkpt>
      <trkpt lat="50.47215" lon="2.67715">
        <ele>57.11140484</ele>
        <time>2017-09-03T07:32:08Z</time>
      </trkpt>
      <trkpt lat="50.47229" lon="2.67734">
        <ele>56.11085852</ele>
        <time>2017-09-03T07:32:12Z</time>
      </trkpt>
      <trkpt lat="50.47241" lon="2.67752">
        <ele>55.1103732</ele>
        <time>2017-09-03T07:32:16Z</time>
      </trkpt>
      <trkpt lat="50.4726" lon="2.67774">
        <ele>56.10961748</ele>
        <time>2017-09-03T07:32:21Z</time>
      </trkpt>
      <trkpt lat="50.4727" lon="2.67789">
        <ele>54.10918652</ele>
        <time>2017-09-03T07:32:25Z</time>
      </trkpt>
      <trkpt lat="50.47263" lon="2.67808">
        <ele>57.10948972</ele>
        <time>2017-09-03T07:32:29Z</time>
      </trkpt>
      <trkpt lat="50.47257" lon="2.67837">
        <ele>57.1097182</ele>
        <time>2017-09-03T07:32:34Z</time>
      </trkpt>
      <trkpt lat="50.47271" lon="2.67863">
        <ele>59.10914556</ele>
        <time>2017-09-03T07:32:39Z</time>
      </trkpt>
      <trkpt lat="50.4728" lon="2.67892">
        <ele>60.10881892</ele>
        <time>2017-09-03T07:32:43Z</time>
      </trkpt>
      <trkpt lat="50.47285" lon="2.67919">
        <ele>60.10860616</ele>
        <time>2017-09-03T07:32:47Z</time>
      </trkpt>
      <trkpt lat="50.47283" lon="2.67947">
        <ele>58.108688</ele>
        <time>2017-09-03T07:32:50Z</time>
      </trkpt>
      <trkpt lat="50.47275" lon="2.6798">
        <ele>57.1089942</ele>
        <time>2017-09-03T07:32:54Z</time>
      </trkpt>
      <trkpt lat="50.47261" lon="2.68007">
        <ele>56.1095794</ele>
        <time>2017-09-03T07:32:58Z</time>
      </trkpt>
      <trkpt lat="50.47239" lon="2.6803">
        <ele>54.11045356</ele>
        <time>2017-09-03T07:33:03Z</time>
      </trkpt>
      <trkpt lat="50.47224" lon="2.68039">
        <ele>55.11104616</ele>
        <time>2017-09-03T07:33:07Z</time>
      </trkpt>
      <trkpt lat="50.47216" lon="2.68039">
        <ele>55.11134688</ele>
        <time>2017-09-03T07:33:11Z</time>
      </trkpt>
      <trkpt lat="50.47205" lon="2.68037">
        <ele>56.1118014</ele>
        <time>2017-09-03T07:33:16Z</time>
      </trkpt>
      <trkpt lat="50.47194" lon="2.6804">
        <ele>57.11225552</ele>
        <time>2017-09-03T07:33:21Z</time>
      </trkpt>
      <trkpt lat="50.47186" lon="2.68042">
        <ele>58.11256244</ele>
        <time>2017-09-03T07:33:26Z</time>
      </trkpt>
      <trkpt lat="50.47178" lon="2.68043">
        <ele>61.1128992</ele>
        <time>2017-09-03T07:33:31Z</time>
      </trkpt>
      <trkpt lat="50.47169" lon="2.68043">
        <ele>63.11324692</ele>
        <time>2017-09-03T07:33:36Z</time>
      </trkpt>
      <trkpt lat="50.4716" lon="2.68042">
        <ele>66.11361908</ele>
        <time>2017-09-03T07:33:41Z</time>
      </trkpt>
      <trkpt lat="50.47152" lon="2.68042">
        <ele>68.11391536</ele>
        <time>2017-09-03T07:33:45Z</time>
      </trkpt>
      <trkpt lat="50.47142" lon="2.68042">
        <ele>70.11431852</ele>
        <time>2017-09-03T07:33:50Z</time>
      </trkpt>
      <trkpt lat="50.47133" lon="2.68045">
        <ele>69.11469892</ele>
        <time>2017-09-03T07:33:54Z</time>
      </trkpt>
      <trkpt lat="50.47121" lon="2.68049">
        <ele>68.11515852</ele>
        <time>2017-09-03T07:33:59Z</time>
      </trkpt>
      <trkpt lat="50.47111" lon="2.68054">
        <ele>69.11556104</ele>
        <time>2017-09-03T07:34:04Z</time>
      </trkpt>
      <trkpt lat="50.47098" lon="2.6806">
        <ele>67.11606268</ele>
        <time>2017-09-03T07:34:08Z</time>
      </trkpt>
      <trkpt lat="50.47088" lon="2.68091">
        <ele>64.11646684</ele>
        <time>2017-09-03T07:34:13Z</time>
      </trkpt>
      <trkpt lat="50.4708" lon="2.6813">
        <ele>60.11681244</ele>
        <time>2017-09-03T07:34:17Z</time>
      </trkpt>
      <trkpt lat="50.47068" lon="2.68165">
        <ele>58.11727848</ele>
        <time>2017-09-03T07:34:22Z</time>
      </trkpt>
      <trkpt lat="50.47055" lon="2.68161">
        <ele>60.11780552</ele>
        <time>2017-09-03T07:34:27Z</time>
      </trkpt>
      <trkpt lat="50.47052" lon="2.68171">
        <ele>61.11793944</ele>
        <time>2017-09-03T07:34:31Z</time>
      </trkpt>
      <trkpt lat="50.47047" lon="2.68187">
        <ele>65.11812932</ele>
        <time>2017-09-03T07:34:36Z</time>
      </trkpt>
      <trkpt lat="50.4704" lon="2.68201">
        <ele>66.11840476</ele>
        <time>2017-09-03T07:34:41Z</time>
      </trkpt>
      <trkpt lat="50.47034" lon="2.68207">
        <ele>68.118646</ele>
        <time>2017-09-03T07:34:44Z</time>
      </trkpt>
      <trkpt lat="50.47025" lon="2.68213">
        <ele>67.11898368</ele>
        <time>2017-09-03T07:34:48Z</time>
      </trkpt>
      <trkpt lat="50.47014" lon="2.6822">
        <ele>68.11945632</ele>
        <time>2017-09-03T07:34:53Z</time>
      </trkpt>
      <trkpt lat="50.47005" lon="2.68223">
        <ele>68.11980416</ele>
        <time>2017-09-03T07:34:57Z</time>
      </trkpt>
      <trkpt lat="50.46994" lon="2.68218">
        <ele>69.1202416</ele>
        <time>2017-09-03T07:35:02Z</time>
      </trkpt>
      <trkpt lat="50.46986" lon="2.68213">
        <ele>71.12057476</ele>
        <time>2017-09-03T07:35:06Z</time>
      </trkpt>
      <trkpt lat="50.46979" lon="2.68198">
        <ele>70.12085044</ele>
        <time>2017-09-03T07:35:11Z</time>
      </trkpt>
      <trkpt lat="50.46973" lon="2.68186">
        <ele>70.12107696</ele>
        <time>2017-09-03T07:35:15Z</time>
      </trkpt>
      <trkpt lat="50.46963" lon="2.68182">
        <ele>69.1214878</ele>
        <time>2017-09-03T07:35:19Z</time>
      </trkpt>
      <trkpt lat="50.4694" lon="2.68186">
        <ele>69.12238632</ele>
        <time>2017-09-03T07:35:24Z</time>
      </trkpt>
      <trkpt lat="50.46932" lon="2.68176">
        <ele>69.12270556</ele>
        <time>2017-09-03T07:35:27Z</time>
      </trkpt>
      <trkpt lat="50.46926" lon="2.6816">
        <ele>69.12297644</ele>
        <time>2017-09-03T07:35:31Z</time>
      </trkpt>
      <trkpt lat="50.46923" lon="2.68153">
        <ele>70.12308752</ele>
        <time>2017-09-03T07:35:33Z</time>
      </trkpt>
      <trkpt lat="50.46915" lon="2.68136">
        <ele>69.12338424</ele>
        <time>2017-09-03T07:35:37Z</time>
      </trkpt>
      <trkpt lat="50.46905" lon="2.68117">
        <ele>68.12381896</ele>
        <time>2017-09-03T07:35:42Z</time>
      </trkpt>
      <trkpt lat="50.46899" lon="2.68106">
        <ele>68.12405884</ele>
        <time>2017-09-03T07:35:46Z</time>
      </trkpt>
      <trkpt lat="50.46895" lon="2.68118">
        <ele>67.12421944</ele>
        <time>2017-09-03T07:35:52Z</time>
      </trkpt>
      <trkpt lat="50.46894" lon="2.68135">
        <ele>62.124246</ele>
        <time>2017-09-03T07:35:56Z</time>
      </trkpt>
      <trkpt lat="50.46891" lon="2.68165">
        <ele>59.12437596</ele>
        <time>2017-09-03T07:36:01Z</time>
      </trkpt>
      <trkpt lat="50.46901" lon="2.68174">
        <ele>63.12394488</ele>
        <time>2017-09-03T07:36:05Z</time>
      </trkpt>
      <trkpt lat="50.46901" lon="2.68193">
        <ele>68.12394708</ele>
        <time>2017-09-03T07:36:09Z</time>
      </trkpt>
      <trkpt lat="50.4689" lon="2.6822">
        <ele>59.12438292</ele>
        <time>2017-09-03T07:36:14Z</time>
      </trkpt>
      <trkpt lat="50.46881" lon="2.6825">
        <ele>58.1247512</ele>
        <time>2017-09-03T07:36:18Z</time>
      </trkpt>
      <trkpt lat="50.46867" lon="2.68287">
        <ele>56.12531604</ele>
        <time>2017-09-03T07:36:23Z</time>
      </trkpt>
      <trkpt lat="50.46855" lon="2.68318">
        <ele>55.12578892</ele>
        <time>2017-09-03T07:36:27Z</time>
      </trkpt>
      <trkpt lat="50.46839" lon="2.68357">
        <ele>54.1264344</ele>
        <time>2017-09-03T07:36:32Z</time>
      </trkpt>
      <trkpt lat="50.46829" lon="2.68388">
        <ele>55.12685332</ele>
        <time>2017-09-03T07:36:36Z</time>
      </trkpt>
      <trkpt lat="50.4681" lon="2.6843">
        <ele>51.12758784</ele>
        <time>2017-09-03T07:36:41Z</time>
      </trkpt>
      <trkpt lat="50.46797" lon="2.68466">
        <ele>48.12812312</ele>
        <time>2017-09-03T07:36:45Z</time>
      </trkpt>
      <trkpt lat="50.46784" lon="2.68501">
        <ele>44.12865908</ele>
        <time>2017-09-03T07:36:49Z</time>
      </trkpt>
      <trkpt lat="50.46765" lon="2.68523">
        <ele>46.12939676</ele>
        <time>2017-09-03T07:36:54Z</time>
      </trkpt>
      <trkpt lat="50.4675" lon="2.68504">
        <ele>48.1300084</ele>
        <time>2017-09-03T07:36:58Z</time>
      </trkpt>
      <trkpt lat="50.46734" lon="2.68505">
        <ele>50.13062736</ele>
        <time>2017-09-03T07:37:03Z</time>
      </trkpt>
      <trkpt lat="50.46722" lon="2.68528">
        <ele>49.13110368</ele>
        <time>2017-09-03T07:37:07Z</time>
      </trkpt>
      <trkpt lat="50.46709" lon="2.68524">
        <ele>48.13162876</ele>
        <time>2017-09-03T07:37:11Z</time>
      </trkpt>
      <trkpt lat="50.46702" lon="2.68506">
        <ele>47.13190816</ele>
        <time>2017-09-03T07:37:14Z</time>
      </trkpt>
      <trkpt lat="50.46692" lon="2.68481">
        <ele>48.1323324</ele>
        <time>2017-09-03T07:37:18Z</time>
      </trkpt>
      <trkpt lat="50.46675" lon="2.68455">
        <ele>46.133021</ele>
        <time>2017-09-03T07:37:23Z</time>
      </trkpt>
      <trkpt lat="50.46658" lon="2.68432">
        <ele>44.13369176</ele>
        <time>2017-09-03T07:37:27Z</time>
      </trkpt>
      <trkpt lat="50.46646" lon="2.68408">
        <ele>44.13416484</ele>
        <time>2017-09-03T07:37:31Z</time>
      </trkpt>
      <trkpt lat="50.46632" lon="2.68384">
        <ele>44.13471056</ele>
        <time>2017-09-03T07:37:35Z</time>
      </trkpt>
      <trkpt lat="50.46621" lon="2.68359">
        <ele>45.13518012</ele>
        <time>2017-09-03T07:37:39Z</time>
      </trkpt>
      <trkpt lat="50.46607" lon="2.68332">
        <ele>44.13571876</ele>
        <time>2017-09-03T07:37:44Z</time>
      </trkpt>
      <trkpt lat="50.46595" lon="2.68312">
        <ele>43.13618312</ele>
        <time>2017-09-03T07:37:48Z</time>
      </trkpt>
      <trkpt lat="50.46584" lon="2.68289">
        <ele>45.13665868</ele>
        <time>2017-09-03T07:37:53Z</time>
      </trkpt>
      <trkpt lat="50.46579" lon="2.68282">
        <ele>47.13685692</ele>
        <time>2017-09-03T07:38:33Z</time>
      </trkpt>
      <trkpt lat="50.46569" lon="2.68255">
        <ele>46.13722816</ele>
        <time>2017-09-03T07:38:38Z</time>
      </trkpt>
      <trkpt lat="50.46557" lon="2.68226">
        <ele>47.13771928</ele>
        <time>2017-09-03T07:38:42Z</time>
      </trkpt>
      <trkpt lat="50.46541" lon="2.68187">
        <ele>47.1383556</ele>
        <time>2017-09-03T07:38:47Z</time>
      </trkpt>
      <trkpt lat="50.46523" lon="2.68148">
        <ele>47.1390976</ele>
        <time>2017-09-03T07:38:52Z</time>
      </trkpt>
      <trkpt lat="50.46507" lon="2.6812">
        <ele>48.1397394</ele>
        <time>2017-09-03T07:38:56Z</time>
      </trkpt>
      <trkpt lat="50.4649" lon="2.68093">
        <ele>48.14039156</ele>
        <time>2017-09-03T07:39:01Z</time>
      </trkpt>
      <trkpt lat="50.46471" lon="2.68058">
        <ele>48.14118144</ele>
        <time>2017-09-03T07:39:05Z</time>
      </trkpt>
      <trkpt lat="50.4645" lon="2.68023">
        <ele>47.1420108</ele>
        <time>2017-09-03T07:39:10Z</time>
      </trkpt>
      <trkpt lat="50.46435" lon="2.67994">
        <ele>47.1426118</ele>
        <time>2017-09-03T07:39:14Z</time>
      </trkpt>
      <trkpt lat="50.46418" lon="2.67967">
        <ele>47.14326344</ele>
        <time>2017-09-03T07:39:18Z</time>
      </trkpt>
      <trkpt lat="50.46403" lon="2.67942">
        <ele>48.14389572</ele>
        <time>2017-09-03T07:39:23Z</time>
      </trkpt>
      <trkpt lat="50.46392" lon="2.67923">
        <ele>48.144317</ele>
        <time>2017-09-03T07:39:28Z</time>
      </trkpt>
      <trkpt lat="50.46385" lon="2.67907">
        <ele>49.14461188</ele>
        <time>2017-09-03T07:39:32Z</time>
      </trkpt>
      <trkpt lat="50.46371" lon="2.67906">
        <ele>51.14514928</ele>
        <time>2017-09-03T07:39:36Z</time>
      </trkpt>
      <trkpt lat="50.46349" lon="2.67938">
        <ele>48.14603116</ele>
        <time>2017-09-03T07:39:41Z</time>
      </trkpt>
      <trkpt lat="50.46324" lon="2.67981">
        <ele>46.14705636</ele>
        <time>2017-09-03T07:39:46Z</time>
      </trkpt>
      <trkpt lat="50.46311" lon="2.68021">
        <ele>46.14755604</ele>
        <time>2017-09-03T07:39:50Z</time>
      </trkpt>
      <trkpt lat="50.463" lon="2.68043">
        <ele>47.14800656</ele>
        <time>2017-09-03T07:39:54Z</time>
      </trkpt>
      <trkpt lat="50.46294" lon="2.68051">
        <ele>47.1482544</ele>
        <time>2017-09-03T07:40:01Z</time>
      </trkpt>
      <trkpt lat="50.4628" lon="2.68073">
        <ele>49.14878496</ele>
        <time>2017-09-03T07:40:06Z</time>
      </trkpt>
      <trkpt lat="50.4627" lon="2.6809">
        <ele>51.14918332</ele>
        <time>2017-09-03T07:40:10Z</time>
      </trkpt>
      <trkpt lat="50.46261" lon="2.68107">
        <ele>52.14957272</ele>
        <time>2017-09-03T07:40:14Z</time>
      </trkpt>
      <trkpt lat="50.4625" lon="2.68125">
        <ele>53.14999556</ele>
        <time>2017-09-03T07:40:18Z</time>
      </trkpt>
      <trkpt lat="50.46241" lon="2.68141">
        <ele>54.15036984</ele>
        <time>2017-09-03T07:40:22Z</time>
      </trkpt>
      <trkpt lat="50.46228" lon="2.68164">
        <ele>56.15088168</ele>
        <time>2017-09-03T07:40:27Z</time>
      </trkpt>
      <trkpt lat="50.46219" lon="2.68181">
        <ele>57.15123908</ele>
        <time>2017-09-03T07:40:31Z</time>
      </trkpt>
      <trkpt lat="50.46209" lon="2.68197">
        <ele>57.15164264</ele>
        <time>2017-09-03T07:40:35Z</time>
      </trkpt>
      <trkpt lat="50.46196" lon="2.68221">
        <ele>57.15217568</ele>
        <time>2017-09-03T07:40:40Z</time>
      </trkpt>
      <trkpt lat="50.46182" lon="2.68246">
        <ele>56.15271504</ele>
        <time>2017-09-03T07:40:45Z</time>
      </trkpt>
      <trkpt lat="50.46171" lon="2.68265">
        <ele>56.1531424</ele>
        <time>2017-09-03T07:40:49Z</time>
      </trkpt>
      <trkpt lat="50.4616" lon="2.68282">
        <ele>58.15358548</ele>
        <time>2017-09-03T07:40:53Z</time>
      </trkpt>
      <trkpt lat="50.46149" lon="2.68305">
        <ele>59.1540524</ele>
        <time>2017-09-03T07:40:58Z</time>
      </trkpt>
      <trkpt lat="50.46138" lon="2.68323">
        <ele>59.15447024</ele>
        <time>2017-09-03T07:41:02Z</time>
      </trkpt>
      <trkpt lat="50.46124" lon="2.68347">
        <ele>59.15504064</ele>
        <time>2017-09-03T07:41:07Z</time>
      </trkpt>
      <trkpt lat="50.46116" lon="2.68361">
        <ele>59.15536264</ele>
        <time>2017-09-03T07:41:11Z</time>
      </trkpt>
      <trkpt lat="50.46102" lon="2.68384">
        <ele>59.15592884</ele>
        <time>2017-09-03T07:41:15Z</time>
      </trkpt>
      <trkpt lat="50.46091" lon="2.68402">
        <ele>59.1563458</ele>
        <time>2017-09-03T07:41:19Z</time>
      </trkpt>
      <trkpt lat="50.4608" lon="2.68422">
        <ele>60.15679832</ele>
        <time>2017-09-03T07:41:24Z</time>
      </trkpt>
      <trkpt lat="50.46071" lon="2.68439">
        <ele>60.1571568</ele>
        <time>2017-09-03T07:41:28Z</time>
      </trkpt>
      <trkpt lat="50.46061" lon="2.68455">
        <ele>60.1575788</ele>
        <time>2017-09-03T07:41:32Z</time>
      </trkpt>
      <trkpt lat="50.46049" lon="2.68478">
        <ele>61.1580534</ele>
        <time>2017-09-03T07:41:37Z</time>
      </trkpt>
      <trkpt lat="50.46038" lon="2.68496">
        <ele>61.15848936</ele>
        <time>2017-09-03T07:41:41Z</time>
      </trkpt>
      <trkpt lat="50.46024" lon="2.6852">
        <ele>61.15903092</ele>
        <time>2017-09-03T07:41:46Z</time>
      </trkpt>
      <trkpt lat="50.46013" lon="2.6854">
        <ele>60.15947836</ele>
        <time>2017-09-03T07:41:50Z</time>
      </trkpt>
      <trkpt lat="50.45998" lon="2.68565">
        <ele>60.16009916</ele>
        <time>2017-09-03T07:41:55Z</time>
      </trkpt>
      <trkpt lat="50.45983" lon="2.68592">
        <ele>59.1606632</ele>
        <time>2017-09-03T07:42:00Z</time>
      </trkpt>
      <trkpt lat="50.45967" lon="2.68619">
        <ele>59.16130684</ele>
        <time>2017-09-03T07:42:05Z</time>
      </trkpt>
      <trkpt lat="50.45954" lon="2.6864">
        <ele>60.16184944</ele>
        <time>2017-09-03T07:42:09Z</time>
      </trkpt>
      <trkpt lat="50.45936" lon="2.68669">
        <ele>59.16254616</ele>
        <time>2017-09-03T07:42:14Z</time>
      </trkpt>
      <trkpt lat="50.45922" lon="2.68694">
        <ele>59.16310436</ele>
        <time>2017-09-03T07:42:18Z</time>
      </trkpt>
      <trkpt lat="50.45908" lon="2.68718">
        <ele>59.16367028</ele>
        <time>2017-09-03T07:42:22Z</time>
      </trkpt>
      <trkpt lat="50.45889" lon="2.68751">
        <ele>58.16443008</ele>
        <time>2017-09-03T07:42:27Z</time>
      </trkpt>
      <trkpt lat="50.45874" lon="2.68778">
        <ele>59.16502456</ele>
        <time>2017-09-03T07:42:31Z</time>
      </trkpt>
      <trkpt lat="50.45858" lon="2.68804">
        <ele>58.1656818</ele>
        <time>2017-09-03T07:42:35Z</time>
      </trkpt>
      <trkpt lat="50.45838" lon="2.68834">
        <ele>56.16646676</ele>
        <time>2017-09-03T07:42:40Z</time>
      </trkpt>
      <trkpt lat="50.45822" lon="2.68843">
        <ele>56.1671364</ele>
        <time>2017-09-03T07:42:45Z</time>
      </trkpt>
      <trkpt lat="50.45804" lon="2.68842">
        <ele>56.16785968</ele>
        <time>2017-09-03T07:42:49Z</time>
      </trkpt>
      <trkpt lat="50.45784" lon="2.6884">
        <ele>56.16863172</ele>
        <time>2017-09-03T07:42:53Z</time>
      </trkpt>
      <trkpt lat="50.45764" lon="2.68838">
        <ele>56.16943636</ele>
        <time>2017-09-03T07:42:57Z</time>
      </trkpt>
      <trkpt lat="50.45738" lon="2.68834">
        <ele>56.17046596</ele>
        <time>2017-09-03T07:43:02Z</time>
      </trkpt>
      <trkpt lat="50.45714" lon="2.68828">
        <ele>57.17145016</ele>
        <time>2017-09-03T07:43:07Z</time>
      </trkpt>
      <trkpt lat="50.45699" lon="2.68823">
        <ele>57.17203376</ele>
        <time>2017-09-03T07:43:11Z</time>
      </trkpt>
      <trkpt lat="50.45676" lon="2.68811">
        <ele>56.17297772</ele>
        <time>2017-09-03T07:43:15Z</time>
      </trkpt>
      <trkpt lat="50.45655" lon="2.68799">
        <ele>56.17379108</ele>
        <time>2017-09-03T07:43:19Z</time>
      </trkpt>
      <trkpt lat="50.45632" lon="2.68784">
        <ele>56.17473792</ele>
        <time>2017-09-03T07:43:24Z</time>
      </trkpt>
      <trkpt lat="50.45607" lon="2.68767">
        <ele>56.1757418</ele>
        <time>2017-09-03T07:43:29Z</time>
      </trkpt>
      <trkpt lat="50.45589" lon="2.68752">
        <ele>56.17645444</ele>
        <time>2017-09-03T07:43:33Z</time>
      </trkpt>
      <trkpt lat="50.45571" lon="2.6873">
        <ele>56.1771458</ele>
        <time>2017-09-03T07:43:38Z</time>
      </trkpt>
      <trkpt lat="50.45561" lon="2.68716">
        <ele>56.17757936</ele>
        <time>2017-09-03T07:43:41Z</time>
      </trkpt>
      <trkpt lat="50.45542" lon="2.68695">
        <ele>56.17832936</ele>
        <time>2017-09-03T07:43:46Z</time>
      </trkpt>
      <trkpt lat="50.45527" lon="2.68677">
        <ele>56.1789048</ele>
        <time>2017-09-03T07:43:50Z</time>
      </trkpt>
      <trkpt lat="50.45515" lon="2.68663">
        <ele>56.17938368</ele>
        <time>2017-09-03T07:43:53Z</time>
      </trkpt>
      <trkpt lat="50.455" lon="2.68645">
        <ele>55.18000848</ele>
        <time>2017-09-03T07:43:57Z</time>
      </trkpt>
      <trkpt lat="50.45485" lon="2.68624">
        <ele>55.18061548</ele>
        <time>2017-09-03T07:44:01Z</time>
      </trkpt>
      <trkpt lat="50.45465" lon="2.68599">
        <ele>55.18140112</ele>
        <time>2017-09-03T07:44:06Z</time>
      </trkpt>
      <trkpt lat="50.45451" lon="2.68577">
        <ele>54.18194312</ele>
        <time>2017-09-03T07:44:10Z</time>
      </trkpt>
      <trkpt lat="50.45433" lon="2.68551">
        <ele>54.18267632</ele>
        <time>2017-09-03T07:44:15Z</time>
      </trkpt>
      <trkpt lat="50.45418" lon="2.68533">
        <ele>54.183285</ele>
        <time>2017-09-03T07:44:19Z</time>
      </trkpt>
      <trkpt lat="50.45398" lon="2.68511">
        <ele>54.18408632</ele>
        <time>2017-09-03T07:44:24Z</time>
      </trkpt>
      <trkpt lat="50.45384" lon="2.685">
        <ele>53.18464936</ele>
        <time>2017-09-03T07:44:28Z</time>
      </trkpt>
      <trkpt lat="50.45376" lon="2.68494">
        <ele>53.18494232</ele>
        <time>2017-09-03T07:44:32Z</time>
      </trkpt>
      <trkpt lat="50.45366" lon="2.68489">
        <ele>56.18537508</ele>
        <time>2017-09-03T07:44:36Z</time>
      </trkpt>
      <trkpt lat="50.45352" lon="2.68477">
        <ele>55.1859168</ele>
        <time>2017-09-03T07:44:40Z</time>
      </trkpt>
      <trkpt lat="50.45337" lon="2.68463">
        <ele>55.18650216</ele>
        <time>2017-09-03T07:44:44Z</time>
      </trkpt>
      <trkpt lat="50.4532" lon="2.68447">
        <ele>55.18719768</ele>
        <time>2017-09-03T07:44:49Z</time>
      </trkpt>
      <trkpt lat="50.45304" lon="2.68435">
        <ele>55.18782368</ele>
        <time>2017-09-03T07:44:53Z</time>
      </trkpt>
      <trkpt lat="50.45284" lon="2.68419">
        <ele>55.188633</ele>
        <time>2017-09-03T07:44:58Z</time>
      </trkpt>
      <trkpt lat="50.45269" lon="2.68406">
        <ele>54.18926092</ele>
        <time>2017-09-03T07:45:02Z</time>
      </trkpt>
      <trkpt lat="50.45249" lon="2.6839">
        <ele>55.19005152</ele>
        <time>2017-09-03T07:45:07Z</time>
      </trkpt>
      <trkpt lat="50.45233" lon="2.68377">
        <ele>54.1906668</ele>
        <time>2017-09-03T07:45:11Z</time>
      </trkpt>
      <trkpt lat="50.45227" lon="2.68359">
        <ele>55.19092892</ele>
        <time>2017-09-03T07:45:15Z</time>
      </trkpt>
      <trkpt lat="50.45233" lon="2.68332">
        <ele>55.19066368</ele>
        <time>2017-09-03T07:45:19Z</time>
      </trkpt>
      <trkpt lat="50.4524" lon="2.68305">
        <ele>55.19041968</ele>
        <time>2017-09-03T07:45:23Z</time>
      </trkpt>
      <trkpt lat="50.45247" lon="2.6827">
        <ele>55.1901272</ele>
        <time>2017-09-03T07:45:28Z</time>
      </trkpt>
      <trkpt lat="50.45253" lon="2.68242">
        <ele>56.18989308</ele>
        <time>2017-09-03T07:45:32Z</time>
      </trkpt>
      <trkpt lat="50.45264" lon="2.6821">
        <ele>57.18945004</ele>
        <time>2017-09-03T07:45:37Z</time>
      </trkpt>
      <trkpt lat="50.45276" lon="2.68185">
        <ele>57.18897244</ele>
        <time>2017-09-03T07:45:41Z</time>
      </trkpt>
      <trkpt lat="50.45291" lon="2.68153">
        <ele>58.18835932</ele>
        <time>2017-09-03T07:45:46Z</time>
      </trkpt>
      <trkpt lat="50.45304" lon="2.68128">
        <ele>58.1878482</ele>
        <time>2017-09-03T07:45:50Z</time>
      </trkpt>
      <trkpt lat="50.45319" lon="2.68097">
        <ele>57.18723904</ele>
        <time>2017-09-03T07:45:55Z</time>
      </trkpt>
      <trkpt lat="50.45333" lon="2.68071">
        <ele>57.18666716</ele>
        <time>2017-09-03T07:45:59Z</time>
      </trkpt>
      <trkpt lat="50.4535" lon="2.68041">
        <ele>57.1860126</ele>
        <time>2017-09-03T07:46:04Z</time>
      </trkpt>
      <trkpt lat="50.45365" lon="2.6801">
        <ele>58.18540128</ele>
        <time>2017-09-03T07:46:09Z</time>
      </trkpt>
      <trkpt lat="50.45377" lon="2.67983">
        <ele>58.18492896</ele>
        <time>2017-09-03T07:46:13Z</time>
      </trkpt>
      <trkpt lat="50.45387" lon="2.67947">
        <ele>59.18451772</ele>
        <time>2017-09-03T07:46:18Z</time>
      </trkpt>
      <trkpt lat="50.45394" lon="2.67918">
        <ele>60.18425992</ele>
        <time>2017-09-03T07:46:22Z</time>
      </trkpt>
      <trkpt lat="50.454" lon="2.67881">
        <ele>61.18400856</ele>
        <time>2017-09-03T07:46:27Z</time>
      </trkpt>
      <trkpt lat="50.45403" lon="2.67858">
        <ele>62.18387448</ele>
        <time>2017-09-03T07:46:31Z</time>
      </trkpt>
      <trkpt lat="50.45408" lon="2.67819">
        <ele>63.1836692</ele>
        <time>2017-09-03T07:46:35Z</time>
      </trkpt>
      <trkpt lat="50.45412" lon="2.67788">
        <ele>63.18351316</ele>
        <time>2017-09-03T07:46:39Z</time>
      </trkpt>
      <trkpt lat="50.45415" lon="2.67749">
        <ele>64.18338516</ele>
        <time>2017-09-03T07:46:44Z</time>
      </trkpt>
      <trkpt lat="50.45421" lon="2.6771">
        <ele>64.18317312</ele>
        <time>2017-09-03T07:46:49Z</time>
      </trkpt>
      <trkpt lat="50.45426" lon="2.67677">
        <ele>65.18295308</ele>
        <time>2017-09-03T07:46:53Z</time>
      </trkpt>
      <trkpt lat="50.45437" lon="2.67638">
        <ele>65.1825162</ele>
        <time>2017-09-03T07:46:58Z</time>
      </trkpt>
      <trkpt lat="50.45448" lon="2.67595">
        <ele>64.18209784</ele>
        <time>2017-09-03T07:47:03Z</time>
      </trkpt>
      <trkpt lat="50.45459" lon="2.67549">
        <ele>64.18165456</ele>
        <time>2017-09-03T07:47:08Z</time>
      </trkpt>
      <trkpt lat="50.45466" lon="2.67512">
        <ele>63.18134504</ele>
        <time>2017-09-03T07:47:12Z</time>
      </trkpt>
      <trkpt lat="50.45474" lon="2.67475">
        <ele>62.18103876</ele>
        <time>2017-09-03T07:47:16Z</time>
      </trkpt>
      <trkpt lat="50.45485" lon="2.6743">
        <ele>60.1806088</ele>
        <time>2017-09-03T07:47:21Z</time>
      </trkpt>
      <trkpt lat="50.45501" lon="2.67384">
        <ele>59.17995104</ele>
        <time>2017-09-03T07:47:26Z</time>
      </trkpt>
      <trkpt lat="50.45514" lon="2.67348">
        <ele>59.17943356</ele>
        <time>2017-09-03T07:47:30Z</time>
      </trkpt>
      <trkpt lat="50.45525" lon="2.67309">
        <ele>58.17900032</ele>
        <time>2017-09-03T07:47:34Z</time>
      </trkpt>
      <trkpt lat="50.45534" lon="2.6727">
        <ele>56.17864616</ele>
        <time>2017-09-03T07:47:38Z</time>
      </trkpt>
      <trkpt lat="50.45542" lon="2.6723">
        <ele>56.17833608</ele>
        <time>2017-09-03T07:47:42Z</time>
      </trkpt>
      <trkpt lat="50.45551" lon="2.6718">
        <ele>55.17796096</ele>
        <time>2017-09-03T07:47:47Z</time>
      </trkpt>
      <trkpt lat="50.45557" lon="2.67141">
        <ele>55.17772692</ele>
        <time>2017-09-03T07:47:51Z</time>
      </trkpt>
      <trkpt lat="50.45561" lon="2.67094">
        <ele>54.17756788</ele>
        <time>2017-09-03T07:47:56Z</time>
      </trkpt>
      <trkpt lat="50.4556" lon="2.67046">
        <ele>54.17760072</ele>
        <time>2017-09-03T07:48:01Z</time>
      </trkpt>
      <trkpt lat="50.45548" lon="2.67015">
        <ele>54.17807292</ele>
        <time>2017-09-03T07:48:05Z</time>
      </trkpt>
      <trkpt lat="50.45532" lon="2.66989">
        <ele>53.17870692</ele>
        <time>2017-09-03T07:48:10Z</time>
      </trkpt>
      <trkpt lat="50.45521" lon="2.66967">
        <ele>53.17916256</ele>
        <time>2017-09-03T07:48:14Z</time>
      </trkpt>
      <trkpt lat="50.45511" lon="2.66944">
        <ele>54.17954864</ele>
        <time>2017-09-03T07:48:18Z</time>
      </trkpt>
      <trkpt lat="50.45499" lon="2.66919">
        <ele>52.18003996</ele>
        <time>2017-09-03T07:48:22Z</time>
      </trkpt>
      <trkpt lat="50.45484" lon="2.66889">
        <ele>52.18064744</ele>
        <time>2017-09-03T07:48:27Z</time>
      </trkpt>
      <trkpt lat="50.45471" lon="2.66864">
        <ele>53.18115056</ele>
        <time>2017-09-03T07:48:31Z</time>
      </trkpt>
      <trkpt lat="50.45459" lon="2.66841">
        <ele>54.18162276</ele>
        <time>2017-09-03T07:48:35Z</time>
      </trkpt>
      <trkpt lat="50.45446" lon="2.66818">
        <ele>54.182156</ele>
        <time>2017-09-03T07:48:39Z</time>
      </trkpt>
      <trkpt lat="50.4543" lon="2.66787">
        <ele>54.1828204</ele>
        <time>2017-09-03T07:48:44Z</time>
      </trkpt>
      <trkpt lat="50.45408" lon="2.66766">
        <ele>55.18368588</ele>
        <time>2017-09-03T07:48:49Z</time>
      </trkpt>
      <trkpt lat="50.45395" lon="2.66745">
        <ele>56.18419312</ele>
        <time>2017-09-03T07:48:53Z</time>
      </trkpt>
      <trkpt lat="50.45385" lon="2.66716">
        <ele>56.18460088</ele>
        <time>2017-09-03T07:48:58Z</time>
      </trkpt>
      <trkpt lat="50.45368" lon="2.66702">
        <ele>55.18529344</ele>
        <time>2017-09-03T07:49:02Z</time>
      </trkpt>
      <trkpt lat="50.45347" lon="2.66677">
        <ele>56.186128</ele>
        <time>2017-09-03T07:49:07Z</time>
      </trkpt>
      <trkpt lat="50.45327" lon="2.66649">
        <ele>56.18693336</ele>
        <time>2017-09-03T07:49:12Z</time>
      </trkpt>
      <trkpt lat="50.45311" lon="2.66627">
        <ele>56.187555</ele>
        <time>2017-09-03T07:49:16Z</time>
      </trkpt>
      <trkpt lat="50.45292" lon="2.66598">
        <ele>57.188319</ele>
        <time>2017-09-03T07:49:21Z</time>
      </trkpt>
      <trkpt lat="50.45277" lon="2.66577">
        <ele>57.18893228</ele>
        <time>2017-09-03T07:49:25Z</time>
      </trkpt>
      <trkpt lat="50.45257" lon="2.66553">
        <ele>60.18973544</ele>
        <time>2017-09-03T07:49:30Z</time>
      </trkpt>
      <trkpt lat="50.45238" lon="2.66529">
        <ele>60.190467</ele>
        <time>2017-09-03T07:49:35Z</time>
      </trkpt>
      <trkpt lat="50.45223" lon="2.6651">
        <ele>59.19109528</ele>
        <time>2017-09-03T07:49:39Z</time>
      </trkpt>
      <trkpt lat="50.45206" lon="2.66495">
        <ele>59.19177468</ele>
        <time>2017-09-03T07:49:43Z</time>
      </trkpt>
      <trkpt lat="50.45184" lon="2.66477">
        <ele>61.19264688</ele>
        <time>2017-09-03T07:49:48Z</time>
      </trkpt>
      <trkpt lat="50.45166" lon="2.66466">
        <ele>62.19337212</ele>
        <time>2017-09-03T07:49:52Z</time>
      </trkpt>
      <trkpt lat="50.45148" lon="2.66454">
        <ele>63.1940856</ele>
        <time>2017-09-03T07:49:56Z</time>
      </trkpt>
      <trkpt lat="50.45125" lon="2.66441">
        <ele>63.19501568</ele>
        <time>2017-09-03T07:50:01Z</time>
      </trkpt>
      <trkpt lat="50.45106" lon="2.66431">
        <ele>64.195759</ele>
        <time>2017-09-03T07:50:05Z</time>
      </trkpt>
      <trkpt lat="50.45083" lon="2.66416">
        <ele>65.19666684</ele>
        <time>2017-09-03T07:50:10Z</time>
      </trkpt>
      <trkpt lat="50.45065" lon="2.66406">
        <ele>65.1974118</ele>
        <time>2017-09-03T07:50:14Z</time>
      </trkpt>
      <trkpt lat="50.45046" lon="2.66396">
        <ele>65.19816936</ele>
        <time>2017-09-03T07:50:18Z</time>
      </trkpt>
      <trkpt lat="50.45027" lon="2.66388">
        <ele>66.19892324</ele>
        <time>2017-09-03T07:50:22Z</time>
      </trkpt>
      <trkpt lat="50.45008" lon="2.6638">
        <ele>67.19969964</ele>
        <time>2017-09-03T07:50:26Z</time>
      </trkpt>
      <trkpt lat="50.44983" lon="2.66369">
        <ele>67.2006676</ele>
        <time>2017-09-03T07:50:31Z</time>
      </trkpt>
      <trkpt lat="50.44963" lon="2.66361">
        <ele>68.20147208</ele>
        <time>2017-09-03T07:50:35Z</time>
      </trkpt>
      <trkpt lat="50.44939" lon="2.66351">
        <ele>69.20244836</ele>
        <time>2017-09-03T07:50:40Z</time>
      </trkpt>
      <trkpt lat="50.44919" lon="2.66343">
        <ele>69.20324764</ele>
        <time>2017-09-03T07:50:44Z</time>
      </trkpt>
      <trkpt lat="50.44899" lon="2.66334">
        <ele>70.20404208</ele>
        <time>2017-09-03T07:50:48Z</time>
      </trkpt>
      <trkpt lat="50.44874" lon="2.66325">
        <ele>70.20502272</ele>
        <time>2017-09-03T07:50:53Z</time>
      </trkpt>
      <trkpt lat="50.44855" lon="2.66318">
        <ele>71.20578656</ele>
        <time>2017-09-03T07:50:57Z</time>
      </trkpt>
      <trkpt lat="50.44833" lon="2.6631">
        <ele>71.20669484</ele>
        <time>2017-09-03T07:51:02Z</time>
      </trkpt>
      <trkpt lat="50.44809" lon="2.66302">
        <ele>72.20765916</ele>
        <time>2017-09-03T07:51:07Z</time>
      </trkpt>
      <trkpt lat="50.44784" lon="2.66294">
        <ele>72.20862652</ele>
        <time>2017-09-03T07:51:12Z</time>
      </trkpt>
      <trkpt lat="50.44765" lon="2.66288">
        <ele>72.20941856</ele>
        <time>2017-09-03T07:51:16Z</time>
      </trkpt>
      <trkpt lat="50.4474" lon="2.66282">
        <ele>71.2104186</ele>
        <time>2017-09-03T07:51:21Z</time>
      </trkpt>
      <trkpt lat="50.44719" lon="2.66278">
        <ele>71.21123928</ele>
        <time>2017-09-03T07:51:25Z</time>
      </trkpt>
      <trkpt lat="50.44693" lon="2.66271">
        <ele>69.21227364</ele>
        <time>2017-09-03T07:51:30Z</time>
      </trkpt>
      <trkpt lat="50.44673" lon="2.66264">
        <ele>70.21306356</ele>
        <time>2017-09-03T07:51:34Z</time>
      </trkpt>
      <trkpt lat="50.44654" lon="2.66253">
        <ele>71.21383084</ele>
        <time>2017-09-03T07:51:38Z</time>
      </trkpt>
      <trkpt lat="50.44635" lon="2.66242">
        <ele>71.21459268</ele>
        <time>2017-09-03T07:51:42Z</time>
      </trkpt>
      <trkpt lat="50.44621" lon="2.66234">
        <ele>71.2151686</ele>
        <time>2017-09-03T07:51:45Z</time>
      </trkpt>
      <trkpt lat="50.44599" lon="2.66217">
        <ele>71.21603956</ele>
        <time>2017-09-03T07:51:50Z</time>
      </trkpt>
      <trkpt lat="50.44582" lon="2.66201">
        <ele>72.21672756</ele>
        <time>2017-09-03T07:51:54Z</time>
      </trkpt>
      <trkpt lat="50.44567" lon="2.66183">
        <ele>73.21731668</ele>
        <time>2017-09-03T07:51:58Z</time>
      </trkpt>
      <trkpt lat="50.44552" lon="2.66166">
        <ele>73.21792404</ele>
        <time>2017-09-03T07:52:02Z</time>
      </trkpt>
      <trkpt lat="50.44545" lon="2.66149">
        <ele>73.2181964</ele>
        <time>2017-09-03T07:52:06Z</time>
      </trkpt>
      <trkpt lat="50.4454" lon="2.66136">
        <ele>73.21841568</ele>
        <time>2017-09-03T07:52:11Z</time>
      </trkpt>
      <trkpt lat="50.44532" lon="2.66129">
        <ele>73.218713</ele>
        <time>2017-09-03T07:52:15Z</time>
      </trkpt>
      <trkpt lat="50.44523" lon="2.66122">
        <ele>74.21908944</ele>
        <time>2017-09-03T07:52:19Z</time>
      </trkpt>
      <trkpt lat="50.44509" lon="2.66107">
        <ele>75.21963008</ele>
        <time>2017-09-03T07:52:24Z</time>
      </trkpt>
      <trkpt lat="50.44499" lon="2.66092">
        <ele>77.2200552</ele>
        <time>2017-09-03T07:52:28Z</time>
      </trkpt>
      <trkpt lat="50.44484" lon="2.66071">
        <ele>77.2206252</ele>
        <time>2017-09-03T07:52:33Z</time>
      </trkpt>
      <trkpt lat="50.44479" lon="2.6605">
        <ele>74.2208518</ele>
        <time>2017-09-03T07:52:37Z</time>
      </trkpt>
      <trkpt lat="50.44475" lon="2.66033">
        <ele>75.22101228</ele>
        <time>2017-09-03T07:52:41Z</time>
      </trkpt>
      <trkpt lat="50.44469" lon="2.66013">
        <ele>74.22122912</ele>
        <time>2017-09-03T07:52:45Z</time>
      </trkpt>
      <trkpt lat="50.4446" lon="2.65989">
        <ele>75.22160012</ele>
        <time>2017-09-03T07:52:49Z</time>
      </trkpt>
      <trkpt lat="50.44451" lon="2.65956">
        <ele>76.22194396</ele>
        <time>2017-09-03T07:52:54Z</time>
      </trkpt>
      <trkpt lat="50.44446" lon="2.65927">
        <ele>73.22216936</ele>
        <time>2017-09-03T07:52:58Z</time>
      </trkpt>
      <trkpt lat="50.44441" lon="2.65909">
        <ele>75.22236656</ele>
        <time>2017-09-03T07:53:02Z</time>
      </trkpt>
      <trkpt lat="50.44433" lon="2.65895">
        <ele>77.22269512</ele>
        <time>2017-09-03T07:53:06Z</time>
      </trkpt>
      <trkpt lat="50.44428" lon="2.65889">
        <ele>79.22289204</ele>
        <time>2017-09-03T07:53:11Z</time>
      </trkpt>
      <trkpt lat="50.44421" lon="2.65882">
        <ele>79.22316704</ele>
        <time>2017-09-03T07:53:16Z</time>
      </trkpt>
      <trkpt lat="50.44413" lon="2.65881">
        <ele>81.2234828</ele>
        <time>2017-09-03T07:53:21Z</time>
      </trkpt>
      <trkpt lat="50.44404" lon="2.65879">
        <ele>82.2238268</ele>
        <time>2017-09-03T07:53:42Z</time>
      </trkpt>
      <trkpt lat="50.44396" lon="2.65873">
        <ele>85.2241464</ele>
        <time>2017-09-03T07:53:47Z</time>
      </trkpt>
      <trkpt lat="50.44389" lon="2.65867">
        <ele>85.22445968</ele>
        <time>2017-09-03T07:53:52Z</time>
      </trkpt>
      <trkpt lat="50.44383" lon="2.65858">
        <ele>85.22467848</ele>
        <time>2017-09-03T07:54:04Z</time>
      </trkpt>
      <trkpt lat="50.44377" lon="2.65849">
        <ele>85.22492032</ele>
        <time>2017-09-03T07:54:09Z</time>
      </trkpt>
      <trkpt lat="50.44367" lon="2.65839">
        <ele>86.22532656</ele>
        <time>2017-09-03T07:54:14Z</time>
      </trkpt>
      <trkpt lat="50.44358" lon="2.6583">
        <ele>85.22567192</ele>
        <time>2017-09-03T07:54:18Z</time>
      </trkpt>
      <trkpt lat="50.44345" lon="2.65821">
        <ele>86.22618644</ele>
        <time>2017-09-03T07:54:23Z</time>
      </trkpt>
      <trkpt lat="50.44332" lon="2.65818">
        <ele>87.2267028</ele>
        <time>2017-09-03T07:54:27Z</time>
      </trkpt>
      <trkpt lat="50.44315" lon="2.65817">
        <ele>86.22742008</ele>
        <time>2017-09-03T07:54:32Z</time>
      </trkpt>
      <trkpt lat="50.44303" lon="2.6582">
        <ele>86.22789304</ele>
        <time>2017-09-03T07:54:35Z</time>
      </trkpt>
      <trkpt lat="50.44287" lon="2.65824">
        <ele>87.22852096</ele>
        <time>2017-09-03T07:54:39Z</time>
      </trkpt>
      <trkpt lat="50.44269" lon="2.65833">
        <ele>87.22922356</ele>
        <time>2017-09-03T07:54:44Z</time>
      </trkpt>
      <trkpt lat="50.44258" lon="2.65842">
        <ele>87.2296804</ele>
        <time>2017-09-03T07:54:49Z</time>
      </trkpt>
      <trkpt lat="50.4425" lon="2.65849">
        <ele>89.23000412</ele>
        <time>2017-09-03T07:54:54Z</time>
      </trkpt>
      <trkpt lat="50.44243" lon="2.6586">
        <ele>90.2302872</ele>
        <time>2017-09-03T07:54:58Z</time>
      </trkpt>
      <trkpt lat="50.44235" lon="2.65872">
        <ele>91.23061492</ele>
        <time>2017-09-03T07:55:03Z</time>
      </trkpt>
      <trkpt lat="50.44241" lon="2.65866">
        <ele>91.23035444</ele>
        <time>2017-09-03T07:55:23Z</time>
      </trkpt>
      <trkpt lat="50.44255" lon="2.65849">
        <ele>91.22981472</ele>
        <time>2017-09-03T07:55:27Z</time>
      </trkpt>
      <trkpt lat="50.44275" lon="2.65834">
        <ele>89.22901868</ele>
        <time>2017-09-03T07:55:32Z</time>
      </trkpt>
      <trkpt lat="50.44293" lon="2.65825">
        <ele>89.22828508</ele>
        <time>2017-09-03T07:55:36Z</time>
      </trkpt>
      <trkpt lat="50.44303" lon="2.65825">
        <ele>89.22787448</ele>
        <time>2017-09-03T07:55:40Z</time>
      </trkpt>
      <trkpt lat="50.44302" lon="2.65839">
        <ele>89.22793524</ele>
        <time>2017-09-03T07:55:47Z</time>
      </trkpt>
      <trkpt lat="50.44304" lon="2.65858">
        <ele>85.2278576</ele>
        <time>2017-09-03T07:55:52Z</time>
      </trkpt>
      <trkpt lat="50.44313" lon="2.65893">
        <ele>83.22747108</ele>
        <time>2017-09-03T07:55:56Z</time>
      </trkpt>
      <trkpt lat="50.44324" lon="2.65912">
        <ele>82.2270472</ele>
        <time>2017-09-03T07:56:00Z</time>
      </trkpt>
      <trkpt lat="50.4433" lon="2.65905">
        <ele>82.22680704</ele>
        <time>2017-09-03T07:56:04Z</time>
      </trkpt>
      <trkpt lat="50.44331" lon="2.65883">
        <ele>81.22676088</ele>
        <time>2017-09-03T07:56:09Z</time>
      </trkpt>
      <trkpt lat="50.44336" lon="2.65865">
        <ele>83.22655744</ele>
        <time>2017-09-03T07:56:14Z</time>
      </trkpt>
      <trkpt lat="50.44339" lon="2.65854">
        <ele>85.22644796</ele>
        <time>2017-09-03T07:56:18Z</time>
      </trkpt>
      <trkpt lat="50.44343" lon="2.65841">
        <ele>88.22629968</ele>
        <time>2017-09-03T07:56:24Z</time>
      </trkpt>
      <trkpt lat="50.44349" lon="2.65833">
        <ele>89.22604564</ele>
        <time>2017-09-03T07:56:29Z</time>
      </trkpt>
      <trkpt lat="50.44359" lon="2.65836">
        <ele>91.22563308</ele>
        <time>2017-09-03T07:56:34Z</time>
      </trkpt>
      <trkpt lat="50.44367" lon="2.65833">
        <ele>91.22531828</ele>
        <time>2017-09-03T07:56:38Z</time>
      </trkpt>
      <trkpt lat="50.44379" lon="2.65823">
        <ele>88.22485956</ele>
        <time>2017-09-03T07:56:43Z</time>
      </trkpt>
      <trkpt lat="50.44392" lon="2.65811">
        <ele>84.22430976</ele>
        <time>2017-09-03T07:56:48Z</time>
      </trkpt>
      <trkpt lat="50.44389" lon="2.65796">
        <ele>84.2244416</ele>
        <time>2017-09-03T07:56:53Z</time>
      </trkpt>
      <trkpt lat="50.44384" lon="2.65784">
        <ele>83.22462508</ele>
        <time>2017-09-03T07:56:57Z</time>
      </trkpt>
      <trkpt lat="50.44379" lon="2.65768">
        <ele>83.2248316</ele>
        <time>2017-09-03T07:57:02Z</time>
      </trkpt>
      <trkpt lat="50.44379" lon="2.65756">
        <ele>86.22485896</ele>
        <time>2017-09-03T07:57:09Z</time>
      </trkpt>
      <trkpt lat="50.44379" lon="2.65744">
        <ele>84.22484324</ele>
        <time>2017-09-03T07:57:14Z</time>
      </trkpt>
      <trkpt lat="50.44383" lon="2.65731">
        <ele>87.22468488</ele>
        <time>2017-09-03T07:57:18Z</time>
      </trkpt>
      <trkpt lat="50.44378" lon="2.65713">
        <ele>82.22488476</ele>
        <time>2017-09-03T07:57:22Z</time>
      </trkpt>
      <trkpt lat="50.44376" lon="2.65694">
        <ele>81.22495976</ele>
        <time>2017-09-03T07:57:26Z</time>
      </trkpt>
      <trkpt lat="50.44365" lon="2.6566">
        <ele>81.22538356</ele>
        <time>2017-09-03T07:57:31Z</time>
      </trkpt>
      <trkpt lat="50.44358" lon="2.65627">
        <ele>82.22568348</ele>
        <time>2017-09-03T07:57:36Z</time>
      </trkpt>
      <trkpt lat="50.44356" lon="2.65599">
        <ele>81.22578012</ele>
        <time>2017-09-03T07:57:40Z</time>
      </trkpt>
      <trkpt lat="50.4435" lon="2.65568">
        <ele>82.22600916</ele>
        <time>2017-09-03T07:57:45Z</time>
      </trkpt>
      <trkpt lat="50.44346" lon="2.65542">
        <ele>81.22617308</ele>
        <time>2017-09-03T07:57:49Z</time>
      </trkpt>
      <trkpt lat="50.4434" lon="2.65507">
        <ele>79.22640476</ele>
        <time>2017-09-03T07:57:54Z</time>
      </trkpt>
      <trkpt lat="50.44335" lon="2.65475">
        <ele>79.2266006</ele>
        <time>2017-09-03T07:57:58Z</time>
      </trkpt>
      <trkpt lat="50.4433" lon="2.65446">
        <ele>79.22680108</ele>
        <time>2017-09-03T07:58:02Z</time>
      </trkpt>
      <trkpt lat="50.44329" lon="2.65418">
        <ele>80.22684376</ele>
        <time>2017-09-03T07:58:06Z</time>
      </trkpt>
      <trkpt lat="50.44332" lon="2.65388">
        <ele>81.22672736</ele>
        <time>2017-09-03T07:58:10Z</time>
      </trkpt>
      <trkpt lat="50.44338" lon="2.65351">
        <ele>82.22648848</ele>
        <time>2017-09-03T07:58:15Z</time>
      </trkpt>
      <trkpt lat="50.4434" lon="2.65328">
        <ele>87.22641276</ele>
        <time>2017-09-03T07:58:19Z</time>
      </trkpt>
      <trkpt lat="50.44343" lon="2.65289">
        <ele>86.2262658</ele>
        <time>2017-09-03T07:58:24Z</time>
      </trkpt>
      <trkpt lat="50.44349" lon="2.65259">
        <ele>86.22603456</ele>
        <time>2017-09-03T07:58:28Z</time>
      </trkpt>
      <trkpt lat="50.44353" lon="2.65224">
        <ele>85.22586536</ele>
        <time>2017-09-03T07:58:33Z</time>
      </trkpt>
      <trkpt lat="50.44358" lon="2.65194">
        <ele>85.22569996</ele>
        <time>2017-09-03T07:58:37Z</time>
      </trkpt>
      <trkpt lat="50.44364" lon="2.65163">
        <ele>84.22545516</ele>
        <time>2017-09-03T07:58:41Z</time>
      </trkpt>
      <trkpt lat="50.44369" lon="2.65122">
        <ele>86.22525732</ele>
        <time>2017-09-03T07:58:46Z</time>
      </trkpt>
      <trkpt lat="50.44371" lon="2.65089">
        <ele>87.22516844</ele>
        <time>2017-09-03T07:58:50Z</time>
      </trkpt>
      <trkpt lat="50.44377" lon="2.65048">
        <ele>86.22492356</ele>
        <time>2017-09-03T07:58:55Z</time>
      </trkpt>
      <trkpt lat="50.44383" lon="2.65017">
        <ele>87.22469196</ele>
        <time>2017-09-03T07:58:59Z</time>
      </trkpt>
      <trkpt lat="50.44388" lon="2.64976">
        <ele>86.2244986</ele>
        <time>2017-09-03T07:59:04Z</time>
      </trkpt>
      <trkpt lat="50.4439" lon="2.64936">
        <ele>85.22438564</ele>
        <time>2017-09-03T07:59:09Z</time>
      </trkpt>
      <trkpt lat="50.44396" lon="2.64898">
        <ele>85.22415528</ele>
        <time>2017-09-03T07:59:14Z</time>
      </trkpt>
      <trkpt lat="50.44404" lon="2.64852">
        <ele>82.22384104</ele>
        <time>2017-09-03T07:59:19Z</time>
      </trkpt>
      <trkpt lat="50.44413" lon="2.64818">
        <ele>81.22349136</ele>
        <time>2017-09-03T07:59:23Z</time>
      </trkpt>
      <trkpt lat="50.44422" lon="2.64784">
        <ele>80.22312652</ele>
        <time>2017-09-03T07:59:27Z</time>
      </trkpt>
      <trkpt lat="50.4443" lon="2.64749">
        <ele>80.22279968</ele>
        <time>2017-09-03T07:59:31Z</time>
      </trkpt>
      <trkpt lat="50.44442" lon="2.64709">
        <ele>82.22233108</ele>
        <time>2017-09-03T07:59:36Z</time>
      </trkpt>
      <trkpt lat="50.44443" lon="2.64693">
        <ele>84.22227224</ele>
        <time>2017-09-03T07:59:38Z</time>
      </trkpt>
      <trkpt lat="50.44454" lon="2.64651">
        <ele>79.22183668</ele>
        <time>2017-09-03T07:59:43Z</time>
      </trkpt>
      <trkpt lat="50.44466" lon="2.64621">
        <ele>78.22136212</ele>
        <time>2017-09-03T07:59:47Z</time>
      </trkpt>
      <trkpt lat="50.44474" lon="2.64592">
        <ele>78.22104292</ele>
        <time>2017-09-03T07:59:51Z</time>
      </trkpt>
      <trkpt lat="50.44484" lon="2.64551">
        <ele>79.22062604</ele>
        <time>2017-09-03T07:59:56Z</time>
      </trkpt>
      <trkpt lat="50.44497" lon="2.6451">
        <ele>78.22012768</ele>
        <time>2017-09-03T08:00:01Z</time>
      </trkpt>
      <trkpt lat="50.44507" lon="2.64479">
        <ele>79.21973448</ele>
        <time>2017-09-03T08:00:05Z</time>
      </trkpt>
      <trkpt lat="50.44519" lon="2.64439">
        <ele>79.21922556</ele>
        <time>2017-09-03T08:00:10Z</time>
      </trkpt>
      <trkpt lat="50.4453" lon="2.6441">
        <ele>76.21879064</ele>
        <time>2017-09-03T08:00:15Z</time>
      </trkpt>
      <trkpt lat="50.44522" lon="2.64395">
        <ele>76.21912884</ele>
        <time>2017-09-03T08:00:19Z</time>
      </trkpt>
      <trkpt lat="50.44506" lon="2.64382">
        <ele>77.21977208</ele>
        <time>2017-09-03T08:00:23Z</time>
      </trkpt>
      <trkpt lat="50.4449" lon="2.64368">
        <ele>79.22042196</ele>
        <time>2017-09-03T08:00:27Z</time>
      </trkpt>
      <trkpt lat="50.44468" lon="2.6435">
        <ele>78.2212638</ele>
        <time>2017-09-03T08:00:32Z</time>
      </trkpt>
      <trkpt lat="50.44446" lon="2.64332">
        <ele>78.2221498</ele>
        <time>2017-09-03T08:00:37Z</time>
      </trkpt>
      <trkpt lat="50.4443" lon="2.64316">
        <ele>78.22279384</ele>
        <time>2017-09-03T08:00:41Z</time>
      </trkpt>
      <trkpt lat="50.44412" lon="2.64297">
        <ele>80.22352572</ele>
        <time>2017-09-03T08:00:46Z</time>
      </trkpt>
      <trkpt lat="50.44392" lon="2.64278">
        <ele>80.2243376</ele>
        <time>2017-09-03T08:00:51Z</time>
      </trkpt>
      <trkpt lat="50.4437" lon="2.64259">
        <ele>80.22522064</ele>
        <time>2017-09-03T08:00:56Z</time>
      </trkpt>
      <trkpt lat="50.44354" lon="2.64247">
        <ele>80.22583784</ele>
        <time>2017-09-03T08:01:00Z</time>
      </trkpt>
      <trkpt lat="50.44339" lon="2.64236">
        <ele>80.22645756</ele>
        <time>2017-09-03T08:01:04Z</time>
      </trkpt>
      <trkpt lat="50.44329" lon="2.64227">
        <ele>79.22682436</ele>
        <time>2017-09-03T08:01:08Z</time>
      </trkpt>
      <trkpt lat="50.4432" lon="2.64235">
        <ele>79.22719832</ele>
        <time>2017-09-03T08:01:11Z</time>
      </trkpt>
      <trkpt lat="50.44307" lon="2.64256">
        <ele>78.22773992</ele>
        <time>2017-09-03T08:01:16Z</time>
      </trkpt>
      <trkpt lat="50.44294" lon="2.64248">
        <ele>80.22822548</ele>
        <time>2017-09-03T08:01:20Z</time>
      </trkpt>
      <trkpt lat="50.44289" lon="2.6424">
        <ele>80.22845652</ele>
        <time>2017-09-03T08:01:25Z</time>
      </trkpt>
      <trkpt lat="50.44277" lon="2.64223">
        <ele>78.22891412</ele>
        <time>2017-09-03T08:01:30Z</time>
      </trkpt>
      <trkpt lat="50.4427" lon="2.64214">
        <ele>83.22918452</ele>
        <time>2017-09-03T08:01:41Z</time>
      </trkpt>
      <trkpt lat="50.44265" lon="2.64206">
        <ele>80.22938616</ele>
        <time>2017-09-03T08:01:53Z</time>
      </trkpt>
      <trkpt lat="50.4425" lon="2.64191">
        <ele>81.22999568</ele>
        <time>2017-09-03T08:01:58Z</time>
      </trkpt>
      <trkpt lat="50.44236" lon="2.64177">
        <ele>81.23056608</ele>
        <time>2017-09-03T08:02:02Z</time>
      </trkpt>
      <trkpt lat="50.44222" lon="2.64161">
        <ele>81.23112424</ele>
        <time>2017-09-03T08:02:06Z</time>
      </trkpt>
      <trkpt lat="50.44208" lon="2.64146">
        <ele>83.2317008</ele>
        <time>2017-09-03T08:02:10Z</time>
      </trkpt>
      <trkpt lat="50.44191" lon="2.64124">
        <ele>84.23236828</ele>
        <time>2017-09-03T08:02:15Z</time>
      </trkpt>
      <trkpt lat="50.44177" lon="2.64105">
        <ele>85.2329334</ele>
        <time>2017-09-03T08:02:19Z</time>
      </trkpt>
      <trkpt lat="50.44164" lon="2.6408">
        <ele>85.23344908</ele>
        <time>2017-09-03T08:02:24Z</time>
      </trkpt>
      <trkpt lat="50.44155" lon="2.64054">
        <ele>86.23381044</ele>
        <time>2017-09-03T08:02:29Z</time>
      </trkpt>
      <trkpt lat="50.44145" lon="2.64023">
        <ele>87.23420644</ele>
        <time>2017-09-03T08:02:34Z</time>
      </trkpt>
      <trkpt lat="50.44136" lon="2.63999">
        <ele>87.23457588</ele>
        <time>2017-09-03T08:02:39Z</time>
      </trkpt>
      <trkpt lat="50.44131" lon="2.63982">
        <ele>87.23474456</ele>
        <time>2017-09-03T08:02:42Z</time>
      </trkpt>
      <trkpt lat="50.44122" lon="2.63963">
        <ele>89.235109</ele>
        <time>2017-09-03T08:02:47Z</time>
      </trkpt>
      <trkpt lat="50.44111" lon="2.63951">
        <ele>91.2355622</ele>
        <time>2017-09-03T08:02:51Z</time>
      </trkpt>
      <trkpt lat="50.44097" lon="2.63941">
        <ele>91.2361074</ele>
        <time>2017-09-03T08:02:55Z</time>
      </trkpt>
      <trkpt lat="50.44084" lon="2.63933">
        <ele>90.23663648</ele>
        <time>2017-09-03T08:02:59Z</time>
      </trkpt>
      <trkpt lat="50.44068" lon="2.63924">
        <ele>89.23729972</ele>
        <time>2017-09-03T08:03:04Z</time>
      </trkpt>
      <trkpt lat="50.44051" lon="2.6392">
        <ele>89.23794384</ele>
        <time>2017-09-03T08:03:08Z</time>
      </trkpt>
      <trkpt lat="50.44035" lon="2.63916">
        <ele>89.23861404</ele>
        <time>2017-09-03T08:03:12Z</time>
      </trkpt>
      <trkpt lat="50.44015" lon="2.63912">
        <ele>90.23940912</ele>
        <time>2017-09-03T08:03:17Z</time>
      </trkpt>
      <trkpt lat="50.44" lon="2.63903">
        <ele>91.2399896</ele>
        <time>2017-09-03T08:03:21Z</time>
      </trkpt>
      <trkpt lat="50.43986" lon="2.63891">
        <ele>91.24058028</ele>
        <time>2017-09-03T08:03:25Z</time>
      </trkpt>
      <trkpt lat="50.43972" lon="2.6388">
        <ele>92.241126</ele>
        <time>2017-09-03T08:03:29Z</time>
      </trkpt>
      <trkpt lat="50.43956" lon="2.63873">
        <ele>94.24175468</ele>
        <time>2017-09-03T08:03:33Z</time>
      </trkpt>
      <trkpt lat="50.43937" lon="2.63863">
        <ele>94.24251828</ele>
        <time>2017-09-03T08:03:38Z</time>
      </trkpt>
      <trkpt lat="50.43924" lon="2.63856">
        <ele>94.24304648</ele>
        <time>2017-09-03T08:03:42Z</time>
      </trkpt>
      <trkpt lat="50.43908" lon="2.63847">
        <ele>95.24369272</ele>
        <time>2017-09-03T08:03:47Z</time>
      </trkpt>
      <trkpt lat="50.43896" lon="2.63831">
        <ele>94.24415764</ele>
        <time>2017-09-03T08:03:51Z</time>
      </trkpt>
      <trkpt lat="50.43884" lon="2.63805">
        <ele>91.24466068</ele>
        <time>2017-09-03T08:03:56Z</time>
      </trkpt>
      <trkpt lat="50.43872" lon="2.63792">
        <ele>93.24513</ele>
        <time>2017-09-03T08:04:00Z</time>
      </trkpt>
      <trkpt lat="50.43865" lon="2.63779">
        <ele>94.24541788</ele>
        <time>2017-09-03T08:04:04Z</time>
      </trkpt>
      <trkpt lat="50.43849" lon="2.6376">
        <ele>97.24602452</ele>
        <time>2017-09-03T08:04:09Z</time>
      </trkpt>
      <trkpt lat="50.43838" lon="2.63746">
        <ele>97.2464734</ele>
        <time>2017-09-03T08:04:13Z</time>
      </trkpt>
      <trkpt lat="50.43825" lon="2.63728">
        <ele>101.24701964</ele>
        <time>2017-09-03T08:04:18Z</time>
      </trkpt>
      <trkpt lat="50.43816" lon="2.63716">
        <ele>103.2473756</ele>
        <time>2017-09-03T08:04:22Z</time>
      </trkpt>
      <trkpt lat="50.43801" lon="2.63698">
        <ele>102.24795452</ele>
        <time>2017-09-03T08:04:27Z</time>
      </trkpt>
      <trkpt lat="50.4379" lon="2.63683">
        <ele>107.2484122</ele>
        <time>2017-09-03T08:04:32Z</time>
      </trkpt>
      <trkpt lat="50.43779" lon="2.6367">
        <ele>108.24882772</ele>
        <time>2017-09-03T08:04:36Z</time>
      </trkpt>
      <trkpt lat="50.43767" lon="2.63657">
        <ele>103.24933388</ele>
        <time>2017-09-03T08:04:40Z</time>
      </trkpt>
      <trkpt lat="50.43752" lon="2.63648">
        <ele>103.24991316</ele>
        <time>2017-09-03T08:04:45Z</time>
      </trkpt>
      <trkpt lat="50.43742" lon="2.6364">
        <ele>108.25033176</ele>
        <time>2017-09-03T08:04:49Z</time>
      </trkpt>
      <trkpt lat="50.43728" lon="2.63632">
        <ele>108.25086856</ele>
        <time>2017-09-03T08:04:54Z</time>
      </trkpt>
      <trkpt lat="50.43714" lon="2.6362">
        <ele>104.25142844</ele>
        <time>2017-09-03T08:04:59Z</time>
      </trkpt>
      <trkpt lat="50.43704" lon="2.63607">
        <ele>102.25184608</ele>
        <time>2017-09-03T08:05:03Z</time>
      </trkpt>
      <trkpt lat="50.43693" lon="2.63592">
        <ele>102.2522736</ele>
        <time>2017-09-03T08:05:08Z</time>
      </trkpt>
      <trkpt lat="50.43681" lon="2.63581">
        <ele>105.25277028</ele>
        <time>2017-09-03T08:05:12Z</time>
      </trkpt>
      <trkpt lat="50.43671" lon="2.63568">
        <ele>108.2531536</ele>
        <time>2017-09-03T08:05:17Z</time>
      </trkpt>
      <trkpt lat="50.43663" lon="2.6356">
        <ele>108.25347692</ele>
        <time>2017-09-03T08:05:21Z</time>
      </trkpt>
      <trkpt lat="50.43658" lon="2.63548">
        <ele>109.25366932</ele>
        <time>2017-09-03T08:05:25Z</time>
      </trkpt>
      <trkpt lat="50.4365" lon="2.6354">
        <ele>110.25399312</ele>
        <time>2017-09-03T08:05:30Z</time>
      </trkpt>
      <trkpt lat="50.43643" lon="2.63534">
        <ele>112.25430012</ele>
        <time>2017-09-03T08:05:34Z</time>
      </trkpt>
      <trkpt lat="50.43634" lon="2.63526">
        <ele>115.25463704</ele>
        <time>2017-09-03T08:05:39Z</time>
      </trkpt>
      <trkpt lat="50.43624" lon="2.63517">
        <ele>116.25502412</ele>
        <time>2017-09-03T08:05:44Z</time>
      </trkpt>
      <trkpt lat="50.43616" lon="2.63512">
        <ele>118.25534332</ele>
        <time>2017-09-03T08:05:48Z</time>
      </trkpt>
      <trkpt lat="50.4361" lon="2.63504">
        <ele>117.25561544</ele>
        <time>2017-09-03T08:05:53Z</time>
      </trkpt>
      <trkpt lat="50.436" lon="2.635">
        <ele>122.25601984</ele>
        <time>2017-09-03T08:05:58Z</time>
      </trkpt>
      <trkpt lat="50.43592" lon="2.63494">
        <ele>122.256302</ele>
        <time>2017-09-03T08:06:02Z</time>
      </trkpt>
      <trkpt lat="50.43584" lon="2.63488">
        <ele>124.25665988</ele>
        <time>2017-09-03T08:06:06Z</time>
      </trkpt>
      <trkpt lat="50.43571" lon="2.63488">
        <ele>132.25716988</ele>
        <time>2017-09-03T08:06:11Z</time>
      </trkpt>
      <trkpt lat="50.43559" lon="2.63472">
        <ele>128.25765376</ele>
        <time>2017-09-03T08:06:16Z</time>
      </trkpt>
      <trkpt lat="50.4355" lon="2.63461">
        <ele>123.25801664</ele>
        <time>2017-09-03T08:06:20Z</time>
      </trkpt>
      <trkpt lat="50.43544" lon="2.63449">
        <ele>121.25822808</ele>
        <time>2017-09-03T08:06:24Z</time>
      </trkpt>
      <trkpt lat="50.43535" lon="2.63439">
        <ele>116.25861344</ele>
        <time>2017-09-03T08:06:28Z</time>
      </trkpt>
      <trkpt lat="50.43523" lon="2.63426">
        <ele>111.25907996</ele>
        <time>2017-09-03T08:06:33Z</time>
      </trkpt>
      <trkpt lat="50.43515" lon="2.63415">
        <ele>112.25939008</ele>
        <time>2017-09-03T08:06:37Z</time>
      </trkpt>
      <trkpt lat="50.43508" lon="2.63408">
        <ele>116.25967616</ele>
        <time>2017-09-03T08:06:41Z</time>
      </trkpt>
      <trkpt lat="50.43498" lon="2.63401">
        <ele>118.2600804</ele>
        <time>2017-09-03T08:06:45Z</time>
      </trkpt>
      <trkpt lat="50.43491" lon="2.6339">
        <ele>118.26034684</ele>
        <time>2017-09-03T08:06:49Z</time>
      </trkpt>
      <trkpt lat="50.43481" lon="2.63379">
        <ele>119.26077228</ele>
        <time>2017-09-03T08:06:54Z</time>
      </trkpt>
      <trkpt lat="50.4347" lon="2.63369">
        <ele>120.26120496</ele>
        <time>2017-09-03T08:06:59Z</time>
      </trkpt>
      <trkpt lat="50.43458" lon="2.63367">
        <ele>119.261674</ele>
        <time>2017-09-03T08:07:03Z</time>
      </trkpt>
      <trkpt lat="50.43442" lon="2.63365">
        <ele>123.26233124</ele>
        <time>2017-09-03T08:07:08Z</time>
      </trkpt>
      <trkpt lat="50.43429" lon="2.63362">
        <ele>122.2628258</ele>
        <time>2017-09-03T08:07:12Z</time>
      </trkpt>
      <trkpt lat="50.43413" lon="2.63355">
        <ele>123.263494</ele>
        <time>2017-09-03T08:07:17Z</time>
      </trkpt>
      <trkpt lat="50.434" lon="2.63349">
        <ele>123.2640218</ele>
        <time>2017-09-03T08:07:21Z</time>
      </trkpt>
      <trkpt lat="50.43383" lon="2.63339">
        <ele>123.26469544</ele>
        <time>2017-09-03T08:07:26Z</time>
      </trkpt>
      <trkpt lat="50.4337" lon="2.63328">
        <ele>123.26518872</ele>
        <time>2017-09-03T08:07:30Z</time>
      </trkpt>
      <trkpt lat="50.43358" lon="2.63312">
        <ele>123.26567384</ele>
        <time>2017-09-03T08:07:34Z</time>
      </trkpt>
      <trkpt lat="50.43345" lon="2.6329">
        <ele>124.26619772</ele>
        <time>2017-09-03T08:07:39Z</time>
      </trkpt>
      <trkpt lat="50.43335" lon="2.63273">
        <ele>124.26658596</ele>
        <time>2017-09-03T08:07:43Z</time>
      </trkpt>
      <trkpt lat="50.43324" lon="2.63255">
        <ele>125.267027</ele>
        <time>2017-09-03T08:07:47Z</time>
      </trkpt>
      <trkpt lat="50.43311" lon="2.63239">
        <ele>126.26755176</ele>
        <time>2017-09-03T08:07:51Z</time>
      </trkpt>
      <trkpt lat="50.43299" lon="2.63227">
        <ele>127.26805912</ele>
        <time>2017-09-03T08:07:55Z</time>
      </trkpt>
      <trkpt lat="50.43282" lon="2.63215">
        <ele>128.26870616</ele>
        <time>2017-09-03T08:08:00Z</time>
      </trkpt>
      <trkpt lat="50.43268" lon="2.63205">
        <ele>129.26928872</ele>
        <time>2017-09-03T08:08:04Z</time>
      </trkpt>
      <trkpt lat="50.43254" lon="2.63196">
        <ele>130.2698434</ele>
        <time>2017-09-03T08:08:08Z</time>
      </trkpt>
      <trkpt lat="50.43243" lon="2.63208">
        <ele>132.27028988</ele>
        <time>2017-09-03T08:08:13Z</time>
      </trkpt>
      <trkpt lat="50.4324" lon="2.63221">
        <ele>137.27038888</ele>
        <time>2017-09-03T08:10:23Z</time>
      </trkpt>
      <trkpt lat="50.43236" lon="2.63246">
        <ele>137.27054576</ele>
        <time>2017-09-03T08:10:27Z</time>
      </trkpt>
      <trkpt lat="50.43228" lon="2.63285">
        <ele>139.27087668</ele>
        <time>2017-09-03T08:10:32Z</time>
      </trkpt>
      <trkpt lat="50.43219" lon="2.63313">
        <ele>140.27124824</ele>
        <time>2017-09-03T08:10:36Z</time>
      </trkpt>
      <trkpt lat="50.43206" lon="2.63339">
        <ele>142.27174844</ele>
        <time>2017-09-03T08:10:41Z</time>
      </trkpt>
      <trkpt lat="50.43196" lon="2.6336">
        <ele>141.27215328</ele>
        <time>2017-09-03T08:10:45Z</time>
      </trkpt>
      <trkpt lat="50.4319" lon="2.63395">
        <ele>142.27242128</ele>
        <time>2017-09-03T08:10:50Z</time>
      </trkpt>
      <trkpt lat="50.43187" lon="2.63438">
        <ele>142.27253024</ele>
        <time>2017-09-03T08:10:55Z</time>
      </trkpt>
      <trkpt lat="50.43173" lon="2.6347">
        <ele>142.27310088</ele>
        <time>2017-09-03T08:11:00Z</time>
      </trkpt>
      <trkpt lat="50.43166" lon="2.63496">
        <ele>139.27335428</ele>
        <time>2017-09-03T08:11:04Z</time>
      </trkpt>
      <trkpt lat="50.43147" lon="2.63526">
        <ele>141.27413892</ele>
        <time>2017-09-03T08:11:09Z</time>
      </trkpt>
      <trkpt lat="50.4313" lon="2.63551">
        <ele>138.27480872</ele>
        <time>2017-09-03T08:11:13Z</time>
      </trkpt>
      <trkpt lat="50.4311" lon="2.63578">
        <ele>138.27561964</ele>
        <time>2017-09-03T08:11:18Z</time>
      </trkpt>
      <trkpt lat="50.43096" lon="2.63598">
        <ele>138.2761452</ele>
        <time>2017-09-03T08:11:22Z</time>
      </trkpt>
      <trkpt lat="50.4309" lon="2.63607">
        <ele>136.27640824</ele>
        <time>2017-09-03T08:11:27Z</time>
      </trkpt>
      <trkpt lat="50.43082" lon="2.63599">
        <ele>137.27673128</ele>
        <time>2017-09-03T08:11:31Z</time>
      </trkpt>
      <trkpt lat="50.4307" lon="2.63591">
        <ele>138.27720032</ele>
        <time>2017-09-03T08:11:36Z</time>
      </trkpt>
      <trkpt lat="50.43056" lon="2.63593">
        <ele>141.27777808</ele>
        <time>2017-09-03T08:11:41Z</time>
      </trkpt>
      <trkpt lat="50.43045" lon="2.63596">
        <ele>146.27821772</ele>
        <time>2017-09-03T08:11:45Z</time>
      </trkpt>
      <trkpt lat="50.43033" lon="2.63597">
        <ele>147.2786968</ele>
        <time>2017-09-03T08:11:49Z</time>
      </trkpt>
      <trkpt lat="50.43028" lon="2.63586">
        <ele>143.27887808</ele>
        <time>2017-09-03T08:12:22Z</time>
      </trkpt>
      <trkpt lat="50.43021" lon="2.63583">
        <ele>151.27918176</ele>
        <time>2017-09-03T08:12:33Z</time>
      </trkpt>
      <trkpt lat="50.43012" lon="2.63578">
        <ele>152.27950564</ele>
        <time>2017-09-03T08:13:00Z</time>
      </trkpt>
      <trkpt lat="50.43004" lon="2.63571">
        <ele>152.27984392</ele>
        <time>2017-09-03T08:13:04Z</time>
      </trkpt>
      <trkpt lat="50.42996" lon="2.63565">
        <ele>149.280168</ele>
        <time>2017-09-03T08:13:09Z</time>
      </trkpt>
      <trkpt lat="50.42991" lon="2.63556">
        <ele>150.2803636</ele>
        <time>2017-09-03T08:13:14Z</time>
      </trkpt>
      <trkpt lat="50.42984" lon="2.63551">
        <ele>152.28064332</ele>
        <time>2017-09-03T08:13:19Z</time>
      </trkpt>
      <trkpt lat="50.42977" lon="2.63547">
        <ele>163.28093856</ele>
        <time>2017-09-03T08:13:26Z</time>
      </trkpt>
      <trkpt lat="50.42969" lon="2.63542">
        <ele>170.28126</ele>
        <time>2017-09-03T08:13:34Z</time>
      </trkpt>
      <trkpt lat="50.42961" lon="2.63538">
        <ele>169.28154768</ele>
        <time>2017-09-03T08:13:40Z</time>
      </trkpt>
      <trkpt lat="50.42955" lon="2.63531">
        <ele>169.28181176</ele>
        <time>2017-09-03T08:13:47Z</time>
      </trkpt>
      <trkpt lat="50.42948" lon="2.63526">
        <ele>167.28208952</ele>
        <time>2017-09-03T08:13:53Z</time>
      </trkpt>
      <trkpt lat="50.4294" lon="2.63524">
        <ele>171.28239808</ele>
        <time>2017-09-03T08:14:00Z</time>
      </trkpt>
      <trkpt lat="50.42932" lon="2.63522">
        <ele>173.28272972</ele>
        <time>2017-09-03T08:14:07Z</time>
      </trkpt>
      <trkpt lat="50.42924" lon="2.63516">
        <ele>178.28305344</ele>
        <time>2017-09-03T08:14:14Z</time>
      </trkpt>
      <trkpt lat="50.42912" lon="2.63517">
        <ele>183.28351264</ele>
        <time>2017-09-03T08:14:19Z</time>
      </trkpt>
      <trkpt lat="50.42905" lon="2.63516">
        <ele>185.283804</ele>
        <time>2017-09-03T08:14:23Z</time>
      </trkpt>
      <trkpt lat="50.42897" lon="2.63514">
        <ele>185.28413244</ele>
        <time>2017-09-03T08:14:29Z</time>
      </trkpt>
      <trkpt lat="50.42888" lon="2.63514">
        <ele>187.28446324</ele>
        <time>2017-09-03T08:14:35Z</time>
      </trkpt>
      <trkpt lat="50.42878" lon="2.63513">
        <ele>187.28488804</ele>
        <time>2017-09-03T08:14:40Z</time>
      </trkpt>
      <trkpt lat="50.42869" lon="2.63513">
        <ele>185.28524132</ele>
        <time>2017-09-03T08:14:45Z</time>
      </trkpt>
      <trkpt lat="50.42859" lon="2.63512">
        <ele>186.2856352</ele>
        <time>2017-09-03T08:14:50Z</time>
      </trkpt>
      <trkpt lat="50.42846" lon="2.63512">
        <ele>187.28616624</ele>
        <time>2017-09-03T08:14:55Z</time>
      </trkpt>
      <trkpt lat="50.42828" lon="2.63513">
        <ele>187.28687428</ele>
        <time>2017-09-03T08:15:00Z</time>
      </trkpt>
      <trkpt lat="50.42814" lon="2.63509">
        <ele>186.28744436</ele>
        <time>2017-09-03T08:15:04Z</time>
      </trkpt>
      <trkpt lat="50.42801" lon="2.63505">
        <ele>188.28794756</ele>
        <time>2017-09-03T08:15:08Z</time>
      </trkpt>
      <trkpt lat="50.42782" lon="2.63496">
        <ele>181.28871604</ele>
        <time>2017-09-03T08:15:13Z</time>
      </trkpt>
      <trkpt lat="50.42771" lon="2.63487">
        <ele>186.2891722</ele>
        <time>2017-09-03T08:15:17Z</time>
      </trkpt>
      <trkpt lat="50.4276" lon="2.63476">
        <ele>189.28962136</ele>
        <time>2017-09-03T08:15:22Z</time>
      </trkpt>
      <trkpt lat="50.42751" lon="2.63473">
        <ele>183.28997304</ele>
        <time>2017-09-03T08:15:37Z</time>
      </trkpt>
      <trkpt lat="50.42744" lon="2.63469">
        <ele>184.29026016</ele>
        <time>2017-09-03T08:15:55Z</time>
      </trkpt>
      <trkpt lat="50.42743" lon="2.63487">
        <ele>185.29027652</ele>
        <time>2017-09-03T08:16:00Z</time>
      </trkpt>
      <trkpt lat="50.42745" lon="2.63511">
        <ele>184.29019844</ele>
        <time>2017-09-03T08:16:04Z</time>
      </trkpt>
      <trkpt lat="50.42749" lon="2.63543">
        <ele>183.2900552</ele>
        <time>2017-09-03T08:16:09Z</time>
      </trkpt>
      <trkpt lat="50.42744" lon="2.63558">
        <ele>183.29023276</ele>
        <time>2017-09-03T08:16:13Z</time>
      </trkpt>
      <trkpt lat="50.42735" lon="2.63564">
        <ele>182.29060824</ele>
        <time>2017-09-03T08:16:17Z</time>
      </trkpt>
      <trkpt lat="50.42729" lon="2.63581">
        <ele>185.29085924</ele>
        <time>2017-09-03T08:16:22Z</time>
      </trkpt>
      <trkpt lat="50.4272" lon="2.63595">
        <ele>188.29120664</ele>
        <time>2017-09-03T08:16:26Z</time>
      </trkpt>
      <trkpt lat="50.42711" lon="2.6362">
        <ele>188.291565</ele>
        <time>2017-09-03T08:16:31Z</time>
      </trkpt>
      <trkpt lat="50.42708" lon="2.63644">
        <ele>189.2917016</ele>
        <time>2017-09-03T08:16:35Z</time>
      </trkpt>
      <trkpt lat="50.42693" lon="2.63671">
        <ele>189.29227228</ele>
        <time>2017-09-03T08:16:40Z</time>
      </trkpt>
      <trkpt lat="50.4269" lon="2.63699">
        <ele>183.29239772</ele>
        <time>2017-09-03T08:16:44Z</time>
      </trkpt>
      <trkpt lat="50.42685" lon="2.6373">
        <ele>183.29260028</ele>
        <time>2017-09-03T08:16:49Z</time>
      </trkpt>
      <trkpt lat="50.42678" lon="2.63752">
        <ele>185.29287516</ele>
        <time>2017-09-03T08:16:53Z</time>
      </trkpt>
      <trkpt lat="50.4267" lon="2.63782">
        <ele>187.29321172</ele>
        <time>2017-09-03T08:16:58Z</time>
      </trkpt>
      <trkpt lat="50.42662" lon="2.6381">
        <ele>190.29351232</ele>
        <time>2017-09-03T08:17:03Z</time>
      </trkpt>
      <trkpt lat="50.42655" lon="2.63837">
        <ele>188.2938218</ele>
        <time>2017-09-03T08:17:07Z</time>
      </trkpt>
      <trkpt lat="50.42648" lon="2.63853">
        <ele>189.2940698</ele>
        <time>2017-09-03T08:17:11Z</time>
      </trkpt>
      <trkpt lat="50.42647" lon="2.63879">
        <ele>185.2941088</ele>
        <time>2017-09-03T08:17:15Z</time>
      </trkpt>
      <trkpt lat="50.42651" lon="2.6391">
        <ele>182.29397412</ele>
        <time>2017-09-03T08:17:20Z</time>
      </trkpt>
      <trkpt lat="50.42657" lon="2.63928">
        <ele>180.29372636</ele>
        <time>2017-09-03T08:17:23Z</time>
      </trkpt>
      <trkpt lat="50.42656" lon="2.6394">
        <ele>180.29375668</ele>
        <time>2017-09-03T08:17:27Z</time>
      </trkpt>
      <trkpt lat="50.4266" lon="2.63962">
        <ele>181.29358208</ele>
        <time>2017-09-03T08:17:31Z</time>
      </trkpt>
      <trkpt lat="50.4267" lon="2.63983">
        <ele>181.29320768</ele>
        <time>2017-09-03T08:17:35Z</time>
      </trkpt>
      <trkpt lat="50.42679" lon="2.64006">
        <ele>178.29282916</ele>
        <time>2017-09-03T08:17:40Z</time>
      </trkpt>
      <trkpt lat="50.42696" lon="2.64025">
        <ele>177.29217184</ele>
        <time>2017-09-03T08:17:44Z</time>
      </trkpt>
      <trkpt lat="50.42703" lon="2.64046">
        <ele>175.29189016</ele>
        <time>2017-09-03T08:17:48Z</time>
      </trkpt>
      <trkpt lat="50.42717" lon="2.64064">
        <ele>175.29130696</ele>
        <time>2017-09-03T08:17:52Z</time>
      </trkpt>
      <trkpt lat="50.42744" lon="2.64091">
        <ele>172.29023304</ele>
        <time>2017-09-03T08:17:57Z</time>
      </trkpt>
      <trkpt lat="50.42768" lon="2.64081">
        <ele>176.28927256</ele>
        <time>2017-09-03T08:18:02Z</time>
      </trkpt>
      <trkpt lat="50.42783" lon="2.64066">
        <ele>175.28866676</ele>
        <time>2017-09-03T08:18:06Z</time>
      </trkpt>
      <trkpt lat="50.42798" lon="2.64056">
        <ele>175.28810172</ele>
        <time>2017-09-03T08:18:10Z</time>
      </trkpt>
      <trkpt lat="50.42803" lon="2.6407">
        <ele>179.28788092</ele>
        <time>2017-09-03T08:18:15Z</time>
      </trkpt>
      <trkpt lat="50.42802" lon="2.64101">
        <ele>176.28793488</ele>
        <time>2017-09-03T08:18:20Z</time>
      </trkpt>
      <trkpt lat="50.42812" lon="2.64125">
        <ele>176.2875136</ele>
        <time>2017-09-03T08:18:24Z</time>
      </trkpt>
      <trkpt lat="50.42824" lon="2.64148">
        <ele>176.28703396</ele>
        <time>2017-09-03T08:18:28Z</time>
      </trkpt>
      <trkpt lat="50.42838" lon="2.64177">
        <ele>173.28648828</ele>
        <time>2017-09-03T08:18:33Z</time>
      </trkpt>
      <trkpt lat="50.42856" lon="2.64205">
        <ele>179.28576884</ele>
        <time>2017-09-03T08:18:38Z</time>
      </trkpt>
      <trkpt lat="50.42886" lon="2.64238">
        <ele>177.28454676</ele>
        <time>2017-09-03T08:18:43Z</time>
      </trkpt>
      <trkpt lat="50.42895" lon="2.64266">
        <ele>175.2841822</ele>
        <time>2017-09-03T08:18:47Z</time>
      </trkpt>
      <trkpt lat="50.42913" lon="2.64286">
        <ele>173.28348088</ele>
        <time>2017-09-03T08:18:52Z</time>
      </trkpt>
      <trkpt lat="50.42936" lon="2.64304">
        <ele>171.28257164</ele>
        <time>2017-09-03T08:18:57Z</time>
      </trkpt>
      <trkpt lat="50.42948" lon="2.64312">
        <ele>173.28208052</ele>
        <time>2017-09-03T08:19:02Z</time>
      </trkpt>
      <trkpt lat="50.42957" lon="2.64321">
        <ele>170.28174144</ele>
        <time>2017-09-03T08:19:06Z</time>
      </trkpt>
      <trkpt lat="50.42969" lon="2.64324">
        <ele>164.28124996</ele>
        <time>2017-09-03T08:19:10Z</time>
      </trkpt>
      <trkpt lat="50.42989" lon="2.64321">
        <ele>161.28046128</ele>
        <time>2017-09-03T08:19:15Z</time>
      </trkpt>
      <trkpt lat="50.43" lon="2.64307">
        <ele>156.2800158</ele>
        <time>2017-09-03T08:19:19Z</time>
      </trkpt>
      <trkpt lat="50.43011" lon="2.64293">
        <ele>149.27956216</ele>
        <time>2017-09-03T08:19:24Z</time>
      </trkpt>
      <trkpt lat="50.43024" lon="2.64291">
        <ele>148.27903612</ele>
        <time>2017-09-03T08:19:28Z</time>
      </trkpt>
      <trkpt lat="50.43045" lon="2.64283">
        <ele>142.2782058</ele>
        <time>2017-09-03T08:19:32Z</time>
      </trkpt>
      <trkpt lat="50.43071" lon="2.64287">
        <ele>131.27715564</ele>
        <time>2017-09-03T08:19:37Z</time>
      </trkpt>
      <trkpt lat="50.43093" lon="2.64304">
        <ele>127.276296</ele>
        <time>2017-09-03T08:19:42Z</time>
      </trkpt>
      <trkpt lat="50.43107" lon="2.64315">
        <ele>123.27570984</ele>
        <time>2017-09-03T08:19:46Z</time>
      </trkpt>
      <trkpt lat="50.43123" lon="2.64325">
        <ele>122.27506708</ele>
        <time>2017-09-03T08:19:50Z</time>
      </trkpt>
      <trkpt lat="50.43143" lon="2.64338">
        <ele>121.27430156</ele>
        <time>2017-09-03T08:19:55Z</time>
      </trkpt>
      <trkpt lat="50.4315" lon="2.64354">
        <ele>122.27402112</ele>
        <time>2017-09-03T08:19:59Z</time>
      </trkpt>
      <trkpt lat="50.43152" lon="2.64385">
        <ele>123.2739388</ele>
        <time>2017-09-03T08:20:04Z</time>
      </trkpt>
      <trkpt lat="50.4315" lon="2.6441">
        <ele>124.27400608</ele>
        <time>2017-09-03T08:20:08Z</time>
      </trkpt>
      <trkpt lat="50.43165" lon="2.64436">
        <ele>122.27339248</ele>
        <time>2017-09-03T08:20:13Z</time>
      </trkpt>
      <trkpt lat="50.43186" lon="2.64452">
        <ele>122.27257</ele>
        <time>2017-09-03T08:20:17Z</time>
      </trkpt>
      <trkpt lat="50.43209" lon="2.64469">
        <ele>121.27163008</ele>
        <time>2017-09-03T08:20:22Z</time>
      </trkpt>
      <trkpt lat="50.43224" lon="2.64481">
        <ele>123.2710606</ele>
        <time>2017-09-03T08:20:25Z</time>
      </trkpt>
      <trkpt lat="50.43229" lon="2.64484">
        <ele>123.27082492</ele>
        <time>2017-09-03T08:20:31Z</time>
      </trkpt>
      <trkpt lat="50.43265" lon="2.64531">
        <ele>122.2694182</ele>
        <time>2017-09-03T08:20:35Z</time>
      </trkpt>
      <trkpt lat="50.4328" lon="2.64558">
        <ele>122.2688034</ele>
        <time>2017-09-03T08:20:39Z</time>
      </trkpt>
      <trkpt lat="50.43295" lon="2.64591">
        <ele>123.26818528</ele>
        <time>2017-09-03T08:20:44Z</time>
      </trkpt>
      <trkpt lat="50.43304" lon="2.64612">
        <ele>121.26783744</ele>
        <time>2017-09-03T08:20:48Z</time>
      </trkpt>
      <trkpt lat="50.43285" lon="2.64637">
        <ele>119.26862116</ele>
        <time>2017-09-03T08:20:53Z</time>
      </trkpt>
      <trkpt lat="50.43262" lon="2.64649">
        <ele>117.269522</ele>
        <time>2017-09-03T08:20:57Z</time>
      </trkpt>
      <trkpt lat="50.43233" lon="2.64655">
        <ele>114.27070124</ele>
        <time>2017-09-03T08:21:02Z</time>
      </trkpt>
      <trkpt lat="50.43206" lon="2.64664">
        <ele>116.27175816</ele>
        <time>2017-09-03T08:21:07Z</time>
      </trkpt>
      <trkpt lat="50.43184" lon="2.64677">
        <ele>116.27265564</ele>
        <time>2017-09-03T08:21:11Z</time>
      </trkpt>
      <trkpt lat="50.43163" lon="2.64684">
        <ele>117.27346372</ele>
        <time>2017-09-03T08:21:15Z</time>
      </trkpt>
      <trkpt lat="50.43142" lon="2.64693">
        <ele>114.27431808</ele>
        <time>2017-09-03T08:21:19Z</time>
      </trkpt>
      <trkpt lat="50.43118" lon="2.64698">
        <ele>112.27528384</ele>
        <time>2017-09-03T08:21:24Z</time>
      </trkpt>
      <trkpt lat="50.43097" lon="2.64703">
        <ele>115.27610232</ele>
        <time>2017-09-03T08:21:28Z</time>
      </trkpt>
      <trkpt lat="50.43073" lon="2.6472">
        <ele>116.27708048</ele>
        <time>2017-09-03T08:21:33Z</time>
      </trkpt>
      <trkpt lat="50.43056" lon="2.64742">
        <ele>116.27775456</ele>
        <time>2017-09-03T08:21:37Z</time>
      </trkpt>
      <trkpt lat="50.43037" lon="2.64771">
        <ele>113.27851256</ele>
        <time>2017-09-03T08:21:42Z</time>
      </trkpt>
      <trkpt lat="50.4302" lon="2.64788">
        <ele>116.2791888</ele>
        <time>2017-09-03T08:21:46Z</time>
      </trkpt>
      <trkpt lat="50.43007" lon="2.64804">
        <ele>118.2797412</ele>
        <time>2017-09-03T08:21:50Z</time>
      </trkpt>
      <trkpt lat="50.42989" lon="2.64818">
        <ele>120.28042368</ele>
        <time>2017-09-03T08:21:55Z</time>
      </trkpt>
      <trkpt lat="50.42974" lon="2.64825">
        <ele>122.2810448</ele>
        <time>2017-09-03T08:21:59Z</time>
      </trkpt>
      <trkpt lat="50.42956" lon="2.6483">
        <ele>123.281775</ele>
        <time>2017-09-03T08:22:04Z</time>
      </trkpt>
      <trkpt lat="50.42942" lon="2.64825">
        <ele>123.28231444</ele>
        <time>2017-09-03T08:22:08Z</time>
      </trkpt>
      <trkpt lat="50.42928" lon="2.6482">
        <ele>124.28286336</ele>
        <time>2017-09-03T08:22:12Z</time>
      </trkpt>
      <trkpt lat="50.42914" lon="2.64815">
        <ele>125.28346156</ele>
        <time>2017-09-03T08:22:17Z</time>
      </trkpt>
      <trkpt lat="50.429" lon="2.64808">
        <ele>127.28400164</ele>
        <time>2017-09-03T08:22:22Z</time>
      </trkpt>
      <trkpt lat="50.42889" lon="2.64804">
        <ele>127.28442796</ele>
        <time>2017-09-03T08:22:26Z</time>
      </trkpt>
      <trkpt lat="50.42877" lon="2.648">
        <ele>128.28491772</ele>
        <time>2017-09-03T08:22:31Z</time>
      </trkpt>
      <trkpt lat="50.42867" lon="2.64795">
        <ele>129.28530612</ele>
        <time>2017-09-03T08:22:35Z</time>
      </trkpt>
      <trkpt lat="50.42858" lon="2.64794">
        <ele>129.285686</ele>
        <time>2017-09-03T08:22:39Z</time>
      </trkpt>
      <trkpt lat="50.42849" lon="2.64792">
        <ele>130.2860496</ele>
        <time>2017-09-03T08:22:44Z</time>
      </trkpt>
      <trkpt lat="50.42842" lon="2.64789">
        <ele>130.286337</ele>
        <time>2017-09-03T08:22:50Z</time>
      </trkpt>
      <trkpt lat="50.42834" lon="2.64785">
        <ele>132.2866292</ele>
        <time>2017-09-03T08:22:57Z</time>
      </trkpt>
      <trkpt lat="50.42826" lon="2.64783">
        <ele>133.2869474</ele>
        <time>2017-09-03T08:23:04Z</time>
      </trkpt>
      <trkpt lat="50.42819" lon="2.64784">
        <ele>134.2872418</ele>
        <time>2017-09-03T08:23:20Z</time>
      </trkpt>
      <trkpt lat="50.42811" lon="2.64776">
        <ele>134.287579</ele>
        <time>2017-09-03T08:23:25Z</time>
      </trkpt>
      <trkpt lat="50.42804" lon="2.64775">
        <ele>135.28784536</ele>
        <time>2017-09-03T08:23:29Z</time>
      </trkpt>
      <trkpt lat="50.42791" lon="2.64772">
        <ele>134.28836304</ele>
        <time>2017-09-03T08:23:33Z</time>
      </trkpt>
      <trkpt lat="50.42783" lon="2.64774">
        <ele>141.28870008</ele>
        <time>2017-09-03T08:23:42Z</time>
      </trkpt>
      <trkpt lat="50.42775" lon="2.64768">
        <ele>140.28901816</ele>
        <time>2017-09-03T08:23:50Z</time>
      </trkpt>
      <trkpt lat="50.42767" lon="2.64761">
        <ele>139.28930972</ele>
        <time>2017-09-03T08:23:56Z</time>
      </trkpt>
      <trkpt lat="50.42759" lon="2.64759">
        <ele>142.28964368</ele>
        <time>2017-09-03T08:24:04Z</time>
      </trkpt>
      <trkpt lat="50.42751" lon="2.64758">
        <ele>151.28996172</ele>
        <time>2017-09-03T08:24:11Z</time>
      </trkpt>
      <trkpt lat="50.42743" lon="2.64754">
        <ele>153.29029908</ele>
        <time>2017-09-03T08:24:19Z</time>
      </trkpt>
      <trkpt lat="50.42736" lon="2.64751">
        <ele>155.2905758</ele>
        <time>2017-09-03T08:24:24Z</time>
      </trkpt>
      <trkpt lat="50.42727" lon="2.64754">
        <ele>154.29092272</ele>
        <time>2017-09-03T08:24:29Z</time>
      </trkpt>
      <trkpt lat="50.42717" lon="2.64755">
        <ele>152.29132688</ele>
        <time>2017-09-03T08:24:34Z</time>
      </trkpt>
      <trkpt lat="50.42708" lon="2.64754">
        <ele>150.29166464</ele>
        <time>2017-09-03T08:24:38Z</time>
      </trkpt>
      <trkpt lat="50.427" lon="2.6475">
        <ele>151.29200736</ele>
        <time>2017-09-03T08:24:45Z</time>
      </trkpt>
      <trkpt lat="50.42691" lon="2.64748">
        <ele>149.29235216</ele>
        <time>2017-09-03T08:24:52Z</time>
      </trkpt>
      <trkpt lat="50.42683" lon="2.64745">
        <ele>150.29267768</ele>
        <time>2017-09-03T08:24:58Z</time>
      </trkpt>
      <trkpt lat="50.42675" lon="2.64742">
        <ele>149.29298296</ele>
        <time>2017-09-03T08:25:06Z</time>
      </trkpt>
      <trkpt lat="50.42667" lon="2.6474">
        <ele>155.29331184</ele>
        <time>2017-09-03T08:25:14Z</time>
      </trkpt>
      <trkpt lat="50.4266" lon="2.64737">
        <ele>159.29361136</ele>
        <time>2017-09-03T08:25:20Z</time>
      </trkpt>
      <trkpt lat="50.42653" lon="2.64737">
        <ele>160.29389004</ele>
        <time>2017-09-03T08:25:40Z</time>
      </trkpt>
      <trkpt lat="50.42641" lon="2.64735">
        <ele>159.29437504</ele>
        <time>2017-09-03T08:25:45Z</time>
      </trkpt>
      <trkpt lat="50.42633" lon="2.64732">
        <ele>158.29468124</ele>
        <time>2017-09-03T08:25:52Z</time>
      </trkpt>
      <trkpt lat="50.42627" lon="2.64731">
        <ele>159.29493008</ele>
        <time>2017-09-03T08:26:31Z</time>
      </trkpt>
      <trkpt lat="50.42617" lon="2.64733">
        <ele>164.29533452</ele>
        <time>2017-09-03T08:26:35Z</time>
      </trkpt>
      <trkpt lat="50.4261" lon="2.64726">
        <ele>164.29559572</ele>
        <time>2017-09-03T08:26:40Z</time>
      </trkpt>
      <trkpt lat="50.42603" lon="2.64725">
        <ele>162.29589272</ele>
        <time>2017-09-03T08:26:46Z</time>
      </trkpt>
      <trkpt lat="50.42594" lon="2.64725">
        <ele>169.29625012</ele>
        <time>2017-09-03T08:26:53Z</time>
      </trkpt>
      <trkpt lat="50.42587" lon="2.64722">
        <ele>173.29653548</ele>
        <time>2017-09-03T08:27:01Z</time>
      </trkpt>
      <trkpt lat="50.42579" lon="2.64719">
        <ele>172.29686076</ele>
        <time>2017-09-03T08:27:10Z</time>
      </trkpt>
      <trkpt lat="50.4257" lon="2.64717">
        <ele>172.29721604</ele>
        <time>2017-09-03T08:27:21Z</time>
      </trkpt>
      <trkpt lat="50.42561" lon="2.64714">
        <ele>172.29756108</ele>
        <time>2017-09-03T08:27:42Z</time>
      </trkpt>
      <trkpt lat="50.42552" lon="2.64711">
        <ele>171.29791376</ele>
        <time>2017-09-03T08:27:58Z</time>
      </trkpt>
      <trkpt lat="50.42544" lon="2.6471">
        <ele>172.2982428</ele>
        <time>2017-09-03T08:28:06Z</time>
      </trkpt>
      <trkpt lat="50.42536" lon="2.64705">
        <ele>173.2985658</ele>
        <time>2017-09-03T08:28:24Z</time>
      </trkpt>
      <trkpt lat="50.42527" lon="2.64701">
        <ele>173.2989104</ele>
        <time>2017-09-03T08:28:32Z</time>
      </trkpt>
      <trkpt lat="50.42519" lon="2.647">
        <ele>174.29924448</ele>
        <time>2017-09-03T08:28:51Z</time>
      </trkpt>
      <trkpt lat="50.42511" lon="2.64699">
        <ele>177.29955424</ele>
        <time>2017-09-03T08:28:57Z</time>
      </trkpt>
      <trkpt lat="50.42503" lon="2.64695">
        <ele>177.29987076</ele>
        <time>2017-09-03T08:29:07Z</time>
      </trkpt>
      <trkpt lat="50.42495" lon="2.64693">
        <ele>178.30022132</ele>
        <time>2017-09-03T08:29:14Z</time>
      </trkpt>
      <trkpt lat="50.42486" lon="2.64691">
        <ele>178.30055232</ele>
        <time>2017-09-03T08:29:19Z</time>
      </trkpt>
      <trkpt lat="50.42478" lon="2.6469">
        <ele>180.30088132</ele>
        <time>2017-09-03T08:29:25Z</time>
      </trkpt>
      <trkpt lat="50.42471" lon="2.64688">
        <ele>181.30116544</ele>
        <time>2017-09-03T08:29:29Z</time>
      </trkpt>
      <trkpt lat="50.42462" lon="2.64686">
        <ele>179.30150388</ele>
        <time>2017-09-03T08:29:33Z</time>
      </trkpt>
      <trkpt lat="50.42454" lon="2.64685">
        <ele>181.30184228</ele>
        <time>2017-09-03T08:29:37Z</time>
      </trkpt>
      <trkpt lat="50.42444" lon="2.64684">
        <ele>182.30223176</ele>
        <time>2017-09-03T08:29:42Z</time>
      </trkpt>
      <trkpt lat="50.42433" lon="2.64682">
        <ele>183.30267476</ele>
        <time>2017-09-03T08:29:47Z</time>
      </trkpt>
      <trkpt lat="50.42425" lon="2.64682">
        <ele>184.3029984</ele>
        <time>2017-09-03T08:29:51Z</time>
      </trkpt>
      <trkpt lat="50.42417" lon="2.6468">
        <ele>184.30330716</ele>
        <time>2017-09-03T08:29:55Z</time>
      </trkpt>
      <trkpt lat="50.42408" lon="2.64676">
        <ele>185.30368816</ele>
        <time>2017-09-03T08:30:00Z</time>
      </trkpt>
      <trkpt lat="50.42394" lon="2.64673">
        <ele>184.30423348</ele>
        <time>2017-09-03T08:30:05Z</time>
      </trkpt>
      <trkpt lat="50.42383" lon="2.64669">
        <ele>184.30466576</ele>
        <time>2017-09-03T08:30:09Z</time>
      </trkpt>
      <trkpt lat="50.42375" lon="2.64666">
        <ele>185.30501348</ele>
        <time>2017-09-03T08:30:17Z</time>
      </trkpt>
      <trkpt lat="50.42351" lon="2.64654">
        <ele>185.30594968</ele>
        <time>2017-09-03T08:30:21Z</time>
      </trkpt>
      <trkpt lat="50.42343" lon="2.64655">
        <ele>184.30628648</ele>
        <time>2017-09-03T08:30:26Z</time>
      </trkpt>
      <trkpt lat="50.4234" lon="2.64668">
        <ele>184.30638476</ele>
        <time>2017-09-03T08:30:30Z</time>
      </trkpt>
      <trkpt lat="50.42336" lon="2.64682">
        <ele>184.30654564</ele>
        <time>2017-09-03T08:30:34Z</time>
      </trkpt>
      <trkpt lat="50.42332" lon="2.647">
        <ele>184.3067396</ele>
        <time>2017-09-03T08:30:38Z</time>
      </trkpt>
      <trkpt lat="50.42326" lon="2.64716">
        <ele>184.3069532</ele>
        <time>2017-09-03T08:30:42Z</time>
      </trkpt>
      <trkpt lat="50.42321" lon="2.64737">
        <ele>184.3071524</ele>
        <time>2017-09-03T08:30:47Z</time>
      </trkpt>
      <trkpt lat="50.42317" lon="2.64755">
        <ele>183.30732244</ele>
        <time>2017-09-03T08:30:51Z</time>
      </trkpt>
      <trkpt lat="50.42311" lon="2.64773">
        <ele>184.30757944</ele>
        <time>2017-09-03T08:30:56Z</time>
      </trkpt>
      <trkpt lat="50.42305" lon="2.64796">
        <ele>185.30782116</ele>
        <time>2017-09-03T08:31:01Z</time>
      </trkpt>
      <trkpt lat="50.42297" lon="2.6482">
        <ele>187.30812904</ele>
        <time>2017-09-03T08:31:06Z</time>
      </trkpt>
      <trkpt lat="50.4229" lon="2.64839">
        <ele>188.30841392</ele>
        <time>2017-09-03T08:31:10Z</time>
      </trkpt>
      <trkpt lat="50.42285" lon="2.6486">
        <ele>189.30861356</ele>
        <time>2017-09-03T08:31:14Z</time>
      </trkpt>
      <trkpt lat="50.42275" lon="2.64882">
        <ele>191.30898376</ele>
        <time>2017-09-03T08:31:19Z</time>
      </trkpt>
      <trkpt lat="50.4227" lon="2.64904">
        <ele>190.3092166</ele>
        <time>2017-09-03T08:31:23Z</time>
      </trkpt>
      <trkpt lat="50.42262" lon="2.6493">
        <ele>191.30951764</ele>
        <time>2017-09-03T08:31:28Z</time>
      </trkpt>
      <trkpt lat="50.42256" lon="2.6495">
        <ele>192.309771</ele>
        <time>2017-09-03T08:31:32Z</time>
      </trkpt>
      <trkpt lat="50.4225" lon="2.64975">
        <ele>192.30999536</ele>
        <time>2017-09-03T08:31:37Z</time>
      </trkpt>
      <trkpt lat="50.42247" lon="2.65002">
        <ele>193.31011036</ele>
        <time>2017-09-03T08:31:41Z</time>
      </trkpt>
      <trkpt lat="50.42242" lon="2.65045">
        <ele>189.31032092</ele>
        <time>2017-09-03T08:31:46Z</time>
      </trkpt>
      <trkpt lat="50.42238" lon="2.65078">
        <ele>192.31048892</ele>
        <time>2017-09-03T08:31:50Z</time>
      </trkpt>
      <trkpt lat="50.42233" lon="2.65106">
        <ele>194.31068984</ele>
        <time>2017-09-03T08:31:54Z</time>
      </trkpt>
      <trkpt lat="50.42226" lon="2.65138">
        <ele>194.31094564</ele>
        <time>2017-09-03T08:31:58Z</time>
      </trkpt>
      <trkpt lat="50.42218" lon="2.65174">
        <ele>191.31129844</ele>
        <time>2017-09-03T08:32:03Z</time>
      </trkpt>
      <trkpt lat="50.42209" lon="2.65206">
        <ele>191.31162332</ele>
        <time>2017-09-03T08:32:08Z</time>
      </trkpt>
      <trkpt lat="50.42201" lon="2.65232">
        <ele>191.31197364</ele>
        <time>2017-09-03T08:32:12Z</time>
      </trkpt>
      <trkpt lat="50.4219" lon="2.65262">
        <ele>190.3124216</ele>
        <time>2017-09-03T08:32:17Z</time>
      </trkpt>
      <trkpt lat="50.42177" lon="2.65292">
        <ele>188.312916</ele>
        <time>2017-09-03T08:32:22Z</time>
      </trkpt>
      <trkpt lat="50.42163" lon="2.65289">
        <ele>189.31348056</ele>
        <time>2017-09-03T08:32:27Z</time>
      </trkpt>
      <trkpt lat="50.42152" lon="2.65268">
        <ele>188.3139076</ele>
        <time>2017-09-03T08:32:32Z</time>
      </trkpt>
      <trkpt lat="50.42143" lon="2.65253">
        <ele>188.31428188</ele>
        <time>2017-09-03T08:32:36Z</time>
      </trkpt>
      <trkpt lat="50.4213" lon="2.6524">
        <ele>189.31478728</ele>
        <time>2017-09-03T08:32:40Z</time>
      </trkpt>
      <trkpt lat="50.42117" lon="2.65226">
        <ele>189.31530364</ele>
        <time>2017-09-03T08:32:44Z</time>
      </trkpt>
      <trkpt lat="50.42101" lon="2.65212">
        <ele>190.31596404</ele>
        <time>2017-09-03T08:32:49Z</time>
      </trkpt>
      <trkpt lat="50.42093" lon="2.65206">
        <ele>189.3162722</ele>
        <time>2017-09-03T08:32:53Z</time>
      </trkpt>
      <trkpt lat="50.42084" lon="2.65206">
        <ele>187.31664888</ele>
        <time>2017-09-03T08:32:57Z</time>
      </trkpt>
      <trkpt lat="50.4208" lon="2.65207">
        <ele>187.31679016</ele>
        <time>2017-09-03T08:33:01Z</time>
      </trkpt>
      <trkpt lat="50.42066" lon="2.65241">
        <ele>189.31737036</ele>
        <time>2017-09-03T08:33:05Z</time>
      </trkpt>
      <trkpt lat="50.42053" lon="2.65274">
        <ele>189.31788016</ele>
        <time>2017-09-03T08:33:09Z</time>
      </trkpt>
      <trkpt lat="50.42045" lon="2.65298">
        <ele>187.3181892</ele>
        <time>2017-09-03T08:33:13Z</time>
      </trkpt>
      <trkpt lat="50.42035" lon="2.6533">
        <ele>188.31861988</ele>
        <time>2017-09-03T08:33:18Z</time>
      </trkpt>
      <trkpt lat="50.42026" lon="2.65352">
        <ele>190.31897836</ele>
        <time>2017-09-03T08:33:22Z</time>
      </trkpt>
      <trkpt lat="50.42015" lon="2.65383">
        <ele>190.3194154</ele>
        <time>2017-09-03T08:33:27Z</time>
      </trkpt>
      <trkpt lat="50.4201" lon="2.65411">
        <ele>190.31960108</ele>
        <time>2017-09-03T08:33:31Z</time>
      </trkpt>
      <trkpt lat="50.42004" lon="2.6544">
        <ele>190.31985592</ele>
        <time>2017-09-03T08:33:35Z</time>
      </trkpt>
      <trkpt lat="50.41999" lon="2.65468">
        <ele>191.32005588</ele>
        <time>2017-09-03T08:33:39Z</time>
      </trkpt>
      <trkpt lat="50.41994" lon="2.65505">
        <ele>190.32025928</ele>
        <time>2017-09-03T08:33:44Z</time>
      </trkpt>
      <trkpt lat="50.41987" lon="2.65543">
        <ele>191.32052812</ele>
        <time>2017-09-03T08:33:49Z</time>
      </trkpt>
      <trkpt lat="50.41983" lon="2.65574">
        <ele>190.32069608</ele>
        <time>2017-09-03T08:33:53Z</time>
      </trkpt>
      <trkpt lat="50.41977" lon="2.65606">
        <ele>190.32091324</ele>
        <time>2017-09-03T08:33:57Z</time>
      </trkpt>
      <trkpt lat="50.41969" lon="2.65645">
        <ele>190.32125528</ele>
        <time>2017-09-03T08:34:02Z</time>
      </trkpt>
      <trkpt lat="50.41956" lon="2.65684">
        <ele>189.32175552</ele>
        <time>2017-09-03T08:34:07Z</time>
      </trkpt>
      <trkpt lat="50.41947" lon="2.65713">
        <ele>190.322102</ele>
        <time>2017-09-03T08:34:11Z</time>
      </trkpt>
      <trkpt lat="50.41934" lon="2.6575">
        <ele>190.32262564</ele>
        <time>2017-09-03T08:34:16Z</time>
      </trkpt>
      <trkpt lat="50.41921" lon="2.65787">
        <ele>190.32316736</ele>
        <time>2017-09-03T08:34:21Z</time>
      </trkpt>
      <trkpt lat="50.41911" lon="2.65817">
        <ele>189.32357908</ele>
        <time>2017-09-03T08:34:25Z</time>
      </trkpt>
      <trkpt lat="50.41904" lon="2.65849">
        <ele>190.32386016</ele>
        <time>2017-09-03T08:34:29Z</time>
      </trkpt>
      <trkpt lat="50.419" lon="2.65882">
        <ele>190.32399384</ele>
        <time>2017-09-03T08:34:33Z</time>
      </trkpt>
      <trkpt lat="50.41892" lon="2.65924">
        <ele>190.32432488</ele>
        <time>2017-09-03T08:34:38Z</time>
      </trkpt>
      <trkpt lat="50.41882" lon="2.65955">
        <ele>191.3247112</ele>
        <time>2017-09-03T08:34:42Z</time>
      </trkpt>
      <trkpt lat="50.41874" lon="2.65994">
        <ele>193.32505144</ele>
        <time>2017-09-03T08:34:47Z</time>
      </trkpt>
      <trkpt lat="50.41865" lon="2.66026">
        <ele>192.32538288</ele>
        <time>2017-09-03T08:34:51Z</time>
      </trkpt>
      <trkpt lat="50.41856" lon="2.66058">
        <ele>191.3257712</ele>
        <time>2017-09-03T08:34:55Z</time>
      </trkpt>
      <trkpt lat="50.41849" lon="2.6609">
        <ele>191.32602436</ele>
        <time>2017-09-03T08:34:59Z</time>
      </trkpt>
      <trkpt lat="50.41838" lon="2.66129">
        <ele>193.3264672</ele>
        <time>2017-09-03T08:35:04Z</time>
      </trkpt>
      <trkpt lat="50.41828" lon="2.66163">
        <ele>192.32689156</ele>
        <time>2017-09-03T08:35:09Z</time>
      </trkpt>
      <trkpt lat="50.4182" lon="2.66177">
        <ele>194.32719184</ele>
        <time>2017-09-03T08:35:13Z</time>
      </trkpt>
      <trkpt lat="50.41819" lon="2.66189">
        <ele>192.32722476</ele>
        <time>2017-09-03T08:35:19Z</time>
      </trkpt>
      <trkpt lat="50.41828" lon="2.66194">
        <ele>193.32690128</ele>
        <time>2017-09-03T08:35:23Z</time>
      </trkpt>
      <trkpt lat="50.41841" lon="2.66197">
        <ele>199.32634284</ele>
        <time>2017-09-03T08:35:28Z</time>
      </trkpt>
      <trkpt lat="50.41858" lon="2.66201">
        <ele>200.32569764</ele>
        <time>2017-09-03T08:35:32Z</time>
      </trkpt>
      <trkpt lat="50.41874" lon="2.66212">
        <ele>197.32503808</ele>
        <time>2017-09-03T08:35:37Z</time>
      </trkpt>
      <trkpt lat="50.41891" lon="2.66216">
        <ele>197.32437036</ele>
        <time>2017-09-03T08:35:42Z</time>
      </trkpt>
      <trkpt lat="50.41914" lon="2.66205">
        <ele>192.32344916</ele>
        <time>2017-09-03T08:35:47Z</time>
      </trkpt>
      <trkpt lat="50.41931" lon="2.66188">
        <ele>191.3227808</ele>
        <time>2017-09-03T08:35:51Z</time>
      </trkpt>
      <trkpt lat="50.41956" lon="2.66149">
        <ele>192.3217814</ele>
        <time>2017-09-03T08:35:55Z</time>
      </trkpt>
      <trkpt lat="50.41971" lon="2.66133">
        <ele>194.3211482</ele>
        <time>2017-09-03T08:36:00Z</time>
      </trkpt>
      <trkpt lat="50.41988" lon="2.66117">
        <ele>189.32048996</ele>
        <time>2017-09-03T08:36:05Z</time>
      </trkpt>
      <trkpt lat="50.42005" lon="2.66101">
        <ele>192.31982004</ele>
        <time>2017-09-03T08:36:09Z</time>
      </trkpt>
      <trkpt lat="50.42012" lon="2.66089">
        <ele>191.31953436</ele>
        <time>2017-09-03T08:36:13Z</time>
      </trkpt>
      <trkpt lat="50.42025" lon="2.66074">
        <ele>191.31900484</ele>
        <time>2017-09-03T08:36:17Z</time>
      </trkpt>
      <trkpt lat="50.42042" lon="2.66045">
        <ele>187.31832976</ele>
        <time>2017-09-03T08:36:21Z</time>
      </trkpt>
      <trkpt lat="50.4206" lon="2.66029">
        <ele>184.31760796</ele>
        <time>2017-09-03T08:36:25Z</time>
      </trkpt>
      <trkpt lat="50.42079" lon="2.66014">
        <ele>180.3168246</ele>
        <time>2017-09-03T08:36:30Z</time>
      </trkpt>
      <trkpt lat="50.42096" lon="2.66006">
        <ele>171.31618028</ele>
        <time>2017-09-03T08:36:34Z</time>
      </trkpt>
      <trkpt lat="50.42113" lon="2.66004">
        <ele>169.3154652</ele>
        <time>2017-09-03T08:36:38Z</time>
      </trkpt>
      <trkpt lat="50.42133" lon="2.66022">
        <ele>164.31469056</ele>
        <time>2017-09-03T08:36:43Z</time>
      </trkpt>
      <trkpt lat="50.42153" lon="2.6605">
        <ele>159.31386708</ele>
        <time>2017-09-03T08:36:48Z</time>
      </trkpt>
      <trkpt lat="50.42166" lon="2.66067">
        <ele>158.31336996</ele>
        <time>2017-09-03T08:36:51Z</time>
      </trkpt>
      <trkpt lat="50.42176" lon="2.66081">
        <ele>156.31295676</ele>
        <time>2017-09-03T08:36:55Z</time>
      </trkpt>
      <trkpt lat="50.42176" lon="2.66095">
        <ele>153.31295076</ele>
        <time>2017-09-03T08:37:01Z</time>
      </trkpt>
      <trkpt lat="50.42175" lon="2.66106">
        <ele>152.3129866</ele>
        <time>2017-09-03T08:37:22Z</time>
      </trkpt>
      <trkpt lat="50.42161" lon="2.66126">
        <ele>154.31355072</ele>
        <time>2017-09-03T08:37:27Z</time>
      </trkpt>
      <trkpt lat="50.42152" lon="2.66151">
        <ele>158.31391524</ele>
        <time>2017-09-03T08:37:31Z</time>
      </trkpt>
      <trkpt lat="50.4214" lon="2.66174">
        <ele>157.31439192</ele>
        <time>2017-09-03T08:37:35Z</time>
      </trkpt>
      <trkpt lat="50.42126" lon="2.66199">
        <ele>156.31497272</ele>
        <time>2017-09-03T08:37:39Z</time>
      </trkpt>
      <trkpt lat="50.42114" lon="2.66231">
        <ele>157.31546008</ele>
        <time>2017-09-03T08:37:43Z</time>
      </trkpt>
      <trkpt lat="50.42098" lon="2.66274">
        <ele>152.31607248</ele>
        <time>2017-09-03T08:37:48Z</time>
      </trkpt>
      <trkpt lat="50.42084" lon="2.66303">
        <ele>147.31662848</ele>
        <time>2017-09-03T08:37:52Z</time>
      </trkpt>
      <trkpt lat="50.42073" lon="2.66327">
        <ele>145.31707264</ele>
        <time>2017-09-03T08:37:57Z</time>
      </trkpt>
      <trkpt lat="50.42061" lon="2.66354">
        <ele>147.31754592</ele>
        <time>2017-09-03T08:38:01Z</time>
      </trkpt>
      <trkpt lat="50.42044" lon="2.6638">
        <ele>149.31823124</ele>
        <time>2017-09-03T08:38:05Z</time>
      </trkpt>
      <trkpt lat="50.42028" lon="2.66418">
        <ele>149.31887684</ele>
        <time>2017-09-03T08:38:10Z</time>
      </trkpt>
      <trkpt lat="50.42014" lon="2.66454">
        <ele>147.31944</ele>
        <time>2017-09-03T08:38:14Z</time>
      </trkpt>
      <trkpt lat="50.42" lon="2.66486">
        <ele>142.32002144</ele>
        <time>2017-09-03T08:38:18Z</time>
      </trkpt>
      <trkpt lat="50.41984" lon="2.66511">
        <ele>138.32062256</ele>
        <time>2017-09-03T08:38:22Z</time>
      </trkpt>
      <trkpt lat="50.41974" lon="2.66537">
        <ele>141.32105876</ele>
        <time>2017-09-03T08:38:26Z</time>
      </trkpt>
      <trkpt lat="50.41959" lon="2.66558">
        <ele>139.32164132</ele>
        <time>2017-09-03T08:38:30Z</time>
      </trkpt>
      <trkpt lat="50.41951" lon="2.66593">
        <ele>137.3219666</ele>
        <time>2017-09-03T08:38:34Z</time>
      </trkpt>
      <trkpt lat="50.41944" lon="2.66628">
        <ele>137.32224152</ele>
        <time>2017-09-03T08:38:39Z</time>
      </trkpt>
      <trkpt lat="50.41939" lon="2.66677">
        <ele>138.32243072</ele>
        <time>2017-09-03T08:38:43Z</time>
      </trkpt>
      <trkpt lat="50.41926" lon="2.6671">
        <ele>132.32297032</ele>
        <time>2017-09-03T08:38:47Z</time>
      </trkpt>
      <trkpt lat="50.41918" lon="2.66742">
        <ele>132.32329468</ele>
        <time>2017-09-03T08:38:52Z</time>
      </trkpt>
      <trkpt lat="50.41928" lon="2.66756">
        <ele>132.32289168</ele>
        <time>2017-09-03T08:38:55Z</time>
      </trkpt>
      <trkpt lat="50.41921" lon="2.66794">
        <ele>132.32314644</ele>
        <time>2017-09-03T08:39:00Z</time>
      </trkpt>
      <trkpt lat="50.41914" lon="2.66826">
        <ele>133.32345368</ele>
        <time>2017-09-03T08:39:05Z</time>
      </trkpt>
      <trkpt lat="50.41905" lon="2.66851">
        <ele>134.32378808</ele>
        <time>2017-09-03T08:39:10Z</time>
      </trkpt>
      <trkpt lat="50.41899" lon="2.66874">
        <ele>137.3240362</ele>
        <time>2017-09-03T08:39:15Z</time>
      </trkpt>
      <trkpt lat="50.41894" lon="2.66889">
        <ele>140.32422248</ele>
        <time>2017-09-03T08:39:19Z</time>
      </trkpt>
      <trkpt lat="50.41889" lon="2.66912">
        <ele>140.324461</ele>
        <time>2017-09-03T08:39:24Z</time>
      </trkpt>
      <trkpt lat="50.41881" lon="2.66934">
        <ele>142.32474356</ele>
        <time>2017-09-03T08:39:29Z</time>
      </trkpt>
      <trkpt lat="50.41877" lon="2.66948">
        <ele>142.32493212</ele>
        <time>2017-09-03T08:39:33Z</time>
      </trkpt>
      <trkpt lat="50.41876" lon="2.66952">
        <ele>143.32494632</ele>
        <time>2017-09-03T08:39:34Z</time>
      </trkpt>
      <trkpt lat="50.41878" lon="2.66972">
        <ele>142.32489284</ele>
        <time>2017-09-03T08:39:39Z</time>
      </trkpt>
      <trkpt lat="50.41867" lon="2.66988">
        <ele>141.3253052</ele>
        <time>2017-09-03T08:39:42Z</time>
      </trkpt>
      <trkpt lat="50.41857" lon="2.66999">
        <ele>146.32572608</ele>
        <time>2017-09-03T08:39:46Z</time>
      </trkpt>
      <trkpt lat="50.41853" lon="2.67023">
        <ele>145.3258954</ele>
        <time>2017-09-03T08:39:51Z</time>
      </trkpt>
      <trkpt lat="50.41848" lon="2.67047">
        <ele>143.32609072</ele>
        <time>2017-09-03T08:39:55Z</time>
      </trkpt>
      <trkpt lat="50.41844" lon="2.67075">
        <ele>142.32624656</ele>
        <time>2017-09-03T08:40:00Z</time>
      </trkpt>
      <trkpt lat="50.41839" lon="2.67111">
        <ele>141.32645484</ele>
        <time>2017-09-03T08:40:04Z</time>
      </trkpt>
      <trkpt lat="50.41833" lon="2.67151">
        <ele>141.32666944</ele>
        <time>2017-09-03T08:40:09Z</time>
      </trkpt>
      <trkpt lat="50.4183" lon="2.6719">
        <ele>142.3268148</ele>
        <time>2017-09-03T08:40:14Z</time>
      </trkpt>
      <trkpt lat="50.41827" lon="2.67221">
        <ele>140.32693824</ele>
        <time>2017-09-03T08:40:19Z</time>
      </trkpt>
      <trkpt lat="50.41822" lon="2.67249">
        <ele>143.32710228</ele>
        <time>2017-09-03T08:40:23Z</time>
      </trkpt>
      <trkpt lat="50.41819" lon="2.67277">
        <ele>143.32724188</ele>
        <time>2017-09-03T08:40:27Z</time>
      </trkpt>
      <trkpt lat="50.41811" lon="2.67308">
        <ele>141.32755004</ele>
        <time>2017-09-03T08:40:32Z</time>
      </trkpt>
      <trkpt lat="50.41808" lon="2.67334">
        <ele>141.32766716</ele>
        <time>2017-09-03T08:40:36Z</time>
      </trkpt>
      <trkpt lat="50.41805" lon="2.67366">
        <ele>140.32779512</ele>
        <time>2017-09-03T08:40:41Z</time>
      </trkpt>
      <trkpt lat="50.41801" lon="2.67388">
        <ele>140.32795308</ele>
        <time>2017-09-03T08:40:45Z</time>
      </trkpt>
      <trkpt lat="50.41796" lon="2.67409">
        <ele>139.3281742</ele>
        <time>2017-09-03T08:40:49Z</time>
      </trkpt>
      <trkpt lat="50.41792" lon="2.67435">
        <ele>143.3283156</ele>
        <time>2017-09-03T08:40:54Z</time>
      </trkpt>
      <trkpt lat="50.41789" lon="2.67451">
        <ele>144.32843404</ele>
        <time>2017-09-03T08:40:58Z</time>
      </trkpt>
      <trkpt lat="50.41784" lon="2.67467">
        <ele>140.32865012</ele>
        <time>2017-09-03T08:41:03Z</time>
      </trkpt>
      <trkpt lat="50.41782" lon="2.67483">
        <ele>143.32872712</ele>
        <time>2017-09-03T08:41:07Z</time>
      </trkpt>
      <trkpt lat="50.41774" lon="2.675">
        <ele>146.32902388</ele>
        <time>2017-09-03T08:41:12Z</time>
      </trkpt>
      <trkpt lat="50.41769" lon="2.67513">
        <ele>146.32923636</ele>
        <time>2017-09-03T08:41:16Z</time>
      </trkpt>
      <trkpt lat="50.41765" lon="2.67525">
        <ele>149.3294138</ele>
        <time>2017-09-03T08:41:20Z</time>
      </trkpt>
      <trkpt lat="50.41761" lon="2.67539">
        <ele>150.32957916</ele>
        <time>2017-09-03T08:41:24Z</time>
      </trkpt>
      <trkpt lat="50.41755" lon="2.67554">
        <ele>152.32979716</ele>
        <time>2017-09-03T08:41:29Z</time>
      </trkpt>
      <trkpt lat="50.41748" lon="2.67564">
        <ele>150.33007776</ele>
        <time>2017-09-03T08:41:34Z</time>
      </trkpt>
      <trkpt lat="50.41746" lon="2.67576">
        <ele>150.33017432</ele>
        <time>2017-09-03T08:41:39Z</time>
      </trkpt>
      <trkpt lat="50.41739" lon="2.67583">
        <ele>151.33042272</ele>
        <time>2017-09-03T08:41:47Z</time>
      </trkpt>
      <trkpt lat="50.41733" lon="2.67589">
        <ele>150.3306854</ele>
        <time>2017-09-03T08:41:53Z</time>
      </trkpt>
      <trkpt lat="50.41725" lon="2.67591">
        <ele>151.33099032</ele>
        <time>2017-09-03T08:42:01Z</time>
      </trkpt>
      <trkpt lat="50.41719" lon="2.67599">
        <ele>155.3312576</ele>
        <time>2017-09-03T08:42:06Z</time>
      </trkpt>
      <trkpt lat="50.41711" lon="2.67603">
        <ele>156.33155188</ele>
        <time>2017-09-03T08:42:12Z</time>
      </trkpt>
      <trkpt lat="50.41704" lon="2.67606">
        <ele>154.33185276</ele>
        <time>2017-09-03T08:42:16Z</time>
      </trkpt>
      <trkpt lat="50.41699" lon="2.6761">
        <ele>154.33204784</ele>
        <time>2017-09-03T08:42:21Z</time>
      </trkpt>
      <trkpt lat="50.41695" lon="2.67623">
        <ele>157.33219592</ele>
        <time>2017-09-03T08:42:25Z</time>
      </trkpt>
      <trkpt lat="50.41689" lon="2.67632">
        <ele>163.332438</ele>
        <time>2017-09-03T08:42:34Z</time>
      </trkpt>
      <trkpt lat="50.41682" lon="2.67637">
        <ele>165.33270768</ele>
        <time>2017-09-03T08:42:38Z</time>
      </trkpt>
      <trkpt lat="50.41674" lon="2.67642">
        <ele>164.33305672</ele>
        <time>2017-09-03T08:42:42Z</time>
      </trkpt>
      <trkpt lat="50.41667" lon="2.67649">
        <ele>166.33331448</ele>
        <time>2017-09-03T08:42:48Z</time>
      </trkpt>
      <trkpt lat="50.41661" lon="2.67654">
        <ele>169.33357392</ele>
        <time>2017-09-03T08:42:54Z</time>
      </trkpt>
      <trkpt lat="50.41654" lon="2.6766">
        <ele>170.33383812</ele>
        <time>2017-09-03T08:42:59Z</time>
      </trkpt>
      <trkpt lat="50.41646" lon="2.67665">
        <ele>172.33415304</ele>
        <time>2017-09-03T08:43:05Z</time>
      </trkpt>
      <trkpt lat="50.41639" lon="2.67672">
        <ele>171.33445208</ele>
        <time>2017-09-03T08:43:19Z</time>
      </trkpt>
      <trkpt lat="50.4163" lon="2.67672">
        <ele>170.33479524</ele>
        <time>2017-09-03T08:43:35Z</time>
      </trkpt>
      <trkpt lat="50.41623" lon="2.67674">
        <ele>172.33508212</ele>
        <time>2017-09-03T08:43:57Z</time>
      </trkpt>
      <trkpt lat="50.41615" lon="2.67672">
        <ele>167.33541908</ele>
        <time>2017-09-03T08:44:01Z</time>
      </trkpt>
      <trkpt lat="50.41606" lon="2.67673">
        <ele>165.33576352</ele>
        <time>2017-09-03T08:44:07Z</time>
      </trkpt>
      <trkpt lat="50.41597" lon="2.67673">
        <ele>175.33612016</ele>
        <time>2017-09-03T08:44:20Z</time>
      </trkpt>
      <trkpt lat="50.41583" lon="2.67677">
        <ele>176.3366794</ele>
        <time>2017-09-03T08:44:25Z</time>
      </trkpt>
      <trkpt lat="50.41572" lon="2.67672">
        <ele>172.33713332</ele>
        <time>2017-09-03T08:44:29Z</time>
      </trkpt>
      <trkpt lat="50.41567" lon="2.67676">
        <ele>177.337304</ele>
        <time>2017-09-03T08:44:34Z</time>
      </trkpt>
      <trkpt lat="50.41559" lon="2.67678">
        <ele>180.33762256</ele>
        <time>2017-09-03T08:44:37Z</time>
      </trkpt>
      <trkpt lat="50.41552" lon="2.67682">
        <ele>183.33791612</ele>
        <time>2017-09-03T08:44:42Z</time>
      </trkpt>
      <trkpt lat="50.41543" lon="2.67685">
        <ele>184.338267</ele>
        <time>2017-09-03T08:44:47Z</time>
      </trkpt>
      <trkpt lat="50.41534" lon="2.67683">
        <ele>183.3386568</ele>
        <time>2017-09-03T08:44:51Z</time>
      </trkpt>
      <trkpt lat="50.41526" lon="2.67688">
        <ele>190.338971</ele>
        <time>2017-09-03T08:45:01Z</time>
      </trkpt>
      <trkpt lat="50.41518" lon="2.67687">
        <ele>191.33927572</ele>
        <time>2017-09-03T08:45:10Z</time>
      </trkpt>
      <trkpt lat="50.41507" lon="2.67699">
        <ele>189.33971856</ele>
        <time>2017-09-03T08:45:15Z</time>
      </trkpt>
      <trkpt lat="50.41499" lon="2.67706">
        <ele>188.3400254</ele>
        <time>2017-09-03T08:45:20Z</time>
      </trkpt>
      <trkpt lat="50.41494" lon="2.67715">
        <ele>184.34022592</ele>
        <time>2017-09-03T08:45:25Z</time>
      </trkpt>
      <trkpt lat="50.41487" lon="2.67724">
        <ele>188.3405268</ele>
        <time>2017-09-03T08:45:29Z</time>
      </trkpt>
      <trkpt lat="50.41477" lon="2.67738">
        <ele>189.34090548</ele>
        <time>2017-09-03T08:45:34Z</time>
      </trkpt>
      <trkpt lat="50.41469" lon="2.67745">
        <ele>190.34122436</ele>
        <time>2017-09-03T08:45:38Z</time>
      </trkpt>
      <trkpt lat="50.4146" lon="2.67757">
        <ele>193.3415848</ele>
        <time>2017-09-03T08:45:43Z</time>
      </trkpt>
      <trkpt lat="50.41456" lon="2.67767">
        <ele>191.34175068</ele>
        <time>2017-09-03T08:45:47Z</time>
      </trkpt>
      <trkpt lat="50.41445" lon="2.67784">
        <ele>193.34218548</ele>
        <time>2017-09-03T08:45:52Z</time>
      </trkpt>
      <trkpt lat="50.41435" lon="2.67799">
        <ele>188.34260628</ele>
        <time>2017-09-03T08:45:57Z</time>
      </trkpt>
      <trkpt lat="50.41427" lon="2.67808">
        <ele>189.34290596</ele>
        <time>2017-09-03T08:46:00Z</time>
      </trkpt>
      <trkpt lat="50.41423" lon="2.67833">
        <ele>187.34308948</ele>
        <time>2017-09-03T08:46:05Z</time>
      </trkpt>
      <trkpt lat="50.41431" lon="2.67849">
        <ele>186.342755</ele>
        <time>2017-09-03T08:46:09Z</time>
      </trkpt>
      <trkpt lat="50.41441" lon="2.6786">
        <ele>183.34237944</ele>
        <time>2017-09-03T08:46:14Z</time>
      </trkpt>
      <trkpt lat="50.41449" lon="2.67863">
        <ele>183.34204032</ele>
        <time>2017-09-03T08:46:18Z</time>
      </trkpt>
      <trkpt lat="50.41461" lon="2.67864">
        <ele>181.34154224</ele>
        <time>2017-09-03T08:46:23Z</time>
      </trkpt>
      <trkpt lat="50.41474" lon="2.67867">
        <ele>173.34102344</ele>
        <time>2017-09-03T08:46:27Z</time>
      </trkpt>
      <trkpt lat="50.41488" lon="2.67864">
        <ele>169.34049004</ele>
        <time>2017-09-03T08:46:32Z</time>
      </trkpt>
      <trkpt lat="50.41508" lon="2.6786">
        <ele>170.33966632</ele>
        <time>2017-09-03T08:46:37Z</time>
      </trkpt>
      <trkpt lat="50.41521" lon="2.6786">
        <ele>170.33917884</ele>
        <time>2017-09-03T08:46:41Z</time>
      </trkpt>
      <trkpt lat="50.4153" lon="2.67855">
        <ele>162.33879796</ele>
        <time>2017-09-03T08:46:46Z</time>
      </trkpt>
      <trkpt lat="50.41545" lon="2.67849">
        <ele>160.3382056</ele>
        <time>2017-09-03T08:46:51Z</time>
      </trkpt>
      <trkpt lat="50.41562" lon="2.67855">
        <ele>156.3375412</ele>
        <time>2017-09-03T08:46:56Z</time>
      </trkpt>
      <trkpt lat="50.41575" lon="2.67865">
        <ele>156.33701172</ele>
        <time>2017-09-03T08:47:00Z</time>
      </trkpt>
      <trkpt lat="50.41593" lon="2.67882">
        <ele>148.3362666</ele>
        <time>2017-09-03T08:47:04Z</time>
      </trkpt>
      <trkpt lat="50.41618" lon="2.67917">
        <ele>142.33528148</ele>
        <time>2017-09-03T08:47:08Z</time>
      </trkpt>
      <trkpt lat="50.41643" lon="2.67952">
        <ele>137.33427104</ele>
        <time>2017-09-03T08:47:12Z</time>
      </trkpt>
      <trkpt lat="50.41671" lon="2.67998">
        <ele>133.33315892</ele>
        <time>2017-09-03T08:47:17Z</time>
      </trkpt>
      <trkpt lat="50.41691" lon="2.68031">
        <ele>131.33235916</ele>
        <time>2017-09-03T08:47:21Z</time>
      </trkpt>
      <trkpt lat="50.41707" lon="2.68058">
        <ele>130.33172876</ele>
        <time>2017-09-03T08:47:24Z</time>
      </trkpt>
      <trkpt lat="50.41728" lon="2.68095">
        <ele>127.33087244</ele>
        <time>2017-09-03T08:47:28Z</time>
      </trkpt>
      <trkpt lat="50.41748" lon="2.68129">
        <ele>126.3300988</ele>
        <time>2017-09-03T08:47:32Z</time>
      </trkpt>
      <trkpt lat="50.41778" lon="2.68175">
        <ele>126.32888164</ele>
        <time>2017-09-03T08:47:37Z</time>
      </trkpt>
      <trkpt lat="50.41794" lon="2.682">
        <ele>125.32823708</ele>
        <time>2017-09-03T08:47:41Z</time>
      </trkpt>
      <trkpt lat="50.41789" lon="2.68225">
        <ele>124.32843152</ele>
        <time>2017-09-03T08:47:45Z</time>
      </trkpt>
      <trkpt lat="50.41774" lon="2.6825">
        <ele>123.32905312</ele>
        <time>2017-09-03T08:47:49Z</time>
      </trkpt>
      <trkpt lat="50.41749" lon="2.68278">
        <ele>123.33005688</ele>
        <time>2017-09-03T08:47:54Z</time>
      </trkpt>
      <trkpt lat="50.41733" lon="2.68294">
        <ele>124.33068496</ele>
        <time>2017-09-03T08:47:57Z</time>
      </trkpt>
      <trkpt lat="50.41715" lon="2.68309">
        <ele>125.33139872</ele>
        <time>2017-09-03T08:48:01Z</time>
      </trkpt>
      <trkpt lat="50.41692" lon="2.68325">
        <ele>120.33230388</ele>
        <time>2017-09-03T08:48:05Z</time>
      </trkpt>
      <trkpt lat="50.41687" lon="2.68362">
        <ele>121.33252096</ele>
        <time>2017-09-03T08:48:10Z</time>
      </trkpt>
      <trkpt lat="50.41698" lon="2.68403">
        <ele>120.33209264</ele>
        <time>2017-09-03T08:48:15Z</time>
      </trkpt>
      <trkpt lat="50.41699" lon="2.68431">
        <ele>118.33203856</ele>
        <time>2017-09-03T08:48:19Z</time>
      </trkpt>
      <trkpt lat="50.41673" lon="2.68443">
        <ele>120.33308836</ele>
        <time>2017-09-03T08:48:24Z</time>
      </trkpt>
      <trkpt lat="50.41652" lon="2.68452">
        <ele>121.33392804</ele>
        <time>2017-09-03T08:48:28Z</time>
      </trkpt>
      <trkpt lat="50.41626" lon="2.68463">
        <ele>121.3349684</ele>
        <time>2017-09-03T08:48:33Z</time>
      </trkpt>
      <trkpt lat="50.41606" lon="2.68475">
        <ele>121.33575876</ele>
        <time>2017-09-03T08:48:38Z</time>
      </trkpt>
      <trkpt lat="50.41595" lon="2.68477">
        <ele>120.3362104</ele>
        <time>2017-09-03T08:48:42Z</time>
      </trkpt>
      <trkpt lat="50.41587" lon="2.68483">
        <ele>121.33652404</ele>
        <time>2017-09-03T08:50:55Z</time>
      </trkpt>
      <trkpt lat="50.41581" lon="2.68485">
        <ele>118.33675528</ele>
        <time>2017-09-03T08:52:10Z</time>
      </trkpt>
      <trkpt lat="50.41568" lon="2.68483">
        <ele>116.33726896</ele>
        <time>2017-09-03T08:52:15Z</time>
      </trkpt>
      <trkpt lat="50.41554" lon="2.68487">
        <ele>118.33784524</ele>
        <time>2017-09-03T08:52:20Z</time>
      </trkpt>
      <trkpt lat="50.41536" lon="2.68503">
        <ele>119.33855124</ele>
        <time>2017-09-03T08:52:24Z</time>
      </trkpt>
      <trkpt lat="50.41522" lon="2.68511">
        <ele>120.33911944</ele>
        <time>2017-09-03T08:52:29Z</time>
      </trkpt>
      <trkpt lat="50.41501" lon="2.68511">
        <ele>126.3399736</ele>
        <time>2017-09-03T08:52:33Z</time>
      </trkpt>
      <trkpt lat="50.41481" lon="2.68506">
        <ele>124.34078124</ele>
        <time>2017-09-03T08:52:38Z</time>
      </trkpt>
      <trkpt lat="50.41467" lon="2.68497">
        <ele>126.3413186</ele>
        <time>2017-09-03T08:52:42Z</time>
      </trkpt>
      <trkpt lat="50.41452" lon="2.68491">
        <ele>124.3419076</ele>
        <time>2017-09-03T08:52:46Z</time>
      </trkpt>
      <trkpt lat="50.4144" lon="2.68486">
        <ele>124.34241344</ele>
        <time>2017-09-03T08:52:50Z</time>
      </trkpt>
      <trkpt lat="50.41427" lon="2.68483">
        <ele>122.34291552</ele>
        <time>2017-09-03T08:52:54Z</time>
      </trkpt>
      <trkpt lat="50.4141" lon="2.6848">
        <ele>124.34360028</ele>
        <time>2017-09-03T08:52:59Z</time>
      </trkpt>
      <trkpt lat="50.41398" lon="2.68479">
        <ele>122.34407008</ele>
        <time>2017-09-03T08:53:03Z</time>
      </trkpt>
      <trkpt lat="50.41383" lon="2.68475">
        <ele>122.3446702</ele>
        <time>2017-09-03T08:53:08Z</time>
      </trkpt>
      <trkpt lat="50.41372" lon="2.68468">
        <ele>120.3451298</ele>
        <time>2017-09-03T08:53:12Z</time>
      </trkpt>
      <trkpt lat="50.41358" lon="2.68466">
        <ele>121.34568356</ele>
        <time>2017-09-03T08:53:17Z</time>
      </trkpt>
      <trkpt lat="50.41348" lon="2.6846">
        <ele>122.34606948</ele>
        <time>2017-09-03T08:53:21Z</time>
      </trkpt>
      <trkpt lat="50.41335" lon="2.68456">
        <ele>124.34658388</ele>
        <time>2017-09-03T08:53:26Z</time>
      </trkpt>
      <trkpt lat="50.41325" lon="2.68453">
        <ele>123.3470142</ele>
        <time>2017-09-03T08:53:30Z</time>
      </trkpt>
      <trkpt lat="50.41312" lon="2.68452">
        <ele>120.34753448</ele>
        <time>2017-09-03T08:53:34Z</time>
      </trkpt>
      <trkpt lat="50.41301" lon="2.68451">
        <ele>120.34796132</ele>
        <time>2017-09-03T08:53:38Z</time>
      </trkpt>
      <trkpt lat="50.4129" lon="2.68455">
        <ele>123.348394</ele>
        <time>2017-09-03T08:53:43Z</time>
      </trkpt>
      <trkpt lat="50.41281" lon="2.68454">
        <ele>122.34877772</ele>
        <time>2017-09-03T08:53:47Z</time>
      </trkpt>
      <trkpt lat="50.41267" lon="2.68451">
        <ele>120.34933844</ele>
        <time>2017-09-03T08:53:51Z</time>
      </trkpt>
      <trkpt lat="50.41259" lon="2.68449">
        <ele>120.34965864</ele>
        <time>2017-09-03T08:53:55Z</time>
      </trkpt>
      <trkpt lat="50.41252" lon="2.68454">
        <ele>123.34991364</ele>
        <time>2017-09-03T08:53:59Z</time>
      </trkpt>
      <trkpt lat="50.41249" lon="2.68459">
        <ele>125.35002864</ele>
        <time>2017-09-03T08:54:03Z</time>
      </trkpt>
      <trkpt lat="50.4124" lon="2.68467">
        <ele>129.3503976</ele>
        <time>2017-09-03T08:54:08Z</time>
      </trkpt>
      <trkpt lat="50.41232" lon="2.68473">
        <ele>130.35073852</ele>
        <time>2017-09-03T08:54:12Z</time>
      </trkpt>
      <trkpt lat="50.41228" lon="2.68485">
        <ele>141.35089544</ele>
        <time>2017-09-03T08:54:19Z</time>
      </trkpt>
      <trkpt lat="50.4122" lon="2.68496">
        <ele>142.35118928</ele>
        <time>2017-09-03T08:54:24Z</time>
      </trkpt>
      <trkpt lat="50.41207" lon="2.68514">
        <ele>141.3517414</ele>
        <time>2017-09-03T08:54:28Z</time>
      </trkpt>
      <trkpt lat="50.412" lon="2.68526">
        <ele>139.35201316</ele>
        <time>2017-09-03T08:54:32Z</time>
      </trkpt>
      <trkpt lat="50.41184" lon="2.68551">
        <ele>135.35263572</ele>
        <time>2017-09-03T08:54:37Z</time>
      </trkpt>
      <trkpt lat="50.41177" lon="2.68571">
        <ele>134.35292492</ele>
        <time>2017-09-03T08:54:42Z</time>
      </trkpt>
      <trkpt lat="50.41176" lon="2.68602">
        <ele>140.35297636</ele>
        <time>2017-09-03T08:54:47Z</time>
      </trkpt>
      <trkpt lat="50.41165" lon="2.68629">
        <ele>138.35340416</ele>
        <time>2017-09-03T08:54:52Z</time>
      </trkpt>
      <trkpt lat="50.41153" lon="2.68664">
        <ele>137.3538934</ele>
        <time>2017-09-03T08:54:56Z</time>
      </trkpt>
      <trkpt lat="50.41141" lon="2.6869">
        <ele>139.35434916</ele>
        <time>2017-09-03T08:55:00Z</time>
      </trkpt>
      <trkpt lat="50.41136" lon="2.68711">
        <ele>145.35457624</ele>
        <time>2017-09-03T08:55:05Z</time>
      </trkpt>
      <trkpt lat="50.41127" lon="2.68728">
        <ele>147.35493384</ele>
        <time>2017-09-03T08:55:09Z</time>
      </trkpt>
      <trkpt lat="50.41118" lon="2.6874">
        <ele>155.35526788</ele>
        <time>2017-09-03T08:55:13Z</time>
      </trkpt>
      <trkpt lat="50.41115" lon="2.68754">
        <ele>160.3553984</ele>
        <time>2017-09-03T08:55:17Z</time>
      </trkpt>
      <trkpt lat="50.41109" lon="2.68762">
        <ele>165.3556466</ele>
        <time>2017-09-03T08:55:27Z</time>
      </trkpt>
      <trkpt lat="50.41098" lon="2.68771">
        <ele>164.3561</ele>
        <time>2017-09-03T08:55:31Z</time>
      </trkpt>
      <trkpt lat="50.41092" lon="2.68782">
        <ele>165.35632016</ele>
        <time>2017-09-03T08:55:40Z</time>
      </trkpt>
      <trkpt lat="50.41088" lon="2.68793">
        <ele>173.356498</ele>
        <time>2017-09-03T08:55:50Z</time>
      </trkpt>
      <trkpt lat="50.41081" lon="2.68801">
        <ele>174.35677064</ele>
        <time>2017-09-03T08:55:55Z</time>
      </trkpt>
      <trkpt lat="50.41072" lon="2.68806">
        <ele>171.35713144</ele>
        <time>2017-09-03T08:55:59Z</time>
      </trkpt>
      <trkpt lat="50.41066" lon="2.68814">
        <ele>164.35737276</ele>
        <time>2017-09-03T08:56:04Z</time>
      </trkpt>
      <trkpt lat="50.4106" lon="2.68824">
        <ele>163.3575996</ele>
        <time>2017-09-03T08:56:11Z</time>
      </trkpt>
      <trkpt lat="50.41053" lon="2.6883">
        <ele>165.357875</ele>
        <time>2017-09-03T08:56:20Z</time>
      </trkpt>
      <trkpt lat="50.41049" lon="2.68839">
        <ele>171.35802272</ele>
        <time>2017-09-03T08:56:29Z</time>
      </trkpt>
      <trkpt lat="50.41043" lon="2.68834">
        <ele>167.35830008</ele>
        <time>2017-09-03T08:56:33Z</time>
      </trkpt>
      <trkpt lat="50.41037" lon="2.68842">
        <ele>170.35853064</ele>
        <time>2017-09-03T08:56:37Z</time>
      </trkpt>
      <trkpt lat="50.41027" lon="2.68848">
        <ele>173.35893612</ele>
        <time>2017-09-03T08:56:41Z</time>
      </trkpt>
      <trkpt lat="50.41021" lon="2.68844">
        <ele>175.35917952</ele>
        <time>2017-09-03T08:56:46Z</time>
      </trkpt>
      <trkpt lat="50.41011" lon="2.68853">
        <ele>177.35956104</ele>
        <time>2017-09-03T08:56:50Z</time>
      </trkpt>
      <trkpt lat="50.41005" lon="2.6885">
        <ele>174.35978584</ele>
        <time>2017-09-03T08:56:58Z</time>
      </trkpt>
      <trkpt lat="50.40998" lon="2.68845">
        <ele>175.36008272</ele>
        <time>2017-09-03T08:57:06Z</time>
      </trkpt>
      <trkpt lat="50.40988" lon="2.68843">
        <ele>176.36046356</ele>
        <time>2017-09-03T08:57:11Z</time>
      </trkpt>
      <trkpt lat="50.40989" lon="2.68857">
        <ele>176.36045212</ele>
        <time>2017-09-03T08:57:19Z</time>
      </trkpt>
      <trkpt lat="50.4099" lon="2.68871">
        <ele>174.36039544</ele>
        <time>2017-09-03T08:57:23Z</time>
      </trkpt>
      <trkpt lat="50.40986" lon="2.68893">
        <ele>174.36054372</ele>
        <time>2017-09-03T08:57:28Z</time>
      </trkpt>
      <trkpt lat="50.40986" lon="2.68921">
        <ele>174.36056612</ele>
        <time>2017-09-03T08:57:33Z</time>
      </trkpt>
      <trkpt lat="50.40984" lon="2.68939">
        <ele>173.36065744</ele>
        <time>2017-09-03T08:57:37Z</time>
      </trkpt>
      <trkpt lat="50.40984" lon="2.68969">
        <ele>172.36064916</ele>
        <time>2017-09-03T08:57:41Z</time>
      </trkpt>
      <trkpt lat="50.40978" lon="2.68993">
        <ele>168.36088748</ele>
        <time>2017-09-03T08:57:46Z</time>
      </trkpt>
      <trkpt lat="50.40971" lon="2.69011">
        <ele>163.36115648</ele>
        <time>2017-09-03T08:57:50Z</time>
      </trkpt>
      <trkpt lat="50.40966" lon="2.69029">
        <ele>160.3613496</ele>
        <time>2017-09-03T08:57:54Z</time>
      </trkpt>
      <trkpt lat="50.4097" lon="2.69072">
        <ele>159.36121928</ele>
        <time>2017-09-03T08:57:58Z</time>
      </trkpt>
      <trkpt lat="50.40973" lon="2.69105">
        <ele>162.36107428</ele>
        <time>2017-09-03T08:58:03Z</time>
      </trkpt>
      <trkpt lat="50.40988" lon="2.6912">
        <ele>161.3604734</ele>
        <time>2017-09-03T08:58:08Z</time>
      </trkpt>
      <trkpt lat="50.41003" lon="2.6914">
        <ele>154.35987388</ele>
        <time>2017-09-03T08:58:12Z</time>
      </trkpt>
      <trkpt lat="50.41024" lon="2.69165">
        <ele>149.35904848</ele>
        <time>2017-09-03T08:58:17Z</time>
      </trkpt>
      <trkpt lat="50.41041" lon="2.69187">
        <ele>141.35835848</ele>
        <time>2017-09-03T08:58:21Z</time>
      </trkpt>
      <trkpt lat="50.41056" lon="2.69205">
        <ele>137.35775892</ele>
        <time>2017-09-03T08:58:26Z</time>
      </trkpt>
      <trkpt lat="50.41072" lon="2.69226">
        <ele>135.35710508</ele>
        <time>2017-09-03T08:58:30Z</time>
      </trkpt>
      <trkpt lat="50.41094" lon="2.69247">
        <ele>133.35623652</ele>
        <time>2017-09-03T08:58:35Z</time>
      </trkpt>
      <trkpt lat="50.41117" lon="2.6927">
        <ele>131.35532208</ele>
        <time>2017-09-03T08:58:39Z</time>
      </trkpt>
      <trkpt lat="50.41137" lon="2.69283">
        <ele>129.35450624</ele>
        <time>2017-09-03T08:58:43Z</time>
      </trkpt>
      <trkpt lat="50.41159" lon="2.69295">
        <ele>127.35364924</ele>
        <time>2017-09-03T08:58:48Z</time>
      </trkpt>
      <trkpt lat="50.41182" lon="2.69323">
        <ele>126.352711</ele>
        <time>2017-09-03T08:58:52Z</time>
      </trkpt>
      <trkpt lat="50.41207" lon="2.6934">
        <ele>125.35170948</ele>
        <time>2017-09-03T08:58:56Z</time>
      </trkpt>
      <trkpt lat="50.41235" lon="2.69358">
        <ele>126.35059608</ele>
        <time>2017-09-03T08:59:00Z</time>
      </trkpt>
      <trkpt lat="50.4126" lon="2.69373">
        <ele>129.34961492</ele>
        <time>2017-09-03T08:59:05Z</time>
      </trkpt>
      <trkpt lat="50.41278" lon="2.69382">
        <ele>130.34887224</ele>
        <time>2017-09-03T08:59:09Z</time>
      </trkpt>
      <trkpt lat="50.41312" lon="2.69383">
        <ele>129.34753216</ele>
        <time>2017-09-03T08:59:14Z</time>
      </trkpt>
      <trkpt lat="50.41332" lon="2.69388">
        <ele>127.34670952</ele>
        <time>2017-09-03T08:59:18Z</time>
      </trkpt>
      <trkpt lat="50.41356" lon="2.69397">
        <ele>123.3457492</ele>
        <time>2017-09-03T08:59:22Z</time>
      </trkpt>
      <trkpt lat="50.41378" lon="2.69413">
        <ele>122.34486208</ele>
        <time>2017-09-03T08:59:26Z</time>
      </trkpt>
      <trkpt lat="50.41397" lon="2.69435">
        <ele>125.34411284</ele>
        <time>2017-09-03T08:59:30Z</time>
      </trkpt>
      <trkpt lat="50.41414" lon="2.69467">
        <ele>122.34345916</ele>
        <time>2017-09-03T08:59:35Z</time>
      </trkpt>
      <trkpt lat="50.41425" lon="2.69501">
        <ele>122.342996</ele>
        <time>2017-09-03T08:59:39Z</time>
      </trkpt>
      <trkpt lat="50.41436" lon="2.69534">
        <ele>120.34255724</ele>
        <time>2017-09-03T08:59:43Z</time>
      </trkpt>
      <trkpt lat="50.41447" lon="2.69556">
        <ele>119.34213524</ele>
        <time>2017-09-03T08:59:47Z</time>
      </trkpt>
      <trkpt lat="50.41455" lon="2.69594">
        <ele>118.3417918</ele>
        <time>2017-09-03T08:59:52Z</time>
      </trkpt>
      <trkpt lat="50.41465" lon="2.69616">
        <ele>117.34140996</ele>
        <time>2017-09-03T08:59:56Z</time>
      </trkpt>
      <trkpt lat="50.4147" lon="2.69632">
        <ele>116.34119816</ele>
        <time>2017-09-03T09:00:01Z</time>
      </trkpt>
      <trkpt lat="50.41481" lon="2.6964">
        <ele>120.3407504</ele>
        <time>2017-09-03T09:00:06Z</time>
      </trkpt>
      <trkpt lat="50.41484" lon="2.69651">
        <ele>120.34063384</ele>
        <time>2017-09-03T09:00:11Z</time>
      </trkpt>
      <trkpt lat="50.41489" lon="2.69659">
        <ele>113.34044048</ele>
        <time>2017-09-03T09:00:17Z</time>
      </trkpt>
      <trkpt lat="50.41499" lon="2.69678">
        <ele>111.3400588</ele>
        <time>2017-09-03T09:00:21Z</time>
      </trkpt>
      <trkpt lat="50.41501" lon="2.69691">
        <ele>113.33997224</ele>
        <time>2017-09-03T09:00:26Z</time>
      </trkpt>
      <trkpt lat="50.41505" lon="2.697">
        <ele>113.33980844</ele>
        <time>2017-09-03T09:00:32Z</time>
      </trkpt>
      <trkpt lat="50.4151" lon="2.69712">
        <ele>112.33961552</ele>
        <time>2017-09-03T09:00:36Z</time>
      </trkpt>
      <trkpt lat="50.41513" lon="2.6973">
        <ele>108.33947296</ele>
        <time>2017-09-03T09:00:40Z</time>
      </trkpt>
      <trkpt lat="50.41515" lon="2.69738">
        <ele>108.3394212</ele>
        <time>2017-09-03T09:00:43Z</time>
      </trkpt>
      <trkpt lat="50.41518" lon="2.69756">
        <ele>105.33927052</ele>
        <time>2017-09-03T09:00:48Z</time>
      </trkpt>
      <trkpt lat="50.41527" lon="2.69766">
        <ele>107.33892628</ele>
        <time>2017-09-03T09:00:52Z</time>
      </trkpt>
      <trkpt lat="50.41546" lon="2.6979">
        <ele>108.33817692</ele>
        <time>2017-09-03T09:00:57Z</time>
      </trkpt>
      <trkpt lat="50.41561" lon="2.69807">
        <ele>104.33755596</ele>
        <time>2017-09-03T09:01:01Z</time>
      </trkpt>
      <trkpt lat="50.41573" lon="2.6982">
        <ele>101.33706468</ele>
        <time>2017-09-03T09:01:06Z</time>
      </trkpt>
      <trkpt lat="50.41583" lon="2.69834">
        <ele>98.3366972</ele>
        <time>2017-09-03T09:01:10Z</time>
      </trkpt>
      <trkpt lat="50.41602" lon="2.69852">
        <ele>100.33590764</ele>
        <time>2017-09-03T09:01:15Z</time>
      </trkpt>
      <trkpt lat="50.41618" lon="2.69867">
        <ele>100.33528616</ele>
        <time>2017-09-03T09:01:20Z</time>
      </trkpt>
      <trkpt lat="50.41632" lon="2.69877">
        <ele>99.33472816</ele>
        <time>2017-09-03T09:01:24Z</time>
      </trkpt>
      <trkpt lat="50.41652" lon="2.6989">
        <ele>102.3339256</ele>
        <time>2017-09-03T09:01:28Z</time>
      </trkpt>
      <trkpt lat="50.41673" lon="2.69909">
        <ele>104.33308796</ele>
        <time>2017-09-03T09:01:32Z</time>
      </trkpt>
      <trkpt lat="50.41693" lon="2.69923">
        <ele>105.3322972</ele>
        <time>2017-09-03T09:01:36Z</time>
      </trkpt>
      <trkpt lat="50.41707" lon="2.69939">
        <ele>104.33173612</ele>
        <time>2017-09-03T09:01:41Z</time>
      </trkpt>
      <trkpt lat="50.417" lon="2.6996">
        <ele>104.33199644</ele>
        <time>2017-09-03T09:01:45Z</time>
      </trkpt>
      <trkpt lat="50.41689" lon="2.69976">
        <ele>106.3324328</ele>
        <time>2017-09-03T09:01:49Z</time>
      </trkpt>
      <trkpt lat="50.41675" lon="2.69988">
        <ele>113.33301864</ele>
        <time>2017-09-03T09:01:53Z</time>
      </trkpt>
      <trkpt lat="50.41657" lon="2.70003">
        <ele>126.33373328</ele>
        <time>2017-09-03T09:01:58Z</time>
      </trkpt>
      <trkpt lat="50.41644" lon="2.70026">
        <ele>127.33425224</ele>
        <time>2017-09-03T09:02:03Z</time>
      </trkpt>
      <trkpt lat="50.41634" lon="2.70035">
        <ele>130.33462452</ele>
        <time>2017-09-03T09:02:08Z</time>
      </trkpt>
      <trkpt lat="50.41611" lon="2.70054">
        <ele>126.33557368</ele>
        <time>2017-09-03T09:02:13Z</time>
      </trkpt>
      <trkpt lat="50.41604" lon="2.70069">
        <ele>125.3358462</ele>
        <time>2017-09-03T09:02:17Z</time>
      </trkpt>
      <trkpt lat="50.41584" lon="2.70089">
        <ele>126.33665452</ele>
        <time>2017-09-03T09:02:21Z</time>
      </trkpt>
      <trkpt lat="50.41564" lon="2.70104">
        <ele>128.33744972</ele>
        <time>2017-09-03T09:02:26Z</time>
      </trkpt>
      <trkpt lat="50.41534" lon="2.70118">
        <ele>131.33865864</ele>
        <time>2017-09-03T09:02:31Z</time>
      </trkpt>
      <trkpt lat="50.41527" lon="2.70135">
        <ele>127.33892872</ele>
        <time>2017-09-03T09:02:35Z</time>
      </trkpt>
      <trkpt lat="50.41516" lon="2.7015">
        <ele>127.33934652</ele>
        <time>2017-09-03T09:02:39Z</time>
      </trkpt>
      <trkpt lat="50.41506" lon="2.70166">
        <ele>130.33976744</ele>
        <time>2017-09-03T09:02:44Z</time>
      </trkpt>
      <trkpt lat="50.41504" lon="2.70187">
        <ele>123.33984976</ele>
        <time>2017-09-03T09:02:49Z</time>
      </trkpt>
      <trkpt lat="50.41495" lon="2.70192">
        <ele>125.34021476</ele>
        <time>2017-09-03T09:02:53Z</time>
      </trkpt>
      <trkpt lat="50.41497" lon="2.70214">
        <ele>117.3401324</ele>
        <time>2017-09-03T09:02:58Z</time>
      </trkpt>
      <trkpt lat="50.41494" lon="2.70232">
        <ele>117.34026048</ele>
        <time>2017-09-03T09:03:02Z</time>
      </trkpt>
      <trkpt lat="50.41491" lon="2.70244">
        <ele>118.34035428</ele>
        <time>2017-09-03T09:03:08Z</time>
      </trkpt>
      <trkpt lat="50.41485" lon="2.70259">
        <ele>120.34058836</ele>
        <time>2017-09-03T09:03:12Z</time>
      </trkpt>
      <trkpt lat="50.41485" lon="2.70275">
        <ele>120.34061812</ele>
        <time>2017-09-03T09:03:17Z</time>
      </trkpt>
      <trkpt lat="50.41484" lon="2.70292">
        <ele>121.34063904</ele>
        <time>2017-09-03T09:03:21Z</time>
      </trkpt>
      <trkpt lat="50.41485" lon="2.70305">
        <ele>124.34060184</ele>
        <time>2017-09-03T09:03:27Z</time>
      </trkpt>
      <trkpt lat="50.41479" lon="2.70312">
        <ele>125.34083232</ele>
        <time>2017-09-03T09:03:32Z</time>
      </trkpt>
      <trkpt lat="50.41472" lon="2.70332">
        <ele>129.34111428</ele>
        <time>2017-09-03T09:03:36Z</time>
      </trkpt>
      <trkpt lat="50.41471" lon="2.70344">
        <ele>133.34116988</ele>
        <time>2017-09-03T09:03:41Z</time>
      </trkpt>
      <trkpt lat="50.41463" lon="2.70369">
        <ele>136.34146948</ele>
        <time>2017-09-03T09:03:46Z</time>
      </trkpt>
      <trkpt lat="50.41461" lon="2.70379">
        <ele>139.34155324</ele>
        <time>2017-09-03T09:03:51Z</time>
      </trkpt>
      <trkpt lat="50.41456" lon="2.704">
        <ele>138.34177636</ele>
        <time>2017-09-03T09:03:54Z</time>
      </trkpt>
      <trkpt lat="50.41449" lon="2.7041">
        <ele>140.34203864</ele>
        <time>2017-09-03T09:03:59Z</time>
      </trkpt>
      <trkpt lat="50.41441" lon="2.70422">
        <ele>142.34235984</ele>
        <time>2017-09-03T09:04:03Z</time>
      </trkpt>
      <trkpt lat="50.41439" lon="2.70446">
        <ele>132.34246108</ele>
        <time>2017-09-03T09:04:08Z</time>
      </trkpt>
      <trkpt lat="50.41431" lon="2.70452">
        <ele>138.34276992</ele>
        <time>2017-09-03T09:04:13Z</time>
      </trkpt>
      <trkpt lat="50.41414" lon="2.70481">
        <ele>138.3434444</ele>
        <time>2017-09-03T09:04:18Z</time>
      </trkpt>
      <trkpt lat="50.41411" lon="2.70502">
        <ele>140.3435548</ele>
        <time>2017-09-03T09:04:22Z</time>
      </trkpt>
      <trkpt lat="50.41401" lon="2.70518">
        <ele>143.3439768</ele>
        <time>2017-09-03T09:04:27Z</time>
      </trkpt>
      <trkpt lat="50.41388" lon="2.70515">
        <ele>144.34448056</ele>
        <time>2017-09-03T09:04:31Z</time>
      </trkpt>
      <trkpt lat="50.41378" lon="2.70507">
        <ele>149.34486944</ele>
        <time>2017-09-03T09:04:35Z</time>
      </trkpt>
      <trkpt lat="50.41352" lon="2.70492">
        <ele>145.34592248</ele>
        <time>2017-09-03T09:04:40Z</time>
      </trkpt>
      <trkpt lat="50.41338" lon="2.70479">
        <ele>145.34649832</ele>
        <time>2017-09-03T09:04:44Z</time>
      </trkpt>
      <trkpt lat="50.41323" lon="2.70467">
        <ele>141.3470642</ele>
        <time>2017-09-03T09:04:48Z</time>
      </trkpt>
      <trkpt lat="50.41308" lon="2.70466">
        <ele>140.34767352</ele>
        <time>2017-09-03T09:04:52Z</time>
      </trkpt>
      <trkpt lat="50.41295" lon="2.70493">
        <ele>137.34820248</ele>
        <time>2017-09-03T09:04:57Z</time>
      </trkpt>
      <trkpt lat="50.41286" lon="2.70519">
        <ele>135.34857708</ele>
        <time>2017-09-03T09:05:01Z</time>
      </trkpt>
      <trkpt lat="50.41277" lon="2.70548">
        <ele>134.34893312</ele>
        <time>2017-09-03T09:05:06Z</time>
      </trkpt>
      <trkpt lat="50.4127" lon="2.70571">
        <ele>135.3492044</ele>
        <time>2017-09-03T09:05:11Z</time>
      </trkpt>
      <trkpt lat="50.41262" lon="2.70594">
        <ele>139.34953432</ele>
        <time>2017-09-03T09:05:15Z</time>
      </trkpt>
      <trkpt lat="50.41251" lon="2.70612">
        <ele>140.34994256</ele>
        <time>2017-09-03T09:05:19Z</time>
      </trkpt>
      <trkpt lat="50.41236" lon="2.70644">
        <ele>135.35055052</ele>
        <time>2017-09-03T09:05:23Z</time>
      </trkpt>
      <trkpt lat="50.41227" lon="2.70666">
        <ele>132.3509108</ele>
        <time>2017-09-03T09:05:28Z</time>
      </trkpt>
      <trkpt lat="50.4122" lon="2.70696">
        <ele>131.35119356</ele>
        <time>2017-09-03T09:05:32Z</time>
      </trkpt>
      <trkpt lat="50.41204" lon="2.70738">
        <ele>133.35185836</ele>
        <time>2017-09-03T09:05:36Z</time>
      </trkpt>
      <trkpt lat="50.41188" lon="2.70785">
        <ele>127.35247932</ele>
        <time>2017-09-03T09:05:41Z</time>
      </trkpt>
      <trkpt lat="50.41173" lon="2.7082">
        <ele>127.35308648</ele>
        <time>2017-09-03T09:05:45Z</time>
      </trkpt>
      <trkpt lat="50.41157" lon="2.70868">
        <ele>123.3537206</ele>
        <time>2017-09-03T09:05:50Z</time>
      </trkpt>
      <trkpt lat="50.41148" lon="2.70911">
        <ele>121.35408188</ele>
        <time>2017-09-03T09:05:54Z</time>
      </trkpt>
      <trkpt lat="50.41129" lon="2.70963">
        <ele>120.35484284</ele>
        <time>2017-09-03T09:05:59Z</time>
      </trkpt>
      <trkpt lat="50.41115" lon="2.71002">
        <ele>117.35538588</ele>
        <time>2017-09-03T09:06:03Z</time>
      </trkpt>
      <trkpt lat="50.41095" lon="2.71056">
        <ele>114.35619756</ele>
        <time>2017-09-03T09:06:08Z</time>
      </trkpt>
      <trkpt lat="50.41084" lon="2.71093">
        <ele>114.35665848</ele>
        <time>2017-09-03T09:06:12Z</time>
      </trkpt>
      <trkpt lat="50.41074" lon="2.71131">
        <ele>114.35705968</ele>
        <time>2017-09-03T09:06:16Z</time>
      </trkpt>
      <trkpt lat="50.4106" lon="2.71172">
        <ele>112.35760368</ele>
        <time>2017-09-03T09:06:21Z</time>
      </trkpt>
      <trkpt lat="50.41045" lon="2.71222">
        <ele>113.35819116</ele>
        <time>2017-09-03T09:06:25Z</time>
      </trkpt>
      <trkpt lat="50.41032" lon="2.71262">
        <ele>112.35874112</ele>
        <time>2017-09-03T09:06:29Z</time>
      </trkpt>
      <trkpt lat="50.41015" lon="2.71299">
        <ele>112.3594138</ele>
        <time>2017-09-03T09:06:34Z</time>
      </trkpt>
      <trkpt lat="50.40999" lon="2.71337">
        <ele>111.36004512</ele>
        <time>2017-09-03T09:06:38Z</time>
      </trkpt>
      <trkpt lat="50.40993" lon="2.71379">
        <ele>111.36028612</ele>
        <time>2017-09-03T09:06:43Z</time>
      </trkpt>
      <trkpt lat="50.40988" lon="2.71406">
        <ele>111.36049252</ele>
        <time>2017-09-03T09:06:46Z</time>
      </trkpt>
      <trkpt lat="50.40986" lon="2.7144">
        <ele>111.36054992</ele>
        <time>2017-09-03T09:06:51Z</time>
      </trkpt>
      <trkpt lat="50.41011" lon="2.71455">
        <ele>112.35955384</ele>
        <time>2017-09-03T09:06:56Z</time>
      </trkpt>
      <trkpt lat="50.41033" lon="2.71462">
        <ele>110.35869644</ele>
        <time>2017-09-03T09:07:00Z</time>
      </trkpt>
      <trkpt lat="50.41059" lon="2.7147">
        <ele>113.35762992</ele>
        <time>2017-09-03T09:07:05Z</time>
      </trkpt>
      <trkpt lat="50.41076" lon="2.71491">
        <ele>114.35696752</ele>
        <time>2017-09-03T09:07:09Z</time>
      </trkpt>
      <trkpt lat="50.41083" lon="2.71521">
        <ele>114.35670008</ele>
        <time>2017-09-03T09:07:13Z</time>
      </trkpt>
      <trkpt lat="50.41092" lon="2.71556">
        <ele>115.35631084</ele>
        <time>2017-09-03T09:07:18Z</time>
      </trkpt>
      <trkpt lat="50.41106" lon="2.71594">
        <ele>115.35575044</ele>
        <time>2017-09-03T09:07:23Z</time>
      </trkpt>
      <trkpt lat="50.41125" lon="2.71625">
        <ele>114.35500092</ele>
        <time>2017-09-03T09:07:27Z</time>
      </trkpt>
      <trkpt lat="50.41146" lon="2.71659">
        <ele>115.35414276</ele>
        <time>2017-09-03T09:07:31Z</time>
      </trkpt>
      <trkpt lat="50.41172" lon="2.71697">
        <ele>114.35311728</ele>
        <time>2017-09-03T09:07:35Z</time>
      </trkpt>
      <trkpt lat="50.41196" lon="2.71743">
        <ele>111.35216892</ele>
        <time>2017-09-03T09:07:39Z</time>
      </trkpt>
      <trkpt lat="50.41222" lon="2.71796">
        <ele>109.35112508</ele>
        <time>2017-09-03T09:07:44Z</time>
      </trkpt>
      <trkpt lat="50.41241" lon="2.71837">
        <ele>108.35034376</ele>
        <time>2017-09-03T09:07:48Z</time>
      </trkpt>
      <trkpt lat="50.41268" lon="2.7188">
        <ele>103.34929716</ele>
        <time>2017-09-03T09:07:53Z</time>
      </trkpt>
      <trkpt lat="50.41284" lon="2.71923">
        <ele>102.34865752</ele>
        <time>2017-09-03T09:07:58Z</time>
      </trkpt>
      <trkpt lat="50.41296" lon="2.71955">
        <ele>100.3481502</ele>
        <time>2017-09-03T09:08:03Z</time>
      </trkpt>
      <trkpt lat="50.41292" lon="2.71983">
        <ele>98.34833808</ele>
        <time>2017-09-03T09:08:07Z</time>
      </trkpt>
      <trkpt lat="50.41271" lon="2.72007">
        <ele>100.34915656</ele>
        <time>2017-09-03T09:08:11Z</time>
      </trkpt>
      <trkpt lat="50.41252" lon="2.72035">
        <ele>103.34990756</ele>
        <time>2017-09-03T09:08:15Z</time>
      </trkpt>
      <trkpt lat="50.41233" lon="2.72065">
        <ele>100.35066344</ele>
        <time>2017-09-03T09:08:19Z</time>
      </trkpt>
      <trkpt lat="50.41207" lon="2.721">
        <ele>100.35170668</ele>
        <time>2017-09-03T09:08:24Z</time>
      </trkpt>
      <trkpt lat="50.41192" lon="2.72126">
        <ele>101.35232372</ele>
        <time>2017-09-03T09:08:28Z</time>
      </trkpt>
      <trkpt lat="50.41177" lon="2.7214">
        <ele>101.35291464</ele>
        <time>2017-09-03T09:08:32Z</time>
      </trkpt>
      <trkpt lat="50.4116" lon="2.72154">
        <ele>99.353619</ele>
        <time>2017-09-03T09:08:37Z</time>
      </trkpt>
      <trkpt lat="50.4116" lon="2.72166">
        <ele>100.35359036</ele>
        <time>2017-09-03T09:08:42Z</time>
      </trkpt>
      <trkpt lat="50.41144" lon="2.72162">
        <ele>101.35424812</ele>
        <time>2017-09-03T09:08:46Z</time>
      </trkpt>
      <trkpt lat="50.41137" lon="2.72169">
        <ele>102.35452276</ele>
        <time>2017-09-03T09:08:50Z</time>
      </trkpt>
      <trkpt lat="50.41129" lon="2.7218">
        <ele>104.35485728</ele>
        <time>2017-09-03T09:08:54Z</time>
      </trkpt>
      <trkpt lat="50.41122" lon="2.72193">
        <ele>105.35511044</ele>
        <time>2017-09-03T09:08:58Z</time>
      </trkpt>
      <trkpt lat="50.41113" lon="2.72209">
        <ele>111.35549332</ele>
        <time>2017-09-03T09:09:03Z</time>
      </trkpt>
      <trkpt lat="50.41107" lon="2.72224">
        <ele>116.3557074</ele>
        <time>2017-09-03T09:09:07Z</time>
      </trkpt>
      <trkpt lat="50.411" lon="2.72237">
        <ele>119.3560182</ele>
        <time>2017-09-03T09:09:11Z</time>
      </trkpt>
      <trkpt lat="50.41089" lon="2.72252">
        <ele>115.35643796</ele>
        <time>2017-09-03T09:09:15Z</time>
      </trkpt>
      <trkpt lat="50.4108" lon="2.72271">
        <ele>119.35679052</ele>
        <time>2017-09-03T09:09:20Z</time>
      </trkpt>
      <trkpt lat="50.41068" lon="2.72295">
        <ele>118.35729004</ele>
        <time>2017-09-03T09:09:25Z</time>
      </trkpt>
      <trkpt lat="50.41057" lon="2.72314">
        <ele>119.35771568</ele>
        <time>2017-09-03T09:09:29Z</time>
      </trkpt>
      <trkpt lat="50.41037" lon="2.72323">
        <ele>115.35850824</ele>
        <time>2017-09-03T09:09:34Z</time>
      </trkpt>
      <trkpt lat="50.41023" lon="2.72328">
        <ele>116.35908028</ele>
        <time>2017-09-03T09:09:38Z</time>
      </trkpt>
      <trkpt lat="50.41008" lon="2.72336">
        <ele>115.35968056</ele>
        <time>2017-09-03T09:09:42Z</time>
      </trkpt>
      <trkpt lat="50.40993" lon="2.72356">
        <ele>116.36028656</ele>
        <time>2017-09-03T09:09:47Z</time>
      </trkpt>
      <trkpt lat="50.40983" lon="2.72371">
        <ele>115.36067512</ele>
        <time>2017-09-03T09:09:50Z</time>
      </trkpt>
      <trkpt lat="50.40971" lon="2.7239">
        <ele>116.3611572</ele>
        <time>2017-09-03T09:09:54Z</time>
      </trkpt>
      <trkpt lat="50.40956" lon="2.72413">
        <ele>120.36175816</ele>
        <time>2017-09-03T09:09:59Z</time>
      </trkpt>
      <trkpt lat="50.40928" lon="2.72432">
        <ele>115.36288308</ele>
        <time>2017-09-03T09:10:04Z</time>
      </trkpt>
      <trkpt lat="50.40906" lon="2.72444">
        <ele>113.36375384</ele>
        <time>2017-09-03T09:10:08Z</time>
      </trkpt>
      <trkpt lat="50.40881" lon="2.72433">
        <ele>114.36477008</ele>
        <time>2017-09-03T09:10:12Z</time>
      </trkpt>
      <trkpt lat="50.40861" lon="2.7242">
        <ele>111.36556108</ele>
        <time>2017-09-03T09:10:17Z</time>
      </trkpt>
      <trkpt lat="50.40841" lon="2.72407">
        <ele>110.3663684</ele>
        <time>2017-09-03T09:10:21Z</time>
      </trkpt>
      <trkpt lat="50.40816" lon="2.72394">
        <ele>111.36734836</ele>
        <time>2017-09-03T09:10:26Z</time>
      </trkpt>
      <trkpt lat="50.40801" lon="2.72387">
        <ele>114.3679668</ele>
        <time>2017-09-03T09:10:30Z</time>
      </trkpt>
      <trkpt lat="50.40782" lon="2.724">
        <ele>116.36873724</ele>
        <time>2017-09-03T09:10:35Z</time>
      </trkpt>
      <trkpt lat="50.40773" lon="2.7243">
        <ele>112.3690964</ele>
        <time>2017-09-03T09:10:39Z</time>
      </trkpt>
      <trkpt lat="50.40757" lon="2.72468">
        <ele>110.36971616</ele>
        <time>2017-09-03T09:10:44Z</time>
      </trkpt>
      <trkpt lat="50.40743" lon="2.72491">
        <ele>110.37028544</ele>
        <time>2017-09-03T09:10:48Z</time>
      </trkpt>
      <trkpt lat="50.40735" lon="2.725">
        <ele>110.37058372</ele>
        <time>2017-09-03T09:10:52Z</time>
      </trkpt>
      <trkpt lat="50.40721" lon="2.72528">
        <ele>109.37115128</ele>
        <time>2017-09-03T09:10:57Z</time>
      </trkpt>
      <trkpt lat="50.40714" lon="2.72544">
        <ele>113.3714294</ele>
        <time>2017-09-03T09:11:01Z</time>
      </trkpt>
      <trkpt lat="50.40699" lon="2.72574">
        <ele>112.37204744</ele>
        <time>2017-09-03T09:11:06Z</time>
      </trkpt>
      <trkpt lat="50.40686" lon="2.72602">
        <ele>113.37257436</ele>
        <time>2017-09-03T09:11:10Z</time>
      </trkpt>
      <trkpt lat="50.40688" lon="2.72631">
        <ele>109.37247924</ele>
        <time>2017-09-03T09:11:14Z</time>
      </trkpt>
      <trkpt lat="50.40683" lon="2.72656">
        <ele>107.37268304</ele>
        <time>2017-09-03T09:11:18Z</time>
      </trkpt>
      <trkpt lat="50.40669" lon="2.72643">
        <ele>110.37323192</ele>
        <time>2017-09-03T09:11:23Z</time>
      </trkpt>
      <trkpt lat="50.40663" lon="2.72623">
        <ele>111.37349708</ele>
        <time>2017-09-03T09:11:28Z</time>
      </trkpt>
      <trkpt lat="50.40656" lon="2.72608">
        <ele>110.37378128</ele>
        <time>2017-09-03T09:11:32Z</time>
      </trkpt>
      <trkpt lat="50.40644" lon="2.72589">
        <ele>109.37422448</ele>
        <time>2017-09-03T09:11:37Z</time>
      </trkpt>
      <trkpt lat="50.40637" lon="2.72573">
        <ele>110.37452512</ele>
        <time>2017-09-03T09:11:41Z</time>
      </trkpt>
      <trkpt lat="50.40627" lon="2.72556">
        <ele>110.37491888</ele>
        <time>2017-09-03T09:11:46Z</time>
      </trkpt>
      <trkpt lat="50.40619" lon="2.72543">
        <ele>111.3752316</ele>
        <time>2017-09-03T09:11:50Z</time>
      </trkpt>
      <trkpt lat="50.40612" lon="2.72531">
        <ele>111.37552068</ele>
        <time>2017-09-03T09:11:54Z</time>
      </trkpt>
      <trkpt lat="50.40604" lon="2.72518">
        <ele>112.37585128</ele>
        <time>2017-09-03T09:11:59Z</time>
      </trkpt>
      <trkpt lat="50.40596" lon="2.7251">
        <ele>115.376153</ele>
        <time>2017-09-03T09:12:05Z</time>
      </trkpt>
      <trkpt lat="50.40588" lon="2.72503">
        <ele>117.37649064</ele>
        <time>2017-09-03T09:12:10Z</time>
      </trkpt>
      <trkpt lat="50.40576" lon="2.72498">
        <ele>115.37697036</ele>
        <time>2017-09-03T09:12:14Z</time>
      </trkpt>
      <trkpt lat="50.40569" lon="2.72489">
        <ele>116.37724524</ele>
        <time>2017-09-03T09:12:20Z</time>
      </trkpt>
      <trkpt lat="50.40561" lon="2.72485">
        <ele>115.3775796</ele>
        <time>2017-09-03T09:12:25Z</time>
      </trkpt>
      <trkpt lat="50.40553" lon="2.7248">
        <ele>122.3778816</ele>
        <time>2017-09-03T09:12:32Z</time>
      </trkpt>
      <trkpt lat="50.40545" lon="2.72473">
        <ele>123.3781898</ele>
        <time>2017-09-03T09:12:37Z</time>
      </trkpt>
      <trkpt lat="50.40538" lon="2.72468">
        <ele>124.37849696</ele>
        <time>2017-09-03T09:12:42Z</time>
      </trkpt>
      <trkpt lat="50.40527" lon="2.72464">
        <ele>121.37893644</ele>
        <time>2017-09-03T09:12:47Z</time>
      </trkpt>
      <trkpt lat="50.4052" lon="2.72459">
        <ele>121.37919368</ele>
        <time>2017-09-03T09:12:52Z</time>
      </trkpt>
      <trkpt lat="50.40512" lon="2.72455">
        <ele>121.37953728</ele>
        <time>2017-09-03T09:12:57Z</time>
      </trkpt>
      <trkpt lat="50.40505" lon="2.72448">
        <ele>125.37979348</ele>
        <time>2017-09-03T09:13:05Z</time>
      </trkpt>
      <trkpt lat="50.40498" lon="2.72443">
        <ele>127.38007596</ele>
        <time>2017-09-03T09:13:10Z</time>
      </trkpt>
      <trkpt lat="50.40495" lon="2.72441">
        <ele>127.3801948</ele>
        <time>2017-09-03T09:13:12Z</time>
      </trkpt>
      <trkpt lat="50.40488" lon="2.72434">
        <ele>131.38048568</ele>
        <time>2017-09-03T09:13:20Z</time>
      </trkpt>
      <trkpt lat="50.40482" lon="2.72427">
        <ele>132.3807242</ele>
        <time>2017-09-03T09:13:26Z</time>
      </trkpt>
      <trkpt lat="50.40475" lon="2.72422">
        <ele>133.38101944</ele>
        <time>2017-09-03T09:13:31Z</time>
      </trkpt>
      <trkpt lat="50.40466" lon="2.72417">
        <ele>134.38135552</ele>
        <time>2017-09-03T09:13:36Z</time>
      </trkpt>
      <trkpt lat="50.40459" lon="2.72412">
        <ele>133.38164836</ele>
        <time>2017-09-03T09:13:42Z</time>
      </trkpt>
      <trkpt lat="50.4045" lon="2.72406">
        <ele>133.38200612</ele>
        <time>2017-09-03T09:13:47Z</time>
      </trkpt>
      <trkpt lat="50.40444" lon="2.72399">
        <ele>135.3822378</ele>
        <time>2017-09-03T09:13:52Z</time>
      </trkpt>
      <trkpt lat="50.40432" lon="2.72392">
        <ele>132.38270632</ele>
        <time>2017-09-03T09:13:57Z</time>
      </trkpt>
      <trkpt lat="50.40425" lon="2.72387">
        <ele>135.38301088</ele>
        <time>2017-09-03T09:14:04Z</time>
      </trkpt>
      <trkpt lat="50.40415" lon="2.72384">
        <ele>133.38341844</ele>
        <time>2017-09-03T09:14:09Z</time>
      </trkpt>
      <trkpt lat="50.40407" lon="2.7238">
        <ele>133.3837376</ele>
        <time>2017-09-03T09:14:17Z</time>
      </trkpt>
      <trkpt lat="50.40399" lon="2.72374">
        <ele>136.38405456</ele>
        <time>2017-09-03T09:14:24Z</time>
      </trkpt>
      <trkpt lat="50.40392" lon="2.72368">
        <ele>137.38434044</ele>
        <time>2017-09-03T09:14:29Z</time>
      </trkpt>
      <trkpt lat="50.40384" lon="2.72365">
        <ele>140.38463952</ele>
        <time>2017-09-03T09:14:34Z</time>
      </trkpt>
      <trkpt lat="50.40376" lon="2.72359">
        <ele>141.3849704</ele>
        <time>2017-09-03T09:14:39Z</time>
      </trkpt>
      <trkpt lat="50.4037" lon="2.72354">
        <ele>143.38519464</ele>
        <time>2017-09-03T09:14:44Z</time>
      </trkpt>
      <trkpt lat="50.40362" lon="2.72348">
        <ele>144.38551792</ele>
        <time>2017-09-03T09:14:49Z</time>
      </trkpt>
      <trkpt lat="50.40356" lon="2.72343">
        <ele>145.38577884</ele>
        <time>2017-09-03T09:14:53Z</time>
      </trkpt>
      <trkpt lat="50.40351" lon="2.72332">
        <ele>147.38597824</ele>
        <time>2017-09-03T09:14:59Z</time>
      </trkpt>
      <trkpt lat="50.40344" lon="2.72327">
        <ele>149.38624984</ele>
        <time>2017-09-03T09:15:03Z</time>
      </trkpt>
      <trkpt lat="50.40332" lon="2.72315">
        <ele>147.38673408</ele>
        <time>2017-09-03T09:15:08Z</time>
      </trkpt>
      <trkpt lat="50.40323" lon="2.72307">
        <ele>147.38708772</ele>
        <time>2017-09-03T09:15:12Z</time>
      </trkpt>
      <trkpt lat="50.40316" lon="2.72298">
        <ele>145.38736968</ele>
        <time>2017-09-03T09:15:17Z</time>
      </trkpt>
      <trkpt lat="50.40306" lon="2.72288">
        <ele>148.38775408</ele>
        <time>2017-09-03T09:15:21Z</time>
      </trkpt>
      <trkpt lat="50.40298" lon="2.7228">
        <ele>152.3880756</ele>
        <time>2017-09-03T09:15:25Z</time>
      </trkpt>
      <trkpt lat="50.40289" lon="2.7227">
        <ele>155.3884606</ele>
        <time>2017-09-03T09:15:30Z</time>
      </trkpt>
      <trkpt lat="50.40278" lon="2.7227">
        <ele>154.38890072</ele>
        <time>2017-09-03T09:15:34Z</time>
      </trkpt>
      <trkpt lat="50.40273" lon="2.72282">
        <ele>158.38907476</ele>
        <time>2017-09-03T09:15:38Z</time>
      </trkpt>
      <trkpt lat="50.40268" lon="2.72302">
        <ele>158.389274</ele>
        <time>2017-09-03T09:15:42Z</time>
      </trkpt>
      <trkpt lat="50.40262" lon="2.72323">
        <ele>159.38952204</ele>
        <time>2017-09-03T09:15:47Z</time>
      </trkpt>
      <trkpt lat="50.40249" lon="2.72336">
        <ele>156.39003028</ele>
        <time>2017-09-03T09:15:51Z</time>
      </trkpt>
      <trkpt lat="50.40235" lon="2.72339">
        <ele>160.39062132</ele>
        <time>2017-09-03T09:15:55Z</time>
      </trkpt>
      <trkpt lat="50.40213" lon="2.72342">
        <ele>160.39149708</ele>
        <time>2017-09-03T09:16:00Z</time>
      </trkpt>
      <trkpt lat="50.402" lon="2.72347">
        <ele>160.39199076</ele>
        <time>2017-09-03T09:16:04Z</time>
      </trkpt>
      <trkpt lat="50.40187" lon="2.72352">
        <ele>158.39253296</ele>
        <time>2017-09-03T09:16:09Z</time>
      </trkpt>
      <trkpt lat="50.40175" lon="2.72358">
        <ele>159.39300272</ele>
        <time>2017-09-03T09:16:13Z</time>
      </trkpt>
      <trkpt lat="50.40162" lon="2.72356">
        <ele>160.39352116</ele>
        <time>2017-09-03T09:16:17Z</time>
      </trkpt>
      <trkpt lat="50.40145" lon="2.72363">
        <ele>161.39421952</ele>
        <time>2017-09-03T09:16:21Z</time>
      </trkpt>
      <trkpt lat="50.40138" lon="2.72375">
        <ele>165.39446312</ele>
        <time>2017-09-03T09:16:25Z</time>
      </trkpt>
      <trkpt lat="50.40119" lon="2.72392">
        <ele>167.3952404</ele>
        <time>2017-09-03T09:16:30Z</time>
      </trkpt>
      <trkpt lat="50.40111" lon="2.72416">
        <ele>168.39555572</ele>
        <time>2017-09-03T09:16:34Z</time>
      </trkpt>
      <trkpt lat="50.401" lon="2.72447">
        <ele>166.39598488</ele>
        <time>2017-09-03T09:16:39Z</time>
      </trkpt>
      <trkpt lat="50.40088" lon="2.72473">
        <ele>169.39647372</ele>
        <time>2017-09-03T09:16:43Z</time>
      </trkpt>
      <trkpt lat="50.40066" lon="2.72501">
        <ele>164.3973746</ele>
        <time>2017-09-03T09:16:48Z</time>
      </trkpt>
      <trkpt lat="50.40047" lon="2.72508">
        <ele>164.39811824</ele>
        <time>2017-09-03T09:16:52Z</time>
      </trkpt>
      <trkpt lat="50.40032" lon="2.72498">
        <ele>164.39871536</ele>
        <time>2017-09-03T09:16:56Z</time>
      </trkpt>
      <trkpt lat="50.40018" lon="2.72481">
        <ele>160.39929048</ele>
        <time>2017-09-03T09:17:00Z</time>
      </trkpt>
      <trkpt lat="50.40006" lon="2.72458">
        <ele>163.39977232</ele>
        <time>2017-09-03T09:17:05Z</time>
      </trkpt>
      <trkpt lat="50.39993" lon="2.72435">
        <ele>164.4002634</ele>
        <time>2017-09-03T09:17:10Z</time>
      </trkpt>
      <trkpt lat="50.39985" lon="2.72422">
        <ele>165.40059376</ele>
        <time>2017-09-03T09:17:14Z</time>
      </trkpt>
      <trkpt lat="50.39971" lon="2.72399">
        <ele>165.40116408</ele>
        <time>2017-09-03T09:17:18Z</time>
      </trkpt>
      <trkpt lat="50.39958" lon="2.72375">
        <ele>165.40166968</ele>
        <time>2017-09-03T09:17:23Z</time>
      </trkpt>
      <trkpt lat="50.39947" lon="2.72353">
        <ele>164.40211812</ele>
        <time>2017-09-03T09:17:28Z</time>
      </trkpt>
      <trkpt lat="50.39935" lon="2.72334">
        <ele>163.40258968</ele>
        <time>2017-09-03T09:17:32Z</time>
      </trkpt>
      <trkpt lat="50.39926" lon="2.72318">
        <ele>162.4029528</ele>
        <time>2017-09-03T09:17:37Z</time>
      </trkpt>
      <trkpt lat="50.39922" lon="2.72326">
        <ele>163.40314196</ele>
        <time>2017-09-03T09:18:28Z</time>
      </trkpt>
      <trkpt lat="50.39922" lon="2.72326">
        <ele>163.40314196</ele>
        <time>2017-09-03T09:18:29Z</time>
      </trkpt>
      <trkpt lat="50.39926" lon="2.72313">
        <ele>149.40296204</ele>
        <time>2017-09-03T09:20:09Z</time>
      </trkpt>
      <trkpt lat="50.39923" lon="2.72326">
        <ele>163.40307192</ele>
        <time>2017-09-03T09:20:47Z</time>
      </trkpt>
      <trkpt lat="50.39919" lon="2.72333">
        <ele>166.40324208</ele>
        <time>2017-09-03T09:21:32Z</time>
      </trkpt>
      <trkpt lat="50.39912" lon="2.7235">
        <ele>166.40353668</ele>
        <time>2017-09-03T09:21:36Z</time>
      </trkpt>
      <trkpt lat="50.399" lon="2.72375">
        <ele>165.40398596</ele>
        <time>2017-09-03T09:21:41Z</time>
      </trkpt>
      <trkpt lat="50.39891" lon="2.72397">
        <ele>164.40437668</ele>
        <time>2017-09-03T09:21:45Z</time>
      </trkpt>
      <trkpt lat="50.3988" lon="2.72426">
        <ele>165.4048072</ele>
        <time>2017-09-03T09:21:50Z</time>
      </trkpt>
      <trkpt lat="50.39877" lon="2.72453">
        <ele>164.40493272</ele>
        <time>2017-09-03T09:21:54Z</time>
      </trkpt>
      <trkpt lat="50.39881" lon="2.72494">
        <ele>163.404768</ele>
        <time>2017-09-03T09:21:59Z</time>
      </trkpt>
      <trkpt lat="50.39891" lon="2.72524">
        <ele>160.40435128</ele>
        <time>2017-09-03T09:22:03Z</time>
      </trkpt>
      <trkpt lat="50.39904" lon="2.72555">
        <ele>161.40383044</ele>
        <time>2017-09-03T09:22:08Z</time>
      </trkpt>
      <trkpt lat="50.39915" lon="2.72583">
        <ele>160.40340404</ele>
        <time>2017-09-03T09:22:12Z</time>
      </trkpt>
      <trkpt lat="50.3993" lon="2.72621">
        <ele>159.40279428</ele>
        <time>2017-09-03T09:22:17Z</time>
      </trkpt>
      <trkpt lat="50.39943" lon="2.72654">
        <ele>157.40229408</ele>
        <time>2017-09-03T09:22:21Z</time>
      </trkpt>
      <trkpt lat="50.39956" lon="2.72689">
        <ele>156.40174932</ele>
        <time>2017-09-03T09:22:25Z</time>
      </trkpt>
      <trkpt lat="50.39975" lon="2.72735">
        <ele>155.40100544</ele>
        <time>2017-09-03T09:22:30Z</time>
      </trkpt>
      <trkpt lat="50.39992" lon="2.72775">
        <ele>154.4003052</ele>
        <time>2017-09-03T09:22:34Z</time>
      </trkpt>
      <trkpt lat="50.40006" lon="2.72811">
        <ele>152.39975448</ele>
        <time>2017-09-03T09:22:39Z</time>
      </trkpt>
      <trkpt lat="50.40018" lon="2.72849">
        <ele>150.39928672</ele>
        <time>2017-09-03T09:22:43Z</time>
      </trkpt>
      <trkpt lat="50.40027" lon="2.72883">
        <ele>148.3989316</ele>
        <time>2017-09-03T09:22:47Z</time>
      </trkpt>
      <trkpt lat="50.40036" lon="2.72935">
        <ele>146.398574</ele>
        <time>2017-09-03T09:22:52Z</time>
      </trkpt>
      <trkpt lat="50.40039" lon="2.72984">
        <ele>144.39842384</ele>
        <time>2017-09-03T09:22:56Z</time>
      </trkpt>
      <trkpt lat="50.40047" lon="2.73051">
        <ele>140.39813436</ele>
        <time>2017-09-03T09:23:01Z</time>
      </trkpt>
      <trkpt lat="50.40054" lon="2.73091">
        <ele>139.39782276</ele>
        <time>2017-09-03T09:23:05Z</time>
      </trkpt>
      <trkpt lat="50.4006" lon="2.73128">
        <ele>137.39761184</ele>
        <time>2017-09-03T09:23:10Z</time>
      </trkpt>
      <trkpt lat="50.4006" lon="2.73168">
        <ele>136.39758548</ele>
        <time>2017-09-03T09:23:14Z</time>
      </trkpt>
      <trkpt lat="50.40059" lon="2.73217">
        <ele>134.39763104</ele>
        <time>2017-09-03T09:23:18Z</time>
      </trkpt>
      <trkpt lat="50.40058" lon="2.73274">
        <ele>132.39767672</ele>
        <time>2017-09-03T09:23:22Z</time>
      </trkpt>
      <trkpt lat="50.40057" lon="2.73346">
        <ele>128.39772512</ele>
        <time>2017-09-03T09:23:27Z</time>
      </trkpt>
      <trkpt lat="50.40048" lon="2.73396">
        <ele>126.398065</ele>
        <time>2017-09-03T09:23:31Z</time>
      </trkpt>
      <trkpt lat="50.40036" lon="2.73444">
        <ele>124.398566</ele>
        <time>2017-09-03T09:23:36Z</time>
      </trkpt>
      <trkpt lat="50.40023" lon="2.73485">
        <ele>124.39907668</ele>
        <time>2017-09-03T09:23:40Z</time>
      </trkpt>
      <trkpt lat="50.40013" lon="2.73487">
        <ele>125.39947708</ele>
        <time>2017-09-03T09:23:45Z</time>
      </trkpt>
      <trkpt lat="50.40002" lon="2.73468">
        <ele>126.39993732</ele>
        <time>2017-09-03T09:23:49Z</time>
      </trkpt>
      <trkpt lat="50.39992" lon="2.73448">
        <ele>126.40031492</ele>
        <time>2017-09-03T09:23:53Z</time>
      </trkpt>
      <trkpt lat="50.39991" lon="2.73416">
        <ele>125.400371</ele>
        <time>2017-09-03T09:23:58Z</time>
      </trkpt>
      <trkpt lat="50.39991" lon="2.73389">
        <ele>124.400379</ele>
        <time>2017-09-03T09:24:02Z</time>
      </trkpt>
      <trkpt lat="50.39988" lon="2.73354">
        <ele>124.4004764</ele>
        <time>2017-09-03T09:24:07Z</time>
      </trkpt>
      <trkpt lat="50.39988" lon="2.73328">
        <ele>124.40049272</ele>
        <time>2017-09-03T09:24:11Z</time>
      </trkpt>
      <trkpt lat="50.39987" lon="2.73302">
        <ele>123.40053712</ele>
        <time>2017-09-03T09:24:15Z</time>
      </trkpt>
      <trkpt lat="50.39984" lon="2.73267">
        <ele>123.4006254</ele>
        <time>2017-09-03T09:24:20Z</time>
      </trkpt>
      <trkpt lat="50.39982" lon="2.7324">
        <ele>123.40072808</ele>
        <time>2017-09-03T09:24:25Z</time>
      </trkpt>
      <trkpt lat="50.3998" lon="2.73207">
        <ele>123.40081768</ele>
        <time>2017-09-03T09:24:29Z</time>
      </trkpt>
      <trkpt lat="50.39977" lon="2.73178">
        <ele>123.4009026</ele>
        <time>2017-09-03T09:24:34Z</time>
      </trkpt>
      <trkpt lat="50.39973" lon="2.73156">
        <ele>125.40108012</ele>
        <time>2017-09-03T09:24:39Z</time>
      </trkpt>
      <trkpt lat="50.39967" lon="2.73138">
        <ele>127.40131932</ele>
        <time>2017-09-03T09:24:43Z</time>
      </trkpt>
      <trkpt lat="50.39964" lon="2.73122">
        <ele>128.40145624</ele>
        <time>2017-09-03T09:24:47Z</time>
      </trkpt>
      <trkpt lat="50.39959" lon="2.73102">
        <ele>128.40165356</ele>
        <time>2017-09-03T09:24:52Z</time>
      </trkpt>
      <trkpt lat="50.39955" lon="2.7309">
        <ele>130.40181168</ele>
        <time>2017-09-03T09:24:55Z</time>
      </trkpt>
      <trkpt lat="50.39948" lon="2.73072">
        <ele>131.40207856</ele>
        <time>2017-09-03T09:25:00Z</time>
      </trkpt>
      <trkpt lat="50.39943" lon="2.73058">
        <ele>131.40227148</ele>
        <time>2017-09-03T09:25:04Z</time>
      </trkpt>
      <trkpt lat="50.39938" lon="2.73044">
        <ele>132.40246584</ele>
        <time>2017-09-03T09:25:08Z</time>
      </trkpt>
      <trkpt lat="50.39934" lon="2.73029">
        <ele>132.40265912</ele>
        <time>2017-09-03T09:25:12Z</time>
      </trkpt>
      <trkpt lat="50.39928" lon="2.73014">
        <ele>133.40288888</ele>
        <time>2017-09-03T09:25:16Z</time>
      </trkpt>
      <trkpt lat="50.39922" lon="2.72996">
        <ele>134.40313276</ele>
        <time>2017-09-03T09:25:21Z</time>
      </trkpt>
      <trkpt lat="50.39917" lon="2.72981">
        <ele>134.40333976</ele>
        <time>2017-09-03T09:25:25Z</time>
      </trkpt>
      <trkpt lat="50.3991" lon="2.72967">
        <ele>134.40361748</ele>
        <time>2017-09-03T09:25:29Z</time>
      </trkpt>
      <trkpt lat="50.39899" lon="2.7295">
        <ele>135.40403012</ele>
        <time>2017-09-03T09:25:34Z</time>
      </trkpt>
      <trkpt lat="50.39891" lon="2.72937">
        <ele>135.40438024</ele>
        <time>2017-09-03T09:25:38Z</time>
      </trkpt>
      <trkpt lat="50.3988" lon="2.72919">
        <ele>135.4047956</ele>
        <time>2017-09-03T09:25:43Z</time>
      </trkpt>
      <trkpt lat="50.39873" lon="2.72905">
        <ele>135.40509248</ele>
        <time>2017-09-03T09:25:47Z</time>
      </trkpt>
      <trkpt lat="50.39865" lon="2.72889">
        <ele>135.40542032</ele>
        <time>2017-09-03T09:25:51Z</time>
      </trkpt>
      <trkpt lat="50.39856" lon="2.72873">
        <ele>135.4057798</ele>
        <time>2017-09-03T09:25:55Z</time>
      </trkpt>
      <trkpt lat="50.39847" lon="2.72856">
        <ele>135.40613952</ele>
        <time>2017-09-03T09:25:59Z</time>
      </trkpt>
      <trkpt lat="50.39835" lon="2.72836">
        <ele>135.40660668</ele>
        <time>2017-09-03T09:26:04Z</time>
      </trkpt>
      <trkpt lat="50.39825" lon="2.72821">
        <ele>135.4070008</ele>
        <time>2017-09-03T09:26:08Z</time>
      </trkpt>
      <trkpt lat="50.39814" lon="2.72817">
        <ele>134.40743988</ele>
        <time>2017-09-03T09:26:11Z</time>
      </trkpt>
      <trkpt lat="50.39807" lon="2.72821">
        <ele>134.40774156</ele>
        <time>2017-09-03T09:26:13Z</time>
      </trkpt>
      <trkpt lat="50.39804" lon="2.72825">
        <ele>133.40785404</ele>
        <time>2017-09-03T09:26:17Z</time>
      </trkpt>
      <trkpt lat="50.39786" lon="2.72856">
        <ele>129.40857836</ele>
        <time>2017-09-03T09:26:21Z</time>
      </trkpt>
      <trkpt lat="50.39776" lon="2.72873">
        <ele>126.40896908</ele>
        <time>2017-09-03T09:26:25Z</time>
      </trkpt>
      <trkpt lat="50.39761" lon="2.72864">
        <ele>123.40955212</ele>
        <time>2017-09-03T09:26:30Z</time>
      </trkpt>
      <trkpt lat="50.39744" lon="2.72848">
        <ele>123.41024804</ele>
        <time>2017-09-03T09:26:34Z</time>
      </trkpt>
      <trkpt lat="50.39728" lon="2.7283">
        <ele>122.41086848</ele>
        <time>2017-09-03T09:26:38Z</time>
      </trkpt>
      <trkpt lat="50.39705" lon="2.72805">
        <ele>121.411791</ele>
        <time>2017-09-03T09:26:43Z</time>
      </trkpt>
      <trkpt lat="50.39687" lon="2.7281">
        <ele>121.41251896</ele>
        <time>2017-09-03T09:26:47Z</time>
      </trkpt>
      <trkpt lat="50.39659" lon="2.72846">
        <ele>119.41362528</ele>
        <time>2017-09-03T09:26:52Z</time>
      </trkpt>
      <trkpt lat="50.39638" lon="2.72871">
        <ele>117.41448456</ele>
        <time>2017-09-03T09:26:57Z</time>
      </trkpt>
      <trkpt lat="50.39616" lon="2.72899">
        <ele>116.41537188</ele>
        <time>2017-09-03T09:27:01Z</time>
      </trkpt>
      <trkpt lat="50.396" lon="2.7292">
        <ele>118.41599004</ele>
        <time>2017-09-03T09:27:05Z</time>
      </trkpt>
      <trkpt lat="50.39587" lon="2.7294">
        <ele>117.41652268</ele>
        <time>2017-09-03T09:27:09Z</time>
      </trkpt>
      <trkpt lat="50.39571" lon="2.72959">
        <ele>119.41718188</ele>
        <time>2017-09-03T09:27:14Z</time>
      </trkpt>
      <trkpt lat="50.39558" lon="2.72977">
        <ele>119.41769124</ele>
        <time>2017-09-03T09:27:18Z</time>
      </trkpt>
      <trkpt lat="50.39554" lon="2.73001">
        <ele>117.41785664</ele>
        <time>2017-09-03T09:27:22Z</time>
      </trkpt>
      <trkpt lat="50.3956" lon="2.73027">
        <ele>117.41759768</ele>
        <time>2017-09-03T09:27:26Z</time>
      </trkpt>
      <trkpt lat="50.3957" lon="2.7305">
        <ele>116.4171944</ele>
        <time>2017-09-03T09:27:30Z</time>
      </trkpt>
      <trkpt lat="50.39581" lon="2.73078">
        <ele>113.41677828</ele>
        <time>2017-09-03T09:27:34Z</time>
      </trkpt>
      <trkpt lat="50.39597" lon="2.73119">
        <ele>110.41610476</ele>
        <time>2017-09-03T09:27:39Z</time>
      </trkpt>
      <trkpt lat="50.39612" lon="2.73151">
        <ele>108.41552632</ele>
        <time>2017-09-03T09:27:43Z</time>
      </trkpt>
      <trkpt lat="50.39611" lon="2.73192">
        <ele>107.41554508</ele>
        <time>2017-09-03T09:27:48Z</time>
      </trkpt>
      <trkpt lat="50.39598" lon="2.73215">
        <ele>106.41607844</ele>
        <time>2017-09-03T09:27:52Z</time>
      </trkpt>
      <trkpt lat="50.39582" lon="2.73239">
        <ele>105.41671916</ele>
        <time>2017-09-03T09:27:57Z</time>
      </trkpt>
      <trkpt lat="50.39559" lon="2.73273">
        <ele>104.4176602</ele>
        <time>2017-09-03T09:28:01Z</time>
      </trkpt>
      <trkpt lat="50.3954" lon="2.733">
        <ele>103.41838448</ele>
        <time>2017-09-03T09:28:05Z</time>
      </trkpt>
      <trkpt lat="50.39524" lon="2.73315">
        <ele>103.41903092</ele>
        <time>2017-09-03T09:28:09Z</time>
      </trkpt>
      <trkpt lat="50.3951" lon="2.73304">
        <ele>105.41961548</ele>
        <time>2017-09-03T09:28:13Z</time>
      </trkpt>
      <trkpt lat="50.39498" lon="2.73281">
        <ele>104.42010064</ele>
        <time>2017-09-03T09:28:17Z</time>
      </trkpt>
      <trkpt lat="50.39478" lon="2.73247">
        <ele>103.42088244</ele>
        <time>2017-09-03T09:28:22Z</time>
      </trkpt>
      <trkpt lat="50.39456" lon="2.73217">
        <ele>100.4217674</ele>
        <time>2017-09-03T09:28:26Z</time>
      </trkpt>
      <trkpt lat="50.39437" lon="2.7318">
        <ele>101.42250988</ele>
        <time>2017-09-03T09:28:30Z</time>
      </trkpt>
      <trkpt lat="50.39419" lon="2.73147">
        <ele>98.42324912</ele>
        <time>2017-09-03T09:28:35Z</time>
      </trkpt>
      <trkpt lat="50.39403" lon="2.73117">
        <ele>94.42389696</ele>
        <time>2017-09-03T09:28:39Z</time>
      </trkpt>
      <trkpt lat="50.39398" lon="2.73078">
        <ele>94.4240956</ele>
        <time>2017-09-03T09:28:44Z</time>
      </trkpt>
      <trkpt lat="50.39393" lon="2.73027">
        <ele>94.42426448</ele>
        <time>2017-09-03T09:28:48Z</time>
      </trkpt>
      <trkpt lat="50.39387" lon="2.72975">
        <ele>93.42451752</ele>
        <time>2017-09-03T09:28:53Z</time>
      </trkpt>
      <trkpt lat="50.39375" lon="2.72935">
        <ele>90.42500652</ele>
        <time>2017-09-03T09:28:57Z</time>
      </trkpt>
      <trkpt lat="50.39364" lon="2.729">
        <ele>90.42542264</ele>
        <time>2017-09-03T09:29:01Z</time>
      </trkpt>
      <trkpt lat="50.3935" lon="2.72865">
        <ele>88.42599168</ele>
        <time>2017-09-03T09:29:05Z</time>
      </trkpt>
      <trkpt lat="50.39341" lon="2.72838">
        <ele>88.42637148</ele>
        <time>2017-09-03T09:29:09Z</time>
      </trkpt>
      <trkpt lat="50.3933" lon="2.72788">
        <ele>85.42679256</ele>
        <time>2017-09-03T09:29:13Z</time>
      </trkpt>
      <trkpt lat="50.39324" lon="2.72749">
        <ele>85.42703724</ele>
        <time>2017-09-03T09:29:17Z</time>
      </trkpt>
      <trkpt lat="50.39322" lon="2.72701">
        <ele>83.42712512</ele>
        <time>2017-09-03T09:29:22Z</time>
      </trkpt>
      <trkpt lat="50.39326" lon="2.72662">
        <ele>83.42694244</ele>
        <time>2017-09-03T09:29:26Z</time>
      </trkpt>
      <trkpt lat="50.39331" lon="2.72623">
        <ele>82.42675376</ele>
        <time>2017-09-03T09:29:30Z</time>
      </trkpt>
      <trkpt lat="50.39337" lon="2.7258">
        <ele>80.42653356</ele>
        <time>2017-09-03T09:29:35Z</time>
      </trkpt>
      <trkpt lat="50.39341" lon="2.72547">
        <ele>80.42636892</ele>
        <time>2017-09-03T09:29:39Z</time>
      </trkpt>
      <trkpt lat="50.39346" lon="2.72517">
        <ele>81.42616712</ele>
        <time>2017-09-03T09:29:43Z</time>
      </trkpt>
      <trkpt lat="50.39353" lon="2.72484">
        <ele>82.42586572</ele>
        <time>2017-09-03T09:29:48Z</time>
      </trkpt>
      <trkpt lat="50.39359" lon="2.72449">
        <ele>82.42565716</ele>
        <time>2017-09-03T09:29:53Z</time>
      </trkpt>
      <trkpt lat="50.39363" lon="2.72421">
        <ele>84.42546404</ele>
        <time>2017-09-03T09:29:57Z</time>
      </trkpt>
      <trkpt lat="50.39368" lon="2.724">
        <ele>83.42528564</ele>
        <time>2017-09-03T09:30:01Z</time>
      </trkpt>
      <trkpt lat="50.39375" lon="2.72364">
        <ele>83.42499024</ele>
        <time>2017-09-03T09:30:05Z</time>
      </trkpt>
      <trkpt lat="50.39381" lon="2.72327">
        <ele>83.4247642</ele>
        <time>2017-09-03T09:30:10Z</time>
      </trkpt>
      <trkpt lat="50.39386" lon="2.72295">
        <ele>83.42457288</ele>
        <time>2017-09-03T09:30:14Z</time>
      </trkpt>
      <trkpt lat="50.39388" lon="2.72262">
        <ele>83.42447104</ele>
        <time>2017-09-03T09:30:18Z</time>
      </trkpt>
      <trkpt lat="50.39391" lon="2.72229">
        <ele>85.4243438</ele>
        <time>2017-09-03T09:30:23Z</time>
      </trkpt>
      <trkpt lat="50.39407" lon="2.72227">
        <ele>86.42371156</ele>
        <time>2017-09-03T09:30:28Z</time>
      </trkpt>
      <trkpt lat="50.39422" lon="2.7223">
        <ele>88.42312924</ele>
        <time>2017-09-03T09:30:33Z</time>
      </trkpt>
      <trkpt lat="50.39433" lon="2.72232">
        <ele>90.42268016</ele>
        <time>2017-09-03T09:30:37Z</time>
      </trkpt>
      <trkpt lat="50.39444" lon="2.72235">
        <ele>92.42225276</ele>
        <time>2017-09-03T09:30:42Z</time>
      </trkpt>
      <trkpt lat="50.39456" lon="2.72235">
        <ele>93.42174884</ele>
        <time>2017-09-03T09:30:46Z</time>
      </trkpt>
      <trkpt lat="50.39465" lon="2.72237">
        <ele>94.42138264</ele>
        <time>2017-09-03T09:30:50Z</time>
      </trkpt>
      <trkpt lat="50.39475" lon="2.7224">
        <ele>95.420984</ele>
        <time>2017-09-03T09:30:55Z</time>
      </trkpt>
      <trkpt lat="50.39482" lon="2.72243">
        <ele>96.4207174</ele>
        <time>2017-09-03T09:30:59Z</time>
      </trkpt>
      <trkpt lat="50.39493" lon="2.72243">
        <ele>96.4202954</ele>
        <time>2017-09-03T09:31:04Z</time>
      </trkpt>
      <trkpt lat="50.39501" lon="2.72241">
        <ele>97.41995556</ele>
        <time>2017-09-03T09:31:09Z</time>
      </trkpt>
      <trkpt lat="50.39509" lon="2.72245">
        <ele>98.41962624</ele>
        <time>2017-09-03T09:31:14Z</time>
      </trkpt>
      <trkpt lat="50.39517" lon="2.72246">
        <ele>100.41932292</ele>
        <time>2017-09-03T09:31:19Z</time>
      </trkpt>
      <trkpt lat="50.39524" lon="2.72245">
        <ele>100.41903516</ele>
        <time>2017-09-03T09:31:24Z</time>
      </trkpt>
      <trkpt lat="50.39532" lon="2.72247">
        <ele>103.41871364</ele>
        <time>2017-09-03T09:31:29Z</time>
      </trkpt>
      <trkpt lat="50.39541" lon="2.72243">
        <ele>104.41837164</ele>
        <time>2017-09-03T09:31:34Z</time>
      </trkpt>
      <trkpt lat="50.39547" lon="2.72233">
        <ele>106.41811984</ele>
        <time>2017-09-03T09:31:38Z</time>
      </trkpt>
      <trkpt lat="50.39557" lon="2.72224">
        <ele>106.4177102</ele>
        <time>2017-09-03T09:31:42Z</time>
      </trkpt>
      <trkpt lat="50.39567" lon="2.72211">
        <ele>108.41733776</ele>
        <time>2017-09-03T09:31:46Z</time>
      </trkpt>
      <trkpt lat="50.39581" lon="2.722">
        <ele>106.41677532</ele>
        <time>2017-09-03T09:31:51Z</time>
      </trkpt>
      <trkpt lat="50.39592" lon="2.72187">
        <ele>106.416315</ele>
        <time>2017-09-03T09:31:55Z</time>
      </trkpt>
      <trkpt lat="50.39604" lon="2.72171">
        <ele>109.41584612</ele>
        <time>2017-09-03T09:31:59Z</time>
      </trkpt>
      <trkpt lat="50.39623" lon="2.72161">
        <ele>104.41509812</ele>
        <time>2017-09-03T09:32:03Z</time>
      </trkpt>
      <trkpt lat="50.39634" lon="2.72148">
        <ele>105.41464936</ele>
        <time>2017-09-03T09:32:07Z</time>
      </trkpt>
      <trkpt lat="50.39647" lon="2.72137">
        <ele>107.41410484</ele>
        <time>2017-09-03T09:32:12Z</time>
      </trkpt>
      <trkpt lat="50.39655" lon="2.72123">
        <ele>107.4138024</ele>
        <time>2017-09-03T09:32:16Z</time>
      </trkpt>
      <trkpt lat="50.39664" lon="2.72109">
        <ele>108.41346196</ele>
        <time>2017-09-03T09:32:20Z</time>
      </trkpt>
      <trkpt lat="50.39674" lon="2.72086">
        <ele>107.413039</ele>
        <time>2017-09-03T09:32:25Z</time>
      </trkpt>
      <trkpt lat="50.39677" lon="2.72061">
        <ele>108.41290324</ele>
        <time>2017-09-03T09:32:29Z</time>
      </trkpt>
      <trkpt lat="50.39678" lon="2.72036">
        <ele>106.41288432</ele>
        <time>2017-09-03T09:32:34Z</time>
      </trkpt>
      <trkpt lat="50.39679" lon="2.72007">
        <ele>107.41283608</ele>
        <time>2017-09-03T09:32:38Z</time>
      </trkpt>
      <trkpt lat="50.39679" lon="2.71987">
        <ele>107.4128374</ele>
        <time>2017-09-03T09:32:43Z</time>
      </trkpt>
      <trkpt lat="50.39674" lon="2.71964">
        <ele>109.41303764</ele>
        <time>2017-09-03T09:32:47Z</time>
      </trkpt>
      <trkpt lat="50.3967" lon="2.71947">
        <ele>109.41320756</ele>
        <time>2017-09-03T09:32:51Z</time>
      </trkpt>
      <trkpt lat="50.39662" lon="2.71931">
        <ele>110.41350388</ele>
        <time>2017-09-03T09:32:56Z</time>
      </trkpt>
      <trkpt lat="50.39656" lon="2.71917">
        <ele>111.41375856</ele>
        <time>2017-09-03T09:33:00Z</time>
      </trkpt>
      <trkpt lat="50.3965" lon="2.71902">
        <ele>112.41400792</ele>
        <time>2017-09-03T09:33:05Z</time>
      </trkpt>
      <trkpt lat="50.3964" lon="2.71885">
        <ele>113.4143866</ele>
        <time>2017-09-03T09:33:09Z</time>
      </trkpt>
      <trkpt lat="50.39635" lon="2.71865">
        <ele>114.41462004</ele>
        <time>2017-09-03T09:33:14Z</time>
      </trkpt>
      <trkpt lat="50.3963" lon="2.7185">
        <ele>113.41479764</ele>
        <time>2017-09-03T09:33:18Z</time>
      </trkpt>
      <trkpt lat="50.39629" lon="2.71835">
        <ele>114.41483852</ele>
        <time>2017-09-03T09:33:22Z</time>
      </trkpt>
      <trkpt lat="50.39629" lon="2.71821">
        <ele>115.41485848</ele>
        <time>2017-09-03T09:33:26Z</time>
      </trkpt>
      <trkpt lat="50.39632" lon="2.71806">
        <ele>116.4147278</ele>
        <time>2017-09-03T09:33:31Z</time>
      </trkpt>
      <trkpt lat="50.39634" lon="2.71792">
        <ele>118.41464544</ele>
        <time>2017-09-03T09:33:36Z</time>
      </trkpt>
      <trkpt lat="50.39636" lon="2.71778">
        <ele>120.41456268</ele>
        <time>2017-09-03T09:33:41Z</time>
      </trkpt>
      <trkpt lat="50.39638" lon="2.71765">
        <ele>122.4144986</ele>
        <time>2017-09-03T09:33:46Z</time>
      </trkpt>
      <trkpt lat="50.39639" lon="2.71751">
        <ele>123.4144542</ele>
        <time>2017-09-03T09:33:51Z</time>
      </trkpt>
      <trkpt lat="50.39641" lon="2.71738">
        <ele>124.414362</ele>
        <time>2017-09-03T09:33:56Z</time>
      </trkpt>
      <trkpt lat="50.39643" lon="2.71726">
        <ele>125.41429992</ele>
        <time>2017-09-03T09:34:02Z</time>
      </trkpt>
      <trkpt lat="50.39646" lon="2.71714">
        <ele>126.41416844</ele>
        <time>2017-09-03T09:34:06Z</time>
      </trkpt>
      <trkpt lat="50.39655" lon="2.71716">
        <ele>126.4138188</ele>
        <time>2017-09-03T09:34:11Z</time>
      </trkpt>
      <trkpt lat="50.39665" lon="2.71717">
        <ele>126.4134052</ele>
        <time>2017-09-03T09:34:16Z</time>
      </trkpt>
      <trkpt lat="50.39671" lon="2.71718">
        <ele>126.41318064</ele>
        <time>2017-09-03T09:34:20Z</time>
      </trkpt>
      <trkpt lat="50.39681" lon="2.7172">
        <ele>127.41278084</ele>
        <time>2017-09-03T09:34:24Z</time>
      </trkpt>
      <trkpt lat="50.39691" lon="2.71722">
        <ele>127.4123782</ele>
        <time>2017-09-03T09:34:29Z</time>
      </trkpt>
      <trkpt lat="50.39699" lon="2.71724">
        <ele>127.41205872</ele>
        <time>2017-09-03T09:34:33Z</time>
      </trkpt>
      <trkpt lat="50.39708" lon="2.71726">
        <ele>128.41166792</ele>
        <time>2017-09-03T09:34:38Z</time>
      </trkpt>
      <trkpt lat="50.39716" lon="2.71729">
        <ele>129.4113566</ele>
        <time>2017-09-03T09:34:42Z</time>
      </trkpt>
      <trkpt lat="50.39728" lon="2.71731">
        <ele>130.41088164</ele>
        <time>2017-09-03T09:34:47Z</time>
      </trkpt>
      <trkpt lat="50.39738" lon="2.71734">
        <ele>131.41050004</ele>
        <time>2017-09-03T09:34:51Z</time>
      </trkpt>
      <trkpt lat="50.39748" lon="2.71733">
        <ele>133.41009816</ele>
        <time>2017-09-03T09:34:56Z</time>
      </trkpt>
      <trkpt lat="50.39758" lon="2.71736">
        <ele>134.40970172</ele>
        <time>2017-09-03T09:35:00Z</time>
      </trkpt>
      <trkpt lat="50.39769" lon="2.71739">
        <ele>134.40926144</ele>
        <time>2017-09-03T09:35:05Z</time>
      </trkpt>
      <trkpt lat="50.39778" lon="2.71745">
        <ele>134.40887636</ele>
        <time>2017-09-03T09:35:10Z</time>
      </trkpt>
      <trkpt lat="50.39789" lon="2.71747">
        <ele>135.40842348</ele>
        <time>2017-09-03T09:35:15Z</time>
      </trkpt>
      <trkpt lat="50.39799" lon="2.71748">
        <ele>137.40803428</ele>
        <time>2017-09-03T09:35:19Z</time>
      </trkpt>
      <trkpt lat="50.39807" lon="2.71751">
        <ele>136.40771808</ele>
        <time>2017-09-03T09:35:23Z</time>
      </trkpt>
      <trkpt lat="50.39817" lon="2.71758">
        <ele>139.40733132</ele>
        <time>2017-09-03T09:35:28Z</time>
      </trkpt>
      <trkpt lat="50.39827" lon="2.71759">
        <ele>139.40694088</ele>
        <time>2017-09-03T09:35:32Z</time>
      </trkpt>
      <trkpt lat="50.39836" lon="2.71759">
        <ele>139.4065726</ele>
        <time>2017-09-03T09:35:36Z</time>
      </trkpt>
      <trkpt lat="50.39846" lon="2.71758">
        <ele>138.40615516</ele>
        <time>2017-09-03T09:35:41Z</time>
      </trkpt>
      <trkpt lat="50.39855" lon="2.71762">
        <ele>139.405814</ele>
        <time>2017-09-03T09:35:45Z</time>
      </trkpt>
      <trkpt lat="50.3986" lon="2.71764">
        <ele>138.40558724</ele>
        <time>2017-09-03T09:35:49Z</time>
      </trkpt>
      <trkpt lat="50.39868" lon="2.71765">
        <ele>137.4052678</ele>
        <time>2017-09-03T09:35:53Z</time>
      </trkpt>
      <trkpt lat="50.39876" lon="2.71772">
        <ele>138.40496588</ele>
        <time>2017-09-03T09:35:58Z</time>
      </trkpt>
      <trkpt lat="50.39884" lon="2.71779">
        <ele>144.40466084</ele>
        <time>2017-09-03T09:36:04Z</time>
      </trkpt>
      <trkpt lat="50.39891" lon="2.71785">
        <ele>146.40434684</ele>
        <time>2017-09-03T09:36:17Z</time>
      </trkpt>
      <trkpt lat="50.39898" lon="2.71791">
        <ele>148.4040752</ele>
        <time>2017-09-03T09:36:26Z</time>
      </trkpt>
      <trkpt lat="50.39906" lon="2.71792">
        <ele>150.40374932</ele>
        <time>2017-09-03T09:36:34Z</time>
      </trkpt>
      <trkpt lat="50.39915" lon="2.7179">
        <ele>154.40340732</ele>
        <time>2017-09-03T09:36:44Z</time>
      </trkpt>
      <trkpt lat="50.39923" lon="2.71786">
        <ele>159.40307112</ele>
        <time>2017-09-03T09:36:55Z</time>
      </trkpt>
      <trkpt lat="50.3993" lon="2.71779">
        <ele>160.4028204</ele>
        <time>2017-09-03T09:37:13Z</time>
      </trkpt>
      <trkpt lat="50.39937" lon="2.71773">
        <ele>161.40252916</ele>
        <time>2017-09-03T09:37:20Z</time>
      </trkpt>
      <trkpt lat="50.39945" lon="2.71768">
        <ele>162.40221892</ele>
        <time>2017-09-03T09:37:30Z</time>
      </trkpt>
      <trkpt lat="50.39952" lon="2.71762">
        <ele>163.40190396</ele>
        <time>2017-09-03T09:37:38Z</time>
      </trkpt>
      <trkpt lat="50.39959" lon="2.71756">
        <ele>165.40164616</ele>
        <time>2017-09-03T09:37:47Z</time>
      </trkpt>
      <trkpt lat="50.39963" lon="2.71744">
        <ele>168.40147844</ele>
        <time>2017-09-03T09:38:06Z</time>
      </trkpt>
      <trkpt lat="50.39962" lon="2.71731">
        <ele>168.4015248</ele>
        <time>2017-09-03T09:38:11Z</time>
      </trkpt>
      <trkpt lat="50.39958" lon="2.7172">
        <ele>168.40169704</ele>
        <time>2017-09-03T09:38:15Z</time>
      </trkpt>
      <trkpt lat="50.39954" lon="2.71706">
        <ele>168.40184708</ele>
        <time>2017-09-03T09:38:19Z</time>
      </trkpt>
      <trkpt lat="50.39949" lon="2.71692">
        <ele>169.40202656</ele>
        <time>2017-09-03T09:38:23Z</time>
      </trkpt>
      <trkpt lat="50.39944" lon="2.7167">
        <ele>169.40223312</ele>
        <time>2017-09-03T09:38:28Z</time>
      </trkpt>
      <trkpt lat="50.39941" lon="2.7165">
        <ele>170.40235188</ele>
        <time>2017-09-03T09:38:32Z</time>
      </trkpt>
      <trkpt lat="50.3994" lon="2.71623">
        <ele>171.40239536</ele>
        <time>2017-09-03T09:38:37Z</time>
      </trkpt>
      <trkpt lat="50.3994" lon="2.71601">
        <ele>171.40240536</ele>
        <time>2017-09-03T09:38:41Z</time>
      </trkpt>
      <trkpt lat="50.39942" lon="2.71577">
        <ele>171.40233616</ele>
        <time>2017-09-03T09:38:45Z</time>
      </trkpt>
      <trkpt lat="50.39943" lon="2.71545">
        <ele>171.40227452</ele>
        <time>2017-09-03T09:38:50Z</time>
      </trkpt>
      <trkpt lat="50.39947" lon="2.71511">
        <ele>170.40212596</ele>
        <time>2017-09-03T09:38:55Z</time>
      </trkpt>
      <trkpt lat="50.39951" lon="2.71482">
        <ele>170.40195564</ele>
        <time>2017-09-03T09:38:59Z</time>
      </trkpt>
      <trkpt lat="50.39959" lon="2.71447">
        <ele>170.40162748</ele>
        <time>2017-09-03T09:39:04Z</time>
      </trkpt>
      <trkpt lat="50.39967" lon="2.7142">
        <ele>170.4013058</ele>
        <time>2017-09-03T09:39:08Z</time>
      </trkpt>
      <trkpt lat="50.39981" lon="2.71392">
        <ele>169.40076348</ele>
        <time>2017-09-03T09:39:13Z</time>
      </trkpt>
      <trkpt lat="50.40001" lon="2.71377">
        <ele>169.399974</ele>
        <time>2017-09-03T09:39:18Z</time>
      </trkpt>
      <trkpt lat="50.40017" lon="2.71362">
        <ele>169.399316</ele>
        <time>2017-09-03T09:39:23Z</time>
      </trkpt>
      <trkpt lat="50.40029" lon="2.71344">
        <ele>169.39885488</ele>
        <time>2017-09-03T09:39:27Z</time>
      </trkpt>
      <trkpt lat="50.40039" lon="2.71313">
        <ele>171.39844268</ele>
        <time>2017-09-03T09:39:32Z</time>
      </trkpt>
      <trkpt lat="50.40045" lon="2.71279">
        <ele>172.39821044</ele>
        <time>2017-09-03T09:39:37Z</time>
      </trkpt>
      <trkpt lat="50.40049" lon="2.71249">
        <ele>171.39805828</ele>
        <time>2017-09-03T09:39:41Z</time>
      </trkpt>
      <trkpt lat="50.40055" lon="2.71218">
        <ele>172.39782188</ele>
        <time>2017-09-03T09:39:45Z</time>
      </trkpt>
      <trkpt lat="50.40063" lon="2.71189">
        <ele>171.39747116</ele>
        <time>2017-09-03T09:39:49Z</time>
      </trkpt>
      <trkpt lat="50.40077" lon="2.71151">
        <ele>169.396922</ele>
        <time>2017-09-03T09:39:54Z</time>
      </trkpt>
      <trkpt lat="50.40091" lon="2.71119">
        <ele>169.39636312</ele>
        <time>2017-09-03T09:39:59Z</time>
      </trkpt>
      <trkpt lat="50.401" lon="2.71099">
        <ele>170.39601344</ele>
        <time>2017-09-03T09:40:02Z</time>
      </trkpt>
      <trkpt lat="50.40113" lon="2.71067">
        <ele>168.3954814</ele>
        <time>2017-09-03T09:40:07Z</time>
      </trkpt>
      <trkpt lat="50.40128" lon="2.71039">
        <ele>169.3948746</ele>
        <time>2017-09-03T09:40:11Z</time>
      </trkpt>
      <trkpt lat="50.40138" lon="2.71015">
        <ele>167.39449368</ele>
        <time>2017-09-03T09:40:16Z</time>
      </trkpt>
      <trkpt lat="50.40148" lon="2.7098">
        <ele>167.394068</ele>
        <time>2017-09-03T09:40:21Z</time>
      </trkpt>
      <trkpt lat="50.40158" lon="2.70955">
        <ele>167.39366596</ele>
        <time>2017-09-03T09:40:25Z</time>
      </trkpt>
      <trkpt lat="50.40169" lon="2.70927">
        <ele>167.39324584</ele>
        <time>2017-09-03T09:40:29Z</time>
      </trkpt>
      <trkpt lat="50.40179" lon="2.70902">
        <ele>168.392827</ele>
        <time>2017-09-03T09:40:33Z</time>
      </trkpt>
      <trkpt lat="50.40192" lon="2.70879">
        <ele>171.39231932</ele>
        <time>2017-09-03T09:40:36Z</time>
      </trkpt>
      <trkpt lat="50.40199" lon="2.70854">
        <ele>174.39204592</ele>
        <time>2017-09-03T09:40:41Z</time>
      </trkpt>
      <trkpt lat="50.4021" lon="2.70829">
        <ele>175.39158812</ele>
        <time>2017-09-03T09:40:45Z</time>
      </trkpt>
      <trkpt lat="50.40222" lon="2.70793">
        <ele>172.3911378</ele>
        <time>2017-09-03T09:40:50Z</time>
      </trkpt>
      <trkpt lat="50.40231" lon="2.70757">
        <ele>171.39077036</ele>
        <time>2017-09-03T09:40:54Z</time>
      </trkpt>
      <trkpt lat="50.4024" lon="2.70725">
        <ele>173.39038224</ele>
        <time>2017-09-03T09:40:59Z</time>
      </trkpt>
      <trkpt lat="50.40251" lon="2.70694">
        <ele>176.38995584</ele>
        <time>2017-09-03T09:41:03Z</time>
      </trkpt>
      <trkpt lat="50.40261" lon="2.70662">
        <ele>177.3895562</ele>
        <time>2017-09-03T09:41:07Z</time>
      </trkpt>
      <trkpt lat="50.40269" lon="2.70616">
        <ele>178.38923404</ele>
        <time>2017-09-03T09:41:12Z</time>
      </trkpt>
      <trkpt lat="50.40271" lon="2.70586">
        <ele>178.3891458</ele>
        <time>2017-09-03T09:41:16Z</time>
      </trkpt>
      <trkpt lat="50.4027" lon="2.70567">
        <ele>178.38920228</ele>
        <time>2017-09-03T09:41:21Z</time>
      </trkpt>
      <trkpt lat="50.40262" lon="2.70565">
        <ele>179.3895346</ele>
        <time>2017-09-03T09:41:26Z</time>
      </trkpt>
      <trkpt lat="50.40254" lon="2.70565">
        <ele>179.38986044</ele>
        <time>2017-09-03T09:41:30Z</time>
      </trkpt>
      <trkpt lat="50.40242" lon="2.70568">
        <ele>176.3903076</ele>
        <time>2017-09-03T09:41:35Z</time>
      </trkpt>
      <trkpt lat="50.40224" lon="2.70568">
        <ele>176.3910612</ele>
        <time>2017-09-03T09:41:39Z</time>
      </trkpt>
      <trkpt lat="50.40216" lon="2.70573">
        <ele>175.39137792</ele>
        <time>2017-09-03T09:41:44Z</time>
      </trkpt>
      <trkpt lat="50.402" lon="2.70573">
        <ele>173.39200152</ele>
        <time>2017-09-03T09:41:49Z</time>
      </trkpt>
      <trkpt lat="50.40187" lon="2.70575">
        <ele>169.39251152</ele>
        <time>2017-09-03T09:41:53Z</time>
      </trkpt>
      <trkpt lat="50.40179" lon="2.70581">
        <ele>166.3928536</ele>
        <time>2017-09-03T09:41:57Z</time>
      </trkpt>
      <trkpt lat="50.40171" lon="2.70581">
        <ele>167.3931664</ele>
        <time>2017-09-03T09:42:01Z</time>
      </trkpt>
      <trkpt lat="50.40163" lon="2.70582">
        <ele>163.39347844</ele>
        <time>2017-09-03T09:42:05Z</time>
      </trkpt>
      <trkpt lat="50.40156" lon="2.70585">
        <ele>153.39376432</ele>
        <time>2017-09-03T09:42:10Z</time>
      </trkpt>
      <trkpt lat="50.40146" lon="2.70588">
        <ele>149.3941744</ele>
        <time>2017-09-03T09:42:15Z</time>
      </trkpt>
      <trkpt lat="50.40137" lon="2.70587">
        <ele>148.39453088</ele>
        <time>2017-09-03T09:42:19Z</time>
      </trkpt>
      <trkpt lat="50.4013" lon="2.70592">
        <ele>137.39480624</ele>
        <time>2017-09-03T09:42:28Z</time>
      </trkpt>
      <trkpt lat="50.40122" lon="2.70594">
        <ele>136.39511584</ele>
        <time>2017-09-03T09:42:32Z</time>
      </trkpt>
      <trkpt lat="50.40105" lon="2.70602">
        <ele>135.39578764</ele>
        <time>2017-09-03T09:42:37Z</time>
      </trkpt>
      <trkpt lat="50.40085" lon="2.70634">
        <ele>133.39659976</ele>
        <time>2017-09-03T09:42:42Z</time>
      </trkpt>
      <trkpt lat="50.4007" lon="2.7066">
        <ele>133.39721728</ele>
        <time>2017-09-03T09:42:46Z</time>
      </trkpt>
      <trkpt lat="50.40051" lon="2.7068">
        <ele>135.39797552</ele>
        <time>2017-09-03T09:42:50Z</time>
      </trkpt>
      <trkpt lat="50.40024" lon="2.70716">
        <ele>135.39903392</ele>
        <time>2017-09-03T09:42:54Z</time>
      </trkpt>
      <trkpt lat="50.40002" lon="2.70743">
        <ele>135.39990232</ele>
        <time>2017-09-03T09:42:58Z</time>
      </trkpt>
      <trkpt lat="50.39982" lon="2.70768">
        <ele>134.40073112</ele>
        <time>2017-09-03T09:43:03Z</time>
      </trkpt>
      <trkpt lat="50.39961" lon="2.70813">
        <ele>126.40156004</ele>
        <time>2017-09-03T09:43:08Z</time>
      </trkpt>
      <trkpt lat="50.39938" lon="2.70855">
        <ele>121.40246464</ele>
        <time>2017-09-03T09:43:12Z</time>
      </trkpt>
      <trkpt lat="50.3992" lon="2.70889">
        <ele>117.40319308</ele>
        <time>2017-09-03T09:43:16Z</time>
      </trkpt>
      <trkpt lat="50.39894" lon="2.70926">
        <ele>115.40422276</ele>
        <time>2017-09-03T09:43:21Z</time>
      </trkpt>
      <trkpt lat="50.39871" lon="2.70955">
        <ele>115.40517388</ele>
        <time>2017-09-03T09:43:25Z</time>
      </trkpt>
      <trkpt lat="50.39842" lon="2.70982">
        <ele>115.40634128</ele>
        <time>2017-09-03T09:43:29Z</time>
      </trkpt>
      <trkpt lat="50.39811" lon="2.70994">
        <ele>114.40757712</ele>
        <time>2017-09-03T09:43:34Z</time>
      </trkpt>
      <trkpt lat="50.39782" lon="2.70994">
        <ele>116.40874104</ele>
        <time>2017-09-03T09:43:39Z</time>
      </trkpt>
      <trkpt lat="50.39756" lon="2.71003">
        <ele>115.40977212</ele>
        <time>2017-09-03T09:43:43Z</time>
      </trkpt>
      <trkpt lat="50.39722" lon="2.71014">
        <ele>113.41112812</ele>
        <time>2017-09-03T09:43:48Z</time>
      </trkpt>
      <trkpt lat="50.39697" lon="2.71013">
        <ele>113.41211724</ele>
        <time>2017-09-03T09:43:52Z</time>
      </trkpt>
      <trkpt lat="50.39667" lon="2.71011">
        <ele>111.41334176</ele>
        <time>2017-09-03T09:43:57Z</time>
      </trkpt>
      <trkpt lat="50.39636" lon="2.71009">
        <ele>105.41456736</ele>
        <time>2017-09-03T09:44:01Z</time>
      </trkpt>
      <trkpt lat="50.39601" lon="2.7101">
        <ele>104.41594628</ele>
        <time>2017-09-03T09:44:06Z</time>
      </trkpt>
      <trkpt lat="50.39576" lon="2.71011">
        <ele>101.41696408</ele>
        <time>2017-09-03T09:44:10Z</time>
      </trkpt>
      <trkpt lat="50.39545" lon="2.71011">
        <ele>99.41821956</ele>
        <time>2017-09-03T09:44:15Z</time>
      </trkpt>
      <trkpt lat="50.3953" lon="2.71007">
        <ele>101.41881364</ele>
        <time>2017-09-03T09:44:19Z</time>
      </trkpt>
      <trkpt lat="50.39529" lon="2.70994">
        <ele>96.41883464</ele>
        <time>2017-09-03T09:44:53Z</time>
      </trkpt>
      <trkpt lat="50.39537" lon="2.70976">
        <ele>96.41850996</ele>
        <time>2017-09-03T09:44:57Z</time>
      </trkpt>
      <trkpt lat="50.39546" lon="2.70957">
        <ele>99.41815864</ele>
        <time>2017-09-03T09:45:02Z</time>
      </trkpt>
      <trkpt lat="50.39555" lon="2.70937">
        <ele>97.41778552</ele>
        <time>2017-09-03T09:45:06Z</time>
      </trkpt>
      <trkpt lat="50.39562" lon="2.70911">
        <ele>96.41750468</ele>
        <time>2017-09-03T09:45:11Z</time>
      </trkpt>
      <trkpt lat="50.39569" lon="2.70891">
        <ele>95.41724048</ele>
        <time>2017-09-03T09:45:15Z</time>
      </trkpt>
      <trkpt lat="50.39571" lon="2.70871">
        <ele>94.4171796</ele>
        <time>2017-09-03T09:45:19Z</time>
      </trkpt>
      <trkpt lat="50.39571" lon="2.70848">
        <ele>95.41716764</ele>
        <time>2017-09-03T09:45:24Z</time>
      </trkpt>
      <trkpt lat="50.39576" lon="2.70831">
        <ele>94.4169456</ele>
        <time>2017-09-03T09:45:28Z</time>
      </trkpt>
      <trkpt lat="50.3958" lon="2.70803">
        <ele>91.41679516</ele>
        <time>2017-09-03T09:45:33Z</time>
      </trkpt>
      <trkpt lat="50.39582" lon="2.70779">
        <ele>91.41671128</ele>
        <time>2017-09-03T09:45:37Z</time>
      </trkpt>
      <trkpt lat="50.39586" lon="2.70757">
        <ele>91.41654712</ele>
        <time>2017-09-03T09:45:41Z</time>
      </trkpt>
      <trkpt lat="50.3959" lon="2.70739">
        <ele>88.41641588</ele>
        <time>2017-09-03T09:45:44Z</time>
      </trkpt>
      <trkpt lat="50.39592" lon="2.70714">
        <ele>90.41632476</ele>
        <time>2017-09-03T09:45:49Z</time>
      </trkpt>
      <trkpt lat="50.39594" lon="2.70696">
        <ele>93.41623212</ele>
        <time>2017-09-03T09:45:52Z</time>
      </trkpt>
      <trkpt lat="50.39594" lon="2.70668">
        <ele>91.41623624</ele>
        <time>2017-09-03T09:45:57Z</time>
      </trkpt>
      <trkpt lat="50.39597" lon="2.70643">
        <ele>90.41614184</ele>
        <time>2017-09-03T09:46:02Z</time>
      </trkpt>
      <trkpt lat="50.39605" lon="2.70632">
        <ele>91.41579424</ele>
        <time>2017-09-03T09:46:06Z</time>
      </trkpt>
      <trkpt lat="50.39618" lon="2.70617">
        <ele>87.41528812</ele>
        <time>2017-09-03T09:46:10Z</time>
      </trkpt>
      <trkpt lat="50.39634" lon="2.70608">
        <ele>85.4146366</ele>
        <time>2017-09-03T09:46:14Z</time>
      </trkpt>
      <trkpt lat="50.3964" lon="2.70588">
        <ele>85.4143884</ele>
        <time>2017-09-03T09:46:18Z</time>
      </trkpt>
      <trkpt lat="50.39635" lon="2.70559">
        <ele>88.41459888</ele>
        <time>2017-09-03T09:46:22Z</time>
      </trkpt>
      <trkpt lat="50.39639" lon="2.70539">
        <ele>87.41444736</ele>
        <time>2017-09-03T09:46:27Z</time>
      </trkpt>
      <trkpt lat="50.39638" lon="2.70517">
        <ele>89.4145004</ele>
        <time>2017-09-03T09:46:31Z</time>
      </trkpt>
      <trkpt lat="50.39637" lon="2.70499">
        <ele>90.41450668</ele>
        <time>2017-09-03T09:46:35Z</time>
      </trkpt>
      <trkpt lat="50.39638" lon="2.7048">
        <ele>90.41447064</ele>
        <time>2017-09-03T09:46:39Z</time>
      </trkpt>
      <trkpt lat="50.39634" lon="2.70464">
        <ele>90.41462384</ele>
        <time>2017-09-03T09:46:43Z</time>
      </trkpt>
      <trkpt lat="50.39625" lon="2.70449">
        <ele>93.41499868</ele>
        <time>2017-09-03T09:46:47Z</time>
      </trkpt>
      <trkpt lat="50.39623" lon="2.70422">
        <ele>96.41508668</ele>
        <time>2017-09-03T09:46:52Z</time>
      </trkpt>
      <trkpt lat="50.39623" lon="2.70397">
        <ele>97.41508256</ele>
        <time>2017-09-03T09:46:56Z</time>
      </trkpt>
      <trkpt lat="50.39619" lon="2.70375">
        <ele>94.41524924</ele>
        <time>2017-09-03T09:47:00Z</time>
      </trkpt>
      <trkpt lat="50.39617" lon="2.70354">
        <ele>92.41531416</ele>
        <time>2017-09-03T09:47:04Z</time>
      </trkpt>
      <trkpt lat="50.39616" lon="2.70332">
        <ele>90.41536508</ele>
        <time>2017-09-03T09:47:09Z</time>
      </trkpt>
      <trkpt lat="50.39617" lon="2.70312">
        <ele>92.41530284</ele>
        <time>2017-09-03T09:47:14Z</time>
      </trkpt>
      <trkpt lat="50.39621" lon="2.70301">
        <ele>96.41514768</ele>
        <time>2017-09-03T09:47:32Z</time>
      </trkpt>
      <trkpt lat="50.39623" lon="2.70287">
        <ele>94.41508228</ele>
        <time>2017-09-03T09:47:36Z</time>
      </trkpt>
      <trkpt lat="50.39624" lon="2.70271">
        <ele>93.41502852</ele>
        <time>2017-09-03T09:47:40Z</time>
      </trkpt>
      <trkpt lat="50.39626" lon="2.70242">
        <ele>94.4149574</ele>
        <time>2017-09-03T09:47:45Z</time>
      </trkpt>
      <trkpt lat="50.39629" lon="2.70209">
        <ele>91.41482664</ele>
        <time>2017-09-03T09:47:50Z</time>
      </trkpt>
      <trkpt lat="50.39633" lon="2.70176">
        <ele>91.4146628</ele>
        <time>2017-09-03T09:47:54Z</time>
      </trkpt>
      <trkpt lat="50.39634" lon="2.70161">
        <ele>91.41462652</ele>
        <time>2017-09-03T09:47:59Z</time>
      </trkpt>
      <trkpt lat="50.39631" lon="2.7012">
        <ele>89.41475288</ele>
        <time>2017-09-03T09:48:03Z</time>
      </trkpt>
      <trkpt lat="50.39609" lon="2.70113">
        <ele>89.41564964</ele>
        <time>2017-09-03T09:48:07Z</time>
      </trkpt>
      <trkpt lat="50.39588" lon="2.70105">
        <ele>91.41649216</ele>
        <time>2017-09-03T09:48:11Z</time>
      </trkpt>
      <trkpt lat="50.39563" lon="2.70096">
        <ele>91.41748364</ele>
        <time>2017-09-03T09:48:16Z</time>
      </trkpt>
      <trkpt lat="50.39562" lon="2.70071">
        <ele>91.41753304</ele>
        <time>2017-09-03T09:48:20Z</time>
      </trkpt>
      <trkpt lat="50.39578" lon="2.70035">
        <ele>88.41687708</ele>
        <time>2017-09-03T09:48:25Z</time>
      </trkpt>
      <trkpt lat="50.3959" lon="2.70005">
        <ele>85.41639876</ele>
        <time>2017-09-03T09:48:29Z</time>
      </trkpt>
      <trkpt lat="50.39604" lon="2.69969">
        <ele>87.4158574</ele>
        <time>2017-09-03T09:48:34Z</time>
      </trkpt>
      <trkpt lat="50.39614" lon="2.69939">
        <ele>87.41544964</ele>
        <time>2017-09-03T09:48:38Z</time>
      </trkpt>
      <trkpt lat="50.39624" lon="2.69909">
        <ele>87.41505932</ele>
        <time>2017-09-03T09:48:42Z</time>
      </trkpt>
      <trkpt lat="50.39629" lon="2.69875">
        <ele>84.41484352</ele>
        <time>2017-09-03T09:48:46Z</time>
      </trkpt>
      <trkpt lat="50.39638" lon="2.69833">
        <ele>85.41449588</ele>
        <time>2017-09-03T09:48:51Z</time>
      </trkpt>
      <trkpt lat="50.39643" lon="2.69801">
        <ele>84.4142676</ele>
        <time>2017-09-03T09:48:55Z</time>
      </trkpt>
      <trkpt lat="50.3965" lon="2.69763">
        <ele>85.41399272</ele>
        <time>2017-09-03T09:48:59Z</time>
      </trkpt>
      <trkpt lat="50.39655" lon="2.69723">
        <ele>83.41381384</ele>
        <time>2017-09-03T09:49:04Z</time>
      </trkpt>
      <trkpt lat="50.39657" lon="2.69696">
        <ele>84.41370688</ele>
        <time>2017-09-03T09:49:08Z</time>
      </trkpt>
      <trkpt lat="50.3967" lon="2.6967">
        <ele>86.41320576</ele>
        <time>2017-09-03T09:49:13Z</time>
      </trkpt>
      <trkpt lat="50.39676" lon="2.69653">
        <ele>87.41294852</ele>
        <time>2017-09-03T09:49:18Z</time>
      </trkpt>
      <trkpt lat="50.39684" lon="2.69629">
        <ele>86.41263576</ele>
        <time>2017-09-03T09:49:23Z</time>
      </trkpt>
      <trkpt lat="50.39693" lon="2.69608">
        <ele>86.41228028</ele>
        <time>2017-09-03T09:49:27Z</time>
      </trkpt>
      <trkpt lat="50.39704" lon="2.69582">
        <ele>85.41182484</ele>
        <time>2017-09-03T09:49:31Z</time>
      </trkpt>
      <trkpt lat="50.39714" lon="2.69569">
        <ele>87.4114514</ele>
        <time>2017-09-03T09:49:36Z</time>
      </trkpt>
      <trkpt lat="50.39724" lon="2.69563">
        <ele>88.41106184</ele>
        <time>2017-09-03T09:49:40Z</time>
      </trkpt>
      <trkpt lat="50.39734" lon="2.69561">
        <ele>90.41062596</ele>
        <time>2017-09-03T09:49:44Z</time>
      </trkpt>
      <trkpt lat="50.39744" lon="2.69562">
        <ele>93.41025256</ele>
        <time>2017-09-03T09:49:49Z</time>
      </trkpt>
      <trkpt lat="50.39753" lon="2.69562">
        <ele>96.4098772</ele>
        <time>2017-09-03T09:49:54Z</time>
      </trkpt>
      <trkpt lat="50.39762" lon="2.69561">
        <ele>98.409541</ele>
        <time>2017-09-03T09:49:59Z</time>
      </trkpt>
      <trkpt lat="50.3977" lon="2.69559">
        <ele>99.40920124</ele>
        <time>2017-09-03T09:50:04Z</time>
      </trkpt>
      <trkpt lat="50.39779" lon="2.6956">
        <ele>102.40885364</ele>
        <time>2017-09-03T09:50:09Z</time>
      </trkpt>
      <trkpt lat="50.39787" lon="2.69563">
        <ele>101.40853448</ele>
        <time>2017-09-03T09:50:15Z</time>
      </trkpt>
      <trkpt lat="50.39795" lon="2.69566">
        <ele>102.4082032</ele>
        <time>2017-09-03T09:50:19Z</time>
      </trkpt>
      <trkpt lat="50.39803" lon="2.69569">
        <ele>102.4078688</ele>
        <time>2017-09-03T09:50:25Z</time>
      </trkpt>
      <trkpt lat="50.39812" lon="2.69573">
        <ele>101.407503</ele>
        <time>2017-09-03T09:50:30Z</time>
      </trkpt>
      <trkpt lat="50.3982" lon="2.69574">
        <ele>105.40720736</ele>
        <time>2017-09-03T09:50:35Z</time>
      </trkpt>
      <trkpt lat="50.39828" lon="2.69578">
        <ele>106.4068644</ele>
        <time>2017-09-03T09:50:40Z</time>
      </trkpt>
      <trkpt lat="50.39837" lon="2.6958">
        <ele>109.40653192</ele>
        <time>2017-09-03T09:50:46Z</time>
      </trkpt>
      <trkpt lat="50.39845" lon="2.69586">
        <ele>107.4061864</ele>
        <time>2017-09-03T09:50:51Z</time>
      </trkpt>
      <trkpt lat="50.39854" lon="2.69587">
        <ele>107.4058578</ele>
        <time>2017-09-03T09:50:56Z</time>
      </trkpt>
      <trkpt lat="50.39865" lon="2.69589">
        <ele>109.40541024</ele>
        <time>2017-09-03T09:51:00Z</time>
      </trkpt>
      <trkpt lat="50.39874" lon="2.69588">
        <ele>110.40505824</ele>
        <time>2017-09-03T09:51:05Z</time>
      </trkpt>
      <trkpt lat="50.39883" lon="2.69594">
        <ele>114.40470036</ele>
        <time>2017-09-03T09:51:10Z</time>
      </trkpt>
      <trkpt lat="50.39891" lon="2.696">
        <ele>117.404381</ele>
        <time>2017-09-03T09:51:15Z</time>
      </trkpt>
      <trkpt lat="50.39898" lon="2.69601">
        <ele>118.40408828</ele>
        <time>2017-09-03T09:51:20Z</time>
      </trkpt>
      <trkpt lat="50.39904" lon="2.69607">
        <ele>118.40384028</ele>
        <time>2017-09-03T09:51:26Z</time>
      </trkpt>
      <trkpt lat="50.39912" lon="2.69611">
        <ele>120.40351072</ele>
        <time>2017-09-03T09:51:31Z</time>
      </trkpt>
      <trkpt lat="50.39922" lon="2.69614">
        <ele>119.4031314</ele>
        <time>2017-09-03T09:51:35Z</time>
      </trkpt>
      <trkpt lat="50.3993" lon="2.69615">
        <ele>123.40280744</ele>
        <time>2017-09-03T09:51:41Z</time>
      </trkpt>
      <trkpt lat="50.39938" lon="2.69618">
        <ele>126.40248088</ele>
        <time>2017-09-03T09:51:45Z</time>
      </trkpt>
      <trkpt lat="50.39947" lon="2.69619">
        <ele>128.40211872</ele>
        <time>2017-09-03T09:51:50Z</time>
      </trkpt>
      <trkpt lat="50.39956" lon="2.69618">
        <ele>127.40178104</ele>
        <time>2017-09-03T09:51:55Z</time>
      </trkpt>
      <trkpt lat="50.39965" lon="2.69617">
        <ele>127.40138208</ele>
        <time>2017-09-03T09:52:00Z</time>
      </trkpt>
      <trkpt lat="50.39974" lon="2.69615">
        <ele>126.40102604</ele>
        <time>2017-09-03T09:52:05Z</time>
      </trkpt>
      <trkpt lat="50.39982" lon="2.69616">
        <ele>127.40072024</ele>
        <time>2017-09-03T09:52:11Z</time>
      </trkpt>
      <trkpt lat="50.3999" lon="2.69612">
        <ele>126.40038476</ele>
        <time>2017-09-03T09:52:16Z</time>
      </trkpt>
      <trkpt lat="50.39998" lon="2.69613">
        <ele>132.40006492</ele>
        <time>2017-09-03T09:52:20Z</time>
      </trkpt>
      <trkpt lat="50.40006" lon="2.69612">
        <ele>131.39977784</ele>
        <time>2017-09-03T09:52:26Z</time>
      </trkpt>
      <trkpt lat="50.40015" lon="2.69614">
        <ele>134.39940264</ele>
        <time>2017-09-03T09:52:30Z</time>
      </trkpt>
      <trkpt lat="50.40023" lon="2.69617">
        <ele>137.39907528</ele>
        <time>2017-09-03T09:52:35Z</time>
      </trkpt>
      <trkpt lat="50.40031" lon="2.69616">
        <ele>134.39875908</ele>
        <time>2017-09-03T09:52:39Z</time>
      </trkpt>
      <trkpt lat="50.4004" lon="2.69624">
        <ele>139.39838692</ele>
        <time>2017-09-03T09:52:44Z</time>
      </trkpt>
      <trkpt lat="50.40052" lon="2.69619">
        <ele>136.39790648</ele>
        <time>2017-09-03T09:52:49Z</time>
      </trkpt>
      <trkpt lat="50.40061" lon="2.69623">
        <ele>139.39757948</ele>
        <time>2017-09-03T09:52:53Z</time>
      </trkpt>
      <trkpt lat="50.40067" lon="2.69627">
        <ele>142.39732988</ele>
        <time>2017-09-03T09:52:57Z</time>
      </trkpt>
      <trkpt lat="50.40075" lon="2.69631">
        <ele>143.39702124</ele>
        <time>2017-09-03T09:53:01Z</time>
      </trkpt>
      <trkpt lat="50.40083" lon="2.69632">
        <ele>139.396671</ele>
        <time>2017-09-03T09:53:06Z</time>
      </trkpt>
      <trkpt lat="50.40091" lon="2.69632">
        <ele>139.3963584</ele>
        <time>2017-09-03T09:53:10Z</time>
      </trkpt>
      <trkpt lat="50.40103" lon="2.69636">
        <ele>137.39588308</ele>
        <time>2017-09-03T09:53:15Z</time>
      </trkpt>
      <trkpt lat="50.40111" lon="2.69638">
        <ele>136.39554784</ele>
        <time>2017-09-03T09:53:20Z</time>
      </trkpt>
      <trkpt lat="50.40119" lon="2.69641">
        <ele>135.39523632</ele>
        <time>2017-09-03T09:53:24Z</time>
      </trkpt>
      <trkpt lat="50.40128" lon="2.6964">
        <ele>139.39489764</ele>
        <time>2017-09-03T09:53:29Z</time>
      </trkpt>
      <trkpt lat="50.40135" lon="2.69645">
        <ele>144.39459156</ele>
        <time>2017-09-03T09:53:34Z</time>
      </trkpt>
      <trkpt lat="50.40146" lon="2.69648">
        <ele>143.39416756</ele>
        <time>2017-09-03T09:53:38Z</time>
      </trkpt>
      <trkpt lat="50.40154" lon="2.69654">
        <ele>144.39385796</ele>
        <time>2017-09-03T09:53:43Z</time>
      </trkpt>
      <trkpt lat="50.40161" lon="2.69662">
        <ele>149.39354512</ele>
        <time>2017-09-03T09:53:48Z</time>
      </trkpt>
      <trkpt lat="50.40169" lon="2.69661">
        <ele>146.39322844</ele>
        <time>2017-09-03T09:53:52Z</time>
      </trkpt>
      <trkpt lat="50.40177" lon="2.69662">
        <ele>144.3929256</ele>
        <time>2017-09-03T09:53:56Z</time>
      </trkpt>
      <trkpt lat="50.40184" lon="2.69661">
        <ele>149.39264736</ele>
        <time>2017-09-03T09:54:00Z</time>
      </trkpt>
      <trkpt lat="50.40189" lon="2.69661">
        <ele>152.39246112</ele>
        <time>2017-09-03T09:54:04Z</time>
      </trkpt>
      <trkpt lat="50.40199" lon="2.69668">
        <ele>152.39205596</ele>
        <time>2017-09-03T09:54:09Z</time>
      </trkpt>
      <trkpt lat="50.40205" lon="2.69673">
        <ele>154.39178784</ele>
        <time>2017-09-03T09:54:15Z</time>
      </trkpt>
      <trkpt lat="50.40212" lon="2.69676">
        <ele>152.39153756</ele>
        <time>2017-09-03T09:54:20Z</time>
      </trkpt>
      <trkpt lat="50.4022" lon="2.69678">
        <ele>153.3912132</ele>
        <time>2017-09-03T09:54:26Z</time>
      </trkpt>
      <trkpt lat="50.40228" lon="2.69682">
        <ele>153.39087312</ele>
        <time>2017-09-03T09:54:32Z</time>
      </trkpt>
      <trkpt lat="50.40236" lon="2.69688">
        <ele>159.39055332</ele>
        <time>2017-09-03T09:54:40Z</time>
      </trkpt>
      <trkpt lat="50.40244" lon="2.69692">
        <ele>158.39022668</ele>
        <time>2017-09-03T09:54:44Z</time>
      </trkpt>
      <trkpt lat="50.40252" lon="2.69695">
        <ele>158.38992508</ele>
        <time>2017-09-03T09:54:49Z</time>
      </trkpt>
      <trkpt lat="50.4026" lon="2.697">
        <ele>161.3896082</ele>
        <time>2017-09-03T09:54:58Z</time>
      </trkpt>
      <trkpt lat="50.40268" lon="2.697">
        <ele>164.38929372</ele>
        <time>2017-09-03T09:55:07Z</time>
      </trkpt>
      <trkpt lat="50.40276" lon="2.69705">
        <ele>167.38897484</ele>
        <time>2017-09-03T09:55:13Z</time>
      </trkpt>
      <trkpt lat="50.40283" lon="2.69709">
        <ele>172.3886936</ele>
        <time>2017-09-03T09:55:21Z</time>
      </trkpt>
      <trkpt lat="50.40291" lon="2.69709">
        <ele>172.38836288</ele>
        <time>2017-09-03T09:55:35Z</time>
      </trkpt>
      <trkpt lat="50.40297" lon="2.69715">
        <ele>176.38813664</ele>
        <time>2017-09-03T09:55:41Z</time>
      </trkpt>
      <trkpt lat="50.40305" lon="2.6972">
        <ele>175.38780076</ele>
        <time>2017-09-03T09:55:47Z</time>
      </trkpt>
      <trkpt lat="50.40314" lon="2.69723">
        <ele>177.38746148</ele>
        <time>2017-09-03T09:55:56Z</time>
      </trkpt>
      <trkpt lat="50.40321" lon="2.69728">
        <ele>179.38715496</ele>
        <time>2017-09-03T09:56:03Z</time>
      </trkpt>
      <trkpt lat="50.40329" lon="2.69729">
        <ele>179.38682692</ele>
        <time>2017-09-03T09:56:18Z</time>
      </trkpt>
      <trkpt lat="50.40336" lon="2.69736">
        <ele>182.38655896</ele>
        <time>2017-09-03T09:56:25Z</time>
      </trkpt>
      <trkpt lat="50.40345" lon="2.69738">
        <ele>177.38622064</ele>
        <time>2017-09-03T09:56:31Z</time>
      </trkpt>
      <trkpt lat="50.40351" lon="2.6974">
        <ele>176.3859526</ele>
        <time>2017-09-03T09:56:38Z</time>
      </trkpt>
      <trkpt lat="50.4036" lon="2.69741">
        <ele>172.38561268</ele>
        <time>2017-09-03T09:56:48Z</time>
      </trkpt>
      <trkpt lat="50.40368" lon="2.69736">
        <ele>178.38527588</ele>
        <time>2017-09-03T09:56:59Z</time>
      </trkpt>
      <trkpt lat="50.40375" lon="2.69729">
        <ele>179.38498612</ele>
        <time>2017-09-03T09:57:11Z</time>
      </trkpt>
      <trkpt lat="50.40383" lon="2.69723">
        <ele>181.3846694</ele>
        <time>2017-09-03T09:57:17Z</time>
      </trkpt>
      <trkpt lat="50.40391" lon="2.69721">
        <ele>183.38436544</ele>
        <time>2017-09-03T09:57:33Z</time>
      </trkpt>
      <trkpt lat="50.40398" lon="2.69715">
        <ele>189.38408024</ele>
        <time>2017-09-03T09:57:39Z</time>
      </trkpt>
      <trkpt lat="50.40406" lon="2.69709">
        <ele>189.38376588</ele>
        <time>2017-09-03T09:57:47Z</time>
      </trkpt>
      <trkpt lat="50.4041" lon="2.69696">
        <ele>186.38360956</ele>
        <time>2017-09-03T09:58:00Z</time>
      </trkpt>
      <trkpt lat="50.40417" lon="2.6969">
        <ele>182.38333268</ele>
        <time>2017-09-03T09:58:50Z</time>
      </trkpt>
      <trkpt lat="50.40423" lon="2.69683">
        <ele>183.38308312</ele>
        <time>2017-09-03T09:58:55Z</time>
      </trkpt>
      <trkpt lat="50.40432" lon="2.69683">
        <ele>182.38273112</ele>
        <time>2017-09-03T09:58:59Z</time>
      </trkpt>
      <trkpt lat="50.40446" lon="2.69675">
        <ele>182.3821628</ele>
        <time>2017-09-03T09:59:03Z</time>
      </trkpt>
      <trkpt lat="50.40457" lon="2.69667">
        <ele>182.38172688</ele>
        <time>2017-09-03T09:59:08Z</time>
      </trkpt>
      <trkpt lat="50.40471" lon="2.69655">
        <ele>181.3811686</ele>
        <time>2017-09-03T09:59:13Z</time>
      </trkpt>
      <trkpt lat="50.40483" lon="2.69647">
        <ele>181.38066836</ele>
        <time>2017-09-03T09:59:17Z</time>
      </trkpt>
      <trkpt lat="50.40501" lon="2.69635">
        <ele>184.37995484</ele>
        <time>2017-09-03T09:59:22Z</time>
      </trkpt>
      <trkpt lat="50.40519" lon="2.69625">
        <ele>182.37924364</ele>
        <time>2017-09-03T09:59:26Z</time>
      </trkpt>
      <trkpt lat="50.40535" lon="2.69615">
        <ele>182.37858852</ele>
        <time>2017-09-03T09:59:31Z</time>
      </trkpt>
      <trkpt lat="50.40552" lon="2.69596">
        <ele>184.37791956</ele>
        <time>2017-09-03T09:59:36Z</time>
      </trkpt>
      <trkpt lat="50.40566" lon="2.69583">
        <ele>183.3773694</ele>
        <time>2017-09-03T09:59:40Z</time>
      </trkpt>
      <trkpt lat="50.40584" lon="2.69571">
        <ele>185.37662448</ele>
        <time>2017-09-03T09:59:44Z</time>
      </trkpt>
      <trkpt lat="50.40605" lon="2.6956">
        <ele>184.3758144</ele>
        <time>2017-09-03T09:59:48Z</time>
      </trkpt>
      <trkpt lat="50.40618" lon="2.6955">
        <ele>181.37529888</ele>
        <time>2017-09-03T09:59:52Z</time>
      </trkpt>
      <trkpt lat="50.4064" lon="2.69535">
        <ele>182.37440684</ele>
        <time>2017-09-03T09:59:57Z</time>
      </trkpt>
      <trkpt lat="50.40657" lon="2.69512">
        <ele>181.37370808</ele>
        <time>2017-09-03T10:00:02Z</time>
      </trkpt>
      <trkpt lat="50.40662" lon="2.6949">
        <ele>178.37350276</ele>
        <time>2017-09-03T10:00:06Z</time>
      </trkpt>
      <trkpt lat="50.40673" lon="2.69458">
        <ele>180.37307272</ele>
        <time>2017-09-03T10:00:10Z</time>
      </trkpt>
      <trkpt lat="50.4068" lon="2.69424">
        <ele>178.37279772</ele>
        <time>2017-09-03T10:00:15Z</time>
      </trkpt>
      <trkpt lat="50.40684" lon="2.69396">
        <ele>180.3726422</ele>
        <time>2017-09-03T10:00:20Z</time>
      </trkpt>
      <trkpt lat="50.40688" lon="2.69367">
        <ele>179.37248932</ele>
        <time>2017-09-03T10:00:24Z</time>
      </trkpt>
      <trkpt lat="50.40688" lon="2.6933">
        <ele>179.37247492</ele>
        <time>2017-09-03T10:00:29Z</time>
      </trkpt>
      <trkpt lat="50.40694" lon="2.69298">
        <ele>178.37222588</ele>
        <time>2017-09-03T10:00:34Z</time>
      </trkpt>
      <trkpt lat="50.40697" lon="2.69279">
        <ele>180.37213832</ele>
        <time>2017-09-03T10:00:38Z</time>
      </trkpt>
      <trkpt lat="50.40699" lon="2.69259">
        <ele>182.37202648</ele>
        <time>2017-09-03T10:00:42Z</time>
      </trkpt>
      <trkpt lat="50.40702" lon="2.69236">
        <ele>184.37191132</ele>
        <time>2017-09-03T10:00:46Z</time>
      </trkpt>
      <trkpt lat="50.40702" lon="2.69204">
        <ele>181.371922</ele>
        <time>2017-09-03T10:00:51Z</time>
      </trkpt>
      <trkpt lat="50.40702" lon="2.69169">
        <ele>182.37191032</ele>
        <time>2017-09-03T10:00:55Z</time>
      </trkpt>
      <trkpt lat="50.40702" lon="2.69141">
        <ele>182.371912</ele>
        <time>2017-09-03T10:01:00Z</time>
      </trkpt>
      <trkpt lat="50.40705" lon="2.69124">
        <ele>180.37182076</ele>
        <time>2017-09-03T10:01:04Z</time>
      </trkpt>
      <trkpt lat="50.40714" lon="2.69101">
        <ele>183.37144972</ele>
        <time>2017-09-03T10:01:09Z</time>
      </trkpt>
      <trkpt lat="50.40727" lon="2.69074">
        <ele>184.37093788</ele>
        <time>2017-09-03T10:01:13Z</time>
      </trkpt>
      <trkpt lat="50.40738" lon="2.69052">
        <ele>182.3704872</ele>
        <time>2017-09-03T10:01:17Z</time>
      </trkpt>
      <trkpt lat="50.4075" lon="2.69031">
        <ele>180.37000216</ele>
        <time>2017-09-03T10:01:22Z</time>
      </trkpt>
      <trkpt lat="50.40757" lon="2.69011">
        <ele>179.36971644</ele>
        <time>2017-09-03T10:01:27Z</time>
      </trkpt>
      <trkpt lat="50.40765" lon="2.68986">
        <ele>177.36939488</ele>
        <time>2017-09-03T10:01:31Z</time>
      </trkpt>
      <trkpt lat="50.40778" lon="2.68977">
        <ele>181.368886</ele>
        <time>2017-09-03T10:01:35Z</time>
      </trkpt>
      <trkpt lat="50.40793" lon="2.68963">
        <ele>183.36829272</ele>
        <time>2017-09-03T10:01:40Z</time>
      </trkpt>
      <trkpt lat="50.40804" lon="2.6895">
        <ele>184.36783632</ele>
        <time>2017-09-03T10:01:44Z</time>
      </trkpt>
      <trkpt lat="50.40818" lon="2.6894">
        <ele>185.36728552</ele>
        <time>2017-09-03T10:01:49Z</time>
      </trkpt>
      <trkpt lat="50.4083" lon="2.68927">
        <ele>184.3667894</ele>
        <time>2017-09-03T10:01:53Z</time>
      </trkpt>
      <trkpt lat="50.40842" lon="2.68916">
        <ele>180.36631092</ele>
        <time>2017-09-03T10:01:57Z</time>
      </trkpt>
      <trkpt lat="50.4085" lon="2.6891">
        <ele>183.36599432</ele>
        <time>2017-09-03T10:02:01Z</time>
      </trkpt>
      <trkpt lat="50.40857" lon="2.68908">
        <ele>184.36570256</ele>
        <time>2017-09-03T10:02:06Z</time>
      </trkpt>
      <trkpt lat="50.40864" lon="2.689">
        <ele>184.36545216</ele>
        <time>2017-09-03T10:02:10Z</time>
      </trkpt>
      <trkpt lat="50.40873" lon="2.68897">
        <ele>187.36510108</ele>
        <time>2017-09-03T10:02:20Z</time>
      </trkpt>
      <trkpt lat="50.40879" lon="2.68893">
        <ele>184.36482836</ele>
        <time>2017-09-03T10:02:25Z</time>
      </trkpt>
      <trkpt lat="50.40885" lon="2.68886">
        <ele>184.36458644</ele>
        <time>2017-09-03T10:02:29Z</time>
      </trkpt>
      <trkpt lat="50.40889" lon="2.68875">
        <ele>189.36442724</ele>
        <time>2017-09-03T10:03:02Z</time>
      </trkpt>
      <trkpt lat="50.40895" lon="2.68866">
        <ele>188.36419204</ele>
        <time>2017-09-03T10:03:33Z</time>
      </trkpt>
      <trkpt lat="50.40906" lon="2.68844">
        <ele>183.36376212</ele>
        <time>2017-09-03T10:03:37Z</time>
      </trkpt>
      <trkpt lat="50.40915" lon="2.68819">
        <ele>183.3634078</ele>
        <time>2017-09-03T10:03:41Z</time>
      </trkpt>
      <trkpt lat="50.40921" lon="2.68795">
        <ele>186.36317052</ele>
        <time>2017-09-03T10:03:45Z</time>
      </trkpt>
      <trkpt lat="50.40929" lon="2.68766">
        <ele>187.36283164</ele>
        <time>2017-09-03T10:03:50Z</time>
      </trkpt>
      <trkpt lat="50.40938" lon="2.68742">
        <ele>191.36247844</ele>
        <time>2017-09-03T10:03:54Z</time>
      </trkpt>
      <trkpt lat="50.40948" lon="2.68715">
        <ele>189.3620714</ele>
        <time>2017-09-03T10:03:58Z</time>
      </trkpt>
      <trkpt lat="50.40959" lon="2.68691">
        <ele>186.36166104</ele>
        <time>2017-09-03T10:04:02Z</time>
      </trkpt>
      <trkpt lat="50.40969" lon="2.68667">
        <ele>189.36124088</ele>
        <time>2017-09-03T10:04:06Z</time>
      </trkpt>
      <trkpt lat="50.40977" lon="2.6863">
        <ele>184.36090564</ele>
        <time>2017-09-03T10:04:11Z</time>
      </trkpt>
      <trkpt lat="50.40986" lon="2.686">
        <ele>183.3605454</ele>
        <time>2017-09-03T10:04:15Z</time>
      </trkpt>
      <trkpt lat="50.41" lon="2.68566">
        <ele>178.3599838</ele>
        <time>2017-09-03T10:04:20Z</time>
      </trkpt>
      <trkpt lat="50.41012" lon="2.68543">
        <ele>178.3595352</ele>
        <time>2017-09-03T10:04:24Z</time>
      </trkpt>
      <trkpt lat="50.41021" lon="2.6851">
        <ele>183.35917572</ele>
        <time>2017-09-03T10:04:29Z</time>
      </trkpt>
      <trkpt lat="50.4103" lon="2.68483">
        <ele>185.35881228</ele>
        <time>2017-09-03T10:04:33Z</time>
      </trkpt>
      <trkpt lat="50.41045" lon="2.68452">
        <ele>185.35822044</ele>
        <time>2017-09-03T10:04:38Z</time>
      </trkpt>
      <trkpt lat="50.41054" lon="2.68433">
        <ele>185.3578582</ele>
        <time>2017-09-03T10:04:41Z</time>
      </trkpt>
      <trkpt lat="50.41061" lon="2.68407">
        <ele>190.35757296</ele>
        <time>2017-09-03T10:04:46Z</time>
      </trkpt>
      <trkpt lat="50.41071" lon="2.68384">
        <ele>191.35714716</ele>
        <time>2017-09-03T10:04:51Z</time>
      </trkpt>
      <trkpt lat="50.41079" lon="2.68349">
        <ele>183.35685236</ele>
        <time>2017-09-03T10:04:56Z</time>
      </trkpt>
      <trkpt lat="50.41089" lon="2.68326">
        <ele>182.35643468</ele>
        <time>2017-09-03T10:05:00Z</time>
      </trkpt>
      <trkpt lat="50.41097" lon="2.68308">
        <ele>182.3561328</ele>
        <time>2017-09-03T10:05:03Z</time>
      </trkpt>
      <trkpt lat="50.41109" lon="2.68282">
        <ele>182.35563804</ele>
        <time>2017-09-03T10:05:07Z</time>
      </trkpt>
      <trkpt lat="50.41121" lon="2.68263">
        <ele>182.35515788</ele>
        <time>2017-09-03T10:05:11Z</time>
      </trkpt>
      <trkpt lat="50.41135" lon="2.68232">
        <ele>180.35459668</ele>
        <time>2017-09-03T10:05:15Z</time>
      </trkpt>
      <trkpt lat="50.41147" lon="2.68212">
        <ele>184.35412452</ele>
        <time>2017-09-03T10:05:20Z</time>
      </trkpt>
      <trkpt lat="50.41159" lon="2.6819">
        <ele>184.35362808</ele>
        <time>2017-09-03T10:05:24Z</time>
      </trkpt>
      <trkpt lat="50.4117" lon="2.68162">
        <ele>184.35318484</ele>
        <time>2017-09-03T10:05:29Z</time>
      </trkpt>
      <trkpt lat="50.41182" lon="2.68145">
        <ele>183.35273896</ele>
        <time>2017-09-03T10:05:33Z</time>
      </trkpt>
      <trkpt lat="50.41199" lon="2.68119">
        <ele>183.3520436</ele>
        <time>2017-09-03T10:05:38Z</time>
      </trkpt>
      <trkpt lat="50.41212" lon="2.68104">
        <ele>189.3515094</ele>
        <time>2017-09-03T10:05:42Z</time>
      </trkpt>
      <trkpt lat="50.41228" lon="2.6808">
        <ele>193.35089724</ele>
        <time>2017-09-03T10:05:47Z</time>
      </trkpt>
      <trkpt lat="50.41245" lon="2.68051">
        <ele>189.35019848</ele>
        <time>2017-09-03T10:05:52Z</time>
      </trkpt>
      <trkpt lat="50.4126" lon="2.6803">
        <ele>188.34962068</ele>
        <time>2017-09-03T10:05:56Z</time>
      </trkpt>
      <trkpt lat="50.41271" lon="2.68009">
        <ele>186.34915652</ele>
        <time>2017-09-03T10:06:00Z</time>
      </trkpt>
      <trkpt lat="50.41286" lon="2.67977">
        <ele>184.3485786</ele>
        <time>2017-09-03T10:06:04Z</time>
      </trkpt>
      <trkpt lat="50.413" lon="2.67948">
        <ele>178.34800532</ele>
        <time>2017-09-03T10:06:08Z</time>
      </trkpt>
      <trkpt lat="50.41309" lon="2.67929">
        <ele>179.34763824</ele>
        <time>2017-09-03T10:06:12Z</time>
      </trkpt>
      <trkpt lat="50.41322" lon="2.67909">
        <ele>180.34711296</ele>
        <time>2017-09-03T10:06:16Z</time>
      </trkpt>
      <trkpt lat="50.41342" lon="2.67886">
        <ele>179.34630516</ele>
        <time>2017-09-03T10:06:21Z</time>
      </trkpt>
      <trkpt lat="50.4135" lon="2.67859">
        <ele>176.34598264</ele>
        <time>2017-09-03T10:06:25Z</time>
      </trkpt>
      <trkpt lat="50.41363" lon="2.6783">
        <ele>174.34548088</ele>
        <time>2017-09-03T10:06:29Z</time>
      </trkpt>
      <trkpt lat="50.41377" lon="2.67798">
        <ele>174.34492504</ele>
        <time>2017-09-03T10:06:34Z</time>
      </trkpt>
      <trkpt lat="50.41373" lon="2.67759">
        <ele>181.34507524</ele>
        <time>2017-09-03T10:06:39Z</time>
      </trkpt>
      <trkpt lat="50.41364" lon="2.6774">
        <ele>182.34544208</ele>
        <time>2017-09-03T10:06:42Z</time>
      </trkpt>
      <trkpt lat="50.41345" lon="2.67712">
        <ele>177.34619224</ele>
        <time>2017-09-03T10:06:47Z</time>
      </trkpt>
      <trkpt lat="50.41324" lon="2.67685">
        <ele>177.34704872</ele>
        <time>2017-09-03T10:06:52Z</time>
      </trkpt>
      <trkpt lat="50.41308" lon="2.67655">
        <ele>179.34769992</ele>
        <time>2017-09-03T10:06:57Z</time>
      </trkpt>
      <trkpt lat="50.41285" lon="2.67626">
        <ele>182.34860212</ele>
        <time>2017-09-03T10:07:01Z</time>
      </trkpt>
      <trkpt lat="50.41264" lon="2.67609">
        <ele>181.34943612</ele>
        <time>2017-09-03T10:07:05Z</time>
      </trkpt>
      <trkpt lat="50.41243" lon="2.67582">
        <ele>179.3502958</ele>
        <time>2017-09-03T10:07:10Z</time>
      </trkpt>
      <trkpt lat="50.4124" lon="2.67557">
        <ele>176.35038312</ele>
        <time>2017-09-03T10:07:14Z</time>
      </trkpt>
      <trkpt lat="50.41255" lon="2.67534">
        <ele>175.34981704</ele>
        <time>2017-09-03T10:07:19Z</time>
      </trkpt>
      <trkpt lat="50.41272" lon="2.67502">
        <ele>174.34912988</ele>
        <time>2017-09-03T10:07:24Z</time>
      </trkpt>
      <trkpt lat="50.41286" lon="2.67478">
        <ele>171.34855052</ele>
        <time>2017-09-03T10:07:28Z</time>
      </trkpt>
      <trkpt lat="50.41307" lon="2.67452">
        <ele>169.34772304</ele>
        <time>2017-09-03T10:07:33Z</time>
      </trkpt>
      <trkpt lat="50.41323" lon="2.6743">
        <ele>168.34710144</ele>
        <time>2017-09-03T10:07:37Z</time>
      </trkpt>
      <trkpt lat="50.41343" lon="2.67406">
        <ele>169.34629344</ele>
        <time>2017-09-03T10:07:42Z</time>
      </trkpt>
      <trkpt lat="50.4136" lon="2.67393">
        <ele>172.34559808</ele>
        <time>2017-09-03T10:07:46Z</time>
      </trkpt>
      <trkpt lat="50.4138" lon="2.67383">
        <ele>171.34478312</ele>
        <time>2017-09-03T10:07:50Z</time>
      </trkpt>
      <trkpt lat="50.41396" lon="2.6735">
        <ele>170.34416032</ele>
        <time>2017-09-03T10:07:55Z</time>
      </trkpt>
      <trkpt lat="50.41405" lon="2.67321">
        <ele>173.34381732</ele>
        <time>2017-09-03T10:07:59Z</time>
      </trkpt>
      <trkpt lat="50.41415" lon="2.67297">
        <ele>173.34340624</ele>
        <time>2017-09-03T10:08:02Z</time>
      </trkpt>
      <trkpt lat="50.41428" lon="2.67278">
        <ele>174.34287596</ele>
        <time>2017-09-03T10:08:07Z</time>
      </trkpt>
      <trkpt lat="50.41442" lon="2.67259">
        <ele>175.34230832</ele>
        <time>2017-09-03T10:08:11Z</time>
      </trkpt>
      <trkpt lat="50.4146" lon="2.67238">
        <ele>176.3415832</ele>
        <time>2017-09-03T10:08:16Z</time>
      </trkpt>
      <trkpt lat="50.41473" lon="2.67216">
        <ele>179.34108128</ele>
        <time>2017-09-03T10:08:20Z</time>
      </trkpt>
      <trkpt lat="50.41486" lon="2.67194">
        <ele>178.34055792</ele>
        <time>2017-09-03T10:08:24Z</time>
      </trkpt>
      <trkpt lat="50.41498" lon="2.67172">
        <ele>178.34006508</ele>
        <time>2017-09-03T10:08:28Z</time>
      </trkpt>
      <trkpt lat="50.41511" lon="2.67148">
        <ele>179.33955672</ele>
        <time>2017-09-03T10:08:32Z</time>
      </trkpt>
      <trkpt lat="50.41524" lon="2.67117">
        <ele>179.33902296</ele>
        <time>2017-09-03T10:08:36Z</time>
      </trkpt>
      <trkpt lat="50.41534" lon="2.6709">
        <ele>181.33864496</ele>
        <time>2017-09-03T10:08:40Z</time>
      </trkpt>
      <trkpt lat="50.41543" lon="2.6706">
        <ele>181.3382638</ele>
        <time>2017-09-03T10:08:45Z</time>
      </trkpt>
      <trkpt lat="50.41555" lon="2.67025">
        <ele>182.33781148</ele>
        <time>2017-09-03T10:08:50Z</time>
      </trkpt>
      <trkpt lat="50.41565" lon="2.6699">
        <ele>182.33739308</ele>
        <time>2017-09-03T10:08:55Z</time>
      </trkpt>
      <trkpt lat="50.41575" lon="2.66961">
        <ele>182.33699524</ele>
        <time>2017-09-03T10:08:59Z</time>
      </trkpt>
      <trkpt lat="50.41589" lon="2.66925">
        <ele>183.33644384</ele>
        <time>2017-09-03T10:09:04Z</time>
      </trkpt>
      <trkpt lat="50.41601" lon="2.66898">
        <ele>183.33595752</ele>
        <time>2017-09-03T10:09:08Z</time>
      </trkpt>
      <trkpt lat="50.41612" lon="2.66869">
        <ele>184.33552096</ele>
        <time>2017-09-03T10:09:12Z</time>
      </trkpt>
      <trkpt lat="50.41627" lon="2.66834">
        <ele>184.33492496</ele>
        <time>2017-09-03T10:09:16Z</time>
      </trkpt>
      <trkpt lat="50.4164" lon="2.66807">
        <ele>185.33441408</ele>
        <time>2017-09-03T10:09:21Z</time>
      </trkpt>
      <trkpt lat="50.41653" lon="2.6678">
        <ele>184.33389748</ele>
        <time>2017-09-03T10:09:25Z</time>
      </trkpt>
      <trkpt lat="50.41665" lon="2.66751">
        <ele>184.33341004</ele>
        <time>2017-09-03T10:09:29Z</time>
      </trkpt>
      <trkpt lat="50.41678" lon="2.66714">
        <ele>185.33286596</ele>
        <time>2017-09-03T10:09:34Z</time>
      </trkpt>
      <trkpt lat="50.41685" lon="2.66682">
        <ele>186.33259264</ele>
        <time>2017-09-03T10:09:38Z</time>
      </trkpt>
      <trkpt lat="50.41693" lon="2.6664">
        <ele>187.33228328</ele>
        <time>2017-09-03T10:09:43Z</time>
      </trkpt>
      <trkpt lat="50.417" lon="2.66606">
        <ele>187.33200792</ele>
        <time>2017-09-03T10:09:46Z</time>
      </trkpt>
      <trkpt lat="50.41707" lon="2.66572">
        <ele>186.33172608</ele>
        <time>2017-09-03T10:09:51Z</time>
      </trkpt>
      <trkpt lat="50.41714" lon="2.6653">
        <ele>186.33145872</ele>
        <time>2017-09-03T10:09:56Z</time>
      </trkpt>
      <trkpt lat="50.41719" lon="2.66497">
        <ele>187.33123176</ele>
        <time>2017-09-03T10:10:00Z</time>
      </trkpt>
      <trkpt lat="50.41725" lon="2.66464">
        <ele>187.33102196</ele>
        <time>2017-09-03T10:10:04Z</time>
      </trkpt>
      <trkpt lat="50.41733" lon="2.66423">
        <ele>186.33069648</ele>
        <time>2017-09-03T10:10:09Z</time>
      </trkpt>
      <trkpt lat="50.41742" lon="2.66383">
        <ele>186.33033328</ele>
        <time>2017-09-03T10:10:14Z</time>
      </trkpt>
      <trkpt lat="50.41754" lon="2.66345">
        <ele>187.32986104</ele>
        <time>2017-09-03T10:10:19Z</time>
      </trkpt>
      <trkpt lat="50.41767" lon="2.66306">
        <ele>187.32932692</ele>
        <time>2017-09-03T10:10:24Z</time>
      </trkpt>
      <trkpt lat="50.41777" lon="2.66276">
        <ele>187.32891732</ele>
        <time>2017-09-03T10:10:28Z</time>
      </trkpt>
      <trkpt lat="50.41793" lon="2.6624">
        <ele>185.32827344</ele>
        <time>2017-09-03T10:10:33Z</time>
      </trkpt>
      <trkpt lat="50.41805" lon="2.66212">
        <ele>185.3277868</ele>
        <time>2017-09-03T10:10:37Z</time>
      </trkpt>
      <trkpt lat="50.41807" lon="2.66187">
        <ele>186.32770464</ele>
        <time>2017-09-03T10:10:42Z</time>
      </trkpt>
      <trkpt lat="50.41788" lon="2.66178">
        <ele>188.32846472</ele>
        <time>2017-09-03T10:10:47Z</time>
      </trkpt>
      <trkpt lat="50.41766" lon="2.66168">
        <ele>186.32937108</ele>
        <time>2017-09-03T10:10:52Z</time>
      </trkpt>
      <trkpt lat="50.41741" lon="2.66156">
        <ele>185.33036688</ele>
        <time>2017-09-03T10:10:57Z</time>
      </trkpt>
      <trkpt lat="50.4172" lon="2.66146">
        <ele>184.3311894</ele>
        <time>2017-09-03T10:11:01Z</time>
      </trkpt>
      <trkpt lat="50.41695" lon="2.66135">
        <ele>182.33221504</ele>
        <time>2017-09-03T10:11:06Z</time>
      </trkpt>
      <trkpt lat="50.41669" lon="2.66123">
        <ele>181.33325668</ele>
        <time>2017-09-03T10:11:11Z</time>
      </trkpt>
      <trkpt lat="50.41641" lon="2.6611">
        <ele>181.33434492</ele>
        <time>2017-09-03T10:11:15Z</time>
      </trkpt>
      <trkpt lat="50.41618" lon="2.661">
        <ele>179.3352798</ele>
        <time>2017-09-03T10:11:20Z</time>
      </trkpt>
      <trkpt lat="50.41589" lon="2.66088">
        <ele>176.3364526</ele>
        <time>2017-09-03T10:11:25Z</time>
      </trkpt>
      <trkpt lat="50.41566" lon="2.66075">
        <ele>175.33736244</ele>
        <time>2017-09-03T10:11:29Z</time>
      </trkpt>
      <trkpt lat="50.41538" lon="2.66056">
        <ele>172.33846336</ele>
        <time>2017-09-03T10:11:34Z</time>
      </trkpt>
      <trkpt lat="50.41516" lon="2.66039">
        <ele>171.33936844</ele>
        <time>2017-09-03T10:11:38Z</time>
      </trkpt>
      <trkpt lat="50.41497" lon="2.66022">
        <ele>169.34012188</ele>
        <time>2017-09-03T10:11:42Z</time>
      </trkpt>
      <trkpt lat="50.41478" lon="2.66001">
        <ele>169.34089348</ele>
        <time>2017-09-03T10:11:46Z</time>
      </trkpt>
      <trkpt lat="50.41457" lon="2.65981">
        <ele>168.3417116</ele>
        <time>2017-09-03T10:11:50Z</time>
      </trkpt>
      <trkpt lat="50.41433" lon="2.65956">
        <ele>166.3426672</ele>
        <time>2017-09-03T10:11:55Z</time>
      </trkpt>
      <trkpt lat="50.41414" lon="2.65936">
        <ele>165.34342644</ele>
        <time>2017-09-03T10:11:59Z</time>
      </trkpt>
      <trkpt lat="50.41394" lon="2.65915">
        <ele>163.3442318</ele>
        <time>2017-09-03T10:12:03Z</time>
      </trkpt>
      <trkpt lat="50.41375" lon="2.65895">
        <ele>163.34501572</ele>
        <time>2017-09-03T10:12:07Z</time>
      </trkpt>
      <trkpt lat="50.41351" lon="2.65866">
        <ele>161.34595036</ele>
        <time>2017-09-03T10:12:12Z</time>
      </trkpt>
      <trkpt lat="50.41328" lon="2.65834">
        <ele>159.34687248</ele>
        <time>2017-09-03T10:12:17Z</time>
      </trkpt>
      <trkpt lat="50.41312" lon="2.65807">
        <ele>159.34750588</ele>
        <time>2017-09-03T10:12:21Z</time>
      </trkpt>
      <trkpt lat="50.41292" lon="2.6577">
        <ele>160.34831236</ele>
        <time>2017-09-03T10:12:26Z</time>
      </trkpt>
      <trkpt lat="50.41274" lon="2.65747">
        <ele>159.3490276</ele>
        <time>2017-09-03T10:12:30Z</time>
      </trkpt>
      <trkpt lat="50.41253" lon="2.65725">
        <ele>158.34986444</ele>
        <time>2017-09-03T10:12:34Z</time>
      </trkpt>
      <trkpt lat="50.41229" lon="2.65701">
        <ele>157.35085596</ele>
        <time>2017-09-03T10:12:39Z</time>
      </trkpt>
      <trkpt lat="50.41211" lon="2.65685">
        <ele>155.3515624</ele>
        <time>2017-09-03T10:12:44Z</time>
      </trkpt>
      <trkpt lat="50.412" lon="2.65676">
        <ele>154.35200072</ele>
        <time>2017-09-03T10:12:48Z</time>
      </trkpt>
      <trkpt lat="50.41188" lon="2.65665">
        <ele>153.35246264</ele>
        <time>2017-09-03T10:12:52Z</time>
      </trkpt>
      <trkpt lat="50.41179" lon="2.65654">
        <ele>153.35284936</ele>
        <time>2017-09-03T10:12:55Z</time>
      </trkpt>
      <trkpt lat="50.41162" lon="2.65635">
        <ele>152.35352204</ele>
        <time>2017-09-03T10:13:00Z</time>
      </trkpt>
      <trkpt lat="50.4114" lon="2.65615">
        <ele>151.3544148</ele>
        <time>2017-09-03T10:13:05Z</time>
      </trkpt>
      <trkpt lat="50.41122" lon="2.65599">
        <ele>152.35510292</ele>
        <time>2017-09-03T10:13:09Z</time>
      </trkpt>
      <trkpt lat="50.41105" lon="2.65584">
        <ele>150.3558064</ele>
        <time>2017-09-03T10:13:13Z</time>
      </trkpt>
      <trkpt lat="50.41084" lon="2.65565">
        <ele>148.35663868</ele>
        <time>2017-09-03T10:13:17Z</time>
      </trkpt>
      <trkpt lat="50.41069" lon="2.65549">
        <ele>148.3572534</ele>
        <time>2017-09-03T10:13:22Z</time>
      </trkpt>
      <trkpt lat="50.41049" lon="2.6552">
        <ele>147.35803672</ele>
        <time>2017-09-03T10:13:26Z</time>
      </trkpt>
      <trkpt lat="50.41035" lon="2.65496">
        <ele>147.35861628</ele>
        <time>2017-09-03T10:13:31Z</time>
      </trkpt>
      <trkpt lat="50.41022" lon="2.65474">
        <ele>147.35914056</ele>
        <time>2017-09-03T10:13:35Z</time>
      </trkpt>
      <trkpt lat="50.41006" lon="2.65444">
        <ele>146.35977152</ele>
        <time>2017-09-03T10:13:40Z</time>
      </trkpt>
      <trkpt lat="50.40992" lon="2.65412">
        <ele>146.36033164</ele>
        <time>2017-09-03T10:13:45Z</time>
      </trkpt>
      <trkpt lat="50.40981" lon="2.65387">
        <ele>146.360775</ele>
        <time>2017-09-03T10:13:49Z</time>
      </trkpt>
      <trkpt lat="50.40968" lon="2.65375">
        <ele>146.36129332</ele>
        <time>2017-09-03T10:13:53Z</time>
      </trkpt>
      <trkpt lat="50.40956" lon="2.65361">
        <ele>146.36177332</ele>
        <time>2017-09-03T10:13:57Z</time>
      </trkpt>
      <trkpt lat="50.40944" lon="2.65345">
        <ele>146.36223028</ele>
        <time>2017-09-03T10:14:01Z</time>
      </trkpt>
      <trkpt lat="50.40934" lon="2.65326">
        <ele>146.3626312</ele>
        <time>2017-09-03T10:14:05Z</time>
      </trkpt>
      <trkpt lat="50.40921" lon="2.65308">
        <ele>146.36315632</ele>
        <time>2017-09-03T10:14:10Z</time>
      </trkpt>
      <trkpt lat="50.40909" lon="2.65295">
        <ele>147.36362972</ele>
        <time>2017-09-03T10:14:14Z</time>
      </trkpt>
      <trkpt lat="50.40885" lon="2.65274">
        <ele>146.36461136</ele>
        <time>2017-09-03T10:14:18Z</time>
      </trkpt>
      <trkpt lat="50.40866" lon="2.65258">
        <ele>145.36535864</ele>
        <time>2017-09-03T10:14:23Z</time>
      </trkpt>
      <trkpt lat="50.40849" lon="2.65233">
        <ele>145.36604732</ele>
        <time>2017-09-03T10:14:27Z</time>
      </trkpt>
      <trkpt lat="50.40835" lon="2.65215">
        <ele>146.36659648</ele>
        <time>2017-09-03T10:14:32Z</time>
      </trkpt>
      <trkpt lat="50.40817" lon="2.65193">
        <ele>147.36732996</ele>
        <time>2017-09-03T10:14:37Z</time>
      </trkpt>
      <trkpt lat="50.40797" lon="2.65171">
        <ele>148.36813832</ele>
        <time>2017-09-03T10:14:41Z</time>
      </trkpt>
      <trkpt lat="50.40779" lon="2.65156">
        <ele>148.3688436</ele>
        <time>2017-09-03T10:14:46Z</time>
      </trkpt>
      <trkpt lat="50.40761" lon="2.65143">
        <ele>149.36954892</ele>
        <time>2017-09-03T10:14:50Z</time>
      </trkpt>
      <trkpt lat="50.40743" lon="2.65133">
        <ele>150.3702808</ele>
        <time>2017-09-03T10:14:54Z</time>
      </trkpt>
      <trkpt lat="50.40725" lon="2.65121">
        <ele>151.37099848</ele>
        <time>2017-09-03T10:14:58Z</time>
      </trkpt>
      <trkpt lat="50.40709" lon="2.65103">
        <ele>152.37164608</ele>
        <time>2017-09-03T10:15:02Z</time>
      </trkpt>
      <trkpt lat="50.40699" lon="2.65087">
        <ele>152.37204756</ele>
        <time>2017-09-03T10:15:05Z</time>
      </trkpt>
      <trkpt lat="50.40681" lon="2.6506">
        <ele>153.37274776</ele>
        <time>2017-09-03T10:15:10Z</time>
      </trkpt>
      <trkpt lat="50.40663" lon="2.65037">
        <ele>154.37347048</ele>
        <time>2017-09-03T10:15:14Z</time>
      </trkpt>
      <trkpt lat="50.40647" lon="2.65022">
        <ele>154.3741102</ele>
        <time>2017-09-03T10:15:18Z</time>
      </trkpt>
      <trkpt lat="50.40633" lon="2.65007">
        <ele>156.37470132</ele>
        <time>2017-09-03T10:15:22Z</time>
      </trkpt>
      <trkpt lat="50.40618" lon="2.64993">
        <ele>155.37526872</ele>
        <time>2017-09-03T10:15:27Z</time>
      </trkpt>
      <trkpt lat="50.40603" lon="2.6498">
        <ele>156.3758908</ele>
        <time>2017-09-03T10:15:32Z</time>
      </trkpt>
      <trkpt lat="50.40585" lon="2.64965">
        <ele>157.37661084</ele>
        <time>2017-09-03T10:15:37Z</time>
      </trkpt>
      <trkpt lat="50.4057" lon="2.64955">
        <ele>155.37720356</ele>
        <time>2017-09-03T10:15:41Z</time>
      </trkpt>
      <trkpt lat="50.40554" lon="2.64949">
        <ele>155.37784888</ele>
        <time>2017-09-03T10:15:45Z</time>
      </trkpt>
      <trkpt lat="50.40533" lon="2.64947">
        <ele>153.3786884</ele>
        <time>2017-09-03T10:15:50Z</time>
      </trkpt>
      <trkpt lat="50.40517" lon="2.64944">
        <ele>153.379335</ele>
        <time>2017-09-03T10:15:54Z</time>
      </trkpt>
      <trkpt lat="50.40495" lon="2.64944">
        <ele>153.38021524</ele>
        <time>2017-09-03T10:15:59Z</time>
      </trkpt>
      <trkpt lat="50.40479" lon="2.64942">
        <ele>154.38082916</ele>
        <time>2017-09-03T10:16:03Z</time>
      </trkpt>
      <trkpt lat="50.40481" lon="2.64911">
        <ele>154.38077048</ele>
        <time>2017-09-03T10:16:08Z</time>
      </trkpt>
      <trkpt lat="50.40483" lon="2.64881">
        <ele>156.38069448</ele>
        <time>2017-09-03T10:16:12Z</time>
      </trkpt>
      <trkpt lat="50.40484" lon="2.64852">
        <ele>157.38064324</ele>
        <time>2017-09-03T10:16:16Z</time>
      </trkpt>
      <trkpt lat="50.40487" lon="2.64822">
        <ele>158.3805354</ele>
        <time>2017-09-03T10:16:20Z</time>
      </trkpt>
      <trkpt lat="50.40495" lon="2.64796">
        <ele>158.38020012</ele>
        <time>2017-09-03T10:16:24Z</time>
      </trkpt>
      <trkpt lat="50.40507" lon="2.64766">
        <ele>158.37972448</ele>
        <time>2017-09-03T10:16:29Z</time>
      </trkpt>
      <trkpt lat="50.40517" lon="2.6474">
        <ele>157.37933996</ele>
        <time>2017-09-03T10:16:33Z</time>
      </trkpt>
      <trkpt lat="50.40527" lon="2.64713">
        <ele>158.37893824</ele>
        <time>2017-09-03T10:16:37Z</time>
      </trkpt>
      <trkpt lat="50.40536" lon="2.64684">
        <ele>158.37855292</ele>
        <time>2017-09-03T10:16:41Z</time>
      </trkpt>
      <trkpt lat="50.40548" lon="2.64654">
        <ele>159.37810096</ele>
        <time>2017-09-03T10:16:45Z</time>
      </trkpt>
      <trkpt lat="50.4056" lon="2.64623">
        <ele>159.37760868</ele>
        <time>2017-09-03T10:16:49Z</time>
      </trkpt>
      <trkpt lat="50.40574" lon="2.64585">
        <ele>158.37704616</ele>
        <time>2017-09-03T10:16:54Z</time>
      </trkpt>
      <trkpt lat="50.40589" lon="2.6455">
        <ele>160.37643508</ele>
        <time>2017-09-03T10:16:59Z</time>
      </trkpt>
      <trkpt lat="50.40601" lon="2.64522">
        <ele>160.37597764</ele>
        <time>2017-09-03T10:17:03Z</time>
      </trkpt>
      <trkpt lat="50.40618" lon="2.64501">
        <ele>159.3752974</ele>
        <time>2017-09-03T10:17:07Z</time>
      </trkpt>
      <trkpt lat="50.40638" lon="2.64484">
        <ele>157.37448684</ele>
        <time>2017-09-03T10:17:11Z</time>
      </trkpt>
      <trkpt lat="50.40659" lon="2.64467">
        <ele>158.37364148</ele>
        <time>2017-09-03T10:17:15Z</time>
      </trkpt>
      <trkpt lat="50.40685" lon="2.64445">
        <ele>159.37261828</ele>
        <time>2017-09-03T10:17:19Z</time>
      </trkpt>
      <trkpt lat="50.40712" lon="2.64424">
        <ele>158.37152348</ele>
        <time>2017-09-03T10:17:24Z</time>
      </trkpt>
      <trkpt lat="50.40735" lon="2.6441">
        <ele>157.37059928</ele>
        <time>2017-09-03T10:17:29Z</time>
      </trkpt>
      <trkpt lat="50.40763" lon="2.64392">
        <ele>157.36947728</ele>
        <time>2017-09-03T10:17:34Z</time>
      </trkpt>
      <trkpt lat="50.40785" lon="2.64376">
        <ele>157.3686144</ele>
        <time>2017-09-03T10:17:38Z</time>
      </trkpt>
      <trkpt lat="50.40808" lon="2.64362">
        <ele>157.3676918</ele>
        <time>2017-09-03T10:17:42Z</time>
      </trkpt>
      <trkpt lat="50.40836" lon="2.64343">
        <ele>156.36654396</ele>
        <time>2017-09-03T10:17:47Z</time>
      </trkpt>
      <trkpt lat="50.40867" lon="2.64333">
        <ele>155.3653174</ele>
        <time>2017-09-03T10:17:52Z</time>
      </trkpt>
      <trkpt lat="50.40894" lon="2.6434">
        <ele>155.3642524</ele>
        <time>2017-09-03T10:17:56Z</time>
      </trkpt>
      <trkpt lat="50.40927" lon="2.64346">
        <ele>154.36290956</ele>
        <time>2017-09-03T10:18:01Z</time>
      </trkpt>
      <trkpt lat="50.40957" lon="2.64354">
        <ele>156.3617102</ele>
        <time>2017-09-03T10:18:06Z</time>
      </trkpt>
      <trkpt lat="50.40973" lon="2.64322">
        <ele>156.3610868</ele>
        <time>2017-09-03T10:18:10Z</time>
      </trkpt>
      <trkpt lat="50.40984" lon="2.64279">
        <ele>157.36063196</ele>
        <time>2017-09-03T10:18:14Z</time>
      </trkpt>
      <trkpt lat="50.40995" lon="2.64248">
        <ele>158.36022196</ele>
        <time>2017-09-03T10:18:19Z</time>
      </trkpt>
      <trkpt lat="50.41015" lon="2.64238">
        <ele>160.35940592</ele>
        <time>2017-09-03T10:18:24Z</time>
      </trkpt>
      <trkpt lat="50.41046" lon="2.64238">
        <ele>158.35817512</ele>
        <time>2017-09-03T10:18:28Z</time>
      </trkpt>
      <trkpt lat="50.41073" lon="2.64244">
        <ele>156.35709776</ele>
        <time>2017-09-03T10:18:33Z</time>
      </trkpt>
      <trkpt lat="50.41106" lon="2.6426">
        <ele>154.35575908</ele>
        <time>2017-09-03T10:18:38Z</time>
      </trkpt>
      <trkpt lat="50.4113" lon="2.64276">
        <ele>154.35478456</ele>
        <time>2017-09-03T10:18:42Z</time>
      </trkpt>
      <trkpt lat="50.41154" lon="2.64294">
        <ele>156.35383644</ele>
        <time>2017-09-03T10:18:46Z</time>
      </trkpt>
      <trkpt lat="50.41184" lon="2.64316">
        <ele>156.35263956</ele>
        <time>2017-09-03T10:18:50Z</time>
      </trkpt>
      <trkpt lat="50.41216" lon="2.64335">
        <ele>156.3513688</ele>
        <time>2017-09-03T10:18:55Z</time>
      </trkpt>
      <trkpt lat="50.41241" lon="2.64349">
        <ele>156.3503524</ele>
        <time>2017-09-03T10:18:59Z</time>
      </trkpt>
      <trkpt lat="50.41275" lon="2.64361">
        <ele>153.34900016</ele>
        <time>2017-09-03T10:19:04Z</time>
      </trkpt>
      <trkpt lat="50.41304" lon="2.64357">
        <ele>154.3478476</ele>
        <time>2017-09-03T10:19:08Z</time>
      </trkpt>
      <trkpt lat="50.41339" lon="2.64339">
        <ele>154.34642984</ele>
        <time>2017-09-03T10:19:13Z</time>
      </trkpt>
      <trkpt lat="50.41377" lon="2.64317">
        <ele>154.3449354</ele>
        <time>2017-09-03T10:19:18Z</time>
      </trkpt>
      <trkpt lat="50.41407" lon="2.64301">
        <ele>154.34372924</ele>
        <time>2017-09-03T10:19:22Z</time>
      </trkpt>
      <trkpt lat="50.41437" lon="2.64288">
        <ele>154.34253992</ele>
        <time>2017-09-03T10:19:26Z</time>
      </trkpt>
      <trkpt lat="50.41467" lon="2.64279">
        <ele>154.3413082</ele>
        <time>2017-09-03T10:19:30Z</time>
      </trkpt>
      <trkpt lat="50.41505" lon="2.64276">
        <ele>155.33981892</ele>
        <time>2017-09-03T10:19:35Z</time>
      </trkpt>
      <trkpt lat="50.41533" lon="2.64282">
        <ele>156.33866792</ele>
        <time>2017-09-03T10:19:39Z</time>
      </trkpt>
      <trkpt lat="50.41567" lon="2.64291">
        <ele>156.33730508</ele>
        <time>2017-09-03T10:19:44Z</time>
      </trkpt>
      <trkpt lat="50.41596" lon="2.64298">
        <ele>157.33617512</ele>
        <time>2017-09-03T10:19:48Z</time>
      </trkpt>
      <trkpt lat="50.41602" lon="2.64299">
        <ele>157.33590576</ele>
        <time>2017-09-03T10:19:49Z</time>
      </trkpt>
      <trkpt lat="50.41616" lon="2.64301">
        <ele>158.33538004</ele>
        <time>2017-09-03T10:19:54Z</time>
      </trkpt>
      <trkpt lat="50.41659" lon="2.64305">
        <ele>159.33364216</ele>
        <time>2017-09-03T10:19:59Z</time>
      </trkpt>
      <trkpt lat="50.41682" lon="2.64305">
        <ele>160.33272848</ele>
        <time>2017-09-03T10:20:03Z</time>
      </trkpt>
      <trkpt lat="50.41693" lon="2.64305">
        <ele>161.3322748</ele>
        <time>2017-09-03T10:20:08Z</time>
      </trkpt>
      <trkpt lat="50.41701" lon="2.64306">
        <ele>160.33196608</ele>
        <time>2017-09-03T10:20:11Z</time>
      </trkpt>
      <trkpt lat="50.41723" lon="2.64312">
        <ele>165.33110108</ele>
        <time>2017-09-03T10:20:16Z</time>
      </trkpt>
      <trkpt lat="50.41743" lon="2.64316">
        <ele>162.3302842</ele>
        <time>2017-09-03T10:20:20Z</time>
      </trkpt>
      <trkpt lat="50.41764" lon="2.64323">
        <ele>165.32942516</ele>
        <time>2017-09-03T10:20:25Z</time>
      </trkpt>
      <trkpt lat="50.41786" lon="2.64332">
        <ele>162.3285818</ele>
        <time>2017-09-03T10:20:29Z</time>
      </trkpt>
      <trkpt lat="50.41805" lon="2.6434">
        <ele>164.3277842</ele>
        <time>2017-09-03T10:20:33Z</time>
      </trkpt>
      <trkpt lat="50.41825" lon="2.64351">
        <ele>164.32700768</ele>
        <time>2017-09-03T10:20:37Z</time>
      </trkpt>
      <trkpt lat="50.41843" lon="2.64362">
        <ele>164.32628344</ele>
        <time>2017-09-03T10:20:41Z</time>
      </trkpt>
      <trkpt lat="50.41866" lon="2.64374">
        <ele>162.32537144</ele>
        <time>2017-09-03T10:20:46Z</time>
      </trkpt>
      <trkpt lat="50.41883" lon="2.64387">
        <ele>161.32467352</ele>
        <time>2017-09-03T10:20:50Z</time>
      </trkpt>
      <trkpt lat="50.41903" lon="2.64407">
        <ele>164.32389996</ele>
        <time>2017-09-03T10:20:55Z</time>
      </trkpt>
      <trkpt lat="50.41919" lon="2.64421">
        <ele>164.32324132</ele>
        <time>2017-09-03T10:20:59Z</time>
      </trkpt>
      <trkpt lat="50.4194" lon="2.64435">
        <ele>165.32239728</ele>
        <time>2017-09-03T10:21:04Z</time>
      </trkpt>
      <trkpt lat="50.41957" lon="2.64444">
        <ele>166.32172184</ele>
        <time>2017-09-03T10:21:08Z</time>
      </trkpt>
      <trkpt lat="50.4198" lon="2.64453">
        <ele>166.32078408</ele>
        <time>2017-09-03T10:21:12Z</time>
      </trkpt>
      <trkpt lat="50.41999" lon="2.64461">
        <ele>166.320026</ele>
        <time>2017-09-03T10:21:17Z</time>
      </trkpt>
      <trkpt lat="50.42024" lon="2.6447">
        <ele>167.31906036</ele>
        <time>2017-09-03T10:21:21Z</time>
      </trkpt>
      <trkpt lat="50.42043" lon="2.64477">
        <ele>167.31829716</ele>
        <time>2017-09-03T10:21:26Z</time>
      </trkpt>
      <trkpt lat="50.42061" lon="2.64483">
        <ele>169.3175444</ele>
        <time>2017-09-03T10:21:30Z</time>
      </trkpt>
      <trkpt lat="50.42085" lon="2.6449">
        <ele>169.3166212</ele>
        <time>2017-09-03T10:21:35Z</time>
      </trkpt>
      <trkpt lat="50.42102" lon="2.64497">
        <ele>170.31593268</ele>
        <time>2017-09-03T10:21:39Z</time>
      </trkpt>
      <trkpt lat="50.42118" lon="2.64507">
        <ele>172.31529752</ele>
        <time>2017-09-03T10:21:43Z</time>
      </trkpt>
      <trkpt lat="50.42136" lon="2.6452">
        <ele>172.31454588</ele>
        <time>2017-09-03T10:21:48Z</time>
      </trkpt>
      <trkpt lat="50.42155" lon="2.64534">
        <ele>173.31378212</ele>
        <time>2017-09-03T10:21:53Z</time>
      </trkpt>
      <trkpt lat="50.42174" lon="2.64548">
        <ele>173.31305604</ele>
        <time>2017-09-03T10:21:58Z</time>
      </trkpt>
      <trkpt lat="50.42187" lon="2.64556">
        <ele>173.31251972</ele>
        <time>2017-09-03T10:22:02Z</time>
      </trkpt>
      <trkpt lat="50.42205" lon="2.64567">
        <ele>173.31178728</ele>
        <time>2017-09-03T10:22:07Z</time>
      </trkpt>
      <trkpt lat="50.42223" lon="2.64578">
        <ele>174.31107248</ele>
        <time>2017-09-03T10:22:12Z</time>
      </trkpt>
      <trkpt lat="50.42241" lon="2.64588">
        <ele>174.31035772</ele>
        <time>2017-09-03T10:22:17Z</time>
      </trkpt>
      <trkpt lat="50.42257" lon="2.64598">
        <ele>174.30973188</ele>
        <time>2017-09-03T10:22:21Z</time>
      </trkpt>
      <trkpt lat="50.42272" lon="2.64607">
        <ele>175.30910264</ele>
        <time>2017-09-03T10:22:25Z</time>
      </trkpt>
      <trkpt lat="50.42293" lon="2.64618">
        <ele>174.30829424</ele>
        <time>2017-09-03T10:22:30Z</time>
      </trkpt>
      <trkpt lat="50.4231" lon="2.64627">
        <ele>174.30761924</ele>
        <time>2017-09-03T10:22:34Z</time>
      </trkpt>
      <trkpt lat="50.42326" lon="2.64637">
        <ele>173.30696776</ele>
        <time>2017-09-03T10:22:38Z</time>
      </trkpt>
      <trkpt lat="50.42344" lon="2.64638">
        <ele>174.30622944</ele>
        <time>2017-09-03T10:22:43Z</time>
      </trkpt>
      <trkpt lat="50.42352" lon="2.6462">
        <ele>175.30593752</ele>
        <time>2017-09-03T10:22:47Z</time>
      </trkpt>
      <trkpt lat="50.42358" lon="2.64601">
        <ele>175.30570024</ele>
        <time>2017-09-03T10:22:51Z</time>
      </trkpt>
      <trkpt lat="50.42365" lon="2.64578">
        <ele>176.30539116</ele>
        <time>2017-09-03T10:22:55Z</time>
      </trkpt>
      <trkpt lat="50.42376" lon="2.64549">
        <ele>176.30496136</ele>
        <time>2017-09-03T10:23:00Z</time>
      </trkpt>
      <trkpt lat="50.42385" lon="2.64517">
        <ele>177.30460796</ele>
        <time>2017-09-03T10:23:05Z</time>
      </trkpt>
      <trkpt lat="50.42392" lon="2.64493">
        <ele>177.30431208</ele>
        <time>2017-09-03T10:23:09Z</time>
      </trkpt>
      <trkpt lat="50.42397" lon="2.64475">
        <ele>177.3041322</ele>
        <time>2017-09-03T10:23:14Z</time>
      </trkpt>
      <trkpt lat="50.42404" lon="2.64459">
        <ele>177.30383672</ele>
        <time>2017-09-03T10:23:18Z</time>
      </trkpt>
      <trkpt lat="50.42412" lon="2.64428">
        <ele>177.3035208</ele>
        <time>2017-09-03T10:23:22Z</time>
      </trkpt>
      <trkpt lat="50.42419" lon="2.64403">
        <ele>177.30322776</ele>
        <time>2017-09-03T10:23:27Z</time>
      </trkpt>
      <trkpt lat="50.42427" lon="2.64379">
        <ele>177.3029248</ele>
        <time>2017-09-03T10:23:31Z</time>
      </trkpt>
      <trkpt lat="50.42435" lon="2.64353">
        <ele>177.30259808</ele>
        <time>2017-09-03T10:23:35Z</time>
      </trkpt>
      <trkpt lat="50.42444" lon="2.6432">
        <ele>177.30222544</ele>
        <time>2017-09-03T10:23:39Z</time>
      </trkpt>
      <trkpt lat="50.42451" lon="2.64292">
        <ele>177.30196924</ele>
        <time>2017-09-03T10:23:44Z</time>
      </trkpt>
      <trkpt lat="50.42465" lon="2.64259">
        <ele>176.30140652</ele>
        <time>2017-09-03T10:23:49Z</time>
      </trkpt>
      <trkpt lat="50.42479" lon="2.64233">
        <ele>176.30082808</ele>
        <time>2017-09-03T10:23:54Z</time>
      </trkpt>
      <trkpt lat="50.42482" lon="2.64212">
        <ele>177.3007336</ele>
        <time>2017-09-03T10:23:58Z</time>
      </trkpt>
      <trkpt lat="50.42466" lon="2.64193">
        <ele>177.30136852</ele>
        <time>2017-09-03T10:24:03Z</time>
      </trkpt>
      <trkpt lat="50.4245" lon="2.64181">
        <ele>177.30199572</ele>
        <time>2017-09-03T10:24:07Z</time>
      </trkpt>
      <trkpt lat="50.4244" lon="2.64159">
        <ele>178.30240944</ele>
        <time>2017-09-03T10:24:11Z</time>
      </trkpt>
      <trkpt lat="50.42433" lon="2.64125">
        <ele>179.30267604</ele>
        <time>2017-09-03T10:24:16Z</time>
      </trkpt>
      <trkpt lat="50.42425" lon="2.64099">
        <ele>179.30298588</ele>
        <time>2017-09-03T10:24:20Z</time>
      </trkpt>
      <trkpt lat="50.42418" lon="2.64071">
        <ele>178.30329964</ele>
        <time>2017-09-03T10:24:24Z</time>
      </trkpt>
      <trkpt lat="50.42409" lon="2.64035">
        <ele>179.30365036</ele>
        <time>2017-09-03T10:24:29Z</time>
      </trkpt>
      <trkpt lat="50.42404" lon="2.64012">
        <ele>178.30385716</ele>
        <time>2017-09-03T10:24:33Z</time>
      </trkpt>
      <trkpt lat="50.42396" lon="2.63986">
        <ele>178.30415024</ele>
        <time>2017-09-03T10:24:37Z</time>
      </trkpt>
      <trkpt lat="50.42388" lon="2.63952">
        <ele>178.3044846</ele>
        <time>2017-09-03T10:24:41Z</time>
      </trkpt>
      <trkpt lat="50.4238" lon="2.63925">
        <ele>178.30479504</ele>
        <time>2017-09-03T10:24:45Z</time>
      </trkpt>
      <trkpt lat="50.42373" lon="2.63897">
        <ele>177.3050628</ele>
        <time>2017-09-03T10:24:50Z</time>
      </trkpt>
      <trkpt lat="50.42366" lon="2.6387">
        <ele>177.3053736</ele>
        <time>2017-09-03T10:24:54Z</time>
      </trkpt>
      <trkpt lat="50.42357" lon="2.63835">
        <ele>177.305726</ele>
        <time>2017-09-03T10:24:59Z</time>
      </trkpt>
      <trkpt lat="50.4235" lon="2.63806">
        <ele>177.30599216</ele>
        <time>2017-09-03T10:25:03Z</time>
      </trkpt>
      <trkpt lat="50.42349" lon="2.63772">
        <ele>176.3060394</ele>
        <time>2017-09-03T10:25:07Z</time>
      </trkpt>
      <trkpt lat="50.42347" lon="2.63728">
        <ele>175.30610372</ele>
        <time>2017-09-03T10:25:11Z</time>
      </trkpt>
      <trkpt lat="50.42344" lon="2.63695">
        <ele>175.30624756</ele>
        <time>2017-09-03T10:25:16Z</time>
      </trkpt>
      <trkpt lat="50.42334" lon="2.63655">
        <ele>174.30662672</ele>
        <time>2017-09-03T10:25:20Z</time>
      </trkpt>
      <trkpt lat="50.42325" lon="2.63624">
        <ele>174.306988</ele>
        <time>2017-09-03T10:25:25Z</time>
      </trkpt>
      <trkpt lat="50.42317" lon="2.63591">
        <ele>173.3073266</ele>
        <time>2017-09-03T10:25:29Z</time>
      </trkpt>
      <trkpt lat="50.4231" lon="2.6356">
        <ele>173.30758652</ele>
        <time>2017-09-03T10:25:33Z</time>
      </trkpt>
      <trkpt lat="50.42307" lon="2.63526">
        <ele>173.30771972</ele>
        <time>2017-09-03T10:25:37Z</time>
      </trkpt>
      <trkpt lat="50.42307" lon="2.63482">
        <ele>172.30772216</ele>
        <time>2017-09-03T10:25:42Z</time>
      </trkpt>
      <trkpt lat="50.42312" lon="2.6344">
        <ele>171.3075314</ele>
        <time>2017-09-03T10:25:47Z</time>
      </trkpt>
      <trkpt lat="50.42316" lon="2.63406">
        <ele>170.30734916</ele>
        <time>2017-09-03T10:25:51Z</time>
      </trkpt>
      <trkpt lat="50.4232" lon="2.63375">
        <ele>170.30722024</ele>
        <time>2017-09-03T10:25:56Z</time>
      </trkpt>
      <trkpt lat="50.4233" lon="2.63369">
        <ele>169.3068066</ele>
        <time>2017-09-03T10:26:00Z</time>
      </trkpt>
      <trkpt lat="50.4235" lon="2.63365">
        <ele>169.306</ele>
        <time>2017-09-03T10:26:04Z</time>
      </trkpt>
      <trkpt lat="50.42377" lon="2.63363">
        <ele>169.30491956</ele>
        <time>2017-09-03T10:26:08Z</time>
      </trkpt>
      <trkpt lat="50.42402" lon="2.63363">
        <ele>168.30391684</ele>
        <time>2017-09-03T10:26:12Z</time>
      </trkpt>
      <trkpt lat="50.42427" lon="2.63367">
        <ele>168.30291344</ele>
        <time>2017-09-03T10:26:16Z</time>
      </trkpt>
      <trkpt lat="50.42457" lon="2.63374">
        <ele>169.30174076</ele>
        <time>2017-09-03T10:26:20Z</time>
      </trkpt>
      <trkpt lat="50.42481" lon="2.63378">
        <ele>169.3007668</ele>
        <time>2017-09-03T10:26:25Z</time>
      </trkpt>
      <trkpt lat="50.4251" lon="2.63385">
        <ele>169.299613</ele>
        <time>2017-09-03T10:26:30Z</time>
      </trkpt>
      <trkpt lat="50.42531" lon="2.63388">
        <ele>168.29876836</ele>
        <time>2017-09-03T10:26:34Z</time>
      </trkpt>
      <trkpt lat="50.42551" lon="2.63391">
        <ele>168.2979734</ele>
        <time>2017-09-03T10:26:38Z</time>
      </trkpt>
      <trkpt lat="50.42573" lon="2.63395">
        <ele>168.29707408</ele>
        <time>2017-09-03T10:26:43Z</time>
      </trkpt>
      <trkpt lat="50.42586" lon="2.63374">
        <ele>169.2965676</ele>
        <time>2017-09-03T10:26:48Z</time>
      </trkpt>
      <trkpt lat="50.42592" lon="2.63344">
        <ele>169.29632532</ele>
        <time>2017-09-03T10:26:52Z</time>
      </trkpt>
      <trkpt lat="50.42598" lon="2.63312">
        <ele>170.29607348</ele>
        <time>2017-09-03T10:26:56Z</time>
      </trkpt>
      <trkpt lat="50.42606" lon="2.63283">
        <ele>170.29574668</ele>
        <time>2017-09-03T10:27:00Z</time>
      </trkpt>
      <trkpt lat="50.42614" lon="2.6325">
        <ele>170.29545496</ele>
        <time>2017-09-03T10:27:04Z</time>
      </trkpt>
      <trkpt lat="50.42618" lon="2.63219">
        <ele>170.29527936</ele>
        <time>2017-09-03T10:27:09Z</time>
      </trkpt>
      <trkpt lat="50.42619" lon="2.63202">
        <ele>170.29523104</ele>
        <time>2017-09-03T10:27:13Z</time>
      </trkpt>
      <trkpt lat="50.42619" lon="2.63172">
        <ele>171.29526128</ele>
        <time>2017-09-03T10:27:18Z</time>
      </trkpt>
      <trkpt lat="50.42616" lon="2.63134">
        <ele>173.29537184</ele>
        <time>2017-09-03T10:27:22Z</time>
      </trkpt>
      <trkpt lat="50.42617" lon="2.63105">
        <ele>173.29531356</ele>
        <time>2017-09-03T10:27:27Z</time>
      </trkpt>
      <trkpt lat="50.42619" lon="2.63066">
        <ele>173.29525368</ele>
        <time>2017-09-03T10:27:32Z</time>
      </trkpt>
      <trkpt lat="50.4262" lon="2.63036">
        <ele>173.29522124</ele>
        <time>2017-09-03T10:27:36Z</time>
      </trkpt>
      <trkpt lat="50.42623" lon="2.62996">
        <ele>173.29507032</ele>
        <time>2017-09-03T10:27:41Z</time>
      </trkpt>
      <trkpt lat="50.42627" lon="2.62965">
        <ele>174.29493148</ele>
        <time>2017-09-03T10:27:45Z</time>
      </trkpt>
      <trkpt lat="50.42629" lon="2.62936">
        <ele>174.2948372</ele>
        <time>2017-09-03T10:27:49Z</time>
      </trkpt>
      <trkpt lat="50.4263" lon="2.62905">
        <ele>174.29480104</ele>
        <time>2017-09-03T10:27:53Z</time>
      </trkpt>
      <trkpt lat="50.42635" lon="2.62874">
        <ele>175.29460232</ele>
        <time>2017-09-03T10:27:57Z</time>
      </trkpt>
      <trkpt lat="50.42637" lon="2.6285">
        <ele>175.29453032</ele>
        <time>2017-09-03T10:28:00Z</time>
      </trkpt>
      <trkpt lat="50.42641" lon="2.62809">
        <ele>175.29438104</ele>
        <time>2017-09-03T10:28:05Z</time>
      </trkpt>
      <trkpt lat="50.42644" lon="2.62777">
        <ele>175.29423348</ele>
        <time>2017-09-03T10:28:09Z</time>
      </trkpt>
      <trkpt lat="50.42647" lon="2.62747">
        <ele>173.2941062</ele>
        <time>2017-09-03T10:28:13Z</time>
      </trkpt>
      <trkpt lat="50.42654" lon="2.62709">
        <ele>173.29382764</ele>
        <time>2017-09-03T10:28:18Z</time>
      </trkpt>
      <trkpt lat="50.4266" lon="2.6268">
        <ele>173.29360976</ele>
        <time>2017-09-03T10:28:22Z</time>
      </trkpt>
      <trkpt lat="50.42664" lon="2.62641">
        <ele>174.29342412</ele>
        <time>2017-09-03T10:28:27Z</time>
      </trkpt>
      <trkpt lat="50.42667" lon="2.62611">
        <ele>173.29330616</ele>
        <time>2017-09-03T10:28:31Z</time>
      </trkpt>
      <trkpt lat="50.42669" lon="2.62583">
        <ele>174.29325016</ele>
        <time>2017-09-03T10:28:35Z</time>
      </trkpt>
      <trkpt lat="50.4267" lon="2.62548">
        <ele>174.2931964</ele>
        <time>2017-09-03T10:28:40Z</time>
      </trkpt>
      <trkpt lat="50.42672" lon="2.62517">
        <ele>174.29314008</ele>
        <time>2017-09-03T10:28:44Z</time>
      </trkpt>
      <trkpt lat="50.42674" lon="2.62484">
        <ele>174.29303192</ele>
        <time>2017-09-03T10:28:48Z</time>
      </trkpt>
      <trkpt lat="50.42679" lon="2.62442">
        <ele>173.29283756</ele>
        <time>2017-09-03T10:28:53Z</time>
      </trkpt>
      <trkpt lat="50.42684" lon="2.62409">
        <ele>173.29264184</ele>
        <time>2017-09-03T10:28:57Z</time>
      </trkpt>
      <trkpt lat="50.42694" lon="2.6238">
        <ele>173.29223092</ele>
        <time>2017-09-03T10:29:01Z</time>
      </trkpt>
      <trkpt lat="50.42706" lon="2.62343">
        <ele>173.2917682</ele>
        <time>2017-09-03T10:29:06Z</time>
      </trkpt>
      <trkpt lat="50.42718" lon="2.62307">
        <ele>174.29128496</ele>
        <time>2017-09-03T10:29:11Z</time>
      </trkpt>
      <trkpt lat="50.42728" lon="2.6227">
        <ele>174.29087404</ele>
        <time>2017-09-03T10:29:16Z</time>
      </trkpt>
      <trkpt lat="50.42741" lon="2.62237">
        <ele>176.29034948</ele>
        <time>2017-09-03T10:29:21Z</time>
      </trkpt>
      <trkpt lat="50.42753" lon="2.62201">
        <ele>175.2898998</ele>
        <time>2017-09-03T10:29:26Z</time>
      </trkpt>
      <trkpt lat="50.42765" lon="2.62166">
        <ele>175.28939716</ele>
        <time>2017-09-03T10:29:30Z</time>
      </trkpt>
      <trkpt lat="50.42779" lon="2.62135">
        <ele>175.28885908</ele>
        <time>2017-09-03T10:29:35Z</time>
      </trkpt>
      <trkpt lat="50.42776" lon="2.62122">
        <ele>176.288966</ele>
        <time>2017-09-03T10:29:40Z</time>
      </trkpt>
      <trkpt lat="50.42759" lon="2.62106">
        <ele>177.28962236</ele>
        <time>2017-09-03T10:29:44Z</time>
      </trkpt>
      <trkpt lat="50.42745" lon="2.62091">
        <ele>176.29019336</ele>
        <time>2017-09-03T10:29:49Z</time>
      </trkpt>
      <trkpt lat="50.42726" lon="2.62071">
        <ele>174.29096488</ele>
        <time>2017-09-03T10:29:54Z</time>
      </trkpt>
      <trkpt lat="50.42711" lon="2.62056">
        <ele>174.2915794</ele>
        <time>2017-09-03T10:29:58Z</time>
      </trkpt>
      <trkpt lat="50.42696" lon="2.6204">
        <ele>173.29216656</ele>
        <time>2017-09-03T10:30:02Z</time>
      </trkpt>
      <trkpt lat="50.42682" lon="2.62024">
        <ele>172.29272504</ele>
        <time>2017-09-03T10:30:06Z</time>
      </trkpt>
      <trkpt lat="50.4267" lon="2.61998">
        <ele>173.2932146</ele>
        <time>2017-09-03T10:30:11Z</time>
      </trkpt>
      <trkpt lat="50.42664" lon="2.61973">
        <ele>173.29342968</ele>
        <time>2017-09-03T10:30:15Z</time>
      </trkpt>
      <trkpt lat="50.42658" lon="2.61944">
        <ele>174.29367816</ele>
        <time>2017-09-03T10:30:19Z</time>
      </trkpt>
      <trkpt lat="50.4265" lon="2.61913">
        <ele>172.29399496</ele>
        <time>2017-09-03T10:30:23Z</time>
      </trkpt>
      <trkpt lat="50.42647" lon="2.61881">
        <ele>173.29412884</ele>
        <time>2017-09-03T10:30:28Z</time>
      </trkpt>
      <trkpt lat="50.42641" lon="2.61849">
        <ele>173.29436548</ele>
        <time>2017-09-03T10:30:32Z</time>
      </trkpt>
      <trkpt lat="50.42634" lon="2.61805">
        <ele>172.29465328</ele>
        <time>2017-09-03T10:30:37Z</time>
      </trkpt>
      <trkpt lat="50.4263" lon="2.61777">
        <ele>173.29480612</ele>
        <time>2017-09-03T10:30:41Z</time>
      </trkpt>
      <trkpt lat="50.42627" lon="2.61753">
        <ele>174.29490716</ele>
        <time>2017-09-03T10:30:45Z</time>
      </trkpt>
      <trkpt lat="50.42622" lon="2.61737">
        <ele>171.29510304</ele>
        <time>2017-09-03T10:30:50Z</time>
      </trkpt>
      <trkpt lat="50.4261" lon="2.61729">
        <ele>170.295616</ele>
        <time>2017-09-03T10:30:54Z</time>
      </trkpt>
      <trkpt lat="50.42589" lon="2.61725">
        <ele>170.2964498</ele>
        <time>2017-09-03T10:30:58Z</time>
      </trkpt>
      <trkpt lat="50.42568" lon="2.61713">
        <ele>171.29727504</ele>
        <time>2017-09-03T10:31:02Z</time>
      </trkpt>
      <trkpt lat="50.4255" lon="2.61699">
        <ele>170.29801304</ele>
        <time>2017-09-03T10:31:06Z</time>
      </trkpt>
      <trkpt lat="50.42533" lon="2.61682">
        <ele>170.29867108</ele>
        <time>2017-09-03T10:31:10Z</time>
      </trkpt>
      <trkpt lat="50.42517" lon="2.61662">
        <ele>171.29931036</ele>
        <time>2017-09-03T10:31:14Z</time>
      </trkpt>
      <trkpt lat="50.42498" lon="2.61631">
        <ele>172.30008216</ele>
        <time>2017-09-03T10:31:19Z</time>
      </trkpt>
      <trkpt lat="50.4248" lon="2.6161">
        <ele>172.30082008</ele>
        <time>2017-09-03T10:31:23Z</time>
      </trkpt>
      <trkpt lat="50.42455" lon="2.61586">
        <ele>170.30180944</ele>
        <time>2017-09-03T10:31:28Z</time>
      </trkpt>
      <trkpt lat="50.42433" lon="2.61564">
        <ele>172.30267432</ele>
        <time>2017-09-03T10:31:33Z</time>
      </trkpt>
      <trkpt lat="50.42411" lon="2.6154">
        <ele>173.30357808</ele>
        <time>2017-09-03T10:31:37Z</time>
      </trkpt>
      <trkpt lat="50.42393" lon="2.6152">
        <ele>174.30427348</ele>
        <time>2017-09-03T10:31:42Z</time>
      </trkpt>
      <trkpt lat="50.42376" lon="2.615">
        <ele>173.3049686</ele>
        <time>2017-09-03T10:31:46Z</time>
      </trkpt>
      <trkpt lat="50.42357" lon="2.61481">
        <ele>172.3057076</ele>
        <time>2017-09-03T10:31:50Z</time>
      </trkpt>
      <trkpt lat="50.42334" lon="2.61455">
        <ele>173.30662932</ele>
        <time>2017-09-03T10:31:55Z</time>
      </trkpt>
      <trkpt lat="50.42311" lon="2.61432">
        <ele>174.30755312</ele>
        <time>2017-09-03T10:32:00Z</time>
      </trkpt>
      <trkpt lat="50.42293" lon="2.61413">
        <ele>175.30828344</ele>
        <time>2017-09-03T10:32:04Z</time>
      </trkpt>
      <trkpt lat="50.42269" lon="2.61389">
        <ele>174.30923332</ele>
        <time>2017-09-03T10:32:09Z</time>
      </trkpt>
      <trkpt lat="50.42253" lon="2.6137">
        <ele>173.30990124</ele>
        <time>2017-09-03T10:32:13Z</time>
      </trkpt>
      <trkpt lat="50.42237" lon="2.61351">
        <ele>173.31053992</ele>
        <time>2017-09-03T10:32:18Z</time>
      </trkpt>
      <trkpt lat="50.42235" lon="2.61338">
        <ele>179.31061228</ele>
        <time>2017-09-03T10:33:33Z</time>
      </trkpt>
      <trkpt lat="50.42227" lon="2.61336">
        <ele>175.3109388</ele>
        <time>2017-09-03T10:37:17Z</time>
      </trkpt>
      <trkpt lat="50.4221" lon="2.61321">
        <ele>174.31161296</ele>
        <time>2017-09-03T10:37:21Z</time>
      </trkpt>
      <trkpt lat="50.42186" lon="2.61295">
        <ele>175.31257092</ele>
        <time>2017-09-03T10:37:26Z</time>
      </trkpt>
      <trkpt lat="50.42167" lon="2.61274">
        <ele>175.31333524</ele>
        <time>2017-09-03T10:37:30Z</time>
      </trkpt>
      <trkpt lat="50.42144" lon="2.6125">
        <ele>175.31424408</ele>
        <time>2017-09-03T10:37:35Z</time>
      </trkpt>
      <trkpt lat="50.42123" lon="2.61228">
        <ele>174.31509236</ele>
        <time>2017-09-03T10:37:40Z</time>
      </trkpt>
      <trkpt lat="50.42104" lon="2.61209">
        <ele>174.31583616</ele>
        <time>2017-09-03T10:37:44Z</time>
      </trkpt>
      <trkpt lat="50.42086" lon="2.61188">
        <ele>174.31657796</ele>
        <time>2017-09-03T10:37:48Z</time>
      </trkpt>
      <trkpt lat="50.42063" lon="2.61161">
        <ele>174.31748732</ele>
        <time>2017-09-03T10:37:53Z</time>
      </trkpt>
      <trkpt lat="50.42043" lon="2.61133">
        <ele>174.31827716</ele>
        <time>2017-09-03T10:37:58Z</time>
      </trkpt>
      <trkpt lat="50.42033" lon="2.61106">
        <ele>174.31867772</ele>
        <time>2017-09-03T10:38:02Z</time>
      </trkpt>
      <trkpt lat="50.42029" lon="2.61079">
        <ele>172.31882924</ele>
        <time>2017-09-03T10:38:06Z</time>
      </trkpt>
      <trkpt lat="50.42029" lon="2.61051">
        <ele>173.31882284</ele>
        <time>2017-09-03T10:38:11Z</time>
      </trkpt>
      <trkpt lat="50.42028" lon="2.61024">
        <ele>175.31886392</ele>
        <time>2017-09-03T10:38:15Z</time>
      </trkpt>
      <trkpt lat="50.42027" lon="2.60996">
        <ele>175.31893084</ele>
        <time>2017-09-03T10:38:19Z</time>
      </trkpt>
      <trkpt lat="50.42026" lon="2.60966">
        <ele>175.31897768</ele>
        <time>2017-09-03T10:38:24Z</time>
      </trkpt>
      <trkpt lat="50.4202" lon="2.60947">
        <ele>176.31921908</ele>
        <time>2017-09-03T10:38:28Z</time>
      </trkpt>
      <trkpt lat="50.42014" lon="2.60917">
        <ele>175.31944848</ele>
        <time>2017-09-03T10:38:32Z</time>
      </trkpt>
      <trkpt lat="50.42009" lon="2.60883">
        <ele>177.3196448</ele>
        <time>2017-09-03T10:38:36Z</time>
      </trkpt>
      <trkpt lat="50.42004" lon="2.60854">
        <ele>180.31983688</ele>
        <time>2017-09-03T10:38:40Z</time>
      </trkpt>
      <trkpt lat="50.41998" lon="2.60817">
        <ele>183.32008888</ele>
        <time>2017-09-03T10:38:45Z</time>
      </trkpt>
      <trkpt lat="50.41999" lon="2.60774">
        <ele>182.3200566</ele>
        <time>2017-09-03T10:38:50Z</time>
      </trkpt>
      <trkpt lat="50.41996" lon="2.60758">
        <ele>179.32016688</ele>
        <time>2017-09-03T10:38:54Z</time>
      </trkpt>
      <trkpt lat="50.41999" lon="2.60745">
        <ele>179.32004492</ele>
        <time>2017-09-03T10:39:02Z</time>
      </trkpt>
      <trkpt lat="50.41998" lon="2.60728">
        <ele>180.32007312</ele>
        <time>2017-09-03T10:39:07Z</time>
      </trkpt>
      <trkpt lat="50.42005" lon="2.60704">
        <ele>180.31979652</ele>
        <time>2017-09-03T10:39:12Z</time>
      </trkpt>
      <trkpt lat="50.42019" lon="2.60682">
        <ele>179.31924644</ele>
        <time>2017-09-03T10:39:17Z</time>
      </trkpt>
      <trkpt lat="50.42025" lon="2.60662">
        <ele>184.3189876</ele>
        <time>2017-09-03T10:39:21Z</time>
      </trkpt>
      <trkpt lat="50.42036" lon="2.60634">
        <ele>181.31855404</ele>
        <time>2017-09-03T10:39:26Z</time>
      </trkpt>
      <trkpt lat="50.42046" lon="2.60618">
        <ele>181.3181602</ele>
        <time>2017-09-03T10:39:31Z</time>
      </trkpt>
      <trkpt lat="50.42052" lon="2.60597">
        <ele>177.31790372</ele>
        <time>2017-09-03T10:39:35Z</time>
      </trkpt>
      <trkpt lat="50.42061" lon="2.60567">
        <ele>177.317573</ele>
        <time>2017-09-03T10:39:40Z</time>
      </trkpt>
      <trkpt lat="50.42071" lon="2.60542">
        <ele>177.31714708</ele>
        <time>2017-09-03T10:39:44Z</time>
      </trkpt>
      <trkpt lat="50.42082" lon="2.60521">
        <ele>177.3167254</ele>
        <time>2017-09-03T10:39:49Z</time>
      </trkpt>
      <trkpt lat="50.42093" lon="2.605">
        <ele>178.31628172</ele>
        <time>2017-09-03T10:39:53Z</time>
      </trkpt>
      <trkpt lat="50.421" lon="2.60482">
        <ele>178.31601608</ele>
        <time>2017-09-03T10:39:57Z</time>
      </trkpt>
      <trkpt lat="50.42109" lon="2.60458">
        <ele>180.315637</ele>
        <time>2017-09-03T10:40:00Z</time>
      </trkpt>
      <trkpt lat="50.4212" lon="2.60444">
        <ele>180.31521876</ele>
        <time>2017-09-03T10:40:05Z</time>
      </trkpt>
      <trkpt lat="50.42124" lon="2.60425">
        <ele>175.31505056</ele>
        <time>2017-09-03T10:40:09Z</time>
      </trkpt>
      <trkpt lat="50.42126" lon="2.60396">
        <ele>174.31497388</ele>
        <time>2017-09-03T10:40:14Z</time>
      </trkpt>
      <trkpt lat="50.42139" lon="2.60378">
        <ele>174.31443712</ele>
        <time>2017-09-03T10:40:19Z</time>
      </trkpt>
      <trkpt lat="50.42145" lon="2.60358">
        <ele>173.31421724</ele>
        <time>2017-09-03T10:40:23Z</time>
      </trkpt>
      <trkpt lat="50.42148" lon="2.60347">
        <ele>173.31409692</ele>
        <time>2017-09-03T10:40:27Z</time>
      </trkpt>
      <trkpt lat="50.42152" lon="2.60331">
        <ele>174.31390232</ele>
        <time>2017-09-03T10:40:32Z</time>
      </trkpt>
      <trkpt lat="50.42158" lon="2.60324">
        <ele>172.31368492</ele>
        <time>2017-09-03T10:40:36Z</time>
      </trkpt>
      <trkpt lat="50.42164" lon="2.60309">
        <ele>169.31343348</ele>
        <time>2017-09-03T10:40:40Z</time>
      </trkpt>
      <trkpt lat="50.42169" lon="2.60282">
        <ele>166.3132246</ele>
        <time>2017-09-03T10:40:45Z</time>
      </trkpt>
      <trkpt lat="50.42185" lon="2.60255">
        <ele>170.31258912</ele>
        <time>2017-09-03T10:40:50Z</time>
      </trkpt>
      <trkpt lat="50.42189" lon="2.60242">
        <ele>169.31242604</ele>
        <time>2017-09-03T10:40:53Z</time>
      </trkpt>
      <trkpt lat="50.4219" lon="2.60228">
        <ele>165.3123836</ele>
        <time>2017-09-03T10:41:09Z</time>
      </trkpt>
      <trkpt lat="50.42197" lon="2.60212">
        <ele>162.31212312</ele>
        <time>2017-09-03T10:41:13Z</time>
      </trkpt>
      <trkpt lat="50.42207" lon="2.60207">
        <ele>158.31172536</ele>
        <time>2017-09-03T10:41:18Z</time>
      </trkpt>
      <trkpt lat="50.42218" lon="2.60211">
        <ele>160.31130048</ele>
        <time>2017-09-03T10:41:22Z</time>
      </trkpt>
      <trkpt lat="50.42236" lon="2.60214">
        <ele>162.31057908</ele>
        <time>2017-09-03T10:41:27Z</time>
      </trkpt>
      <trkpt lat="50.42249" lon="2.60227">
        <ele>163.31003608</ele>
        <time>2017-09-03T10:41:32Z</time>
      </trkpt>
      <trkpt lat="50.42264" lon="2.60235">
        <ele>160.30945268</ele>
        <time>2017-09-03T10:41:37Z</time>
      </trkpt>
      <trkpt lat="50.42282" lon="2.60229">
        <ele>160.30873876</ele>
        <time>2017-09-03T10:41:42Z</time>
      </trkpt>
      <trkpt lat="50.4229" lon="2.60232">
        <ele>158.30840052</ele>
        <time>2017-09-03T10:41:46Z</time>
      </trkpt>
      <trkpt lat="50.423" lon="2.60237">
        <ele>154.30800152</ele>
        <time>2017-09-03T10:41:50Z</time>
      </trkpt>
      <trkpt lat="50.42309" lon="2.60245">
        <ele>153.30764832</ele>
        <time>2017-09-03T10:41:54Z</time>
      </trkpt>
      <trkpt lat="50.42324" lon="2.60254">
        <ele>149.30702904</ele>
        <time>2017-09-03T10:41:58Z</time>
      </trkpt>
      <trkpt lat="50.42338" lon="2.6026">
        <ele>150.30649728</ele>
        <time>2017-09-03T10:42:03Z</time>
      </trkpt>
      <trkpt lat="50.42346" lon="2.60252">
        <ele>146.30616608</ele>
        <time>2017-09-03T10:42:07Z</time>
      </trkpt>
      <trkpt lat="50.42356" lon="2.60238">
        <ele>146.3057686</ele>
        <time>2017-09-03T10:42:12Z</time>
      </trkpt>
      <trkpt lat="50.42362" lon="2.60212">
        <ele>148.30550248</ele>
        <time>2017-09-03T10:42:16Z</time>
      </trkpt>
      <trkpt lat="50.42374" lon="2.6017">
        <ele>146.30503856</ele>
        <time>2017-09-03T10:42:21Z</time>
      </trkpt>
      <trkpt lat="50.42381" lon="2.6014">
        <ele>144.30477488</ele>
        <time>2017-09-03T10:42:25Z</time>
      </trkpt>
      <trkpt lat="50.42389" lon="2.60114">
        <ele>141.3044556</ele>
        <time>2017-09-03T10:42:29Z</time>
      </trkpt>
      <trkpt lat="50.42395" lon="2.6008">
        <ele>138.30419576</ele>
        <time>2017-09-03T10:42:34Z</time>
      </trkpt>
      <trkpt lat="50.42403" lon="2.60053">
        <ele>133.30390004</ele>
        <time>2017-09-03T10:42:38Z</time>
      </trkpt>
      <trkpt lat="50.42416" lon="2.60013">
        <ele>127.30335472</ele>
        <time>2017-09-03T10:42:43Z</time>
      </trkpt>
      <trkpt lat="50.42431" lon="2.59962">
        <ele>124.30278088</ele>
        <time>2017-09-03T10:42:48Z</time>
      </trkpt>
      <trkpt lat="50.4244" lon="2.59926">
        <ele>122.30241776</ele>
        <time>2017-09-03T10:42:52Z</time>
      </trkpt>
      <trkpt lat="50.42445" lon="2.59904">
        <ele>122.30221872</ele>
        <time>2017-09-03T10:42:56Z</time>
      </trkpt>
      <trkpt lat="50.42441" lon="2.59881">
        <ele>123.30235272</ele>
        <time>2017-09-03T10:43:00Z</time>
      </trkpt>
      <trkpt lat="50.42434" lon="2.59844">
        <ele>120.30265656</ele>
        <time>2017-09-03T10:43:05Z</time>
      </trkpt>
      <trkpt lat="50.42439" lon="2.59804">
        <ele>118.30245716</ele>
        <time>2017-09-03T10:43:09Z</time>
      </trkpt>
      <trkpt lat="50.42444" lon="2.59777">
        <ele>113.30223996</ele>
        <time>2017-09-03T10:43:13Z</time>
      </trkpt>
      <trkpt lat="50.42452" lon="2.59747">
        <ele>111.3019402</ele>
        <time>2017-09-03T10:43:18Z</time>
      </trkpt>
      <trkpt lat="50.42464" lon="2.59708">
        <ele>108.3014468</ele>
        <time>2017-09-03T10:43:23Z</time>
      </trkpt>
      <trkpt lat="50.42475" lon="2.59683">
        <ele>106.30099592</ele>
        <time>2017-09-03T10:43:26Z</time>
      </trkpt>
      <trkpt lat="50.42493" lon="2.59656">
        <ele>105.30028028</ele>
        <time>2017-09-03T10:43:31Z</time>
      </trkpt>
      <trkpt lat="50.42514" lon="2.59643">
        <ele>104.29945996</ele>
        <time>2017-09-03T10:43:36Z</time>
      </trkpt>
      <trkpt lat="50.42539" lon="2.59633">
        <ele>104.29844936</ele>
        <time>2017-09-03T10:43:41Z</time>
      </trkpt>
      <trkpt lat="50.42555" lon="2.59624">
        <ele>104.29780776</ele>
        <time>2017-09-03T10:43:45Z</time>
      </trkpt>
      <trkpt lat="50.42563" lon="2.59594">
        <ele>104.29748928</ele>
        <time>2017-09-03T10:43:50Z</time>
      </trkpt>
      <trkpt lat="50.42561" lon="2.59555">
        <ele>102.29754256</ele>
        <time>2017-09-03T10:43:54Z</time>
      </trkpt>
      <trkpt lat="50.42558" lon="2.59501">
        <ele>100.29766888</ele>
        <time>2017-09-03T10:43:59Z</time>
      </trkpt>
      <trkpt lat="50.42555" lon="2.59441">
        <ele>97.29778688</ele>
        <time>2017-09-03T10:44:04Z</time>
      </trkpt>
      <trkpt lat="50.42547" lon="2.5939">
        <ele>95.29813808</ele>
        <time>2017-09-03T10:44:08Z</time>
      </trkpt>
      <trkpt lat="50.42537" lon="2.59353">
        <ele>95.29852784</ele>
        <time>2017-09-03T10:44:11Z</time>
      </trkpt>
      <trkpt lat="50.42515" lon="2.59298">
        <ele>93.2994208</ele>
        <time>2017-09-03T10:44:16Z</time>
      </trkpt>
      <trkpt lat="50.42496" lon="2.59262">
        <ele>92.30015648</ele>
        <time>2017-09-03T10:44:20Z</time>
      </trkpt>
      <trkpt lat="50.42494" lon="2.5924">
        <ele>92.30025208</ele>
        <time>2017-09-03T10:44:24Z</time>
      </trkpt>
      <trkpt lat="50.42487" lon="2.59233">
        <ele>90.3005182</ele>
        <time>2017-09-03T10:44:29Z</time>
      </trkpt>
      <trkpt lat="50.42492" lon="2.59221">
        <ele>91.3003072</ele>
        <time>2017-09-03T10:44:34Z</time>
      </trkpt>
      <trkpt lat="50.42507" lon="2.59207">
        <ele>90.29973</ele>
        <time>2017-09-03T10:44:38Z</time>
      </trkpt>
      <trkpt lat="50.42524" lon="2.59188">
        <ele>90.29906184</ele>
        <time>2017-09-03T10:44:42Z</time>
      </trkpt>
      <trkpt lat="50.42543" lon="2.5916">
        <ele>90.29829036</ele>
        <time>2017-09-03T10:44:47Z</time>
      </trkpt>
      <trkpt lat="50.42558" lon="2.59137">
        <ele>90.29767</ele>
        <time>2017-09-03T10:44:51Z</time>
      </trkpt>
      <trkpt lat="50.42574" lon="2.59115">
        <ele>90.29705412</ele>
        <time>2017-09-03T10:44:55Z</time>
      </trkpt>
      <trkpt lat="50.42589" lon="2.59095">
        <ele>90.29644044</ele>
        <time>2017-09-03T10:44:59Z</time>
      </trkpt>
      <trkpt lat="50.42608" lon="2.59074">
        <ele>90.295673</ele>
        <time>2017-09-03T10:45:04Z</time>
      </trkpt>
      <trkpt lat="50.42624" lon="2.59059">
        <ele>90.2950584</ele>
        <time>2017-09-03T10:45:08Z</time>
      </trkpt>
      <trkpt lat="50.42645" lon="2.59049">
        <ele>92.29420072</ele>
        <time>2017-09-03T10:45:12Z</time>
      </trkpt>
      <trkpt lat="50.4266" lon="2.59046">
        <ele>91.29361548</ele>
        <time>2017-09-03T10:45:17Z</time>
      </trkpt>
      <trkpt lat="50.42673" lon="2.59045">
        <ele>91.2930706</ele>
        <time>2017-09-03T10:45:22Z</time>
      </trkpt>
      <trkpt lat="50.42686" lon="2.59043">
        <ele>93.2925506</ele>
        <time>2017-09-03T10:45:27Z</time>
      </trkpt>
      <trkpt lat="50.42695" lon="2.59043">
        <ele>94.29219224</ele>
        <time>2017-09-03T10:45:31Z</time>
      </trkpt>
      <trkpt lat="50.42704" lon="2.59042">
        <ele>94.2918378</ele>
        <time>2017-09-03T10:45:35Z</time>
      </trkpt>
      <trkpt lat="50.42713" lon="2.59044">
        <ele>95.2914734</ele>
        <time>2017-09-03T10:45:39Z</time>
      </trkpt>
      <trkpt lat="50.42721" lon="2.59044">
        <ele>95.29115096</ele>
        <time>2017-09-03T10:45:43Z</time>
      </trkpt>
      <trkpt lat="50.42729" lon="2.59043">
        <ele>95.290847</ele>
        <time>2017-09-03T10:45:47Z</time>
      </trkpt>
      <trkpt lat="50.42738" lon="2.59045">
        <ele>96.29049648</ele>
        <time>2017-09-03T10:45:52Z</time>
      </trkpt>
      <trkpt lat="50.42746" lon="2.59044">
        <ele>97.29016528</ele>
        <time>2017-09-03T10:47:58Z</time>
      </trkpt>
      <trkpt lat="50.42755" lon="2.59047">
        <ele>98.28982172</ele>
        <time>2017-09-03T10:48:03Z</time>
      </trkpt>
      <trkpt lat="50.42761" lon="2.59054">
        <ele>99.28955144</ele>
        <time>2017-09-03T10:48:07Z</time>
      </trkpt>
      <trkpt lat="50.42768" lon="2.5906">
        <ele>101.28929456</ele>
        <time>2017-09-03T10:48:11Z</time>
      </trkpt>
      <trkpt lat="50.42776" lon="2.59065">
        <ele>102.2889542</ele>
        <time>2017-09-03T10:48:16Z</time>
      </trkpt>
      <trkpt lat="50.42783" lon="2.59068">
        <ele>103.28866896</ele>
        <time>2017-09-03T10:48:21Z</time>
      </trkpt>
      <trkpt lat="50.42791" lon="2.59072">
        <ele>105.28835892</ele>
        <time>2017-09-03T10:48:25Z</time>
      </trkpt>
      <trkpt lat="50.42799" lon="2.59072">
        <ele>106.28804676</ele>
        <time>2017-09-03T10:48:31Z</time>
      </trkpt>
      <trkpt lat="50.42808" lon="2.59074">
        <ele>107.28769872</ele>
        <time>2017-09-03T10:48:37Z</time>
      </trkpt>
      <trkpt lat="50.42815" lon="2.59077">
        <ele>109.28739612</ele>
        <time>2017-09-03T10:48:42Z</time>
      </trkpt>
      <trkpt lat="50.42824" lon="2.59077">
        <ele>110.28704988</ele>
        <time>2017-09-03T10:48:48Z</time>
      </trkpt>
      <trkpt lat="50.42832" lon="2.5908">
        <ele>112.28672412</ele>
        <time>2017-09-03T10:48:54Z</time>
      </trkpt>
      <trkpt lat="50.4284" lon="2.59082">
        <ele>113.28640024</ele>
        <time>2017-09-03T10:49:00Z</time>
      </trkpt>
      <trkpt lat="50.42848" lon="2.59083">
        <ele>113.28609396</ele>
        <time>2017-09-03T10:49:06Z</time>
      </trkpt>
      <trkpt lat="50.42855" lon="2.59085">
        <ele>114.28580196</ele>
        <time>2017-09-03T10:49:10Z</time>
      </trkpt>
      <trkpt lat="50.42863" lon="2.59086">
        <ele>116.28549552</ele>
        <time>2017-09-03T10:49:15Z</time>
      </trkpt>
      <trkpt lat="50.42871" lon="2.59088">
        <ele>116.28515704</ele>
        <time>2017-09-03T10:49:20Z</time>
      </trkpt>
      <trkpt lat="50.42879" lon="2.59088">
        <ele>117.2848232</ele>
        <time>2017-09-03T10:49:25Z</time>
      </trkpt>
      <trkpt lat="50.42888" lon="2.59089">
        <ele>119.28447752</ele>
        <time>2017-09-03T10:49:30Z</time>
      </trkpt>
      <trkpt lat="50.42896" lon="2.59089">
        <ele>120.28416024</ele>
        <time>2017-09-03T10:49:36Z</time>
      </trkpt>
      <trkpt lat="50.42904" lon="2.59092">
        <ele>121.28384044</ele>
        <time>2017-09-03T10:49:41Z</time>
      </trkpt>
      <trkpt lat="50.42911" lon="2.59094">
        <ele>122.28354984</ele>
        <time>2017-09-03T10:49:45Z</time>
      </trkpt>
      <trkpt lat="50.42919" lon="2.59094">
        <ele>122.28323884</ele>
        <time>2017-09-03T10:49:50Z</time>
      </trkpt>
      <trkpt lat="50.42928" lon="2.59093">
        <ele>124.28289616</ele>
        <time>2017-09-03T10:49:54Z</time>
      </trkpt>
      <trkpt lat="50.42935" lon="2.59095">
        <ele>126.28259764</ele>
        <time>2017-09-03T10:50:00Z</time>
      </trkpt>
      <trkpt lat="50.42943" lon="2.59095">
        <ele>125.28229536</ele>
        <time>2017-09-03T10:50:05Z</time>
      </trkpt>
      <trkpt lat="50.4295" lon="2.59096">
        <ele>125.28199664</ele>
        <time>2017-09-03T10:50:09Z</time>
      </trkpt>
      <trkpt lat="50.42959" lon="2.59096">
        <ele>126.28164436</ele>
        <time>2017-09-03T10:50:14Z</time>
      </trkpt>
      <trkpt lat="50.42967" lon="2.59097">
        <ele>126.281307</ele>
        <time>2017-09-03T10:50:19Z</time>
      </trkpt>
      <trkpt lat="50.42976" lon="2.59099">
        <ele>127.2809784</ele>
        <time>2017-09-03T10:50:24Z</time>
      </trkpt>
      <trkpt lat="50.42984" lon="2.59099">
        <ele>130.28064548</ele>
        <time>2017-09-03T10:50:30Z</time>
      </trkpt>
      <trkpt lat="50.42992" lon="2.591">
        <ele>133.28030532</ele>
        <time>2017-09-03T10:50:36Z</time>
      </trkpt>
      <trkpt lat="50.43" lon="2.59101">
        <ele>134.2799824</ele>
        <time>2017-09-03T10:50:41Z</time>
      </trkpt>
      <trkpt lat="50.43009" lon="2.59104">
        <ele>133.27965552</ele>
        <time>2017-09-03T10:50:45Z</time>
      </trkpt>
      <trkpt lat="50.43016" lon="2.59105">
        <ele>135.27936796</ele>
        <time>2017-09-03T10:50:49Z</time>
      </trkpt>
      <trkpt lat="50.43025" lon="2.59104">
        <ele>136.27902116</ele>
        <time>2017-09-03T10:50:55Z</time>
      </trkpt>
      <trkpt lat="50.43032" lon="2.59103">
        <ele>137.27871692</ele>
        <time>2017-09-03T10:51:00Z</time>
      </trkpt>
      <trkpt lat="50.43041" lon="2.59105">
        <ele>137.27834672</ele>
        <time>2017-09-03T10:51:05Z</time>
      </trkpt>
      <trkpt lat="50.43049" lon="2.59107">
        <ele>137.27804088</ele>
        <time>2017-09-03T10:51:10Z</time>
      </trkpt>
      <trkpt lat="50.43056" lon="2.59108">
        <ele>138.27774376</ele>
        <time>2017-09-03T10:51:15Z</time>
      </trkpt>
      <trkpt lat="50.43065" lon="2.59107">
        <ele>137.27741256</ele>
        <time>2017-09-03T10:51:20Z</time>
      </trkpt>
      <trkpt lat="50.43073" lon="2.59108">
        <ele>138.27706932</ele>
        <time>2017-09-03T10:51:25Z</time>
      </trkpt>
      <trkpt lat="50.43082" lon="2.59111">
        <ele>139.276733</ele>
        <time>2017-09-03T10:51:29Z</time>
      </trkpt>
      <trkpt lat="50.43089" lon="2.59117">
        <ele>140.27645976</ele>
        <time>2017-09-03T10:51:34Z</time>
      </trkpt>
      <trkpt lat="50.43095" lon="2.59122">
        <ele>140.27619356</ele>
        <time>2017-09-03T10:51:38Z</time>
      </trkpt>
      <trkpt lat="50.43102" lon="2.59127">
        <ele>141.2759168</ele>
        <time>2017-09-03T10:51:42Z</time>
      </trkpt>
      <trkpt lat="50.4311" lon="2.59135">
        <ele>142.27561048</ele>
        <time>2017-09-03T10:51:47Z</time>
      </trkpt>
      <trkpt lat="50.43116" lon="2.59144">
        <ele>141.27536268</ele>
        <time>2017-09-03T10:51:52Z</time>
      </trkpt>
      <trkpt lat="50.43123" lon="2.59149">
        <ele>142.27507208</ele>
        <time>2017-09-03T10:51:57Z</time>
      </trkpt>
      <trkpt lat="50.43132" lon="2.59153">
        <ele>142.27473808</ele>
        <time>2017-09-03T10:52:02Z</time>
      </trkpt>
      <trkpt lat="50.43139" lon="2.59153">
        <ele>143.27443564</ele>
        <time>2017-09-03T10:52:07Z</time>
      </trkpt>
      <trkpt lat="50.43147" lon="2.59153">
        <ele>143.27412516</ele>
        <time>2017-09-03T10:52:11Z</time>
      </trkpt>
      <trkpt lat="50.43155" lon="2.59151">
        <ele>143.27379424</ele>
        <time>2017-09-03T10:52:16Z</time>
      </trkpt>
      <trkpt lat="50.43164" lon="2.59148">
        <ele>146.27345592</ele>
        <time>2017-09-03T10:52:21Z</time>
      </trkpt>
      <trkpt lat="50.43172" lon="2.59146">
        <ele>147.2731336</ele>
        <time>2017-09-03T10:52:25Z</time>
      </trkpt>
      <trkpt lat="50.43179" lon="2.5914">
        <ele>149.27282436</ele>
        <time>2017-09-03T10:52:31Z</time>
      </trkpt>
      <trkpt lat="50.43187" lon="2.59133">
        <ele>150.27250548</ele>
        <time>2017-09-03T10:52:36Z</time>
      </trkpt>
      <trkpt lat="50.43195" lon="2.59129">
        <ele>151.27218524</ele>
        <time>2017-09-03T10:52:41Z</time>
      </trkpt>
      <trkpt lat="50.43203" lon="2.59122">
        <ele>155.27189752</ele>
        <time>2017-09-03T10:52:47Z</time>
      </trkpt>
      <trkpt lat="50.43209" lon="2.59115">
        <ele>156.271652</ele>
        <time>2017-09-03T10:52:52Z</time>
      </trkpt>
      <trkpt lat="50.43214" lon="2.59109">
        <ele>156.27142976</ele>
        <time>2017-09-03T10:52:56Z</time>
      </trkpt>
      <trkpt lat="50.43222" lon="2.59102">
        <ele>158.27114112</ele>
        <time>2017-09-03T10:53:01Z</time>
      </trkpt>
      <trkpt lat="50.43227" lon="2.59094">
        <ele>158.27090952</ele>
        <time>2017-09-03T10:53:05Z</time>
      </trkpt>
      <trkpt lat="50.43229" lon="2.59082">
        <ele>157.27083984</ele>
        <time>2017-09-03T10:53:09Z</time>
      </trkpt>
      <trkpt lat="50.43235" lon="2.59071">
        <ele>159.27061504</ele>
        <time>2017-09-03T10:53:15Z</time>
      </trkpt>
      <trkpt lat="50.43239" lon="2.5906">
        <ele>159.2704382</ele>
        <time>2017-09-03T10:53:22Z</time>
      </trkpt>
      <trkpt lat="50.43244" lon="2.59053">
        <ele>157.2702338</ele>
        <time>2017-09-03T10:53:26Z</time>
      </trkpt>
      <trkpt lat="50.4325" lon="2.59042">
        <ele>159.2700138</ele>
        <time>2017-09-03T10:53:32Z</time>
      </trkpt>
      <trkpt lat="50.43251" lon="2.59029">
        <ele>163.2699456</ele>
        <time>2017-09-03T10:53:38Z</time>
      </trkpt>
      <trkpt lat="50.43257" lon="2.59019">
        <ele>162.26971056</ele>
        <time>2017-09-03T10:53:44Z</time>
      </trkpt>
      <trkpt lat="50.43258" lon="2.59007">
        <ele>165.269678</ele>
        <time>2017-09-03T10:53:49Z</time>
      </trkpt>
      <trkpt lat="50.43258" lon="2.58994">
        <ele>168.26969716</ele>
        <time>2017-09-03T10:53:55Z</time>
      </trkpt>
      <trkpt lat="50.43258" lon="2.5898">
        <ele>171.26967152</ele>
        <time>2017-09-03T10:54:01Z</time>
      </trkpt>
      <trkpt lat="50.43262" lon="2.58968">
        <ele>169.2695076</ele>
        <time>2017-09-03T10:54:08Z</time>
      </trkpt>
      <trkpt lat="50.43266" lon="2.58958">
        <ele>173.26936416</ele>
        <time>2017-09-03T10:54:14Z</time>
      </trkpt>
      <trkpt lat="50.43271" lon="2.58947">
        <ele>179.26915132</ele>
        <time>2017-09-03T10:54:22Z</time>
      </trkpt>
      <trkpt lat="50.43274" lon="2.58935">
        <ele>179.269032</ele>
        <time>2017-09-03T10:54:26Z</time>
      </trkpt>
      <trkpt lat="50.43281" lon="2.58925">
        <ele>182.2687666</ele>
        <time>2017-09-03T10:54:31Z</time>
      </trkpt>
      <trkpt lat="50.43293" lon="2.58913">
        <ele>176.26827688</ele>
        <time>2017-09-03T10:54:35Z</time>
      </trkpt>
      <trkpt lat="50.43298" lon="2.58901">
        <ele>178.26808136</ele>
        <time>2017-09-03T10:54:39Z</time>
      </trkpt>
      <trkpt lat="50.43307" lon="2.58885">
        <ele>184.26770796</ele>
        <time>2017-09-03T10:54:43Z</time>
      </trkpt>
      <trkpt lat="50.43319" lon="2.58871">
        <ele>180.2672506</ele>
        <time>2017-09-03T10:54:48Z</time>
      </trkpt>
      <trkpt lat="50.43326" lon="2.58856">
        <ele>179.2669678</ele>
        <time>2017-09-03T10:54:53Z</time>
      </trkpt>
      <trkpt lat="50.43332" lon="2.58845">
        <ele>181.2667126</ele>
        <time>2017-09-03T10:54:57Z</time>
      </trkpt>
      <trkpt lat="50.43341" lon="2.58828">
        <ele>181.26635</ele>
        <time>2017-09-03T10:55:02Z</time>
      </trkpt>
      <trkpt lat="50.43345" lon="2.58821">
        <ele>181.26621908</ele>
        <time>2017-09-03T10:55:04Z</time>
      </trkpt>
      <trkpt lat="50.43347" lon="2.5881">
        <ele>181.26610512</ele>
        <time>2017-09-03T10:55:08Z</time>
      </trkpt>
      <trkpt lat="50.43359" lon="2.58788">
        <ele>183.26564144</ele>
        <time>2017-09-03T10:55:13Z</time>
      </trkpt>
      <trkpt lat="50.43367" lon="2.58765">
        <ele>180.26534068</ele>
        <time>2017-09-03T10:55:18Z</time>
      </trkpt>
      <trkpt lat="50.43374" lon="2.58751">
        <ele>180.26505404</ele>
        <time>2017-09-03T10:55:21Z</time>
      </trkpt>
      <trkpt lat="50.43383" lon="2.58735">
        <ele>180.26467496</ele>
        <time>2017-09-03T10:55:25Z</time>
      </trkpt>
      <trkpt lat="50.43392" lon="2.58719">
        <ele>183.26432376</ele>
        <time>2017-09-03T10:55:30Z</time>
      </trkpt>
      <trkpt lat="50.43398" lon="2.58709">
        <ele>186.26406704</ele>
        <time>2017-09-03T10:55:35Z</time>
      </trkpt>
      <trkpt lat="50.43412" lon="2.58691">
        <ele>189.26351392</ele>
        <time>2017-09-03T10:55:39Z</time>
      </trkpt>
      <trkpt lat="50.43425" lon="2.58677">
        <ele>188.2630106</ele>
        <time>2017-09-03T10:55:44Z</time>
      </trkpt>
      <trkpt lat="50.4344" lon="2.58681">
        <ele>183.2624156</ele>
        <time>2017-09-03T10:55:48Z</time>
      </trkpt>
      <trkpt lat="50.43454" lon="2.58692">
        <ele>180.26183784</ele>
        <time>2017-09-03T10:55:52Z</time>
      </trkpt>
      <trkpt lat="50.4347" lon="2.58709">
        <ele>180.26121228</ele>
        <time>2017-09-03T10:55:57Z</time>
      </trkpt>
      <trkpt lat="50.43482" lon="2.58724">
        <ele>181.26071144</ele>
        <time>2017-09-03T10:56:01Z</time>
      </trkpt>
      <trkpt lat="50.43496" lon="2.58735">
        <ele>182.26016692</ele>
        <time>2017-09-03T10:56:05Z</time>
      </trkpt>
      <trkpt lat="50.43515" lon="2.5875">
        <ele>183.2593936</ele>
        <time>2017-09-03T10:56:10Z</time>
      </trkpt>
      <trkpt lat="50.43531" lon="2.58764">
        <ele>181.2587674</ele>
        <time>2017-09-03T10:56:14Z</time>
      </trkpt>
      <trkpt lat="50.43548" lon="2.58783">
        <ele>182.25808716</ele>
        <time>2017-09-03T10:56:19Z</time>
      </trkpt>
      <trkpt lat="50.43562" lon="2.588">
        <ele>183.25751804</ele>
        <time>2017-09-03T10:56:23Z</time>
      </trkpt>
      <trkpt lat="50.43577" lon="2.58802">
        <ele>184.25690484</ele>
        <time>2017-09-03T10:56:27Z</time>
      </trkpt>
      <trkpt lat="50.43589" lon="2.58803">
        <ele>182.25642564</ele>
        <time>2017-09-03T10:56:32Z</time>
      </trkpt>
      <trkpt lat="50.43607" lon="2.58818">
        <ele>182.25570276</ele>
        <time>2017-09-03T10:56:37Z</time>
      </trkpt>
      <trkpt lat="50.43623" lon="2.58834">
        <ele>182.2550666</ele>
        <time>2017-09-03T10:56:41Z</time>
      </trkpt>
      <trkpt lat="50.43645" lon="2.58852">
        <ele>181.2541944</ele>
        <time>2017-09-03T10:56:46Z</time>
      </trkpt>
      <trkpt lat="50.43667" lon="2.58867">
        <ele>183.2533238</ele>
        <time>2017-09-03T10:56:51Z</time>
      </trkpt>
      <trkpt lat="50.43689" lon="2.58885">
        <ele>181.2524568</ele>
        <time>2017-09-03T10:56:55Z</time>
      </trkpt>
      <trkpt lat="50.43705" lon="2.58911">
        <ele>178.25179976</ele>
        <time>2017-09-03T10:56:59Z</time>
      </trkpt>
      <trkpt lat="50.43723" lon="2.58933">
        <ele>176.25108756</ele>
        <time>2017-09-03T10:57:04Z</time>
      </trkpt>
      <trkpt lat="50.4374" lon="2.58951">
        <ele>175.2503886</ele>
        <time>2017-09-03T10:57:08Z</time>
      </trkpt>
      <trkpt lat="50.43766" lon="2.5897">
        <ele>172.24935088</ele>
        <time>2017-09-03T10:57:13Z</time>
      </trkpt>
      <trkpt lat="50.43784" lon="2.58987">
        <ele>171.2486312</ele>
        <time>2017-09-03T10:57:17Z</time>
      </trkpt>
      <trkpt lat="50.43808" lon="2.59005">
        <ele>168.2476908</ele>
        <time>2017-09-03T10:57:21Z</time>
      </trkpt>
      <trkpt lat="50.4383" lon="2.59022">
        <ele>168.2467826</ele>
        <time>2017-09-03T10:57:25Z</time>
      </trkpt>
      <trkpt lat="50.43852" lon="2.59042">
        <ele>165.24594152</ele>
        <time>2017-09-03T10:57:29Z</time>
      </trkpt>
      <trkpt lat="50.43871" lon="2.59059">
        <ele>164.24516988</ele>
        <time>2017-09-03T10:57:33Z</time>
      </trkpt>
      <trkpt lat="50.43888" lon="2.59074">
        <ele>161.24449792</ele>
        <time>2017-09-03T10:57:37Z</time>
      </trkpt>
      <trkpt lat="50.43907" lon="2.59088">
        <ele>159.24373088</ele>
        <time>2017-09-03T10:57:41Z</time>
      </trkpt>
      <trkpt lat="50.43928" lon="2.59108">
        <ele>157.24290008</ele>
        <time>2017-09-03T10:57:46Z</time>
      </trkpt>
      <trkpt lat="50.43949" lon="2.59124">
        <ele>154.24205672</ele>
        <time>2017-09-03T10:57:50Z</time>
      </trkpt>
      <trkpt lat="50.4396" lon="2.59133">
        <ele>153.24160088</ele>
        <time>2017-09-03T10:57:55Z</time>
      </trkpt>
      <trkpt lat="50.43966" lon="2.5914">
        <ele>153.24135004</ele>
        <time>2017-09-03T10:58:04Z</time>
      </trkpt>
      <trkpt lat="50.43978" lon="2.59146">
        <ele>154.24090052</ele>
        <time>2017-09-03T10:58:08Z</time>
      </trkpt>
      <trkpt lat="50.43998" lon="2.59141">
        <ele>153.24007932</ele>
        <time>2017-09-03T10:58:13Z</time>
      </trkpt>
      <trkpt lat="50.44014" lon="2.59137">
        <ele>156.23946</ele>
        <time>2017-09-03T10:58:17Z</time>
      </trkpt>
      <trkpt lat="50.44041" lon="2.59147">
        <ele>150.2383548</ele>
        <time>2017-09-03T10:58:22Z</time>
      </trkpt>
      <trkpt lat="50.44062" lon="2.59145">
        <ele>149.23750944</ele>
        <time>2017-09-03T10:58:27Z</time>
      </trkpt>
      <trkpt lat="50.44085" lon="2.59145">
        <ele>150.23661452</ele>
        <time>2017-09-03T10:58:31Z</time>
      </trkpt>
      <trkpt lat="50.44117" lon="2.5915">
        <ele>143.23532984</ele>
        <time>2017-09-03T10:58:36Z</time>
      </trkpt>
      <trkpt lat="50.4414" lon="2.59149">
        <ele>143.23439996</ele>
        <time>2017-09-03T10:58:40Z</time>
      </trkpt>
      <trkpt lat="50.44155" lon="2.5916">
        <ele>139.23379576</ele>
        <time>2017-09-03T10:58:44Z</time>
      </trkpt>
      <trkpt lat="50.44158" lon="2.5917">
        <ele>137.23368628</ele>
        <time>2017-09-03T10:58:48Z</time>
      </trkpt>
      <trkpt lat="50.44152" lon="2.59191">
        <ele>134.2339172</ele>
        <time>2017-09-03T10:58:53Z</time>
      </trkpt>
      <trkpt lat="50.44144" lon="2.59209">
        <ele>136.234259</ele>
        <time>2017-09-03T10:58:58Z</time>
      </trkpt>
      <trkpt lat="50.44134" lon="2.59226">
        <ele>136.23464944</ele>
        <time>2017-09-03T10:59:03Z</time>
      </trkpt>
      <trkpt lat="50.44124" lon="2.59242">
        <ele>137.2350592</ele>
        <time>2017-09-03T10:59:08Z</time>
      </trkpt>
      <trkpt lat="50.44117" lon="2.59255">
        <ele>134.2353122</ele>
        <time>2017-09-03T10:59:12Z</time>
      </trkpt>
      <trkpt lat="50.4411" lon="2.59265">
        <ele>136.23559208</ele>
        <time>2017-09-03T10:59:16Z</time>
      </trkpt>
      <trkpt lat="50.44104" lon="2.59278">
        <ele>139.23585452</ele>
        <time>2017-09-03T10:59:20Z</time>
      </trkpt>
      <trkpt lat="50.44095" lon="2.5929">
        <ele>144.23618552</ele>
        <time>2017-09-03T10:59:24Z</time>
      </trkpt>
      <trkpt lat="50.44088" lon="2.59309">
        <ele>145.23649084</ele>
        <time>2017-09-03T10:59:28Z</time>
      </trkpt>
      <trkpt lat="50.4408" lon="2.59322">
        <ele>145.2367968</ele>
        <time>2017-09-03T10:59:32Z</time>
      </trkpt>
      <trkpt lat="50.44074" lon="2.59334">
        <ele>145.23703796</ele>
        <time>2017-09-03T10:59:36Z</time>
      </trkpt>
      <trkpt lat="50.44063" lon="2.59351">
        <ele>147.23746836</ele>
        <time>2017-09-03T10:59:40Z</time>
      </trkpt>
      <trkpt lat="50.44055" lon="2.59363">
        <ele>145.23779276</ele>
        <time>2017-09-03T10:59:45Z</time>
      </trkpt>
      <trkpt lat="50.44044" lon="2.59383">
        <ele>152.23823064</ele>
        <time>2017-09-03T10:59:49Z</time>
      </trkpt>
      <trkpt lat="50.44037" lon="2.59396">
        <ele>153.23850544</ele>
        <time>2017-09-03T10:59:54Z</time>
      </trkpt>
      <trkpt lat="50.44029" lon="2.5942">
        <ele>156.23882364</ele>
        <time>2017-09-03T10:59:59Z</time>
      </trkpt>
      <trkpt lat="50.4402" lon="2.59436">
        <ele>155.23920812</ele>
        <time>2017-09-03T11:00:03Z</time>
      </trkpt>
      <trkpt lat="50.44006" lon="2.59457">
        <ele>154.23977184</ele>
        <time>2017-09-03T11:00:07Z</time>
      </trkpt>
      <trkpt lat="50.43995" lon="2.59475">
        <ele>154.24022168</ele>
        <time>2017-09-03T11:00:12Z</time>
      </trkpt>
      <trkpt lat="50.4398" lon="2.59502">
        <ele>154.24080644</ele>
        <time>2017-09-03T11:00:17Z</time>
      </trkpt>
      <trkpt lat="50.43965" lon="2.59525">
        <ele>153.24141996</ele>
        <time>2017-09-03T11:00:21Z</time>
      </trkpt>
      <trkpt lat="50.43946" lon="2.59562">
        <ele>151.24214984</ele>
        <time>2017-09-03T11:00:26Z</time>
      </trkpt>
      <trkpt lat="50.43941" lon="2.59598">
        <ele>151.24236628</ele>
        <time>2017-09-03T11:00:30Z</time>
      </trkpt>
      <trkpt lat="50.43937" lon="2.5963">
        <ele>152.24251936</ele>
        <time>2017-09-03T11:00:34Z</time>
      </trkpt>
      <trkpt lat="50.43934" lon="2.59655">
        <ele>153.24263184</ele>
        <time>2017-09-03T11:00:38Z</time>
      </trkpt>
      <trkpt lat="50.43927" lon="2.59684">
        <ele>150.24293268</ele>
        <time>2017-09-03T11:00:43Z</time>
      </trkpt>
      <trkpt lat="50.43923" lon="2.59707">
        <ele>153.24309284</ele>
        <time>2017-09-03T11:00:47Z</time>
      </trkpt>
      <trkpt lat="50.43919" lon="2.59739">
        <ele>153.24324608</ele>
        <time>2017-09-03T11:00:52Z</time>
      </trkpt>
      <trkpt lat="50.43911" lon="2.59768">
        <ele>154.24356212</ele>
        <time>2017-09-03T11:00:57Z</time>
      </trkpt>
      <trkpt lat="50.43907" lon="2.59789">
        <ele>155.24371004</ele>
        <time>2017-09-03T11:01:01Z</time>
      </trkpt>
      <trkpt lat="50.43901" lon="2.59806">
        <ele>160.24397952</ele>
        <time>2017-09-03T11:01:06Z</time>
      </trkpt>
      <trkpt lat="50.43895" lon="2.59818">
        <ele>160.24418468</ele>
        <time>2017-09-03T11:01:10Z</time>
      </trkpt>
      <trkpt lat="50.43892" lon="2.59829">
        <ele>162.24434156</ele>
        <time>2017-09-03T11:01:14Z</time>
      </trkpt>
      <trkpt lat="50.43888" lon="2.59841">
        <ele>165.24447336</ele>
        <time>2017-09-03T11:01:18Z</time>
      </trkpt>
      <trkpt lat="50.43884" lon="2.59855">
        <ele>164.24463836</ele>
        <time>2017-09-03T11:01:22Z</time>
      </trkpt>
      <trkpt lat="50.43876" lon="2.59871">
        <ele>163.24494768</ele>
        <time>2017-09-03T11:01:27Z</time>
      </trkpt>
      <trkpt lat="50.43872" lon="2.59884">
        <ele>163.2451374</ele>
        <time>2017-09-03T11:01:31Z</time>
      </trkpt>
      <trkpt lat="50.43866" lon="2.59905">
        <ele>166.24535068</ele>
        <time>2017-09-03T11:01:36Z</time>
      </trkpt>
      <trkpt lat="50.43862" lon="2.59925">
        <ele>167.24550748</ele>
        <time>2017-09-03T11:01:40Z</time>
      </trkpt>
      <trkpt lat="50.4386" lon="2.5994">
        <ele>169.2455978</ele>
        <time>2017-09-03T11:01:45Z</time>
      </trkpt>
      <trkpt lat="50.43857" lon="2.59961">
        <ele>169.24570576</ele>
        <time>2017-09-03T11:01:49Z</time>
      </trkpt>
      <trkpt lat="50.43851" lon="2.59981">
        <ele>169.24597072</ele>
        <time>2017-09-03T11:01:54Z</time>
      </trkpt>
      <trkpt lat="50.43856" lon="2.59997">
        <ele>169.24576828</ele>
        <time>2017-09-03T11:01:58Z</time>
      </trkpt>
      <trkpt lat="50.43858" lon="2.60015">
        <ele>169.24568568</ele>
        <time>2017-09-03T11:02:03Z</time>
      </trkpt>
      <trkpt lat="50.43864" lon="2.60043">
        <ele>165.24544192</ele>
        <time>2017-09-03T11:02:07Z</time>
      </trkpt>
      <trkpt lat="50.43867" lon="2.60068">
        <ele>169.24530272</ele>
        <time>2017-09-03T11:02:11Z</time>
      </trkpt>
      <trkpt lat="50.43879" lon="2.60106">
        <ele>168.24484744</ele>
        <time>2017-09-03T11:02:16Z</time>
      </trkpt>
      <trkpt lat="50.43886" lon="2.60131">
        <ele>166.24454476</ele>
        <time>2017-09-03T11:02:20Z</time>
      </trkpt>
      <trkpt lat="50.43906" lon="2.60148">
        <ele>164.24376412</ele>
        <time>2017-09-03T11:02:25Z</time>
      </trkpt>
      <trkpt lat="50.43932" lon="2.60163">
        <ele>162.24270804</ele>
        <time>2017-09-03T11:02:30Z</time>
      </trkpt>
      <trkpt lat="50.43942" lon="2.60165">
        <ele>163.24232972</ele>
        <time>2017-09-03T11:02:34Z</time>
      </trkpt>
      <trkpt lat="50.43967" lon="2.60178">
        <ele>159.24130904</ele>
        <time>2017-09-03T11:02:39Z</time>
      </trkpt>
      <trkpt lat="50.43999" lon="2.60196">
        <ele>157.2400592</ele>
        <time>2017-09-03T11:02:44Z</time>
      </trkpt>
      <trkpt lat="50.44023" lon="2.60219">
        <ele>153.23906656</ele>
        <time>2017-09-03T11:02:48Z</time>
      </trkpt>
      <trkpt lat="50.44035" lon="2.6023">
        <ele>152.23860168</ele>
        <time>2017-09-03T11:02:50Z</time>
      </trkpt>
      <trkpt lat="50.44044" lon="2.6025">
        <ele>147.23823072</ele>
        <time>2017-09-03T11:02:55Z</time>
      </trkpt>
      <trkpt lat="50.44038" lon="2.60276">
        <ele>140.23849408</ele>
        <time>2017-09-03T11:02:59Z</time>
      </trkpt>
      <trkpt lat="50.44031" lon="2.60292">
        <ele>139.23875928</ele>
        <time>2017-09-03T11:03:03Z</time>
      </trkpt>
      <trkpt lat="50.44024" lon="2.60297">
        <ele>138.2390296</ele>
        <time>2017-09-03T11:03:06Z</time>
      </trkpt>
      <trkpt lat="50.4402" lon="2.60311">
        <ele>138.23919836</ele>
        <time>2017-09-03T11:03:11Z</time>
      </trkpt>
      <trkpt lat="50.44019" lon="2.60331">
        <ele>137.2392318</ele>
        <time>2017-09-03T11:03:15Z</time>
      </trkpt>
      <trkpt lat="50.44015" lon="2.60348">
        <ele>139.239402</ele>
        <time>2017-09-03T11:03:20Z</time>
      </trkpt>
      <trkpt lat="50.44006" lon="2.60369">
        <ele>140.23976468</ele>
        <time>2017-09-03T11:03:25Z</time>
      </trkpt>
      <trkpt lat="50.44003" lon="2.60384">
        <ele>141.23988444</ele>
        <time>2017-09-03T11:03:29Z</time>
      </trkpt>
      <trkpt lat="50.44006" lon="2.6041">
        <ele>142.23974308</ele>
        <time>2017-09-03T11:03:34Z</time>
      </trkpt>
      <trkpt lat="50.44013" lon="2.60432">
        <ele>141.23948912</ele>
        <time>2017-09-03T11:03:38Z</time>
      </trkpt>
      <trkpt lat="50.44012" lon="2.60467">
        <ele>140.23951972</ele>
        <time>2017-09-03T11:03:42Z</time>
      </trkpt>
      <trkpt lat="50.44007" lon="2.60493">
        <ele>138.23973728</ele>
        <time>2017-09-03T11:03:47Z</time>
      </trkpt>
      <trkpt lat="50.44" lon="2.60526">
        <ele>135.23998656</ele>
        <time>2017-09-03T11:03:52Z</time>
      </trkpt>
      <trkpt lat="50.43991" lon="2.60539">
        <ele>134.24034968</ele>
        <time>2017-09-03T11:03:55Z</time>
      </trkpt>
      <trkpt lat="50.43978" lon="2.60578">
        <ele>133.24089428</ele>
        <time>2017-09-03T11:04:00Z</time>
      </trkpt>
      <trkpt lat="50.43973" lon="2.60618">
        <ele>131.24109392</ele>
        <time>2017-09-03T11:04:05Z</time>
      </trkpt>
      <trkpt lat="50.43964" lon="2.60631">
        <ele>130.24146016</ele>
        <time>2017-09-03T11:04:08Z</time>
      </trkpt>
      <trkpt lat="50.4395" lon="2.60652">
        <ele>129.24198428</ele>
        <time>2017-09-03T11:04:13Z</time>
      </trkpt>
      <trkpt lat="50.4394" lon="2.60669">
        <ele>128.24238336</ele>
        <time>2017-09-03T11:04:17Z</time>
      </trkpt>
      <trkpt lat="50.4393" lon="2.60687">
        <ele>129.24279104</ele>
        <time>2017-09-03T11:04:22Z</time>
      </trkpt>
      <trkpt lat="50.43919" lon="2.6069">
        <ele>129.24322692</ele>
        <time>2017-09-03T11:04:26Z</time>
      </trkpt>
      <trkpt lat="50.43911" lon="2.60693">
        <ele>132.24354544</ele>
        <time>2017-09-03T11:04:31Z</time>
      </trkpt>
      <trkpt lat="50.43903" lon="2.60694">
        <ele>132.24389</ele>
        <time>2017-09-03T11:04:35Z</time>
      </trkpt>
      <trkpt lat="50.43893" lon="2.60695">
        <ele>135.24428764</ele>
        <time>2017-09-03T11:04:40Z</time>
      </trkpt>
      <trkpt lat="50.43886" lon="2.60699">
        <ele>137.24455404</ele>
        <time>2017-09-03T11:04:46Z</time>
      </trkpt>
      <trkpt lat="50.43877" lon="2.60701">
        <ele>139.2449064</ele>
        <time>2017-09-03T11:04:52Z</time>
      </trkpt>
      <trkpt lat="50.43869" lon="2.60701">
        <ele>141.24525496</ele>
        <time>2017-09-03T11:05:01Z</time>
      </trkpt>
      <trkpt lat="50.4386" lon="2.60703">
        <ele>145.24558808</ele>
        <time>2017-09-03T11:05:07Z</time>
      </trkpt>
      <trkpt lat="50.43852" lon="2.60705">
        <ele>144.2459416</ele>
        <time>2017-09-03T11:05:12Z</time>
      </trkpt>
      <trkpt lat="50.43843" lon="2.60706">
        <ele>146.246296</ele>
        <time>2017-09-03T11:05:19Z</time>
      </trkpt>
      <trkpt lat="50.43837" lon="2.60708">
        <ele>147.24653456</ele>
        <time>2017-09-03T11:05:25Z</time>
      </trkpt>
      <trkpt lat="50.43829" lon="2.60709">
        <ele>147.2468454</ele>
        <time>2017-09-03T11:05:29Z</time>
      </trkpt>
      <trkpt lat="50.43822" lon="2.60709">
        <ele>148.24711544</ele>
        <time>2017-09-03T11:05:33Z</time>
      </trkpt>
      <trkpt lat="50.43815" lon="2.6071">
        <ele>149.24741636</ele>
        <time>2017-09-03T11:05:38Z</time>
      </trkpt>
      <trkpt lat="50.43806" lon="2.6071">
        <ele>147.2477754</ele>
        <time>2017-09-03T11:05:43Z</time>
      </trkpt>
      <trkpt lat="50.43797" lon="2.60712">
        <ele>154.24811492</ele>
        <time>2017-09-03T11:05:51Z</time>
      </trkpt>
      <trkpt lat="50.43788" lon="2.60713">
        <ele>155.2484704</ele>
        <time>2017-09-03T11:05:55Z</time>
      </trkpt>
      <trkpt lat="50.43779" lon="2.60714">
        <ele>159.24882784</ele>
        <time>2017-09-03T11:06:03Z</time>
      </trkpt>
      <trkpt lat="50.43771" lon="2.60715">
        <ele>162.24914688</ele>
        <time>2017-09-03T11:06:27Z</time>
      </trkpt>
      <trkpt lat="50.43763" lon="2.60715">
        <ele>163.2494806</ele>
        <time>2017-09-03T11:06:38Z</time>
      </trkpt>
      <trkpt lat="50.43754" lon="2.60716">
        <ele>165.24983524</ele>
        <time>2017-09-03T11:06:48Z</time>
      </trkpt>
      <trkpt lat="50.43746" lon="2.60718">
        <ele>167.25017948</ele>
        <time>2017-09-03T11:06:57Z</time>
      </trkpt>
      <trkpt lat="50.43737" lon="2.60718">
        <ele>165.25053328</ele>
        <time>2017-09-03T11:07:02Z</time>
      </trkpt>
      <trkpt lat="50.43728" lon="2.60722">
        <ele>166.25086212</ele>
        <time>2017-09-03T11:07:11Z</time>
      </trkpt>
      <trkpt lat="50.4372" lon="2.60724">
        <ele>173.25118244</ele>
        <time>2017-09-03T11:07:46Z</time>
      </trkpt>
      <trkpt lat="50.43715" lon="2.60727">
        <ele>178.25140788</ele>
        <time>2017-09-03T11:07:51Z</time>
      </trkpt>
      <trkpt lat="50.43707" lon="2.60729">
        <ele>178.25170452</ele>
        <time>2017-09-03T11:07:56Z</time>
      </trkpt>
      <trkpt lat="50.43699" lon="2.60728">
        <ele>180.25203136</ele>
        <time>2017-09-03T11:08:01Z</time>
      </trkpt>
      <trkpt lat="50.43686" lon="2.60729">
        <ele>179.25255584</ele>
        <time>2017-09-03T11:08:06Z</time>
      </trkpt>
      <trkpt lat="50.43678" lon="2.6073">
        <ele>178.25289152</ele>
        <time>2017-09-03T11:08:11Z</time>
      </trkpt>
      <trkpt lat="50.43671" lon="2.60733">
        <ele>183.25316984</ele>
        <time>2017-09-03T11:08:17Z</time>
      </trkpt>
      <trkpt lat="50.43662" lon="2.60736">
        <ele>185.25353472</ele>
        <time>2017-09-03T11:08:22Z</time>
      </trkpt>
      <trkpt lat="50.43655" lon="2.60738">
        <ele>182.25379764</ele>
        <time>2017-09-03T11:08:27Z</time>
      </trkpt>
      <trkpt lat="50.43645" lon="2.60742">
        <ele>184.2542182</ele>
        <time>2017-09-03T11:08:32Z</time>
      </trkpt>
      <trkpt lat="50.43635" lon="2.60742">
        <ele>185.25459776</ele>
        <time>2017-09-03T11:08:36Z</time>
      </trkpt>
      <trkpt lat="50.43628" lon="2.60742">
        <ele>186.2548874</ele>
        <time>2017-09-03T11:08:41Z</time>
      </trkpt>
      <trkpt lat="50.43619" lon="2.60742">
        <ele>186.255259</ele>
        <time>2017-09-03T11:08:45Z</time>
      </trkpt>
      <trkpt lat="50.4361" lon="2.60743">
        <ele>186.25559648</ele>
        <time>2017-09-03T11:08:50Z</time>
      </trkpt>
      <trkpt lat="50.43602" lon="2.60744">
        <ele>186.25592296</ele>
        <time>2017-09-03T11:08:54Z</time>
      </trkpt>
      <trkpt lat="50.43592" lon="2.60746">
        <ele>187.25631812</ele>
        <time>2017-09-03T11:08:58Z</time>
      </trkpt>
      <trkpt lat="50.43585" lon="2.60746">
        <ele>187.2565888</ele>
        <time>2017-09-03T11:09:03Z</time>
      </trkpt>
      <trkpt lat="50.43571" lon="2.60746">
        <ele>184.25714224</ele>
        <time>2017-09-03T11:09:08Z</time>
      </trkpt>
      <trkpt lat="50.43556" lon="2.60747">
        <ele>182.25778152</ele>
        <time>2017-09-03T11:09:12Z</time>
      </trkpt>
      <trkpt lat="50.43546" lon="2.6074">
        <ele>182.25814732</ele>
        <time>2017-09-03T11:09:17Z</time>
      </trkpt>
      <trkpt lat="50.43532" lon="2.60735">
        <ele>185.25872212</ele>
        <time>2017-09-03T11:09:21Z</time>
      </trkpt>
      <trkpt lat="50.43519" lon="2.60735">
        <ele>185.25923912</ele>
        <time>2017-09-03T11:09:26Z</time>
      </trkpt>
      <trkpt lat="50.4351" lon="2.60732">
        <ele>184.25961728</ele>
        <time>2017-09-03T11:09:30Z</time>
      </trkpt>
      <trkpt lat="50.43496" lon="2.60726">
        <ele>185.26015572</ele>
        <time>2017-09-03T11:09:35Z</time>
      </trkpt>
      <trkpt lat="50.43478" lon="2.60721">
        <ele>188.26089004</ele>
        <time>2017-09-03T11:09:39Z</time>
      </trkpt>
      <trkpt lat="50.43467" lon="2.60717">
        <ele>186.26131936</ele>
        <time>2017-09-03T11:09:43Z</time>
      </trkpt>
      <trkpt lat="50.43449" lon="2.60708">
        <ele>187.2620272</ele>
        <time>2017-09-03T11:09:47Z</time>
      </trkpt>
      <trkpt lat="50.43437" lon="2.60718">
        <ele>187.26252664</ele>
        <time>2017-09-03T11:09:51Z</time>
      </trkpt>
      <trkpt lat="50.43426" lon="2.60739">
        <ele>185.26297448</ele>
        <time>2017-09-03T11:09:56Z</time>
      </trkpt>
      <trkpt lat="50.43414" lon="2.60759">
        <ele>185.26344724</ele>
        <time>2017-09-03T11:10:00Z</time>
      </trkpt>
      <trkpt lat="50.43403" lon="2.60779">
        <ele>183.26389252</ele>
        <time>2017-09-03T11:10:04Z</time>
      </trkpt>
      <trkpt lat="50.43391" lon="2.60797">
        <ele>183.26436004</ele>
        <time>2017-09-03T11:10:08Z</time>
      </trkpt>
      <trkpt lat="50.43378" lon="2.60814">
        <ele>181.26490004</ele>
        <time>2017-09-03T11:10:13Z</time>
      </trkpt>
      <trkpt lat="50.43368" lon="2.6083">
        <ele>178.2652982</ele>
        <time>2017-09-03T11:10:17Z</time>
      </trkpt>
      <trkpt lat="50.43358" lon="2.60846">
        <ele>176.2656974</ele>
        <time>2017-09-03T11:10:20Z</time>
      </trkpt>
      <trkpt lat="50.43339" lon="2.60875">
        <ele>175.2664292</ele>
        <time>2017-09-03T11:10:25Z</time>
      </trkpt>
      <trkpt lat="50.43322" lon="2.60902">
        <ele>175.26713076</ele>
        <time>2017-09-03T11:10:29Z</time>
      </trkpt>
      <trkpt lat="50.43303" lon="2.60933">
        <ele>175.26786652</ele>
        <time>2017-09-03T11:10:34Z</time>
      </trkpt>
      <trkpt lat="50.43284" lon="2.60967">
        <ele>174.26863888</ele>
        <time>2017-09-03T11:10:37Z</time>
      </trkpt>
      <trkpt lat="50.43268" lon="2.61002">
        <ele>175.26926588</ele>
        <time>2017-09-03T11:10:42Z</time>
      </trkpt>
      <trkpt lat="50.4326" lon="2.61021">
        <ele>171.26958688</ele>
        <time>2017-09-03T11:10:44Z</time>
      </trkpt>
      <trkpt lat="50.43251" lon="2.61045">
        <ele>172.26996716</ele>
        <time>2017-09-03T11:10:48Z</time>
      </trkpt>
      <trkpt lat="50.43245" lon="2.61059">
        <ele>174.27021516</ele>
        <time>2017-09-03T11:10:52Z</time>
      </trkpt>
      <trkpt lat="50.43242" lon="2.61073">
        <ele>176.27032828</ele>
        <time>2017-09-03T11:10:57Z</time>
      </trkpt>
      <trkpt lat="50.43241" lon="2.61086">
        <ele>175.27035536</ele>
        <time>2017-09-03T11:11:01Z</time>
      </trkpt>
      <trkpt lat="50.43245" lon="2.61099">
        <ele>171.27019008</ele>
        <time>2017-09-03T11:11:05Z</time>
      </trkpt>
      <trkpt lat="50.43251" lon="2.61108">
        <ele>170.26994892</ele>
        <time>2017-09-03T11:11:10Z</time>
      </trkpt>
      <trkpt lat="50.43271" lon="2.61094">
        <ele>169.26917776</ele>
        <time>2017-09-03T11:11:14Z</time>
      </trkpt>
      <trkpt lat="50.43289" lon="2.61089">
        <ele>168.26845948</ele>
        <time>2017-09-03T11:11:19Z</time>
      </trkpt>
      <trkpt lat="50.43308" lon="2.61078">
        <ele>170.26767568</ele>
        <time>2017-09-03T11:11:24Z</time>
      </trkpt>
      <trkpt lat="50.43324" lon="2.61059">
        <ele>168.26706096</ele>
        <time>2017-09-03T11:11:29Z</time>
      </trkpt>
      <trkpt lat="50.43336" lon="2.6104">
        <ele>166.26656304</ele>
        <time>2017-09-03T11:11:32Z</time>
      </trkpt>
      <trkpt lat="50.43348" lon="2.61034">
        <ele>162.26607684</ele>
        <time>2017-09-03T11:11:37Z</time>
      </trkpt>
      <trkpt lat="50.43366" lon="2.61043">
        <ele>158.26535752</ele>
        <time>2017-09-03T11:11:41Z</time>
      </trkpt>
      <trkpt lat="50.43387" lon="2.61046">
        <ele>154.26453372</ele>
        <time>2017-09-03T11:11:46Z</time>
      </trkpt>
      <trkpt lat="50.43402" lon="2.6105">
        <ele>151.26392376</ele>
        <time>2017-09-03T11:11:51Z</time>
      </trkpt>
      <trkpt lat="50.43433" lon="2.61058">
        <ele>141.262696</ele>
        <time>2017-09-03T11:11:55Z</time>
      </trkpt>
      <trkpt lat="50.43457" lon="2.61061">
        <ele>140.2617266</ele>
        <time>2017-09-03T11:11:59Z</time>
      </trkpt>
      <trkpt lat="50.43482" lon="2.61072">
        <ele>139.26071088</ele>
        <time>2017-09-03T11:12:03Z</time>
      </trkpt>
      <trkpt lat="50.43512" lon="2.61095">
        <ele>142.25951804</ele>
        <time>2017-09-03T11:12:08Z</time>
      </trkpt>
      <trkpt lat="50.43529" lon="2.61092">
        <ele>138.25882444</ele>
        <time>2017-09-03T11:12:13Z</time>
      </trkpt>
      <trkpt lat="50.43546" lon="2.611">
        <ele>140.258155</ele>
        <time>2017-09-03T11:12:18Z</time>
      </trkpt>
      <trkpt lat="50.43562" lon="2.61108">
        <ele>138.25753248</ele>
        <time>2017-09-03T11:12:22Z</time>
      </trkpt>
      <trkpt lat="50.43576" lon="2.61115">
        <ele>138.25697004</ele>
        <time>2017-09-03T11:12:26Z</time>
      </trkpt>
      <trkpt lat="50.43586" lon="2.61122">
        <ele>137.25654708</ele>
        <time>2017-09-03T11:12:31Z</time>
      </trkpt>
      <trkpt lat="50.43601" lon="2.61136">
        <ele>139.25596704</ele>
        <time>2017-09-03T11:12:35Z</time>
      </trkpt>
      <trkpt lat="50.4362" lon="2.6115">
        <ele>137.25519192</ele>
        <time>2017-09-03T11:12:40Z</time>
      </trkpt>
      <trkpt lat="50.43635" lon="2.61162">
        <ele>138.2546068</ele>
        <time>2017-09-03T11:12:44Z</time>
      </trkpt>
      <trkpt lat="50.43651" lon="2.61171">
        <ele>135.25394824</ele>
        <time>2017-09-03T11:12:49Z</time>
      </trkpt>
      <trkpt lat="50.4367" lon="2.61177">
        <ele>132.25321628</ele>
        <time>2017-09-03T11:12:53Z</time>
      </trkpt>
      <trkpt lat="50.43684" lon="2.61174">
        <ele>131.25265276</ele>
        <time>2017-09-03T11:12:58Z</time>
      </trkpt>
      <trkpt lat="50.43694" lon="2.6118">
        <ele>128.25224976</ele>
        <time>2017-09-03T11:13:01Z</time>
      </trkpt>
      <trkpt lat="50.43711" lon="2.61167">
        <ele>127.25154732</ele>
        <time>2017-09-03T11:13:06Z</time>
      </trkpt>
      <trkpt lat="50.4373" lon="2.61167">
        <ele>126.25078636</ele>
        <time>2017-09-03T11:13:10Z</time>
      </trkpt>
      <trkpt lat="50.43749" lon="2.61168">
        <ele>126.25005776</ele>
        <time>2017-09-03T11:13:14Z</time>
      </trkpt>
      <trkpt lat="50.43764" lon="2.61171">
        <ele>125.24943968</ele>
        <time>2017-09-03T11:13:18Z</time>
      </trkpt>
      <trkpt lat="50.43786" lon="2.6117">
        <ele>131.24854344</ele>
        <time>2017-09-03T11:13:23Z</time>
      </trkpt>
      <trkpt lat="50.43804" lon="2.61177">
        <ele>130.24783232</ele>
        <time>2017-09-03T11:13:27Z</time>
      </trkpt>
      <trkpt lat="50.43822" lon="2.61177">
        <ele>129.2471054</ele>
        <time>2017-09-03T11:13:32Z</time>
      </trkpt>
      <trkpt lat="50.43845" lon="2.61171">
        <ele>131.24621456</ele>
        <time>2017-09-03T11:13:36Z</time>
      </trkpt>
      <trkpt lat="50.43866" lon="2.61167">
        <ele>130.24536216</ele>
        <time>2017-09-03T11:13:40Z</time>
      </trkpt>
      <trkpt lat="50.43895" lon="2.61162">
        <ele>127.24420456</ele>
        <time>2017-09-03T11:13:44Z</time>
      </trkpt>
      <trkpt lat="50.43924" lon="2.61159">
        <ele>122.24302604</ele>
        <time>2017-09-03T11:13:49Z</time>
      </trkpt>
      <trkpt lat="50.43949" lon="2.61154">
        <ele>124.2420536</ele>
        <time>2017-09-03T11:13:54Z</time>
      </trkpt>
      <trkpt lat="50.43966" lon="2.61155">
        <ele>126.24136824</ele>
        <time>2017-09-03T11:13:58Z</time>
      </trkpt>
      <trkpt lat="50.4398" lon="2.61157">
        <ele>126.24081312</ele>
        <time>2017-09-03T11:14:03Z</time>
      </trkpt>
      <trkpt lat="50.44002" lon="2.61154">
        <ele>128.2399292</ele>
        <time>2017-09-03T11:14:07Z</time>
      </trkpt>
      <trkpt lat="50.44018" lon="2.61149">
        <ele>127.23929928</ele>
        <time>2017-09-03T11:14:12Z</time>
      </trkpt>
      <trkpt lat="50.44031" lon="2.61135">
        <ele>130.23875208</ele>
        <time>2017-09-03T11:14:15Z</time>
      </trkpt>
      <trkpt lat="50.44042" lon="2.6112">
        <ele>128.23830604</ele>
        <time>2017-09-03T11:14:20Z</time>
      </trkpt>
      <trkpt lat="50.4406" lon="2.6111">
        <ele>126.23759944</ele>
        <time>2017-09-03T11:14:25Z</time>
      </trkpt>
      <trkpt lat="50.44077" lon="2.61111">
        <ele>124.23691808</ele>
        <time>2017-09-03T11:14:29Z</time>
      </trkpt>
      <trkpt lat="50.44095" lon="2.61106">
        <ele>122.23619856</ele>
        <time>2017-09-03T11:14:33Z</time>
      </trkpt>
      <trkpt lat="50.4412" lon="2.61096">
        <ele>123.235221</ele>
        <time>2017-09-03T11:14:37Z</time>
      </trkpt>
      <trkpt lat="50.4414" lon="2.61094">
        <ele>123.23441984</ele>
        <time>2017-09-03T11:14:42Z</time>
      </trkpt>
      <trkpt lat="50.44157" lon="2.61088">
        <ele>123.23372532</ele>
        <time>2017-09-03T11:14:45Z</time>
      </trkpt>
      <trkpt lat="50.44174" lon="2.61087">
        <ele>119.2330332</ele>
        <time>2017-09-03T11:14:50Z</time>
      </trkpt>
      <trkpt lat="50.44187" lon="2.61103">
        <ele>114.23252592</ele>
        <time>2017-09-03T11:14:55Z</time>
      </trkpt>
      <trkpt lat="50.44194" lon="2.61122">
        <ele>115.2322548</ele>
        <time>2017-09-03T11:14:58Z</time>
      </trkpt>
      <trkpt lat="50.44199" lon="2.61135">
        <ele>112.23204456</ele>
        <time>2017-09-03T11:15:02Z</time>
      </trkpt>
      <trkpt lat="50.44203" lon="2.61158">
        <ele>110.23188332</ele>
        <time>2017-09-03T11:15:06Z</time>
      </trkpt>
      <trkpt lat="50.44201" lon="2.61195">
        <ele>109.23197208</ele>
        <time>2017-09-03T11:15:11Z</time>
      </trkpt>
      <trkpt lat="50.44194" lon="2.61247">
        <ele>106.2322264</ele>
        <time>2017-09-03T11:15:15Z</time>
      </trkpt>
      <trkpt lat="50.44186" lon="2.61305">
        <ele>105.2325534</ele>
        <time>2017-09-03T11:15:20Z</time>
      </trkpt>
      <trkpt lat="50.44185" lon="2.61344">
        <ele>102.23260392</ele>
        <time>2017-09-03T11:15:25Z</time>
      </trkpt>
      <trkpt lat="50.44203" lon="2.61365">
        <ele>101.23186712</ele>
        <time>2017-09-03T11:15:29Z</time>
      </trkpt>
      <trkpt lat="50.4422" lon="2.61391">
        <ele>101.23121732</ele>
        <time>2017-09-03T11:15:33Z</time>
      </trkpt>
      <trkpt lat="50.44221" lon="2.61418">
        <ele>102.23116756</ele>
        <time>2017-09-03T11:15:38Z</time>
      </trkpt>
      <trkpt lat="50.4422" lon="2.61429">
        <ele>103.23120028</ele>
        <time>2017-09-03T11:15:40Z</time>
      </trkpt>
      <trkpt lat="50.4423" lon="2.61453">
        <ele>104.23081588</ele>
        <time>2017-09-03T11:15:45Z</time>
      </trkpt>
      <trkpt lat="50.4423" lon="2.6148">
        <ele>105.23082164</ele>
        <time>2017-09-03T11:15:49Z</time>
      </trkpt>
      <trkpt lat="50.44231" lon="2.615">
        <ele>106.23077232</ele>
        <time>2017-09-03T11:15:53Z</time>
      </trkpt>
      <trkpt lat="50.44234" lon="2.61542">
        <ele>105.23064256</ele>
        <time>2017-09-03T11:15:57Z</time>
      </trkpt>
      <trkpt lat="50.44236" lon="2.61572">
        <ele>104.23054396</ele>
        <time>2017-09-03T11:16:02Z</time>
      </trkpt>
      <trkpt lat="50.44237" lon="2.61599">
        <ele>103.2305354</ele>
        <time>2017-09-03T11:16:06Z</time>
      </trkpt>
      <trkpt lat="50.44226" lon="2.61629">
        <ele>105.23096864</ele>
        <time>2017-09-03T11:16:10Z</time>
      </trkpt>
      <trkpt lat="50.44217" lon="2.61652">
        <ele>104.23131448</ele>
        <time>2017-09-03T11:16:15Z</time>
      </trkpt>
      <trkpt lat="50.44211" lon="2.61686">
        <ele>103.23154972</ele>
        <time>2017-09-03T11:16:20Z</time>
      </trkpt>
      <trkpt lat="50.44201" lon="2.61718">
        <ele>107.231968</ele>
        <time>2017-09-03T11:16:24Z</time>
      </trkpt>
      <trkpt lat="50.44195" lon="2.61736">
        <ele>108.23221904</ele>
        <time>2017-09-03T11:16:29Z</time>
      </trkpt>
      <trkpt lat="50.44183" lon="2.61759">
        <ele>110.23266424</ele>
        <time>2017-09-03T11:16:33Z</time>
      </trkpt>
      <trkpt lat="50.44176" lon="2.61779">
        <ele>112.23295072</ele>
        <time>2017-09-03T11:16:37Z</time>
      </trkpt>
      <trkpt lat="50.44168" lon="2.61799">
        <ele>109.233279</ele>
        <time>2017-09-03T11:16:42Z</time>
      </trkpt>
      <trkpt lat="50.44161" lon="2.61815">
        <ele>110.2335798</ele>
        <time>2017-09-03T11:16:46Z</time>
      </trkpt>
      <trkpt lat="50.4415" lon="2.61833">
        <ele>111.23400276</ele>
        <time>2017-09-03T11:16:50Z</time>
      </trkpt>
      <trkpt lat="50.44142" lon="2.61858">
        <ele>111.23431848</ele>
        <time>2017-09-03T11:16:54Z</time>
      </trkpt>
      <trkpt lat="50.44145" lon="2.61891">
        <ele>113.23421708</ele>
        <time>2017-09-03T11:16:59Z</time>
      </trkpt>
      <trkpt lat="50.44141" lon="2.61939">
        <ele>112.23436144</ele>
        <time>2017-09-03T11:17:03Z</time>
      </trkpt>
      <trkpt lat="50.44128" lon="2.61967">
        <ele>109.2348786</ele>
        <time>2017-09-03T11:17:08Z</time>
      </trkpt>
      <trkpt lat="50.44116" lon="2.61993">
        <ele>108.23535808</ele>
        <time>2017-09-03T11:17:12Z</time>
      </trkpt>
      <trkpt lat="50.44105" lon="2.62024">
        <ele>106.235809</ele>
        <time>2017-09-03T11:17:16Z</time>
      </trkpt>
      <trkpt lat="50.44092" lon="2.62055">
        <ele>104.23630288</ele>
        <time>2017-09-03T11:17:19Z</time>
      </trkpt>
      <trkpt lat="50.44077" lon="2.62082">
        <ele>105.23690344</ele>
        <time>2017-09-03T11:17:23Z</time>
      </trkpt>
      <trkpt lat="50.44081" lon="2.6211">
        <ele>104.23677648</ele>
        <time>2017-09-03T11:17:27Z</time>
      </trkpt>
      <trkpt lat="50.44096" lon="2.62131">
        <ele>101.23617576</ele>
        <time>2017-09-03T11:17:31Z</time>
      </trkpt>
      <trkpt lat="50.44114" lon="2.62152">
        <ele>100.23544796</ele>
        <time>2017-09-03T11:17:36Z</time>
      </trkpt>
      <trkpt lat="50.44128" lon="2.62182">
        <ele>98.2348828</ele>
        <time>2017-09-03T11:17:40Z</time>
      </trkpt>
      <trkpt lat="50.44127" lon="2.62232">
        <ele>97.23493392</ele>
        <time>2017-09-03T11:17:45Z</time>
      </trkpt>
      <trkpt lat="50.4411" lon="2.6227">
        <ele>98.23560532</ele>
        <time>2017-09-03T11:17:50Z</time>
      </trkpt>
      <trkpt lat="50.44089" lon="2.62289">
        <ele>100.2364404</ele>
        <time>2017-09-03T11:17:55Z</time>
      </trkpt>
      <trkpt lat="50.44075" lon="2.62299">
        <ele>101.23699332</ele>
        <time>2017-09-03T11:17:59Z</time>
      </trkpt>
      <trkpt lat="50.44066" lon="2.62309">
        <ele>102.2373656</ele>
        <time>2017-09-03T11:18:03Z</time>
      </trkpt>
      <trkpt lat="50.44059" lon="2.62325">
        <ele>104.23765012</ele>
        <time>2017-09-03T11:18:08Z</time>
      </trkpt>
      <trkpt lat="50.4406" lon="2.62345">
        <ele>104.23761224</ele>
        <time>2017-09-03T11:18:12Z</time>
      </trkpt>
      <trkpt lat="50.44064" lon="2.62364">
        <ele>105.23744088</ele>
        <time>2017-09-03T11:18:16Z</time>
      </trkpt>
      <trkpt lat="50.44073" lon="2.62381">
        <ele>105.23706204</ele>
        <time>2017-09-03T11:18:21Z</time>
      </trkpt>
      <trkpt lat="50.44087" lon="2.62406">
        <ele>104.2365308</ele>
        <time>2017-09-03T11:18:26Z</time>
      </trkpt>
      <trkpt lat="50.44103" lon="2.62431">
        <ele>105.23589536</ele>
        <time>2017-09-03T11:18:31Z</time>
      </trkpt>
      <trkpt lat="50.44108" lon="2.62464">
        <ele>106.2356658</ele>
        <time>2017-09-03T11:18:35Z</time>
      </trkpt>
      <trkpt lat="50.44105" lon="2.6249">
        <ele>108.23580508</ele>
        <time>2017-09-03T11:18:39Z</time>
      </trkpt>
      <trkpt lat="50.44099" lon="2.62515">
        <ele>107.23604348</ele>
        <time>2017-09-03T11:18:43Z</time>
      </trkpt>
      <trkpt lat="50.44093" lon="2.62539">
        <ele>108.236275</ele>
        <time>2017-09-03T11:18:48Z</time>
      </trkpt>
      <trkpt lat="50.44086" lon="2.62567">
        <ele>110.236543</ele>
        <time>2017-09-03T11:18:52Z</time>
      </trkpt>
      <trkpt lat="50.44082" lon="2.62593">
        <ele>112.2367204</ele>
        <time>2017-09-03T11:18:57Z</time>
      </trkpt>
      <trkpt lat="50.44074" lon="2.62619">
        <ele>111.23702344</ele>
        <time>2017-09-03T11:19:02Z</time>
      </trkpt>
      <trkpt lat="50.44065" lon="2.62637">
        <ele>112.23741764</ele>
        <time>2017-09-03T11:19:06Z</time>
      </trkpt>
      <trkpt lat="50.44057" lon="2.62649">
        <ele>112.23773848</ele>
        <time>2017-09-03T11:19:10Z</time>
      </trkpt>
      <trkpt lat="50.44052" lon="2.62679">
        <ele>111.23791424</ele>
        <time>2017-09-03T11:19:15Z</time>
      </trkpt>
      <trkpt lat="50.44055" lon="2.62705">
        <ele>111.23779832</ele>
        <time>2017-09-03T11:19:19Z</time>
      </trkpt>
      <trkpt lat="50.44065" lon="2.62741">
        <ele>110.23739428</ele>
        <time>2017-09-03T11:19:24Z</time>
      </trkpt>
      <trkpt lat="50.44073" lon="2.62766">
        <ele>109.2370894</ele>
        <time>2017-09-03T11:19:28Z</time>
      </trkpt>
      <trkpt lat="50.44085" lon="2.62808">
        <ele>107.23660216</ele>
        <time>2017-09-03T11:19:33Z</time>
      </trkpt>
      <trkpt lat="50.44096" lon="2.62862">
        <ele>104.23617944</ele>
        <time>2017-09-03T11:19:38Z</time>
      </trkpt>
      <trkpt lat="50.44104" lon="2.6291">
        <ele>102.23582864</ele>
        <time>2017-09-03T11:19:42Z</time>
      </trkpt>
      <trkpt lat="50.44112" lon="2.62958">
        <ele>102.23550856</ele>
        <time>2017-09-03T11:19:46Z</time>
      </trkpt>
      <trkpt lat="50.44127" lon="2.62999">
        <ele>100.23490396</ele>
        <time>2017-09-03T11:19:50Z</time>
      </trkpt>
      <trkpt lat="50.44147" lon="2.63036">
        <ele>98.23411476</ele>
        <time>2017-09-03T11:19:54Z</time>
      </trkpt>
      <trkpt lat="50.44174" lon="2.63084">
        <ele>97.23304244</ele>
        <time>2017-09-03T11:19:59Z</time>
      </trkpt>
      <trkpt lat="50.44195" lon="2.63122">
        <ele>96.23219612</ele>
        <time>2017-09-03T11:20:03Z</time>
      </trkpt>
      <trkpt lat="50.44218" lon="2.63159">
        <ele>95.23128012</ele>
        <time>2017-09-03T11:20:07Z</time>
      </trkpt>
      <trkpt lat="50.44242" lon="2.63189">
        <ele>94.23032244</ele>
        <time>2017-09-03T11:20:11Z</time>
      </trkpt>
      <trkpt lat="50.44266" lon="2.6322">
        <ele>93.2293512</ele>
        <time>2017-09-03T11:20:16Z</time>
      </trkpt>
      <trkpt lat="50.44287" lon="2.6326">
        <ele>91.22853756</ele>
        <time>2017-09-03T11:20:20Z</time>
      </trkpt>
      <trkpt lat="50.44306" lon="2.63315">
        <ele>90.22777808</ele>
        <time>2017-09-03T11:20:24Z</time>
      </trkpt>
      <trkpt lat="50.44324" lon="2.63356">
        <ele>89.22704668</ele>
        <time>2017-09-03T11:20:29Z</time>
      </trkpt>
      <trkpt lat="50.44347" lon="2.63401">
        <ele>88.22610948</ele>
        <time>2017-09-03T11:20:34Z</time>
      </trkpt>
      <trkpt lat="50.44364" lon="2.63428">
        <ele>88.22542264</ele>
        <time>2017-09-03T11:20:38Z</time>
      </trkpt>
      <trkpt lat="50.44375" lon="2.63441">
        <ele>88.22499316</ele>
        <time>2017-09-03T11:20:42Z</time>
      </trkpt>
      <trkpt lat="50.44391" lon="2.63465">
        <ele>88.22437784</ele>
        <time>2017-09-03T11:20:46Z</time>
      </trkpt>
      <trkpt lat="50.44413" lon="2.63495">
        <ele>88.2234892</ele>
        <time>2017-09-03T11:20:50Z</time>
      </trkpt>
      <trkpt lat="50.44431" lon="2.63521">
        <ele>89.2227776</ele>
        <time>2017-09-03T11:20:55Z</time>
      </trkpt>
      <trkpt lat="50.44448" lon="2.63545">
        <ele>88.2220772</ele>
        <time>2017-09-03T11:20:59Z</time>
      </trkpt>
      <trkpt lat="50.44467" lon="2.63582">
        <ele>88.22130304</ele>
        <time>2017-09-03T11:21:04Z</time>
      </trkpt>
      <trkpt lat="50.44475" lon="2.63625">
        <ele>85.2210182</ele>
        <time>2017-09-03T11:21:07Z</time>
      </trkpt>
      <trkpt lat="50.4447" lon="2.63668">
        <ele>85.22122108</ele>
        <time>2017-09-03T11:21:11Z</time>
      </trkpt>
      <trkpt lat="50.44487" lon="2.63705">
        <ele>83.22054116</ele>
        <time>2017-09-03T11:21:16Z</time>
      </trkpt>
      <trkpt lat="50.44508" lon="2.63741">
        <ele>81.2196694</ele>
        <time>2017-09-03T11:21:20Z</time>
      </trkpt>
      <trkpt lat="50.44534" lon="2.63799">
        <ele>78.21863796</ele>
        <time>2017-09-03T11:21:25Z</time>
      </trkpt>
      <trkpt lat="50.44564" lon="2.63836">
        <ele>77.21744312</ele>
        <time>2017-09-03T11:21:29Z</time>
      </trkpt>
      <trkpt lat="50.44601" lon="2.63873">
        <ele>76.21596644</ele>
        <time>2017-09-03T11:21:33Z</time>
      </trkpt>
      <trkpt lat="50.44633" lon="2.63905">
        <ele>75.21466348</ele>
        <time>2017-09-03T11:21:38Z</time>
      </trkpt>
      <trkpt lat="50.44654" lon="2.63934">
        <ele>75.21382784</ele>
        <time>2017-09-03T11:21:43Z</time>
      </trkpt>
      <trkpt lat="50.44667" lon="2.63982">
        <ele>77.21332868</ele>
        <time>2017-09-03T11:21:48Z</time>
      </trkpt>
      <trkpt lat="50.44681" lon="2.63997">
        <ele>77.21275932</ele>
        <time>2017-09-03T11:21:53Z</time>
      </trkpt>
      <trkpt lat="50.44697" lon="2.6399">
        <ele>76.21211096</ele>
        <time>2017-09-03T11:21:57Z</time>
      </trkpt>
      <trkpt lat="50.4472" lon="2.6399">
        <ele>75.2112</ele>
        <time>2017-09-03T11:22:01Z</time>
      </trkpt>
      <trkpt lat="50.44731" lon="2.63978">
        <ele>76.21077824</ele>
        <time>2017-09-03T11:22:05Z</time>
      </trkpt>
      <trkpt lat="50.44738" lon="2.63963">
        <ele>76.2104896</ele>
        <time>2017-09-03T11:22:10Z</time>
      </trkpt>
      <trkpt lat="50.44751" lon="2.63939">
        <ele>77.2099746</ele>
        <time>2017-09-03T11:22:14Z</time>
      </trkpt>
      <trkpt lat="50.44763" lon="2.63918">
        <ele>76.20949816</ele>
        <time>2017-09-03T11:22:18Z</time>
      </trkpt>
      <trkpt lat="50.44776" lon="2.63899">
        <ele>77.2089462</ele>
        <time>2017-09-03T11:22:22Z</time>
      </trkpt>
      <trkpt lat="50.44795" lon="2.63876">
        <ele>77.20821944</ele>
        <time>2017-09-03T11:22:27Z</time>
      </trkpt>
      <trkpt lat="50.44812" lon="2.63854">
        <ele>78.20752628</ele>
        <time>2017-09-03T11:22:32Z</time>
      </trkpt>
      <trkpt lat="50.44828" lon="2.6384">
        <ele>77.20688388</ele>
        <time>2017-09-03T11:22:37Z</time>
      </trkpt>
      <trkpt lat="50.4485" lon="2.6382">
        <ele>78.20600468</ele>
        <time>2017-09-03T11:22:42Z</time>
      </trkpt>
      <trkpt lat="50.44868" lon="2.63803">
        <ele>79.2052966</ele>
        <time>2017-09-03T11:22:46Z</time>
      </trkpt>
      <trkpt lat="50.44884" lon="2.63784">
        <ele>78.20462452</ele>
        <time>2017-09-03T11:22:50Z</time>
      </trkpt>
      <trkpt lat="50.44901" lon="2.63765">
        <ele>79.20396204</ele>
        <time>2017-09-03T11:22:53Z</time>
      </trkpt>
      <trkpt lat="50.44918" lon="2.63743">
        <ele>77.20329444</ele>
        <time>2017-09-03T11:22:57Z</time>
      </trkpt>
      <trkpt lat="50.44934" lon="2.63722">
        <ele>77.202634</ele>
        <time>2017-09-03T11:23:02Z</time>
      </trkpt>
      <trkpt lat="50.44953" lon="2.6369">
        <ele>77.20187192</ele>
        <time>2017-09-03T11:23:06Z</time>
      </trkpt>
      <trkpt lat="50.4496" lon="2.63675">
        <ele>77.20158444</ele>
        <time>2017-09-03T11:23:11Z</time>
      </trkpt>
      <trkpt lat="50.44976" lon="2.63653">
        <ele>76.20096728</ele>
        <time>2017-09-03T11:23:15Z</time>
      </trkpt>
      <trkpt lat="50.4498" lon="2.63643">
        <ele>76.20079724</ele>
        <time>2017-09-03T11:23:19Z</time>
      </trkpt>
      <trkpt lat="50.44987" lon="2.63627">
        <ele>77.2005144</ele>
        <time>2017-09-03T11:23:24Z</time>
      </trkpt>
      <trkpt lat="50.45001" lon="2.636">
        <ele>77.19996988</ele>
        <time>2017-09-03T11:23:28Z</time>
      </trkpt>
      <trkpt lat="50.45014" lon="2.63574">
        <ele>76.19943452</ele>
        <time>2017-09-03T11:23:32Z</time>
      </trkpt>
      <trkpt lat="50.45031" lon="2.63539">
        <ele>75.19875304</ele>
        <time>2017-09-03T11:23:37Z</time>
      </trkpt>
      <trkpt lat="50.45044" lon="2.63509">
        <ele>76.19825232</ele>
        <time>2017-09-03T11:23:41Z</time>
      </trkpt>
      <trkpt lat="50.45058" lon="2.6348">
        <ele>75.197681</ele>
        <time>2017-09-03T11:23:46Z</time>
      </trkpt>
      <trkpt lat="50.45072" lon="2.63447">
        <ele>76.19711868</ele>
        <time>2017-09-03T11:23:50Z</time>
      </trkpt>
      <trkpt lat="50.45088" lon="2.63416">
        <ele>74.19649516</ele>
        <time>2017-09-03T11:23:54Z</time>
      </trkpt>
      <trkpt lat="50.45106" lon="2.63381">
        <ele>74.19574948</ele>
        <time>2017-09-03T11:23:58Z</time>
      </trkpt>
      <trkpt lat="50.45121" lon="2.63346">
        <ele>74.19514248</ele>
        <time>2017-09-03T11:24:03Z</time>
      </trkpt>
      <trkpt lat="50.45139" lon="2.63306">
        <ele>76.19442308</ele>
        <time>2017-09-03T11:24:08Z</time>
      </trkpt>
      <trkpt lat="50.45162" lon="2.63271">
        <ele>76.193519</ele>
        <time>2017-09-03T11:24:12Z</time>
      </trkpt>
      <trkpt lat="50.4518" lon="2.63249">
        <ele>76.19281184</ele>
        <time>2017-09-03T11:24:16Z</time>
      </trkpt>
      <trkpt lat="50.45198" lon="2.63225">
        <ele>74.1920832</ele>
        <time>2017-09-03T11:24:21Z</time>
      </trkpt>
      <trkpt lat="50.45207" lon="2.63216">
        <ele>74.19172176</ele>
        <time>2017-09-03T11:24:26Z</time>
      </trkpt>
      <trkpt lat="50.45225" lon="2.63209">
        <ele>73.19099156</ele>
        <time>2017-09-03T11:24:30Z</time>
      </trkpt>
      <trkpt lat="50.45241" lon="2.63208">
        <ele>72.19034968</ele>
        <time>2017-09-03T11:24:35Z</time>
      </trkpt>
      <trkpt lat="50.45264" lon="2.63202">
        <ele>69.18943236</ele>
        <time>2017-09-03T11:24:39Z</time>
      </trkpt>
      <trkpt lat="50.453" lon="2.63188">
        <ele>68.18800608</ele>
        <time>2017-09-03T11:24:43Z</time>
      </trkpt>
      <trkpt lat="50.45338" lon="2.63169">
        <ele>66.18649076</ele>
        <time>2017-09-03T11:24:48Z</time>
      </trkpt>
      <trkpt lat="50.45374" lon="2.63149">
        <ele>66.18505436</ele>
        <time>2017-09-03T11:24:53Z</time>
      </trkpt>
      <trkpt lat="50.45401" lon="2.63134">
        <ele>65.18394628</ele>
        <time>2017-09-03T11:24:58Z</time>
      </trkpt>
      <trkpt lat="50.45422" lon="2.63144">
        <ele>65.1831036</ele>
        <time>2017-09-03T11:25:03Z</time>
      </trkpt>
      <trkpt lat="50.45433" lon="2.63155">
        <ele>63.18266584</ele>
        <time>2017-09-03T11:25:07Z</time>
      </trkpt>
      <trkpt lat="50.45437" lon="2.63179">
        <ele>63.18252696</ele>
        <time>2017-09-03T11:25:11Z</time>
      </trkpt>
      <trkpt lat="50.45431" lon="2.63204">
        <ele>65.1827536</ele>
        <time>2017-09-03T11:25:15Z</time>
      </trkpt>
      <trkpt lat="50.45418" lon="2.63228">
        <ele>65.1832656</ele>
        <time>2017-09-03T11:25:20Z</time>
      </trkpt>
      <trkpt lat="50.45403" lon="2.63255">
        <ele>65.18387668</ele>
        <time>2017-09-03T11:25:24Z</time>
      </trkpt>
      <trkpt lat="50.45393" lon="2.63271">
        <ele>65.18426716</ele>
        <time>2017-09-03T11:25:28Z</time>
      </trkpt>
      <trkpt lat="50.45405" lon="2.63282">
        <ele>63.18380492</ele>
        <time>2017-09-03T11:25:33Z</time>
      </trkpt>
      <trkpt lat="50.45434" lon="2.63296">
        <ele>62.18265752</ele>
        <time>2017-09-03T11:25:37Z</time>
      </trkpt>
      <trkpt lat="50.45466" lon="2.63309">
        <ele>62.18136372</ele>
        <time>2017-09-03T11:25:42Z</time>
      </trkpt>
      <trkpt lat="50.4549" lon="2.63326">
        <ele>61.18040456</ele>
        <time>2017-09-03T11:25:47Z</time>
      </trkpt>
      <trkpt lat="50.45507" lon="2.63339">
        <ele>61.1797252</ele>
        <time>2017-09-03T11:25:50Z</time>
      </trkpt>
      <trkpt lat="50.45533" lon="2.63363">
        <ele>59.17866964</ele>
        <time>2017-09-03T11:25:55Z</time>
      </trkpt>
      <trkpt lat="50.45562" lon="2.63391">
        <ele>59.17751612</ele>
        <time>2017-09-03T11:25:59Z</time>
      </trkpt>
      <trkpt lat="50.4558" lon="2.6341">
        <ele>59.17679912</ele>
        <time>2017-09-03T11:26:02Z</time>
      </trkpt>
      <trkpt lat="50.45603" lon="2.63432">
        <ele>58.17588204</ele>
        <time>2017-09-03T11:26:06Z</time>
      </trkpt>
      <trkpt lat="50.45628" lon="2.63451">
        <ele>57.17490104</ele>
        <time>2017-09-03T11:26:11Z</time>
      </trkpt>
      <trkpt lat="50.45652" lon="2.63472">
        <ele>57.17391832</ele>
        <time>2017-09-03T11:26:15Z</time>
      </trkpt>
      <trkpt lat="50.45675" lon="2.63494">
        <ele>56.17298932</ele>
        <time>2017-09-03T11:26:19Z</time>
      </trkpt>
      <trkpt lat="50.45705" lon="2.63524">
        <ele>56.17181224</ele>
        <time>2017-09-03T11:26:24Z</time>
      </trkpt>
      <trkpt lat="50.45723" lon="2.63544">
        <ele>56.17108472</ele>
        <time>2017-09-03T11:26:27Z</time>
      </trkpt>
      <trkpt lat="50.45747" lon="2.63569">
        <ele>55.1701072</ele>
        <time>2017-09-03T11:26:30Z</time>
      </trkpt>
      <trkpt lat="50.45772" lon="2.63595">
        <ele>54.16911636</ele>
        <time>2017-09-03T11:26:34Z</time>
      </trkpt>
      <trkpt lat="50.45797" lon="2.63622">
        <ele>54.16811988</ele>
        <time>2017-09-03T11:26:39Z</time>
      </trkpt>
      <trkpt lat="50.45827" lon="2.63658">
        <ele>54.1669394</ele>
        <time>2017-09-03T11:26:43Z</time>
      </trkpt>
      <trkpt lat="50.45849" lon="2.63685">
        <ele>54.166047</ele>
        <time>2017-09-03T11:26:48Z</time>
      </trkpt>
      <trkpt lat="50.45871" lon="2.6371">
        <ele>53.16517052</ele>
        <time>2017-09-03T11:26:51Z</time>
      </trkpt>
      <trkpt lat="50.45893" lon="2.63736">
        <ele>53.1642754</ele>
        <time>2017-09-03T11:26:56Z</time>
      </trkpt>
      <trkpt lat="50.45917" lon="2.63773">
        <ele>53.16331312</ele>
        <time>2017-09-03T11:27:01Z</time>
      </trkpt>
      <trkpt lat="50.45938" lon="2.63813">
        <ele>52.16250164</ele>
        <time>2017-09-03T11:27:06Z</time>
      </trkpt>
      <trkpt lat="50.45953" lon="2.63842">
        <ele>52.16189968</ele>
        <time>2017-09-03T11:27:10Z</time>
      </trkpt>
      <trkpt lat="50.45967" lon="2.63872">
        <ele>52.16133076</ele>
        <time>2017-09-03T11:27:14Z</time>
      </trkpt>
      <trkpt lat="50.45985" lon="2.63907">
        <ele>51.16058304</ele>
        <time>2017-09-03T11:27:19Z</time>
      </trkpt>
      <trkpt lat="50.46005" lon="2.63936">
        <ele>50.15980124</ele>
        <time>2017-09-03T11:27:23Z</time>
      </trkpt>
      <trkpt lat="50.46024" lon="2.63962">
        <ele>50.1590442</ele>
        <time>2017-09-03T11:27:28Z</time>
      </trkpt>
      <trkpt lat="50.46048" lon="2.63993">
        <ele>50.15807604</ele>
        <time>2017-09-03T11:27:33Z</time>
      </trkpt>
      <trkpt lat="50.46069" lon="2.64028">
        <ele>50.15724072</ele>
        <time>2017-09-03T11:27:37Z</time>
      </trkpt>
      <trkpt lat="50.46086" lon="2.64052">
        <ele>50.15657856</ele>
        <time>2017-09-03T11:27:41Z</time>
      </trkpt>
      <trkpt lat="50.46101" lon="2.64075">
        <ele>49.1559674</ele>
        <time>2017-09-03T11:27:45Z</time>
      </trkpt>
      <trkpt lat="50.46117" lon="2.64097">
        <ele>49.15531844</ele>
        <time>2017-09-03T11:27:50Z</time>
      </trkpt>
      <trkpt lat="50.46135" lon="2.64119">
        <ele>48.1545938</ele>
        <time>2017-09-03T11:27:53Z</time>
      </trkpt>
      <trkpt lat="50.46154" lon="2.64142">
        <ele>48.15386088</ele>
        <time>2017-09-03T11:27:58Z</time>
      </trkpt>
      <trkpt lat="50.46178" lon="2.64173">
        <ele>49.152881</ele>
        <time>2017-09-03T11:28:02Z</time>
      </trkpt>
      <trkpt lat="50.46199" lon="2.64197">
        <ele>49.15204612</ele>
        <time>2017-09-03T11:28:07Z</time>
      </trkpt>
      <trkpt lat="50.46225" lon="2.64226">
        <ele>48.15099156</ele>
        <time>2017-09-03T11:28:11Z</time>
      </trkpt>
      <trkpt lat="50.46243" lon="2.64249">
        <ele>48.1502674</ele>
        <time>2017-09-03T11:28:15Z</time>
      </trkpt>
      <trkpt lat="50.46236" lon="2.64242">
        <ele>48.15057296</ele>
        <time>2017-09-03T11:28:50Z</time>
      </trkpt>
      <trkpt lat="50.46242" lon="2.64249">
        <ele>48.15030596</ele>
        <time>2017-09-03T11:29:10Z</time>
      </trkpt>
      <trkpt lat="50.46249" lon="2.64258">
        <ele>48.1500448</ele>
        <time>2017-09-03T11:29:15Z</time>
      </trkpt>
      <trkpt lat="50.46254" lon="2.64251">
        <ele>48.14984872</ele>
        <time>2017-09-03T11:29:21Z</time>
      </trkpt>
      <trkpt lat="50.46255" lon="2.64222">
        <ele>49.14980108</ele>
        <time>2017-09-03T11:29:26Z</time>
      </trkpt>
      <trkpt lat="50.46258" lon="2.64196">
        <ele>49.14966548</ele>
        <time>2017-09-03T11:29:30Z</time>
      </trkpt>
      <trkpt lat="50.46262" lon="2.64168">
        <ele>49.14950476</ele>
        <time>2017-09-03T11:29:34Z</time>
      </trkpt>
      <trkpt lat="50.46266" lon="2.64132">
        <ele>50.1493602</ele>
        <time>2017-09-03T11:29:39Z</time>
      </trkpt>
      <trkpt lat="50.46268" lon="2.64097">
        <ele>51.1492912</ele>
        <time>2017-09-03T11:29:43Z</time>
      </trkpt>
      <trkpt lat="50.46267" lon="2.64066">
        <ele>52.1493204</ele>
        <time>2017-09-03T11:29:48Z</time>
      </trkpt>
      <trkpt lat="50.46266" lon="2.64044">
        <ele>52.14936268</ele>
        <time>2017-09-03T11:29:53Z</time>
      </trkpt>
      <trkpt lat="50.46265" lon="2.64017">
        <ele>53.14939416</ele>
        <time>2017-09-03T11:29:58Z</time>
      </trkpt>
      <trkpt lat="50.46265" lon="2.63992">
        <ele>53.14941756</ele>
        <time>2017-09-03T11:30:02Z</time>
      </trkpt>
      <trkpt lat="50.46264" lon="2.63972">
        <ele>54.14943944</ele>
        <time>2017-09-03T11:30:07Z</time>
      </trkpt>
      <trkpt lat="50.46264" lon="2.63949">
        <ele>55.14946092</ele>
        <time>2017-09-03T11:30:11Z</time>
      </trkpt>
      <trkpt lat="50.46263" lon="2.63931">
        <ele>56.14946548</ele>
        <time>2017-09-03T11:30:16Z</time>
      </trkpt>
      <trkpt lat="50.46263" lon="2.63914">
        <ele>57.14948856</ele>
        <time>2017-09-03T11:30:20Z</time>
      </trkpt>
      <trkpt lat="50.46262" lon="2.63892">
        <ele>57.14950464</ele>
        <time>2017-09-03T11:30:24Z</time>
      </trkpt>
      <trkpt lat="50.46262" lon="2.63874">
        <ele>58.14951952</ele>
        <time>2017-09-03T11:30:29Z</time>
      </trkpt>
      <trkpt lat="50.46262" lon="2.63854">
        <ele>60.14952268</ele>
        <time>2017-09-03T11:30:33Z</time>
      </trkpt>
      <trkpt lat="50.46262" lon="2.63839">
        <ele>61.14952204</ele>
        <time>2017-09-03T11:30:38Z</time>
      </trkpt>
      <trkpt lat="50.46263" lon="2.63823">
        <ele>62.149498</ele>
        <time>2017-09-03T11:30:42Z</time>
      </trkpt>
      <trkpt lat="50.46264" lon="2.63811">
        <ele>63.14946092</ele>
        <time>2017-09-03T11:30:46Z</time>
      </trkpt>
      <trkpt lat="50.46265" lon="2.63798">
        <ele>64.14939564</ele>
        <time>2017-09-03T11:30:50Z</time>
      </trkpt>
      <trkpt lat="50.46268" lon="2.63781">
        <ele>65.14929856</ele>
        <time>2017-09-03T11:30:55Z</time>
      </trkpt>
      <trkpt lat="50.46272" lon="2.63762">
        <ele>65.14912676</ele>
        <time>2017-09-03T11:30:59Z</time>
      </trkpt>
      <trkpt lat="50.46276" lon="2.63735">
        <ele>66.148961</ele>
        <time>2017-09-03T11:31:04Z</time>
      </trkpt>
      <trkpt lat="50.4628" lon="2.63708">
        <ele>66.14879048</ele>
        <time>2017-09-03T11:31:09Z</time>
      </trkpt>
      <trkpt lat="50.46284" lon="2.63683">
        <ele>66.14864748</ele>
        <time>2017-09-03T11:31:13Z</time>
      </trkpt>
      <trkpt lat="50.46287" lon="2.63664">
        <ele>67.14852164</ele>
        <time>2017-09-03T11:31:17Z</time>
      </trkpt>
      <trkpt lat="50.4629" lon="2.63644">
        <ele>67.14839348</ele>
        <time>2017-09-03T11:31:22Z</time>
      </trkpt>
      <trkpt lat="50.46295" lon="2.63617">
        <ele>68.14819244</ele>
        <time>2017-09-03T11:31:26Z</time>
      </trkpt>
      <trkpt lat="50.46299" lon="2.63594">
        <ele>68.14802864</ele>
        <time>2017-09-03T11:31:31Z</time>
      </trkpt>
      <trkpt lat="50.46304" lon="2.63572">
        <ele>68.14786104</ele>
        <time>2017-09-03T11:31:35Z</time>
      </trkpt>
      <trkpt lat="50.46309" lon="2.63541">
        <ele>67.1476362</ele>
        <time>2017-09-03T11:31:39Z</time>
      </trkpt>
      <trkpt lat="50.46315" lon="2.63514">
        <ele>67.14738936</ele>
        <time>2017-09-03T11:31:44Z</time>
      </trkpt>
      <trkpt lat="50.46324" lon="2.63479">
        <ele>67.14702468</ele>
        <time>2017-09-03T11:31:48Z</time>
      </trkpt>
      <trkpt lat="50.46335" lon="2.63451">
        <ele>66.14661144</ele>
        <time>2017-09-03T11:31:52Z</time>
      </trkpt>
      <trkpt lat="50.46343" lon="2.63421">
        <ele>65.14626752</ele>
        <time>2017-09-03T11:31:56Z</time>
      </trkpt>
      <trkpt lat="50.46357" lon="2.63385">
        <ele>65.14572192</ele>
        <time>2017-09-03T11:32:01Z</time>
      </trkpt>
      <trkpt lat="50.46366" lon="2.63357">
        <ele>65.14536836</ele>
        <time>2017-09-03T11:32:06Z</time>
      </trkpt>
      <trkpt lat="50.46375" lon="2.63327">
        <ele>65.14502164</ele>
        <time>2017-09-03T11:32:10Z</time>
      </trkpt>
      <trkpt lat="50.46385" lon="2.63289">
        <ele>65.14458952</ele>
        <time>2017-09-03T11:32:15Z</time>
      </trkpt>
      <trkpt lat="50.46397" lon="2.63252">
        <ele>65.14412532</ele>
        <time>2017-09-03T11:32:19Z</time>
      </trkpt>
      <trkpt lat="50.46403" lon="2.6323">
        <ele>65.14387124</ele>
        <time>2017-09-03T11:32:23Z</time>
      </trkpt>
      <trkpt lat="50.4641" lon="2.6319">
        <ele>65.14360912</ele>
        <time>2017-09-03T11:32:27Z</time>
      </trkpt>
      <trkpt lat="50.46415" lon="2.63158">
        <ele>65.14341748</ele>
        <time>2017-09-03T11:32:31Z</time>
      </trkpt>
      <trkpt lat="50.46418" lon="2.63125">
        <ele>66.14327176</ele>
        <time>2017-09-03T11:32:35Z</time>
      </trkpt>
      <trkpt lat="50.46423" lon="2.63093">
        <ele>65.14306212</ele>
        <time>2017-09-03T11:32:40Z</time>
      </trkpt>
      <trkpt lat="50.46431" lon="2.63052">
        <ele>65.14274712</ele>
        <time>2017-09-03T11:32:44Z</time>
      </trkpt>
      <trkpt lat="50.46437" lon="2.63018">
        <ele>66.14253408</ele>
        <time>2017-09-03T11:32:49Z</time>
      </trkpt>
      <trkpt lat="50.46441" lon="2.62994">
        <ele>66.14234368</ele>
        <time>2017-09-03T11:32:52Z</time>
      </trkpt>
      <trkpt lat="50.46448" lon="2.62969">
        <ele>65.14208292</ele>
        <time>2017-09-03T11:32:55Z</time>
      </trkpt>
      <trkpt lat="50.46454" lon="2.6295">
        <ele>64.14182756</ele>
        <time>2017-09-03T11:33:00Z</time>
      </trkpt>
      <trkpt lat="50.46473" lon="2.6296">
        <ele>64.14109972</ele>
        <time>2017-09-03T11:33:04Z</time>
      </trkpt>
      <trkpt lat="50.46495" lon="2.62979">
        <ele>63.14021948</ele>
        <time>2017-09-03T11:33:09Z</time>
      </trkpt>
      <trkpt lat="50.46523" lon="2.63001">
        <ele>63.13908892</ele>
        <time>2017-09-03T11:33:14Z</time>
      </trkpt>
      <trkpt lat="50.4655" lon="2.63009">
        <ele>63.1379944</ele>
        <time>2017-09-03T11:33:19Z</time>
      </trkpt>
      <trkpt lat="50.46576" lon="2.63013">
        <ele>62.136942</ele>
        <time>2017-09-03T11:33:24Z</time>
      </trkpt>
      <trkpt lat="50.46605" lon="2.63021">
        <ele>62.13578688</ele>
        <time>2017-09-03T11:33:28Z</time>
      </trkpt>
      <trkpt lat="50.4663" lon="2.63016">
        <ele>62.1348108</ele>
        <time>2017-09-03T11:33:33Z</time>
      </trkpt>
      <trkpt lat="50.46656" lon="2.63009">
        <ele>62.13377232</ele>
        <time>2017-09-03T11:33:37Z</time>
      </trkpt>
      <trkpt lat="50.46683" lon="2.62985">
        <ele>62.13266608</ele>
        <time>2017-09-03T11:33:41Z</time>
      </trkpt>
      <trkpt lat="50.46707" lon="2.62974">
        <ele>61.131718</ele>
        <time>2017-09-03T11:33:46Z</time>
      </trkpt>
      <trkpt lat="50.46739" lon="2.62972">
        <ele>61.13042208</ele>
        <time>2017-09-03T11:33:51Z</time>
      </trkpt>
      <trkpt lat="50.46772" lon="2.6297">
        <ele>61.12911228</ele>
        <time>2017-09-03T11:33:55Z</time>
      </trkpt>
      <trkpt lat="50.46797" lon="2.62971">
        <ele>62.12813692</ele>
        <time>2017-09-03T11:34:00Z</time>
      </trkpt>
      <trkpt lat="50.46828" lon="2.62973">
        <ele>61.126883</ele>
        <time>2017-09-03T11:34:04Z</time>
      </trkpt>
      <trkpt lat="50.46854" lon="2.62973">
        <ele>61.1258564</ele>
        <time>2017-09-03T11:34:08Z</time>
      </trkpt>
      <trkpt lat="50.4688" lon="2.62971">
        <ele>61.12482172</ele>
        <time>2017-09-03T11:34:12Z</time>
      </trkpt>
      <trkpt lat="50.46903" lon="2.62969">
        <ele>61.12389928</ele>
        <time>2017-09-03T11:34:16Z</time>
      </trkpt>
      <trkpt lat="50.46927" lon="2.62965">
        <ele>61.12290504</ele>
        <time>2017-09-03T11:34:20Z</time>
      </trkpt>
      <trkpt lat="50.46961" lon="2.62961">
        <ele>60.121545</ele>
        <time>2017-09-03T11:34:25Z</time>
      </trkpt>
      <trkpt lat="50.46989" lon="2.62956">
        <ele>60.12043508</ele>
        <time>2017-09-03T11:34:30Z</time>
      </trkpt>
      <trkpt lat="50.4702" lon="2.62953">
        <ele>59.11919344</ele>
        <time>2017-09-03T11:34:35Z</time>
      </trkpt>
      <trkpt lat="50.47043" lon="2.6295">
        <ele>60.1182902</ele>
        <time>2017-09-03T11:34:39Z</time>
      </trkpt>
      <trkpt lat="50.47072" lon="2.62952">
        <ele>61.117102</ele>
        <time>2017-09-03T11:34:43Z</time>
      </trkpt>
      <trkpt lat="50.47103" lon="2.62962">
        <ele>61.11587256</ele>
        <time>2017-09-03T11:34:48Z</time>
      </trkpt>
      <trkpt lat="50.47127" lon="2.62972">
        <ele>61.11490556</ele>
        <time>2017-09-03T11:34:53Z</time>
      </trkpt>
      <trkpt lat="50.47151" lon="2.6298">
        <ele>61.11395604</ele>
        <time>2017-09-03T11:34:57Z</time>
      </trkpt>
      <trkpt lat="50.47177" lon="2.62987">
        <ele>60.1129022</ele>
        <time>2017-09-03T11:35:01Z</time>
      </trkpt>
      <trkpt lat="50.47193" lon="2.62992">
        <ele>61.11229976</ele>
        <time>2017-09-03T11:35:05Z</time>
      </trkpt>
      <trkpt lat="50.4722" lon="2.63002">
        <ele>61.11119624</ele>
        <time>2017-09-03T11:35:10Z</time>
      </trkpt>
      <trkpt lat="50.47242" lon="2.6301">
        <ele>62.11030668</ele>
        <time>2017-09-03T11:35:13Z</time>
      </trkpt>
      <trkpt lat="50.47266" lon="2.63018">
        <ele>61.10936304</ele>
        <time>2017-09-03T11:35:18Z</time>
      </trkpt>
      <trkpt lat="50.47289" lon="2.63025">
        <ele>62.10844296</ele>
        <time>2017-09-03T11:35:21Z</time>
      </trkpt>
      <trkpt lat="50.4731" lon="2.63035">
        <ele>63.10759196</ele>
        <time>2017-09-03T11:35:26Z</time>
      </trkpt>
      <trkpt lat="50.47336" lon="2.63052">
        <ele>62.10657756</ele>
        <time>2017-09-03T11:35:30Z</time>
      </trkpt>
      <trkpt lat="50.47354" lon="2.63062">
        <ele>62.10584888</ele>
        <time>2017-09-03T11:35:34Z</time>
      </trkpt>
      <trkpt lat="50.47372" lon="2.63074">
        <ele>62.10511208</ele>
        <time>2017-09-03T11:35:39Z</time>
      </trkpt>
      <trkpt lat="50.47391" lon="2.63083">
        <ele>62.10434648</ele>
        <time>2017-09-03T11:35:43Z</time>
      </trkpt>
      <trkpt lat="50.47414" lon="2.63088">
        <ele>62.10342344</ele>
        <time>2017-09-03T11:35:47Z</time>
      </trkpt>
      <trkpt lat="50.47431" lon="2.63084">
        <ele>61.10276996</ele>
        <time>2017-09-03T11:35:51Z</time>
      </trkpt>
      <trkpt lat="50.47447" lon="2.63078">
        <ele>61.10214024</ele>
        <time>2017-09-03T11:35:56Z</time>
      </trkpt>
      <trkpt lat="50.47461" lon="2.63074">
        <ele>60.10156132</ele>
        <time>2017-09-03T11:36:00Z</time>
      </trkpt>
      <trkpt lat="50.47486" lon="2.6307">
        <ele>60.10057776</ele>
        <time>2017-09-03T11:36:04Z</time>
      </trkpt>
      <trkpt lat="50.47499" lon="2.63073">
        <ele>59.100029</ele>
        <time>2017-09-03T11:36:09Z</time>
      </trkpt>
      <trkpt lat="50.47515" lon="2.63077">
        <ele>59.09940292</ele>
        <time>2017-09-03T11:36:13Z</time>
      </trkpt>
      <trkpt lat="50.47532" lon="2.63083">
        <ele>60.09871284</ele>
        <time>2017-09-03T11:36:18Z</time>
      </trkpt>
      <trkpt lat="50.47552" lon="2.63089">
        <ele>59.09792112</ele>
        <time>2017-09-03T11:36:23Z</time>
      </trkpt>
      <trkpt lat="50.47574" lon="2.63097">
        <ele>59.09703808</ele>
        <time>2017-09-03T11:36:28Z</time>
      </trkpt>
      <trkpt lat="50.4759" lon="2.63104">
        <ele>58.09641512</ele>
        <time>2017-09-03T11:36:32Z</time>
      </trkpt>
      <trkpt lat="50.47605" lon="2.63113">
        <ele>57.0958124</ele>
        <time>2017-09-03T11:36:35Z</time>
      </trkpt>
      <trkpt lat="50.47629" lon="2.6313">
        <ele>57.0948408</ele>
        <time>2017-09-03T11:36:40Z</time>
      </trkpt>
      <trkpt lat="50.47649" lon="2.6314">
        <ele>55.094031</ele>
        <time>2017-09-03T11:36:45Z</time>
      </trkpt>
      <trkpt lat="50.47671" lon="2.63151">
        <ele>55.09314316</ele>
        <time>2017-09-03T11:36:50Z</time>
      </trkpt>
      <trkpt lat="50.47682" lon="2.63159">
        <ele>56.09271256</ele>
        <time>2017-09-03T11:36:52Z</time>
      </trkpt>
      <trkpt lat="50.47699" lon="2.63166">
        <ele>52.0920514</ele>
        <time>2017-09-03T11:36:56Z</time>
      </trkpt>
      <trkpt lat="50.47721" lon="2.63171">
        <ele>52.0911644</ele>
        <time>2017-09-03T11:37:01Z</time>
      </trkpt>
      <trkpt lat="50.47744" lon="2.63177">
        <ele>52.09026052</ele>
        <time>2017-09-03T11:37:05Z</time>
      </trkpt>
      <trkpt lat="50.47769" lon="2.63185">
        <ele>52.0892456</ele>
        <time>2017-09-03T11:37:10Z</time>
      </trkpt>
      <trkpt lat="50.47803" lon="2.63191">
        <ele>52.08787388</ele>
        <time>2017-09-03T11:37:15Z</time>
      </trkpt>
      <trkpt lat="50.47832" lon="2.63195">
        <ele>52.08673528</ele>
        <time>2017-09-03T11:37:19Z</time>
      </trkpt>
      <trkpt lat="50.47866" lon="2.632">
        <ele>52.08538136</ele>
        <time>2017-09-03T11:37:23Z</time>
      </trkpt>
      <trkpt lat="50.47891" lon="2.63198">
        <ele>51.08437748</ele>
        <time>2017-09-03T11:37:28Z</time>
      </trkpt>
      <trkpt lat="50.47922" lon="2.63202">
        <ele>51.0831046</ele>
        <time>2017-09-03T11:37:33Z</time>
      </trkpt>
      <trkpt lat="50.4794" lon="2.632">
        <ele>51.08241396</ele>
        <time>2017-09-03T11:37:35Z</time>
      </trkpt>
      <trkpt lat="50.47959" lon="2.63202">
        <ele>50.08163292</ele>
        <time>2017-09-03T11:37:39Z</time>
      </trkpt>
      <trkpt lat="50.47978" lon="2.63202">
        <ele>51.08090128</ele>
        <time>2017-09-03T11:37:44Z</time>
      </trkpt>
      <trkpt lat="50.48001" lon="2.63193">
        <ele>53.079948</ele>
        <time>2017-09-03T11:37:49Z</time>
      </trkpt>
      <trkpt lat="50.48026" lon="2.63192">
        <ele>53.07895492</ele>
        <time>2017-09-03T11:37:53Z</time>
      </trkpt>
      <trkpt lat="50.48058" lon="2.63193">
        <ele>52.07768728</ele>
        <time>2017-09-03T11:37:57Z</time>
      </trkpt>
      <trkpt lat="50.48086" lon="2.63197">
        <ele>50.07658172</ele>
        <time>2017-09-03T11:38:02Z</time>
      </trkpt>
      <trkpt lat="50.48105" lon="2.63196">
        <ele>50.07579912</ele>
        <time>2017-09-03T11:38:07Z</time>
      </trkpt>
      <trkpt lat="50.4813" lon="2.63196">
        <ele>50.07480588</ele>
        <time>2017-09-03T11:38:11Z</time>
      </trkpt>
      <trkpt lat="50.48156" lon="2.63197">
        <ele>50.07374612</ele>
        <time>2017-09-03T11:38:16Z</time>
      </trkpt>
      <trkpt lat="50.48182" lon="2.63196">
        <ele>46.07271004</ele>
        <time>2017-09-03T11:38:21Z</time>
      </trkpt>
      <trkpt lat="50.48205" lon="2.63194">
        <ele>47.07180788</ele>
        <time>2017-09-03T11:38:25Z</time>
      </trkpt>
      <trkpt lat="50.48224" lon="2.63195">
        <ele>47.07104772</ele>
        <time>2017-09-03T11:38:30Z</time>
      </trkpt>
      <trkpt lat="50.48243" lon="2.63197">
        <ele>47.07029188</ele>
        <time>2017-09-03T11:38:34Z</time>
      </trkpt>
      <trkpt lat="50.48265" lon="2.63201">
        <ele>46.06941476</ele>
        <time>2017-09-03T11:38:38Z</time>
      </trkpt>
      <trkpt lat="50.48283" lon="2.63206">
        <ele>46.0686722</ele>
        <time>2017-09-03T11:38:42Z</time>
      </trkpt>
      <trkpt lat="50.48298" lon="2.63214">
        <ele>45.06807084</ele>
        <time>2017-09-03T11:38:47Z</time>
      </trkpt>
      <trkpt lat="50.48297" lon="2.63235">
        <ele>44.06812316</ele>
        <time>2017-09-03T11:38:51Z</time>
      </trkpt>
      <trkpt lat="50.48292" lon="2.63252">
        <ele>44.06834128</ele>
        <time>2017-09-03T11:38:54Z</time>
      </trkpt>
      <trkpt lat="50.48282" lon="2.63282">
        <ele>44.06871392</ele>
        <time>2017-09-03T11:38:59Z</time>
      </trkpt>
      <trkpt lat="50.48274" lon="2.63307">
        <ele>46.06902328</ele>
        <time>2017-09-03T11:39:03Z</time>
      </trkpt>
      <trkpt lat="50.48269" lon="2.63327">
        <ele>46.06923932</ele>
        <time>2017-09-03T11:39:08Z</time>
      </trkpt>
      <trkpt lat="50.4826" lon="2.63345">
        <ele>48.06959024</ele>
        <time>2017-09-03T11:39:11Z</time>
      </trkpt>
      <trkpt lat="50.48251" lon="2.63371">
        <ele>48.06996092</ele>
        <time>2017-09-03T11:39:16Z</time>
      </trkpt>
      <trkpt lat="50.48243" lon="2.63389">
        <ele>50.07028964</ele>
        <time>2017-09-03T11:39:21Z</time>
      </trkpt>
      <trkpt lat="50.48234" lon="2.63401">
        <ele>51.07065196</ele>
        <time>2017-09-03T11:39:25Z</time>
      </trkpt>
      <trkpt lat="50.48222" lon="2.63414">
        <ele>54.07111752</ele>
        <time>2017-09-03T11:39:30Z</time>
      </trkpt>
      <trkpt lat="50.48212" lon="2.63425">
        <ele>54.07152204</ele>
        <time>2017-09-03T11:39:34Z</time>
      </trkpt>
      <trkpt lat="50.48202" lon="2.63435">
        <ele>54.07192748</ele>
        <time>2017-09-03T11:39:39Z</time>
      </trkpt>
      <trkpt lat="50.48195" lon="2.63445">
        <ele>55.07221684</ele>
        <time>2017-09-03T11:39:43Z</time>
      </trkpt>
      <trkpt lat="50.48183" lon="2.63457">
        <ele>58.0726796</ele>
        <time>2017-09-03T11:39:47Z</time>
      </trkpt>
      <trkpt lat="50.48175" lon="2.63466">
        <ele>58.0730042</ele>
        <time>2017-09-03T11:39:52Z</time>
      </trkpt>
      <trkpt lat="50.48162" lon="2.63477">
        <ele>56.07351236</ele>
        <time>2017-09-03T11:39:57Z</time>
      </trkpt>
      <trkpt lat="50.48153" lon="2.63489">
        <ele>59.07389904</ele>
        <time>2017-09-03T11:40:01Z</time>
      </trkpt>
      <trkpt lat="50.4814" lon="2.63505">
        <ele>58.07441576</ele>
        <time>2017-09-03T11:40:05Z</time>
      </trkpt>
      <trkpt lat="50.48128" lon="2.63519">
        <ele>60.07489628</ele>
        <time>2017-09-03T11:40:10Z</time>
      </trkpt>
      <trkpt lat="50.48119" lon="2.63529">
        <ele>61.0752576</ele>
        <time>2017-09-03T11:40:14Z</time>
      </trkpt>
      <trkpt lat="50.4811" lon="2.63546">
        <ele>60.07559564</ele>
        <time>2017-09-03T11:40:18Z</time>
      </trkpt>
      <trkpt lat="50.48103" lon="2.63565">
        <ele>60.07588472</ele>
        <time>2017-09-03T11:40:22Z</time>
      </trkpt>
      <trkpt lat="50.48095" lon="2.63592">
        <ele>60.07619424</ele>
        <time>2017-09-03T11:40:27Z</time>
      </trkpt>
      <trkpt lat="50.48092" lon="2.63611">
        <ele>59.0763376</ele>
        <time>2017-09-03T11:40:31Z</time>
      </trkpt>
      <trkpt lat="50.48089" lon="2.63634">
        <ele>61.07646064</ele>
        <time>2017-09-03T11:40:36Z</time>
      </trkpt>
      <trkpt lat="50.48086" lon="2.63655">
        <ele>60.07657976</ele>
        <time>2017-09-03T11:40:41Z</time>
      </trkpt>
      <trkpt lat="50.4808" lon="2.63676">
        <ele>60.07681028</ele>
        <time>2017-09-03T11:40:45Z</time>
      </trkpt>
      <trkpt lat="50.48067" lon="2.63706">
        <ele>59.07730688</ele>
        <time>2017-09-03T11:40:49Z</time>
      </trkpt>
      <trkpt lat="50.48056" lon="2.6373">
        <ele>58.07776528</ele>
        <time>2017-09-03T11:40:53Z</time>
      </trkpt>
      <trkpt lat="50.48046" lon="2.63753">
        <ele>57.07817324</ele>
        <time>2017-09-03T11:40:58Z</time>
      </trkpt>
      <trkpt lat="50.4803" lon="2.63782">
        <ele>56.07879808</ele>
        <time>2017-09-03T11:41:03Z</time>
      </trkpt>
      <trkpt lat="50.48012" lon="2.63818">
        <ele>55.07950772</ele>
        <time>2017-09-03T11:41:07Z</time>
      </trkpt>
      <trkpt lat="50.48" lon="2.63848">
        <ele>55.07998616</ele>
        <time>2017-09-03T11:41:11Z</time>
      </trkpt>
      <trkpt lat="50.47989" lon="2.63879">
        <ele>53.08043696</ele>
        <time>2017-09-03T11:41:15Z</time>
      </trkpt>
      <trkpt lat="50.47978" lon="2.63916">
        <ele>53.08087236</ele>
        <time>2017-09-03T11:41:20Z</time>
      </trkpt>
      <trkpt lat="50.47974" lon="2.63949">
        <ele>53.08105344</ele>
        <time>2017-09-03T11:41:24Z</time>
      </trkpt>
      <trkpt lat="50.47974" lon="2.63991">
        <ele>52.08105488</ele>
        <time>2017-09-03T11:41:29Z</time>
      </trkpt>
      <trkpt lat="50.47977" lon="2.64027">
        <ele>52.08091476</ele>
        <time>2017-09-03T11:41:33Z</time>
      </trkpt>
      <trkpt lat="50.47978" lon="2.64075">
        <ele>52.0808982</ele>
        <time>2017-09-03T11:41:38Z</time>
      </trkpt>
      <trkpt lat="50.47967" lon="2.64125">
        <ele>52.081304</ele>
        <time>2017-09-03T11:41:43Z</time>
      </trkpt>
      <trkpt lat="50.47959" lon="2.64159">
        <ele>54.08165892</ele>
        <time>2017-09-03T11:41:48Z</time>
      </trkpt>
      <trkpt lat="50.47949" lon="2.64211">
        <ele>52.08202244</ele>
        <time>2017-09-03T11:41:53Z</time>
      </trkpt>
      <trkpt lat="50.47942" lon="2.64264">
        <ele>50.08231196</ele>
        <time>2017-09-03T11:41:57Z</time>
      </trkpt>
      <trkpt lat="50.47937" lon="2.64305">
        <ele>50.08253292</ele>
        <time>2017-09-03T11:42:01Z</time>
      </trkpt>
      <trkpt lat="50.47929" lon="2.64356">
        <ele>49.08284344</ele>
        <time>2017-09-03T11:42:06Z</time>
      </trkpt>
      <trkpt lat="50.47922" lon="2.64397">
        <ele>49.0831242</ele>
        <time>2017-09-03T11:42:11Z</time>
      </trkpt>
      <trkpt lat="50.47913" lon="2.64449">
        <ele>48.08346696</ele>
        <time>2017-09-03T11:42:15Z</time>
      </trkpt>
      <trkpt lat="50.47907" lon="2.6449">
        <ele>47.08370952</ele>
        <time>2017-09-03T11:42:19Z</time>
      </trkpt>
      <trkpt lat="50.47902" lon="2.64544">
        <ele>47.08392028</ele>
        <time>2017-09-03T11:42:24Z</time>
      </trkpt>
      <trkpt lat="50.47898" lon="2.64588">
        <ele>46.08407012</ele>
        <time>2017-09-03T11:42:28Z</time>
      </trkpt>
      <trkpt lat="50.47894" lon="2.64632">
        <ele>45.08424704</ele>
        <time>2017-09-03T11:42:32Z</time>
      </trkpt>
      <trkpt lat="50.47889" lon="2.64688">
        <ele>45.08445304</ele>
        <time>2017-09-03T11:42:37Z</time>
      </trkpt>
      <trkpt lat="50.47882" lon="2.64731">
        <ele>45.08470484</ele>
        <time>2017-09-03T11:42:42Z</time>
      </trkpt>
      <trkpt lat="50.47874" lon="2.64785">
        <ele>44.08503056</ele>
        <time>2017-09-03T11:42:46Z</time>
      </trkpt>
      <trkpt lat="50.47865" lon="2.64827">
        <ele>43.0853904</ele>
        <time>2017-09-03T11:42:50Z</time>
      </trkpt>
      <trkpt lat="50.47851" lon="2.64876">
        <ele>41.08596108</ele>
        <time>2017-09-03T11:42:55Z</time>
      </trkpt>
      <trkpt lat="50.47841" lon="2.64913">
        <ele>40.08637352</ele>
        <time>2017-09-03T11:43:00Z</time>
      </trkpt>
      <trkpt lat="50.47831" lon="2.64962">
        <ele>40.08677468</ele>
        <time>2017-09-03T11:43:05Z</time>
      </trkpt>
      <trkpt lat="50.47828" lon="2.65004">
        <ele>40.08688848</ele>
        <time>2017-09-03T11:43:09Z</time>
      </trkpt>
      <trkpt lat="50.4782" lon="2.65054">
        <ele>39.08721068</ele>
        <time>2017-09-03T11:43:14Z</time>
      </trkpt>
      <trkpt lat="50.47807" lon="2.65104">
        <ele>37.0877296</ele>
        <time>2017-09-03T11:43:19Z</time>
      </trkpt>
      <trkpt lat="50.47797" lon="2.65155">
        <ele>37.08814056</ele>
        <time>2017-09-03T11:43:23Z</time>
      </trkpt>
      <trkpt lat="50.4779" lon="2.65194">
        <ele>35.0884004</ele>
        <time>2017-09-03T11:43:28Z</time>
      </trkpt>
      <trkpt lat="50.47791" lon="2.65231">
        <ele>35.08837048</ele>
        <time>2017-09-03T11:43:32Z</time>
      </trkpt>
      <trkpt lat="50.47797" lon="2.65277">
        <ele>33.08812588</ele>
        <time>2017-09-03T11:43:37Z</time>
      </trkpt>
      <trkpt lat="50.47806" lon="2.65317">
        <ele>33.08774268</ele>
        <time>2017-09-03T11:43:41Z</time>
      </trkpt>
      <trkpt lat="50.47817" lon="2.65357">
        <ele>33.08731176</ele>
        <time>2017-09-03T11:43:44Z</time>
      </trkpt>
      <trkpt lat="50.47828" lon="2.65397">
        <ele>32.08689804</ele>
        <time>2017-09-03T11:43:48Z</time>
      </trkpt>
      <trkpt lat="50.47836" lon="2.6544">
        <ele>32.08657216</ele>
        <time>2017-09-03T11:43:53Z</time>
      </trkpt>
      <trkpt lat="50.47841" lon="2.6548">
        <ele>32.08634944</ele>
        <time>2017-09-03T11:43:57Z</time>
      </trkpt>
      <trkpt lat="50.47843" lon="2.6552">
        <ele>32.08628472</ele>
        <time>2017-09-03T11:44:01Z</time>
      </trkpt>
      <trkpt lat="50.47844" lon="2.65568">
        <ele>32.08623436</ele>
        <time>2017-09-03T11:44:05Z</time>
      </trkpt>
      <trkpt lat="50.47844" lon="2.65605">
        <ele>31.08624568</ele>
        <time>2017-09-03T11:44:10Z</time>
      </trkpt>
      <trkpt lat="50.47845" lon="2.65641">
        <ele>32.08620172</ele>
        <time>2017-09-03T11:44:14Z</time>
      </trkpt>
      <trkpt lat="50.47848" lon="2.65677">
        <ele>32.08607924</ele>
        <time>2017-09-03T11:44:18Z</time>
      </trkpt>
      <trkpt lat="50.47853" lon="2.65722">
        <ele>32.08587924</ele>
        <time>2017-09-03T11:44:22Z</time>
      </trkpt>
      <trkpt lat="50.47861" lon="2.65768">
        <ele>32.08556616</ele>
        <time>2017-09-03T11:44:27Z</time>
      </trkpt>
      <trkpt lat="50.47866" lon="2.65806">
        <ele>32.0853782</ele>
        <time>2017-09-03T11:44:31Z</time>
      </trkpt>
      <trkpt lat="50.4787" lon="2.6584">
        <ele>32.08520608</ele>
        <time>2017-09-03T11:44:36Z</time>
      </trkpt>
      <trkpt lat="50.47873" lon="2.6587">
        <ele>30.08509088</ele>
        <time>2017-09-03T11:44:40Z</time>
      </trkpt>
      <trkpt lat="50.47876" lon="2.65902">
        <ele>29.08496252</ele>
        <time>2017-09-03T11:44:43Z</time>
      </trkpt>
      <trkpt lat="50.47877" lon="2.65916">
        <ele>31.08493912</ele>
        <time>2017-09-03T11:44:48Z</time>
      </trkpt>
      <trkpt lat="50.47892" lon="2.65923">
        <ele>32.0843282</ele>
        <time>2017-09-03T11:44:52Z</time>
      </trkpt>
      <trkpt lat="50.47919" lon="2.65931">
        <ele>31.08324332</ele>
        <time>2017-09-03T11:44:57Z</time>
      </trkpt>
      <trkpt lat="50.47938" lon="2.65929">
        <ele>32.0824624</ele>
        <time>2017-09-03T11:45:02Z</time>
      </trkpt>
      <trkpt lat="50.47947" lon="2.65898">
        <ele>32.0821376</ele>
        <time>2017-09-03T11:45:06Z</time>
      </trkpt>
      <trkpt lat="50.4796" lon="2.6586">
        <ele>33.08161648</ele>
        <time>2017-09-03T11:45:11Z</time>
      </trkpt>
      <trkpt lat="50.47982" lon="2.65821">
        <ele>31.080723</ele>
        <time>2017-09-03T11:45:15Z</time>
      </trkpt>
      <trkpt lat="50.48001" lon="2.65796">
        <ele>31.07996488</ele>
        <time>2017-09-03T11:45:19Z</time>
      </trkpt>
      <trkpt lat="50.48023" lon="2.65779">
        <ele>30.079077</ele>
        <time>2017-09-03T11:45:24Z</time>
      </trkpt>
      <trkpt lat="50.48049" lon="2.65768">
        <ele>30.07803604</ele>
        <time>2017-09-03T11:45:28Z</time>
      </trkpt>
      <trkpt lat="50.48077" lon="2.65759">
        <ele>29.076916</ele>
        <time>2017-09-03T11:45:32Z</time>
      </trkpt>
      <trkpt lat="50.48112" lon="2.65747">
        <ele>30.07551836</ele>
        <time>2017-09-03T11:45:36Z</time>
      </trkpt>
      <trkpt lat="50.48141" lon="2.6574">
        <ele>30.0743712</ele>
        <time>2017-09-03T11:45:41Z</time>
      </trkpt>
      <trkpt lat="50.48176" lon="2.65737">
        <ele>31.072957</ele>
        <time>2017-09-03T11:45:45Z</time>
      </trkpt>
      <trkpt lat="50.48203" lon="2.65744">
        <ele>32.07188908</ele>
        <time>2017-09-03T11:45:50Z</time>
      </trkpt>
      <trkpt lat="50.48233" lon="2.65752">
        <ele>32.07069264</ele>
        <time>2017-09-03T11:45:54Z</time>
      </trkpt>
      <trkpt lat="50.48256" lon="2.65759">
        <ele>31.06976372</ele>
        <time>2017-09-03T11:45:59Z</time>
      </trkpt>
      <trkpt lat="50.48272" lon="2.65776">
        <ele>31.0691116</ele>
        <time>2017-09-03T11:46:02Z</time>
      </trkpt>
      <trkpt lat="50.4827" lon="2.6582">
        <ele>30.0692058</ele>
        <time>2017-09-03T11:46:07Z</time>
      </trkpt>
      <trkpt lat="50.48266" lon="2.65854">
        <ele>30.06935044</ele>
        <time>2017-09-03T11:46:11Z</time>
      </trkpt>
      <trkpt lat="50.48256" lon="2.6589">
        <ele>30.06977908</ele>
        <time>2017-09-03T11:46:16Z</time>
      </trkpt>
      <trkpt lat="50.48247" lon="2.6592">
        <ele>28.07013472</ele>
        <time>2017-09-03T11:46:20Z</time>
      </trkpt>
      <trkpt lat="50.48236" lon="2.65946">
        <ele>28.07056816</ele>
        <time>2017-09-03T11:46:24Z</time>
      </trkpt>
      <trkpt lat="50.48234" lon="2.65966">
        <ele>29.07062804</ele>
        <time>2017-09-03T11:46:29Z</time>
      </trkpt>
      <trkpt lat="50.4825" lon="2.65968">
        <ele>29.07000808</ele>
        <time>2017-09-03T11:46:33Z</time>
      </trkpt>
      <trkpt lat="50.48261" lon="2.65963">
        <ele>27.06957196</ele>
        <time>2017-09-03T11:46:37Z</time>
      </trkpt>
      <trkpt lat="50.48272" lon="2.65976">
        <ele>27.06913244</ele>
        <time>2017-09-03T11:46:41Z</time>
      </trkpt>
      <trkpt lat="50.48288" lon="2.65989">
        <ele>27.06847716</ele>
        <time>2017-09-03T11:46:46Z</time>
      </trkpt>
      <trkpt lat="50.48309" lon="2.66006">
        <ele>29.06763124</ele>
        <time>2017-09-03T11:46:51Z</time>
      </trkpt>
      <trkpt lat="50.4833" lon="2.66026">
        <ele>32.06679928</ele>
        <time>2017-09-03T11:46:55Z</time>
      </trkpt>
      <trkpt lat="50.48349" lon="2.66047">
        <ele>29.06604064</ele>
        <time>2017-09-03T11:46:59Z</time>
      </trkpt>
      <trkpt lat="50.48366" lon="2.66062">
        <ele>30.06535728</ele>
        <time>2017-09-03T11:47:04Z</time>
      </trkpt>
      <trkpt lat="50.48379" lon="2.66083">
        <ele>28.0648558</ele>
        <time>2017-09-03T11:47:09Z</time>
      </trkpt>
      <trkpt lat="50.48393" lon="2.66101">
        <ele>28.06429384</ele>
        <time>2017-09-03T11:47:12Z</time>
      </trkpt>
      <trkpt lat="50.48409" lon="2.66111">
        <ele>28.06366188</ele>
        <time>2017-09-03T11:47:17Z</time>
      </trkpt>
      <trkpt lat="50.48408" lon="2.66138">
        <ele>29.06368956</ele>
        <time>2017-09-03T11:47:20Z</time>
      </trkpt>
      <trkpt lat="50.48402" lon="2.66155">
        <ele>28.0639392</ele>
        <time>2017-09-03T11:47:24Z</time>
      </trkpt>
      <trkpt lat="50.48398" lon="2.66166">
        <ele>28.0640896</ele>
        <time>2017-09-03T11:47:30Z</time>
      </trkpt>
      <trkpt lat="50.48393" lon="2.66178">
        <ele>27.06428004</ele>
        <time>2017-09-03T11:47:37Z</time>
      </trkpt>
      <trkpt lat="50.48384" lon="2.66178">
        <ele>29.06463608</ele>
        <time>2017-09-03T11:47:52Z</time>
      </trkpt>
      <trkpt lat="50.48383" lon="2.66182">
        <ele>29.06470176</ele>
        <time>2017-09-03T11:49:10Z</time>
      </trkpt>
      <trkpt lat="50.48383" lon="2.66182">
        <ele>29.06470176</ele>
        <time>2017-09-03T11:49:10Z</time>
      </trkpt>
    </trkseg>
  </trk>
</gpx>